<?xml version="1.0" encoding="UTF-8" standalone="no" ?>
<gpx xmlns="http://www.topografix.com/GPX/1/1" xmlns:xsi="http://www.w3.org/2001/XMLSchema-instance" xsi:schemaLocation="http://www.topografix.com/GPX/1/1 http://www.topografix.com/GPX/1/1/gpx.xsd" version="1.1" creator="VisuGPX - https://www.visugpx.com">
  <metadata>
    <name>Orlienas-Soucieu</name>
    <desc><![CDATA[Circuit 17,6km. au nord d\'Orlienas (69)]]></desc>
  </metadata>
  <trk>
    <name><![CDATA[Orlienas-Soucieu_1]]></name>
    <trkseg>
      <trkpt lat="45.6594" lon="4.71891">
        <ele>318.7</ele>
        <time>2015-01-04T10:02:12Z</time>
      </trkpt>
      <trkpt lat="45.65931" lon="4.71893">
        <ele>318.7</ele>
        <time>2015-01-04T10:02:17Z</time>
      </trkpt>
      <trkpt lat="45.65925" lon="4.71898">
        <ele>288.06137</ele>
        <time>2015-01-04T10:02:22Z</time>
      </trkpt>
      <trkpt lat="45.65918" lon="4.719">
        <ele>288.06137</ele>
        <time>2015-01-04T10:02:27Z</time>
      </trkpt>
      <trkpt lat="45.65909" lon="4.71889">
        <ele>283.96115</ele>
        <time>2015-01-04T10:02:32Z</time>
      </trkpt>
      <trkpt lat="45.65902" lon="4.71886">
        <ele>283.96115</ele>
        <time>2015-01-04T10:02:37Z</time>
      </trkpt>
      <trkpt lat="45.65893" lon="4.71886">
        <ele>288.26697</ele>
        <time>2015-01-04T10:02:42Z</time>
      </trkpt>
      <trkpt lat="45.65889" lon="4.7188">
        <ele>288.26697</ele>
        <time>2015-01-04T10:02:47Z</time>
      </trkpt>
      <trkpt lat="45.65886" lon="4.71878">
        <ele>291.09198</ele>
        <time>2015-01-04T10:02:52Z</time>
      </trkpt>
      <trkpt lat="45.65882" lon="4.71874">
        <ele>291.09198</ele>
        <time>2015-01-04T10:02:57Z</time>
      </trkpt>
      <trkpt lat="45.65877" lon="4.71876">
        <ele>293.7198</ele>
        <time>2015-01-04T10:03:02Z</time>
      </trkpt>
      <trkpt lat="45.65874" lon="4.71883">
        <ele>293.7198</ele>
        <time>2015-01-04T10:03:07Z</time>
      </trkpt>
      <trkpt lat="45.65871" lon="4.7189">
        <ele>296.49826</ele>
        <time>2015-01-04T10:03:12Z</time>
      </trkpt>
      <trkpt lat="45.65869" lon="4.71898">
        <ele>296.49826</ele>
        <time>2015-01-04T10:03:17Z</time>
      </trkpt>
      <trkpt lat="45.65866" lon="4.71904">
        <ele>299.41006</ele>
        <time>2015-01-04T10:03:22Z</time>
      </trkpt>
      <trkpt lat="45.65865" lon="4.71912">
        <ele>299.41006</ele>
        <time>2015-01-04T10:03:27Z</time>
      </trkpt>
      <trkpt lat="45.65864" lon="4.71919">
        <ele>302.27206</ele>
        <time>2015-01-04T10:03:32Z</time>
      </trkpt>
      <trkpt lat="45.65865" lon="4.71928">
        <ele>302.27206</ele>
        <time>2015-01-04T10:03:37Z</time>
      </trkpt>
      <trkpt lat="45.65866" lon="4.71937">
        <ele>304.84503</ele>
        <time>2015-01-04T10:03:42Z</time>
      </trkpt>
      <trkpt lat="45.65867" lon="4.71945">
        <ele>304.84503</ele>
        <time>2015-01-04T10:03:47Z</time>
      </trkpt>
      <trkpt lat="45.65867" lon="4.71956">
        <ele>306.98578</ele>
        <time>2015-01-04T10:03:52Z</time>
      </trkpt>
      <trkpt lat="45.65864" lon="4.71962">
        <ele>306.98578</ele>
        <time>2015-01-04T10:03:57Z</time>
      </trkpt>
      <trkpt lat="45.65864" lon="4.71968">
        <ele>308.71216</ele>
        <time>2015-01-04T10:04:02Z</time>
      </trkpt>
      <trkpt lat="45.65861" lon="4.71975">
        <ele>308.71216</ele>
        <time>2015-01-04T10:04:07Z</time>
      </trkpt>
      <trkpt lat="45.65858" lon="4.71979">
        <ele>310.0944</ele>
        <time>2015-01-04T10:04:12Z</time>
      </trkpt>
      <trkpt lat="45.65858" lon="4.71979">
        <ele>310.0944</ele>
        <time>2015-01-04T10:04:17Z</time>
      </trkpt>
      <trkpt lat="45.6586" lon="4.71979">
        <ele>310.0944</ele>
        <time>2015-01-04T10:04:22Z</time>
      </trkpt>
      <trkpt lat="45.6586" lon="4.71979">
        <ele>310.0944</ele>
        <time>2015-01-04T10:04:27Z</time>
      </trkpt>
      <trkpt lat="45.65861" lon="4.71978">
        <ele>310.0944</ele>
        <time>2015-01-04T10:04:32Z</time>
      </trkpt>
      <trkpt lat="45.65861" lon="4.71978">
        <ele>310.0944</ele>
        <time>2015-01-04T10:04:37Z</time>
      </trkpt>
      <trkpt lat="45.65861" lon="4.71978">
        <ele>310.0944</ele>
        <time>2015-01-04T10:04:42Z</time>
      </trkpt>
      <trkpt lat="45.65864" lon="4.71978">
        <ele>310.0944</ele>
        <time>2015-01-04T10:04:52Z</time>
      </trkpt>
      <trkpt lat="45.65865" lon="4.7198">
        <ele>310.0944</ele>
        <time>2015-01-04T10:04:57Z</time>
      </trkpt>
      <trkpt lat="45.65865" lon="4.71986">
        <ele>311.238</ele>
        <time>2015-01-04T10:05:02Z</time>
      </trkpt>
      <trkpt lat="45.65865" lon="4.71994">
        <ele>311.238</ele>
        <time>2015-01-04T10:05:07Z</time>
      </trkpt>
      <trkpt lat="45.65863" lon="4.72004">
        <ele>311.96237</ele>
        <time>2015-01-04T10:05:12Z</time>
      </trkpt>
      <trkpt lat="45.65861" lon="4.72012">
        <ele>311.96237</ele>
        <time>2015-01-04T10:05:17Z</time>
      </trkpt>
      <trkpt lat="45.65858" lon="4.72021">
        <ele>312.42496</ele>
        <time>2015-01-04T10:05:22Z</time>
      </trkpt>
      <trkpt lat="45.65855" lon="4.72031">
        <ele>312.42496</ele>
        <time>2015-01-04T10:05:27Z</time>
      </trkpt>
      <trkpt lat="45.65853" lon="4.72041">
        <ele>312.58942</ele>
        <time>2015-01-04T10:05:32Z</time>
      </trkpt>
      <trkpt lat="45.6585" lon="4.72053">
        <ele>312.58942</ele>
        <time>2015-01-04T10:05:37Z</time>
      </trkpt>
      <trkpt lat="45.65849" lon="4.72062">
        <ele>312.49036</ele>
        <time>2015-01-04T10:05:42Z</time>
      </trkpt>
      <trkpt lat="45.65848" lon="4.72069">
        <ele>312.49036</ele>
        <time>2015-01-04T10:05:47Z</time>
      </trkpt>
      <trkpt lat="45.65852" lon="4.72074">
        <ele>312.1264</ele>
        <time>2015-01-04T10:05:52Z</time>
      </trkpt>
      <trkpt lat="45.65859" lon="4.72077">
        <ele>312.1264</ele>
        <time>2015-01-04T10:05:57Z</time>
      </trkpt>
      <trkpt lat="45.65868" lon="4.7208">
        <ele>311.60733</ele>
        <time>2015-01-04T10:06:02Z</time>
      </trkpt>
      <trkpt lat="45.65874" lon="4.72083">
        <ele>311.60733</ele>
        <time>2015-01-04T10:06:07Z</time>
      </trkpt>
      <trkpt lat="45.65877" lon="4.72084">
        <ele>310.88605</ele>
        <time>2015-01-04T10:06:12Z</time>
      </trkpt>
      <trkpt lat="45.65883" lon="4.72085">
        <ele>310.88605</ele>
        <time>2015-01-04T10:06:17Z</time>
      </trkpt>
      <trkpt lat="45.65888" lon="4.7209">
        <ele>309.88898</ele>
        <time>2015-01-04T10:06:22Z</time>
      </trkpt>
      <trkpt lat="45.65895" lon="4.72093">
        <ele>309.88898</ele>
        <time>2015-01-04T10:06:27Z</time>
      </trkpt>
      <trkpt lat="45.659" lon="4.72095">
        <ele>308.64175</ele>
        <time>2015-01-04T10:06:32Z</time>
      </trkpt>
      <trkpt lat="45.65906" lon="4.72098">
        <ele>308.64175</ele>
        <time>2015-01-04T10:06:37Z</time>
      </trkpt>
      <trkpt lat="45.65911" lon="4.72102">
        <ele>307.1351</ele>
        <time>2015-01-04T10:06:42Z</time>
      </trkpt>
      <trkpt lat="45.65915" lon="4.72106">
        <ele>307.1351</ele>
        <time>2015-01-04T10:06:47Z</time>
      </trkpt>
      <trkpt lat="45.65922" lon="4.72114">
        <ele>305.492</ele>
        <time>2015-01-04T10:06:52Z</time>
      </trkpt>
      <trkpt lat="45.65928" lon="4.72121">
        <ele>305.492</ele>
        <time>2015-01-04T10:06:57Z</time>
      </trkpt>
      <trkpt lat="45.65935" lon="4.72123">
        <ele>303.6726</ele>
        <time>2015-01-04T10:07:02Z</time>
      </trkpt>
      <trkpt lat="45.65942" lon="4.72127">
        <ele>303.6726</ele>
        <time>2015-01-04T10:07:07Z</time>
      </trkpt>
      <trkpt lat="45.65947" lon="4.72129">
        <ele>301.75516</ele>
        <time>2015-01-04T10:07:12Z</time>
      </trkpt>
      <trkpt lat="45.65952" lon="4.72129">
        <ele>301.75516</ele>
        <time>2015-01-04T10:07:17Z</time>
      </trkpt>
      <trkpt lat="45.65957" lon="4.72128">
        <ele>299.72217</ele>
        <time>2015-01-04T10:07:22Z</time>
      </trkpt>
      <trkpt lat="45.65961" lon="4.72127">
        <ele>299.72217</ele>
        <time>2015-01-04T10:07:27Z</time>
      </trkpt>
      <trkpt lat="45.65967" lon="4.72129">
        <ele>297.79684</ele>
        <time>2015-01-04T10:07:32Z</time>
      </trkpt>
      <trkpt lat="45.6597" lon="4.72131">
        <ele>297.79684</ele>
        <time>2015-01-04T10:07:37Z</time>
      </trkpt>
      <trkpt lat="45.65977" lon="4.72134">
        <ele>295.9553</ele>
        <time>2015-01-04T10:07:42Z</time>
      </trkpt>
      <trkpt lat="45.65987" lon="4.72134">
        <ele>294.1903</ele>
        <time>2015-01-04T10:07:47Z</time>
      </trkpt>
      <trkpt lat="45.65992" lon="4.72134">
        <ele>294.1903</ele>
        <time>2015-01-04T10:07:52Z</time>
      </trkpt>
      <trkpt lat="45.65999" lon="4.72133">
        <ele>292.37097</ele>
        <time>2015-01-04T10:07:57Z</time>
      </trkpt>
      <trkpt lat="45.6601" lon="4.72132">
        <ele>290.62735</ele>
        <time>2015-01-04T10:08:02Z</time>
      </trkpt>
      <trkpt lat="45.66014" lon="4.72133">
        <ele>290.62735</ele>
        <time>2015-01-04T10:08:07Z</time>
      </trkpt>
      <trkpt lat="45.66016" lon="4.72136">
        <ele>290.62735</ele>
        <time>2015-01-04T10:08:12Z</time>
      </trkpt>
      <trkpt lat="45.66022" lon="4.72137">
        <ele>288.8863</ele>
        <time>2015-01-04T10:08:17Z</time>
      </trkpt>
      <trkpt lat="45.66026" lon="4.72136">
        <ele>288.8863</ele>
        <time>2015-01-04T10:08:22Z</time>
      </trkpt>
      <trkpt lat="45.66033" lon="4.72133">
        <ele>287.30304</ele>
        <time>2015-01-04T10:08:27Z</time>
      </trkpt>
      <trkpt lat="45.66037" lon="4.72133">
        <ele>287.30304</ele>
        <time>2015-01-04T10:08:32Z</time>
      </trkpt>
      <trkpt lat="45.66042" lon="4.72131">
        <ele>285.77283</ele>
        <time>2015-01-04T10:08:37Z</time>
      </trkpt>
      <trkpt lat="45.66048" lon="4.72131">
        <ele>285.77283</ele>
        <time>2015-01-04T10:08:42Z</time>
      </trkpt>
      <trkpt lat="45.66055" lon="4.72129">
        <ele>284.25403</ele>
        <time>2015-01-04T10:08:47Z</time>
      </trkpt>
      <trkpt lat="45.66061" lon="4.72132">
        <ele>284.25403</ele>
        <time>2015-01-04T10:08:52Z</time>
      </trkpt>
      <trkpt lat="45.66066" lon="4.72136">
        <ele>282.53888</ele>
        <time>2015-01-04T10:08:57Z</time>
      </trkpt>
      <trkpt lat="45.66074" lon="4.72139">
        <ele>282.53888</ele>
        <time>2015-01-04T10:09:02Z</time>
      </trkpt>
      <trkpt lat="45.66079" lon="4.72142">
        <ele>280.57303</ele>
        <time>2015-01-04T10:09:07Z</time>
      </trkpt>
      <trkpt lat="45.66083" lon="4.72147">
        <ele>280.57303</ele>
        <time>2015-01-04T10:09:12Z</time>
      </trkpt>
      <trkpt lat="45.66085" lon="4.72149">
        <ele>280.57303</ele>
        <time>2015-01-04T10:09:17Z</time>
      </trkpt>
      <trkpt lat="45.66086" lon="4.72152">
        <ele>278.31985</ele>
        <time>2015-01-04T10:09:22Z</time>
      </trkpt>
      <trkpt lat="45.66086" lon="4.72154">
        <ele>278.31985</ele>
        <time>2015-01-04T10:09:27Z</time>
      </trkpt>
      <trkpt lat="45.66089" lon="4.72161">
        <ele>278.31985</ele>
        <time>2015-01-04T10:09:32Z</time>
      </trkpt>
      <trkpt lat="45.66091" lon="4.72167">
        <ele>276.19125</ele>
        <time>2015-01-04T10:09:37Z</time>
      </trkpt>
      <trkpt lat="45.66091" lon="4.72168">
        <ele>276.19125</ele>
        <time>2015-01-04T10:09:42Z</time>
      </trkpt>
      <trkpt lat="45.66094" lon="4.72174">
        <ele>276.19125</ele>
        <time>2015-01-04T10:09:47Z</time>
      </trkpt>
      <trkpt lat="45.66095" lon="4.72179">
        <ele>274.2167</ele>
        <time>2015-01-04T10:09:52Z</time>
      </trkpt>
      <trkpt lat="45.66103" lon="4.72192">
        <ele>272.35065</ele>
        <time>2015-01-04T10:09:57Z</time>
      </trkpt>
      <trkpt lat="45.66109" lon="4.72203">
        <ele>270.63727</ele>
        <time>2015-01-04T10:10:02Z</time>
      </trkpt>
      <trkpt lat="45.66114" lon="4.72213">
        <ele>270.63727</ele>
        <time>2015-01-04T10:10:07Z</time>
      </trkpt>
      <trkpt lat="45.66116" lon="4.72222">
        <ele>269.14676</ele>
        <time>2015-01-04T10:10:12Z</time>
      </trkpt>
      <trkpt lat="45.66116" lon="4.72226">
        <ele>269.14676</ele>
        <time>2015-01-04T10:10:17Z</time>
      </trkpt>
      <trkpt lat="45.66119" lon="4.72236">
        <ele>267.8252</ele>
        <time>2015-01-04T10:10:22Z</time>
      </trkpt>
      <trkpt lat="45.66121" lon="4.72244">
        <ele>267.8252</ele>
        <time>2015-01-04T10:10:27Z</time>
      </trkpt>
      <trkpt lat="45.66124" lon="4.72252">
        <ele>266.50116</ele>
        <time>2015-01-04T10:10:32Z</time>
      </trkpt>
      <trkpt lat="45.66125" lon="4.72257">
        <ele>266.50116</ele>
        <time>2015-01-04T10:10:37Z</time>
      </trkpt>
      <trkpt lat="45.66126" lon="4.72261">
        <ele>266.50116</ele>
        <time>2015-01-04T10:10:42Z</time>
      </trkpt>
      <trkpt lat="45.66127" lon="4.72267">
        <ele>265.14764</ele>
        <time>2015-01-04T10:10:47Z</time>
      </trkpt>
      <trkpt lat="45.6613" lon="4.72276">
        <ele>265.14764</ele>
        <time>2015-01-04T10:10:52Z</time>
      </trkpt>
      <trkpt lat="45.66132" lon="4.72287">
        <ele>263.8744</ele>
        <time>2015-01-04T10:10:57Z</time>
      </trkpt>
      <trkpt lat="45.66132" lon="4.72293">
        <ele>263.8744</ele>
        <time>2015-01-04T10:11:02Z</time>
      </trkpt>
      <trkpt lat="45.66131" lon="4.723">
        <ele>262.81323</ele>
        <time>2015-01-04T10:11:07Z</time>
      </trkpt>
      <trkpt lat="45.66131" lon="4.72309">
        <ele>262.81323</ele>
        <time>2015-01-04T10:11:12Z</time>
      </trkpt>
      <trkpt lat="45.66131" lon="4.72317">
        <ele>261.99524</ele>
        <time>2015-01-04T10:11:17Z</time>
      </trkpt>
      <trkpt lat="45.6613" lon="4.72326">
        <ele>261.99524</ele>
        <time>2015-01-04T10:11:22Z</time>
      </trkpt>
      <trkpt lat="45.66127" lon="4.72334">
        <ele>261.4023</ele>
        <time>2015-01-04T10:11:27Z</time>
      </trkpt>
      <trkpt lat="45.66127" lon="4.7234">
        <ele>261.4023</ele>
        <time>2015-01-04T10:11:32Z</time>
      </trkpt>
      <trkpt lat="45.66126" lon="4.72346">
        <ele>261.4023</ele>
        <time>2015-01-04T10:11:37Z</time>
      </trkpt>
      <trkpt lat="45.66125" lon="4.72353">
        <ele>261.13718</ele>
        <time>2015-01-04T10:11:42Z</time>
      </trkpt>
      <trkpt lat="45.66123" lon="4.72357">
        <ele>261.13718</ele>
        <time>2015-01-04T10:11:47Z</time>
      </trkpt>
      <trkpt lat="45.66121" lon="4.72363">
        <ele>261.13718</ele>
        <time>2015-01-04T10:11:52Z</time>
      </trkpt>
      <trkpt lat="45.6612" lon="4.72369">
        <ele>261.20242</ele>
        <time>2015-01-04T10:11:57Z</time>
      </trkpt>
      <trkpt lat="45.6612" lon="4.72372">
        <ele>261.20242</ele>
        <time>2015-01-04T10:12:02Z</time>
      </trkpt>
      <trkpt lat="45.66116" lon="4.72381">
        <ele>261.62903</ele>
        <time>2015-01-04T10:12:07Z</time>
      </trkpt>
      <trkpt lat="45.66115" lon="4.72389">
        <ele>261.62903</ele>
        <time>2015-01-04T10:12:12Z</time>
      </trkpt>
      <trkpt lat="45.66117" lon="4.72396">
        <ele>262.26306</ele>
        <time>2015-01-04T10:12:17Z</time>
      </trkpt>
      <trkpt lat="45.66117" lon="4.72399">
        <ele>262.26306</ele>
        <time>2015-01-04T10:12:22Z</time>
      </trkpt>
      <trkpt lat="45.66124" lon="4.72414">
        <ele>263.0374</ele>
        <time>2015-01-04T10:12:27Z</time>
      </trkpt>
      <trkpt lat="45.66126" lon="4.72419">
        <ele>263.0374</ele>
        <time>2015-01-04T10:12:32Z</time>
      </trkpt>
      <trkpt lat="45.66126" lon="4.72423">
        <ele>263.0374</ele>
        <time>2015-01-04T10:12:37Z</time>
      </trkpt>
      <trkpt lat="45.66127" lon="4.72427">
        <ele>263.99536</ele>
        <time>2015-01-04T10:12:42Z</time>
      </trkpt>
      <trkpt lat="45.66128" lon="4.72433">
        <ele>263.99536</ele>
        <time>2015-01-04T10:12:47Z</time>
      </trkpt>
      <trkpt lat="45.66128" lon="4.72435">
        <ele>263.99536</ele>
        <time>2015-01-04T10:12:52Z</time>
      </trkpt>
      <trkpt lat="45.66128" lon="4.72435">
        <ele>263.99536</ele>
        <time>2015-01-04T10:12:57Z</time>
      </trkpt>
      <trkpt lat="45.66129" lon="4.72435">
        <ele>263.99536</ele>
        <time>2015-01-04T10:13:02Z</time>
      </trkpt>
      <trkpt lat="45.66128" lon="4.72445">
        <ele>265.23602</ele>
        <time>2015-01-04T10:13:07Z</time>
      </trkpt>
      <trkpt lat="45.66126" lon="4.72456">
        <ele>265.23602</ele>
        <time>2015-01-04T10:13:12Z</time>
      </trkpt>
      <trkpt lat="45.66124" lon="4.72465">
        <ele>266.65515</ele>
        <time>2015-01-04T10:13:17Z</time>
      </trkpt>
      <trkpt lat="45.66122" lon="4.72471">
        <ele>266.65515</ele>
        <time>2015-01-04T10:13:22Z</time>
      </trkpt>
      <trkpt lat="45.66122" lon="4.72478">
        <ele>268.2015</ele>
        <time>2015-01-04T10:13:27Z</time>
      </trkpt>
      <trkpt lat="45.66122" lon="4.7249">
        <ele>268.2015</ele>
        <time>2015-01-04T10:13:32Z</time>
      </trkpt>
      <trkpt lat="45.66124" lon="4.72498">
        <ele>269.7388</ele>
        <time>2015-01-04T10:13:37Z</time>
      </trkpt>
      <trkpt lat="45.66123" lon="4.72505">
        <ele>269.7388</ele>
        <time>2015-01-04T10:13:42Z</time>
      </trkpt>
      <trkpt lat="45.66123" lon="4.72513">
        <ele>271.39496</ele>
        <time>2015-01-04T10:13:47Z</time>
      </trkpt>
      <trkpt lat="45.66127" lon="4.72521">
        <ele>271.39496</ele>
        <time>2015-01-04T10:13:52Z</time>
      </trkpt>
      <trkpt lat="45.66127" lon="4.72525">
        <ele>273.15375</ele>
        <time>2015-01-04T10:13:57Z</time>
      </trkpt>
      <trkpt lat="45.66134" lon="4.72532">
        <ele>273.15375</ele>
        <time>2015-01-04T10:14:02Z</time>
      </trkpt>
      <trkpt lat="45.66137" lon="4.72532">
        <ele>274.8376</ele>
        <time>2015-01-04T10:14:07Z</time>
      </trkpt>
      <trkpt lat="45.6614" lon="4.72539">
        <ele>274.8376</ele>
        <time>2015-01-04T10:14:12Z</time>
      </trkpt>
      <trkpt lat="45.66147" lon="4.72547">
        <ele>276.60858</ele>
        <time>2015-01-04T10:14:17Z</time>
      </trkpt>
      <trkpt lat="45.66149" lon="4.72552">
        <ele>276.60858</ele>
        <time>2015-01-04T10:14:22Z</time>
      </trkpt>
      <trkpt lat="45.66151" lon="4.72559">
        <ele>278.3946</ele>
        <time>2015-01-04T10:14:27Z</time>
      </trkpt>
      <trkpt lat="45.6615" lon="4.72563">
        <ele>278.3946</ele>
        <time>2015-01-04T10:14:32Z</time>
      </trkpt>
      <trkpt lat="45.6615" lon="4.7257">
        <ele>278.3946</ele>
        <time>2015-01-04T10:14:37Z</time>
      </trkpt>
      <trkpt lat="45.66147" lon="4.72575">
        <ele>280.30573</ele>
        <time>2015-01-04T10:14:42Z</time>
      </trkpt>
      <trkpt lat="45.66144" lon="4.72578">
        <ele>280.30573</ele>
        <time>2015-01-04T10:14:47Z</time>
      </trkpt>
      <trkpt lat="45.6614" lon="4.72582">
        <ele>280.30573</ele>
        <time>2015-01-04T10:14:52Z</time>
      </trkpt>
      <trkpt lat="45.66134" lon="4.72591">
        <ele>282.5454</ele>
        <time>2015-01-04T10:14:57Z</time>
      </trkpt>
      <trkpt lat="45.66131" lon="4.72603">
        <ele>282.5454</ele>
        <time>2015-01-04T10:15:02Z</time>
      </trkpt>
      <trkpt lat="45.6613" lon="4.72608">
        <ele>284.78802</ele>
        <time>2015-01-04T10:15:07Z</time>
      </trkpt>
      <trkpt lat="45.66129" lon="4.72612">
        <ele>284.78802</ele>
        <time>2015-01-04T10:15:12Z</time>
      </trkpt>
      <trkpt lat="45.66124" lon="4.72617">
        <ele>286.98282</ele>
        <time>2015-01-04T10:15:17Z</time>
      </trkpt>
      <trkpt lat="45.66121" lon="4.72621">
        <ele>286.98282</ele>
        <time>2015-01-04T10:15:22Z</time>
      </trkpt>
      <trkpt lat="45.6612" lon="4.72626">
        <ele>286.98282</ele>
        <time>2015-01-04T10:15:27Z</time>
      </trkpt>
      <trkpt lat="45.66119" lon="4.72632">
        <ele>289.18518</ele>
        <time>2015-01-04T10:15:32Z</time>
      </trkpt>
      <trkpt lat="45.66116" lon="4.72644">
        <ele>289.18518</ele>
        <time>2015-01-04T10:15:37Z</time>
      </trkpt>
      <trkpt lat="45.66114" lon="4.72655">
        <ele>291.31534</ele>
        <time>2015-01-04T10:15:42Z</time>
      </trkpt>
      <trkpt lat="45.66112" lon="4.72665">
        <ele>291.31534</ele>
        <time>2015-01-04T10:15:47Z</time>
      </trkpt>
      <trkpt lat="45.66111" lon="4.72676">
        <ele>293.47433</ele>
        <time>2015-01-04T10:15:52Z</time>
      </trkpt>
      <trkpt lat="45.6611" lon="4.72688">
        <ele>293.47433</ele>
        <time>2015-01-04T10:15:57Z</time>
      </trkpt>
      <trkpt lat="45.66111" lon="4.72696">
        <ele>295.61035</ele>
        <time>2015-01-04T10:16:02Z</time>
      </trkpt>
      <trkpt lat="45.66112" lon="4.72702">
        <ele>295.61035</ele>
        <time>2015-01-04T10:16:07Z</time>
      </trkpt>
      <trkpt lat="45.66112" lon="4.72706">
        <ele>295.61035</ele>
        <time>2015-01-04T10:16:12Z</time>
      </trkpt>
      <trkpt lat="45.66112" lon="4.72712">
        <ele>297.53082</ele>
        <time>2015-01-04T10:16:17Z</time>
      </trkpt>
      <trkpt lat="45.66115" lon="4.72721">
        <ele>297.53082</ele>
        <time>2015-01-04T10:16:22Z</time>
      </trkpt>
      <trkpt lat="45.66118" lon="4.72728">
        <ele>299.24698</ele>
        <time>2015-01-04T10:16:27Z</time>
      </trkpt>
      <trkpt lat="45.66122" lon="4.72729">
        <ele>299.24698</ele>
        <time>2015-01-04T10:16:32Z</time>
      </trkpt>
      <trkpt lat="45.66124" lon="4.72734">
        <ele>299.24698</ele>
        <time>2015-01-04T10:16:37Z</time>
      </trkpt>
      <trkpt lat="45.66123" lon="4.72732">
        <ele>300.84207</ele>
        <time>2015-01-04T10:16:42Z</time>
      </trkpt>
      <trkpt lat="45.66123" lon="4.72731">
        <ele>300.84207</ele>
        <time>2015-01-04T10:16:47Z</time>
      </trkpt>
      <trkpt lat="45.66122" lon="4.72729">
        <ele>300.84207</ele>
        <time>2015-01-04T10:16:52Z</time>
      </trkpt>
      <trkpt lat="45.66122" lon="4.72729">
        <ele>300.84207</ele>
        <time>2015-01-04T10:16:57Z</time>
      </trkpt>
      <trkpt lat="45.66122" lon="4.72729">
        <ele>300.84207</ele>
        <time>2015-01-04T10:17:02Z</time>
      </trkpt>
      <trkpt lat="45.66121" lon="4.72729">
        <ele>300.84207</ele>
        <time>2015-01-04T10:17:07Z</time>
      </trkpt>
      <trkpt lat="45.66121" lon="4.72729">
        <ele>300.84207</ele>
        <time>2015-01-04T10:17:12Z</time>
      </trkpt>
      <trkpt lat="45.66119" lon="4.7273">
        <ele>300.84207</ele>
        <time>2015-01-04T10:17:17Z</time>
      </trkpt>
      <trkpt lat="45.66119" lon="4.7273">
        <ele>300.84207</ele>
        <time>2015-01-04T10:17:22Z</time>
      </trkpt>
      <trkpt lat="45.6612" lon="4.7273">
        <ele>300.84207</ele>
        <time>2015-01-04T10:17:27Z</time>
      </trkpt>
      <trkpt lat="45.6612" lon="4.7273">
        <ele>300.84207</ele>
        <time>2015-01-04T10:17:32Z</time>
      </trkpt>
      <trkpt lat="45.66123" lon="4.72734">
        <ele>302.56677</ele>
        <time>2015-01-04T10:17:37Z</time>
      </trkpt>
      <trkpt lat="45.66123" lon="4.72735">
        <ele>302.56677</ele>
        <time>2015-01-04T10:17:42Z</time>
      </trkpt>
      <trkpt lat="45.66123" lon="4.72734">
        <ele>302.56677</ele>
        <time>2015-01-04T10:17:47Z</time>
      </trkpt>
      <trkpt lat="45.66123" lon="4.72734">
        <ele>302.56677</ele>
        <time>2015-01-04T10:17:52Z</time>
      </trkpt>
      <trkpt lat="45.66124" lon="4.72733">
        <ele>302.56677</ele>
        <time>2015-01-04T10:17:57Z</time>
      </trkpt>
      <trkpt lat="45.66125" lon="4.72732">
        <ele>302.56677</ele>
        <time>2015-01-04T10:18:02Z</time>
      </trkpt>
      <trkpt lat="45.66124" lon="4.7273">
        <ele>302.56677</ele>
        <time>2015-01-04T10:18:07Z</time>
      </trkpt>
      <trkpt lat="45.66124" lon="4.7273">
        <ele>302.56677</ele>
        <time>2015-01-04T10:18:12Z</time>
      </trkpt>
      <trkpt lat="45.66123" lon="4.7273">
        <ele>302.56677</ele>
        <time>2015-01-04T10:18:17Z</time>
      </trkpt>
      <trkpt lat="45.66123" lon="4.7273">
        <ele>302.56677</ele>
        <time>2015-01-04T10:18:22Z</time>
      </trkpt>
      <trkpt lat="45.66124" lon="4.72727">
        <ele>304.3926</ele>
        <time>2015-01-04T10:18:27Z</time>
      </trkpt>
      <trkpt lat="45.66125" lon="4.72724">
        <ele>304.3926</ele>
        <time>2015-01-04T10:18:32Z</time>
      </trkpt>
      <trkpt lat="45.66124" lon="4.72723">
        <ele>304.3926</ele>
        <time>2015-01-04T10:18:37Z</time>
      </trkpt>
      <trkpt lat="45.66124" lon="4.72723">
        <ele>304.3926</ele>
        <time>2015-01-04T10:18:42Z</time>
      </trkpt>
      <trkpt lat="45.66124" lon="4.72723">
        <ele>304.3926</ele>
        <time>2015-01-04T10:18:47Z</time>
      </trkpt>
      <trkpt lat="45.66124" lon="4.72724">
        <ele>304.3926</ele>
        <time>2015-01-04T10:19:02Z</time>
      </trkpt>
      <trkpt lat="45.66123" lon="4.72727">
        <ele>304.3926</ele>
        <time>2015-01-04T10:19:07Z</time>
      </trkpt>
      <trkpt lat="45.66123" lon="4.72728">
        <ele>304.3926</ele>
        <time>2015-01-04T10:19:12Z</time>
      </trkpt>
      <trkpt lat="45.66123" lon="4.72729">
        <ele>304.3926</ele>
        <time>2015-01-04T10:19:17Z</time>
      </trkpt>
      <trkpt lat="45.66122" lon="4.72729">
        <ele>304.3926</ele>
        <time>2015-01-04T10:19:22Z</time>
      </trkpt>
      <trkpt lat="45.66122" lon="4.72729">
        <ele>306.24982</ele>
        <time>2015-01-04T10:19:27Z</time>
      </trkpt>
      <trkpt lat="45.66122" lon="4.72728">
        <ele>306.24982</ele>
        <time>2015-01-04T10:19:32Z</time>
      </trkpt>
      <trkpt lat="45.66122" lon="4.7273">
        <ele>306.24982</ele>
        <time>2015-01-04T10:19:37Z</time>
      </trkpt>
      <trkpt lat="45.66121" lon="4.72733">
        <ele>306.24982</ele>
        <time>2015-01-04T10:19:42Z</time>
      </trkpt>
      <trkpt lat="45.66115" lon="4.72739">
        <ele>307.973</ele>
        <time>2015-01-04T10:19:47Z</time>
      </trkpt>
      <trkpt lat="45.66112" lon="4.72744">
        <ele>307.973</ele>
        <time>2015-01-04T10:19:52Z</time>
      </trkpt>
      <trkpt lat="45.66111" lon="4.72755">
        <ele>309.4818</ele>
        <time>2015-01-04T10:19:57Z</time>
      </trkpt>
      <trkpt lat="45.66109" lon="4.72757">
        <ele>309.4818</ele>
        <time>2015-01-04T10:20:02Z</time>
      </trkpt>
      <trkpt lat="45.6611" lon="4.72771">
        <ele>310.74585</ele>
        <time>2015-01-04T10:20:07Z</time>
      </trkpt>
      <trkpt lat="45.66113" lon="4.72784">
        <ele>311.80988</ele>
        <time>2015-01-04T10:20:12Z</time>
      </trkpt>
      <trkpt lat="45.66116" lon="4.72792">
        <ele>311.80988</ele>
        <time>2015-01-04T10:20:17Z</time>
      </trkpt>
      <trkpt lat="45.6612" lon="4.72798">
        <ele>312.74478</ele>
        <time>2015-01-04T10:20:22Z</time>
      </trkpt>
      <trkpt lat="45.66122" lon="4.72802">
        <ele>312.74478</ele>
        <time>2015-01-04T10:20:27Z</time>
      </trkpt>
      <trkpt lat="45.66125" lon="4.72807">
        <ele>312.74478</ele>
        <time>2015-01-04T10:20:32Z</time>
      </trkpt>
      <trkpt lat="45.66129" lon="4.72808">
        <ele>313.42944</ele>
        <time>2015-01-04T10:20:37Z</time>
      </trkpt>
      <trkpt lat="45.66132" lon="4.72808">
        <ele>313.42944</ele>
        <time>2015-01-04T10:20:42Z</time>
      </trkpt>
      <trkpt lat="45.66137" lon="4.72811">
        <ele>313.42944</ele>
        <time>2015-01-04T10:20:47Z</time>
      </trkpt>
      <trkpt lat="45.66142" lon="4.72817">
        <ele>313.79562</ele>
        <time>2015-01-04T10:20:52Z</time>
      </trkpt>
      <trkpt lat="45.66145" lon="4.72826">
        <ele>313.79562</ele>
        <time>2015-01-04T10:20:57Z</time>
      </trkpt>
      <trkpt lat="45.66149" lon="4.7284">
        <ele>313.7812</ele>
        <time>2015-01-04T10:21:02Z</time>
      </trkpt>
      <trkpt lat="45.66153" lon="4.72851">
        <ele>313.7812</ele>
        <time>2015-01-04T10:21:07Z</time>
      </trkpt>
      <trkpt lat="45.66156" lon="4.7286">
        <ele>313.51718</ele>
        <time>2015-01-04T10:21:12Z</time>
      </trkpt>
      <trkpt lat="45.66159" lon="4.72872">
        <ele>313.51718</ele>
        <time>2015-01-04T10:21:17Z</time>
      </trkpt>
      <trkpt lat="45.66162" lon="4.72882">
        <ele>313.06815</ele>
        <time>2015-01-04T10:21:22Z</time>
      </trkpt>
      <trkpt lat="45.66165" lon="4.72889">
        <ele>313.06815</ele>
        <time>2015-01-04T10:21:27Z</time>
      </trkpt>
      <trkpt lat="45.6617" lon="4.72897">
        <ele>312.4657</ele>
        <time>2015-01-04T10:21:32Z</time>
      </trkpt>
      <trkpt lat="45.66174" lon="4.72907">
        <ele>312.4657</ele>
        <time>2015-01-04T10:21:37Z</time>
      </trkpt>
      <trkpt lat="45.66177" lon="4.72913">
        <ele>311.7973</ele>
        <time>2015-01-04T10:21:42Z</time>
      </trkpt>
      <trkpt lat="45.6618" lon="4.72921">
        <ele>311.7973</ele>
        <time>2015-01-04T10:21:47Z</time>
      </trkpt>
      <trkpt lat="45.66182" lon="4.72927">
        <ele>311.07224</ele>
        <time>2015-01-04T10:21:52Z</time>
      </trkpt>
      <trkpt lat="45.66185" lon="4.72935">
        <ele>311.07224</ele>
        <time>2015-01-04T10:21:57Z</time>
      </trkpt>
      <trkpt lat="45.66188" lon="4.72941">
        <ele>310.25598</ele>
        <time>2015-01-04T10:22:02Z</time>
      </trkpt>
      <trkpt lat="45.66192" lon="4.7295">
        <ele>310.25598</ele>
        <time>2015-01-04T10:22:07Z</time>
      </trkpt>
      <trkpt lat="45.66195" lon="4.72957">
        <ele>309.3024</ele>
        <time>2015-01-04T10:22:12Z</time>
      </trkpt>
      <trkpt lat="45.66199" lon="4.72966">
        <ele>309.3024</ele>
        <time>2015-01-04T10:22:17Z</time>
      </trkpt>
      <trkpt lat="45.66203" lon="4.72973">
        <ele>308.2846</ele>
        <time>2015-01-04T10:22:22Z</time>
      </trkpt>
      <trkpt lat="45.6621" lon="4.72979">
        <ele>308.2846</ele>
        <time>2015-01-04T10:22:27Z</time>
      </trkpt>
      <trkpt lat="45.66214" lon="4.72986">
        <ele>307.15506</ele>
        <time>2015-01-04T10:22:32Z</time>
      </trkpt>
      <trkpt lat="45.66217" lon="4.72991">
        <ele>307.15506</ele>
        <time>2015-01-04T10:22:37Z</time>
      </trkpt>
      <trkpt lat="45.66223" lon="4.72998">
        <ele>305.8989</ele>
        <time>2015-01-04T10:22:42Z</time>
      </trkpt>
      <trkpt lat="45.66228" lon="4.73001">
        <ele>305.8989</ele>
        <time>2015-01-04T10:22:47Z</time>
      </trkpt>
      <trkpt lat="45.66232" lon="4.73003">
        <ele>304.7334</ele>
        <time>2015-01-04T10:22:52Z</time>
      </trkpt>
      <trkpt lat="45.66236" lon="4.73009">
        <ele>304.7334</ele>
        <time>2015-01-04T10:22:57Z</time>
      </trkpt>
      <trkpt lat="45.6624" lon="4.73012">
        <ele>303.6721</ele>
        <time>2015-01-04T10:23:02Z</time>
      </trkpt>
      <trkpt lat="45.66243" lon="4.73017">
        <ele>303.6721</ele>
        <time>2015-01-04T10:23:07Z</time>
      </trkpt>
      <trkpt lat="45.66246" lon="4.73028">
        <ele>302.62616</ele>
        <time>2015-01-04T10:23:12Z</time>
      </trkpt>
      <trkpt lat="45.66248" lon="4.73036">
        <ele>302.62616</ele>
        <time>2015-01-04T10:23:17Z</time>
      </trkpt>
      <trkpt lat="45.66249" lon="4.73044">
        <ele>301.6863</ele>
        <time>2015-01-04T10:23:22Z</time>
      </trkpt>
      <trkpt lat="45.6625" lon="4.73055">
        <ele>301.6863</ele>
        <time>2015-01-04T10:23:27Z</time>
      </trkpt>
      <trkpt lat="45.66251" lon="4.73063">
        <ele>300.8928</ele>
        <time>2015-01-04T10:23:32Z</time>
      </trkpt>
      <trkpt lat="45.6625" lon="4.73066">
        <ele>300.8928</ele>
        <time>2015-01-04T10:23:37Z</time>
      </trkpt>
      <trkpt lat="45.66249" lon="4.73074">
        <ele>300.8928</ele>
        <time>2015-01-04T10:23:42Z</time>
      </trkpt>
      <trkpt lat="45.66251" lon="4.73081">
        <ele>300.16714</ele>
        <time>2015-01-04T10:23:47Z</time>
      </trkpt>
      <trkpt lat="45.66252" lon="4.73082">
        <ele>300.16714</ele>
        <time>2015-01-04T10:23:52Z</time>
      </trkpt>
      <trkpt lat="45.66257" lon="4.73085">
        <ele>300.16714</ele>
        <time>2015-01-04T10:23:57Z</time>
      </trkpt>
      <trkpt lat="45.66264" lon="4.73089">
        <ele>299.40744</ele>
        <time>2015-01-04T10:24:02Z</time>
      </trkpt>
      <trkpt lat="45.66273" lon="4.73092">
        <ele>299.40744</ele>
        <time>2015-01-04T10:24:07Z</time>
      </trkpt>
      <trkpt lat="45.66279" lon="4.73095">
        <ele>298.76447</ele>
        <time>2015-01-04T10:24:12Z</time>
      </trkpt>
      <trkpt lat="45.66284" lon="4.73098">
        <ele>298.76447</ele>
        <time>2015-01-04T10:24:17Z</time>
      </trkpt>
      <trkpt lat="45.66291" lon="4.73102">
        <ele>298.1611</ele>
        <time>2015-01-04T10:24:22Z</time>
      </trkpt>
      <trkpt lat="45.66297" lon="4.73104">
        <ele>298.1611</ele>
        <time>2015-01-04T10:24:27Z</time>
      </trkpt>
      <trkpt lat="45.66303" lon="4.73108">
        <ele>297.6122</ele>
        <time>2015-01-04T10:24:32Z</time>
      </trkpt>
      <trkpt lat="45.6631" lon="4.7311">
        <ele>297.6122</ele>
        <time>2015-01-04T10:24:37Z</time>
      </trkpt>
      <trkpt lat="45.66315" lon="4.73112">
        <ele>297.1169</ele>
        <time>2015-01-04T10:24:42Z</time>
      </trkpt>
      <trkpt lat="45.6632" lon="4.73113">
        <ele>297.1169</ele>
        <time>2015-01-04T10:24:47Z</time>
      </trkpt>
      <trkpt lat="45.66325" lon="4.73114">
        <ele>296.6885</ele>
        <time>2015-01-04T10:24:52Z</time>
      </trkpt>
      <trkpt lat="45.66332" lon="4.73117">
        <ele>296.6885</ele>
        <time>2015-01-04T10:24:57Z</time>
      </trkpt>
      <trkpt lat="45.66338" lon="4.7312">
        <ele>296.28137</ele>
        <time>2015-01-04T10:25:02Z</time>
      </trkpt>
      <trkpt lat="45.66343" lon="4.73122">
        <ele>296.28137</ele>
        <time>2015-01-04T10:25:07Z</time>
      </trkpt>
      <trkpt lat="45.6635" lon="4.73122">
        <ele>295.98276</ele>
        <time>2015-01-04T10:25:12Z</time>
      </trkpt>
      <trkpt lat="45.66357" lon="4.73125">
        <ele>295.98276</ele>
        <time>2015-01-04T10:25:17Z</time>
      </trkpt>
      <trkpt lat="45.66362" lon="4.73124">
        <ele>295.7146</ele>
        <time>2015-01-04T10:25:22Z</time>
      </trkpt>
      <trkpt lat="45.6637" lon="4.73127">
        <ele>295.7146</ele>
        <time>2015-01-04T10:25:27Z</time>
      </trkpt>
      <trkpt lat="45.66376" lon="4.7313">
        <ele>295.54843</ele>
        <time>2015-01-04T10:25:32Z</time>
      </trkpt>
      <trkpt lat="45.66382" lon="4.73131">
        <ele>295.54843</ele>
        <time>2015-01-04T10:25:37Z</time>
      </trkpt>
      <trkpt lat="45.66389" lon="4.73134">
        <ele>295.46368</ele>
        <time>2015-01-04T10:25:42Z</time>
      </trkpt>
      <trkpt lat="45.66394" lon="4.73138">
        <ele>295.46368</ele>
        <time>2015-01-04T10:25:47Z</time>
      </trkpt>
      <trkpt lat="45.66396" lon="4.73138">
        <ele>295.46368</ele>
        <time>2015-01-04T10:25:52Z</time>
      </trkpt>
      <trkpt lat="45.66398" lon="4.73138">
        <ele>295.54196</ele>
        <time>2015-01-04T10:25:57Z</time>
      </trkpt>
      <trkpt lat="45.66403" lon="4.73143">
        <ele>295.54196</ele>
        <time>2015-01-04T10:26:02Z</time>
      </trkpt>
      <trkpt lat="45.66406" lon="4.73152">
        <ele>295.75723</ele>
        <time>2015-01-04T10:26:07Z</time>
      </trkpt>
      <trkpt lat="45.66408" lon="4.73162">
        <ele>295.75723</ele>
        <time>2015-01-04T10:26:12Z</time>
      </trkpt>
      <trkpt lat="45.6641" lon="4.73171">
        <ele>296.11392</ele>
        <time>2015-01-04T10:26:17Z</time>
      </trkpt>
      <trkpt lat="45.66414" lon="4.73178">
        <ele>296.11392</ele>
        <time>2015-01-04T10:26:22Z</time>
      </trkpt>
      <trkpt lat="45.66415" lon="4.73186">
        <ele>296.50018</ele>
        <time>2015-01-04T10:26:27Z</time>
      </trkpt>
      <trkpt lat="45.66415" lon="4.73198">
        <ele>296.50018</ele>
        <time>2015-01-04T10:26:32Z</time>
      </trkpt>
      <trkpt lat="45.66417" lon="4.73205">
        <ele>296.9853</ele>
        <time>2015-01-04T10:26:37Z</time>
      </trkpt>
      <trkpt lat="45.66418" lon="4.73215">
        <ele>296.9853</ele>
        <time>2015-01-04T10:26:42Z</time>
      </trkpt>
      <trkpt lat="45.66419" lon="4.73223">
        <ele>297.57544</ele>
        <time>2015-01-04T10:26:47Z</time>
      </trkpt>
      <trkpt lat="45.6642" lon="4.73232">
        <ele>297.57544</ele>
        <time>2015-01-04T10:26:52Z</time>
      </trkpt>
      <trkpt lat="45.66421" lon="4.73242">
        <ele>298.2471</ele>
        <time>2015-01-04T10:26:57Z</time>
      </trkpt>
      <trkpt lat="45.66424" lon="4.73249">
        <ele>298.2471</ele>
        <time>2015-01-04T10:27:02Z</time>
      </trkpt>
      <trkpt lat="45.66427" lon="4.73259">
        <ele>298.94946</ele>
        <time>2015-01-04T10:27:07Z</time>
      </trkpt>
      <trkpt lat="45.66429" lon="4.73266">
        <ele>298.94946</ele>
        <time>2015-01-04T10:27:12Z</time>
      </trkpt>
      <trkpt lat="45.66431" lon="4.73269">
        <ele>298.94946</ele>
        <time>2015-01-04T10:27:17Z</time>
      </trkpt>
      <trkpt lat="45.66431" lon="4.73271">
        <ele>298.94946</ele>
        <time>2015-01-04T10:27:22Z</time>
      </trkpt>
      <trkpt lat="45.66432" lon="4.73272">
        <ele>299.6641</ele>
        <time>2015-01-04T10:27:27Z</time>
      </trkpt>
      <trkpt lat="45.66434" lon="4.73278">
        <ele>299.6641</ele>
        <time>2015-01-04T10:27:32Z</time>
      </trkpt>
      <trkpt lat="45.66435" lon="4.7328">
        <ele>299.6641</ele>
        <time>2015-01-04T10:27:37Z</time>
      </trkpt>
      <trkpt lat="45.66437" lon="4.73282">
        <ele>299.6641</ele>
        <time>2015-01-04T10:27:42Z</time>
      </trkpt>
      <trkpt lat="45.66437" lon="4.73284">
        <ele>300.35944</ele>
        <time>2015-01-04T10:27:47Z</time>
      </trkpt>
      <trkpt lat="45.66437" lon="4.73284">
        <ele>300.35944</ele>
        <time>2015-01-04T10:27:52Z</time>
      </trkpt>
      <trkpt lat="45.66437" lon="4.73283">
        <ele>300.35944</ele>
        <time>2015-01-04T10:27:57Z</time>
      </trkpt>
      <trkpt lat="45.66437" lon="4.73282">
        <ele>300.35944</ele>
        <time>2015-01-04T10:28:02Z</time>
      </trkpt>
      <trkpt lat="45.66439" lon="4.73286">
        <ele>300.35944</ele>
        <time>2015-01-04T10:28:07Z</time>
      </trkpt>
      <trkpt lat="45.66437" lon="4.73284">
        <ele>300.35944</ele>
        <time>2015-01-04T10:28:12Z</time>
      </trkpt>
      <trkpt lat="45.66437" lon="4.73286">
        <ele>300.35944</ele>
        <time>2015-01-04T10:28:17Z</time>
      </trkpt>
      <trkpt lat="45.66438" lon="4.73286">
        <ele>300.35944</ele>
        <time>2015-01-04T10:28:22Z</time>
      </trkpt>
      <trkpt lat="45.66438" lon="4.73286">
        <ele>300.35944</ele>
        <time>2015-01-04T10:28:27Z</time>
      </trkpt>
      <trkpt lat="45.66437" lon="4.73287">
        <ele>300.87662</ele>
        <time>2015-01-04T10:28:32Z</time>
      </trkpt>
      <trkpt lat="45.66437" lon="4.73288">
        <ele>300.87662</ele>
        <time>2015-01-04T10:28:37Z</time>
      </trkpt>
      <trkpt lat="45.66437" lon="4.73288">
        <ele>300.87662</ele>
        <time>2015-01-04T10:28:42Z</time>
      </trkpt>
      <trkpt lat="45.66436" lon="4.73289">
        <ele>300.87662</ele>
        <time>2015-01-04T10:28:47Z</time>
      </trkpt>
      <trkpt lat="45.66436" lon="4.73289">
        <ele>300.87662</ele>
        <time>2015-01-04T10:28:52Z</time>
      </trkpt>
      <trkpt lat="45.66436" lon="4.73289">
        <ele>300.87662</ele>
        <time>2015-01-04T10:28:57Z</time>
      </trkpt>
      <trkpt lat="45.66437" lon="4.7329">
        <ele>300.87662</ele>
        <time>2015-01-04T10:29:02Z</time>
      </trkpt>
      <trkpt lat="45.66438" lon="4.7329">
        <ele>300.87662</ele>
        <time>2015-01-04T10:29:07Z</time>
      </trkpt>
      <trkpt lat="45.66438" lon="4.73289">
        <ele>300.87662</ele>
        <time>2015-01-04T10:29:12Z</time>
      </trkpt>
      <trkpt lat="45.66438" lon="4.73289">
        <ele>300.87662</ele>
        <time>2015-01-04T10:29:17Z</time>
      </trkpt>
      <trkpt lat="45.66435" lon="4.73286">
        <ele>301.02563</ele>
        <time>2015-01-04T10:29:22Z</time>
      </trkpt>
      <trkpt lat="45.66431" lon="4.7328">
        <ele>301.02563</ele>
        <time>2015-01-04T10:29:27Z</time>
      </trkpt>
      <trkpt lat="45.66433" lon="4.73274">
        <ele>301.16467</ele>
        <time>2015-01-04T10:29:32Z</time>
      </trkpt>
      <trkpt lat="45.66434" lon="4.73274">
        <ele>301.16467</ele>
        <time>2015-01-04T10:29:37Z</time>
      </trkpt>
      <trkpt lat="45.66437" lon="4.73274">
        <ele>301.16467</ele>
        <time>2015-01-04T10:29:42Z</time>
      </trkpt>
      <trkpt lat="45.66442" lon="4.73277">
        <ele>301.45276</ele>
        <time>2015-01-04T10:29:47Z</time>
      </trkpt>
      <trkpt lat="45.66447" lon="4.7328">
        <ele>301.45276</ele>
        <time>2015-01-04T10:29:52Z</time>
      </trkpt>
      <trkpt lat="45.66452" lon="4.73282">
        <ele>301.80615</ele>
        <time>2015-01-04T10:29:57Z</time>
      </trkpt>
      <trkpt lat="45.66458" lon="4.73285">
        <ele>301.80615</ele>
        <time>2015-01-04T10:30:02Z</time>
      </trkpt>
      <trkpt lat="45.66464" lon="4.73287">
        <ele>302.2047</ele>
        <time>2015-01-04T10:30:07Z</time>
      </trkpt>
      <trkpt lat="45.66471" lon="4.73287">
        <ele>302.2047</ele>
        <time>2015-01-04T10:30:12Z</time>
      </trkpt>
      <trkpt lat="45.66477" lon="4.73287">
        <ele>302.54324</ele>
        <time>2015-01-04T10:30:17Z</time>
      </trkpt>
      <trkpt lat="45.66485" lon="4.7329">
        <ele>302.54324</ele>
        <time>2015-01-04T10:30:22Z</time>
      </trkpt>
      <trkpt lat="45.66491" lon="4.73291">
        <ele>302.86853</ele>
        <time>2015-01-04T10:30:27Z</time>
      </trkpt>
      <trkpt lat="45.66496" lon="4.73292">
        <ele>302.86853</ele>
        <time>2015-01-04T10:30:32Z</time>
      </trkpt>
      <trkpt lat="45.66502" lon="4.7329">
        <ele>303.1807</ele>
        <time>2015-01-04T10:30:37Z</time>
      </trkpt>
      <trkpt lat="45.66507" lon="4.7329">
        <ele>303.1807</ele>
        <time>2015-01-04T10:30:42Z</time>
      </trkpt>
      <trkpt lat="45.66512" lon="4.73291">
        <ele>303.49432</ele>
        <time>2015-01-04T10:30:47Z</time>
      </trkpt>
      <trkpt lat="45.66519" lon="4.73288">
        <ele>303.49432</ele>
        <time>2015-01-04T10:30:52Z</time>
      </trkpt>
      <trkpt lat="45.66525" lon="4.73289">
        <ele>303.88058</ele>
        <time>2015-01-04T10:30:57Z</time>
      </trkpt>
      <trkpt lat="45.6653" lon="4.73289">
        <ele>303.88058</ele>
        <time>2015-01-04T10:31:02Z</time>
      </trkpt>
      <trkpt lat="45.66535" lon="4.73289">
        <ele>304.28995</ele>
        <time>2015-01-04T10:31:07Z</time>
      </trkpt>
      <trkpt lat="45.6654" lon="4.73287">
        <ele>304.28995</ele>
        <time>2015-01-04T10:31:12Z</time>
      </trkpt>
      <trkpt lat="45.66549" lon="4.73286">
        <ele>304.66205</ele>
        <time>2015-01-04T10:31:17Z</time>
      </trkpt>
      <trkpt lat="45.66557" lon="4.73289">
        <ele>304.66205</ele>
        <time>2015-01-04T10:31:22Z</time>
      </trkpt>
      <trkpt lat="45.66562" lon="4.7329">
        <ele>305.0275</ele>
        <time>2015-01-04T10:31:27Z</time>
      </trkpt>
      <trkpt lat="45.66569" lon="4.73291">
        <ele>305.0275</ele>
        <time>2015-01-04T10:31:32Z</time>
      </trkpt>
      <trkpt lat="45.66577" lon="4.73293">
        <ele>305.32825</ele>
        <time>2015-01-04T10:31:37Z</time>
      </trkpt>
      <trkpt lat="45.66582" lon="4.73293">
        <ele>305.32825</ele>
        <time>2015-01-04T10:31:42Z</time>
      </trkpt>
      <trkpt lat="45.66588" lon="4.73293">
        <ele>305.61166</ele>
        <time>2015-01-04T10:31:47Z</time>
      </trkpt>
      <trkpt lat="45.66594" lon="4.73294">
        <ele>305.61166</ele>
        <time>2015-01-04T10:31:52Z</time>
      </trkpt>
      <trkpt lat="45.66599" lon="4.73293">
        <ele>305.89273</ele>
        <time>2015-01-04T10:31:57Z</time>
      </trkpt>
      <trkpt lat="45.66606" lon="4.73292">
        <ele>305.89273</ele>
        <time>2015-01-04T10:32:02Z</time>
      </trkpt>
      <trkpt lat="45.66613" lon="4.73293">
        <ele>306.11346</ele>
        <time>2015-01-04T10:32:07Z</time>
      </trkpt>
      <trkpt lat="45.66618" lon="4.73292">
        <ele>306.11346</ele>
        <time>2015-01-04T10:32:12Z</time>
      </trkpt>
      <trkpt lat="45.66627" lon="4.73294">
        <ele>306.22018</ele>
        <time>2015-01-04T10:32:17Z</time>
      </trkpt>
      <trkpt lat="45.66634" lon="4.73294">
        <ele>306.22018</ele>
        <time>2015-01-04T10:32:22Z</time>
      </trkpt>
      <trkpt lat="45.6664" lon="4.73294">
        <ele>306.2068</ele>
        <time>2015-01-04T10:32:27Z</time>
      </trkpt>
      <trkpt lat="45.66648" lon="4.73294">
        <ele>306.2068</ele>
        <time>2015-01-04T10:32:32Z</time>
      </trkpt>
      <trkpt lat="45.66655" lon="4.73292">
        <ele>306.1977</ele>
        <time>2015-01-04T10:32:37Z</time>
      </trkpt>
      <trkpt lat="45.66662" lon="4.7329">
        <ele>306.1977</ele>
        <time>2015-01-04T10:32:42Z</time>
      </trkpt>
      <trkpt lat="45.66668" lon="4.73289">
        <ele>306.16406</ele>
        <time>2015-01-04T10:32:47Z</time>
      </trkpt>
      <trkpt lat="45.66672" lon="4.73286">
        <ele>306.16406</ele>
        <time>2015-01-04T10:32:52Z</time>
      </trkpt>
      <trkpt lat="45.66676" lon="4.73285">
        <ele>306.16406</ele>
        <time>2015-01-04T10:32:57Z</time>
      </trkpt>
      <trkpt lat="45.66678" lon="4.73284">
        <ele>306.0648</ele>
        <time>2015-01-04T10:33:02Z</time>
      </trkpt>
      <trkpt lat="45.66681" lon="4.73282">
        <ele>306.0648</ele>
        <time>2015-01-04T10:33:07Z</time>
      </trkpt>
      <trkpt lat="45.66682" lon="4.73281">
        <ele>306.0648</ele>
        <time>2015-01-04T10:33:12Z</time>
      </trkpt>
      <trkpt lat="45.66683" lon="4.7328">
        <ele>306.0648</ele>
        <time>2015-01-04T10:33:17Z</time>
      </trkpt>
      <trkpt lat="45.66687" lon="4.73275">
        <ele>305.99176</ele>
        <time>2015-01-04T10:33:22Z</time>
      </trkpt>
      <trkpt lat="45.6669" lon="4.73268">
        <ele>305.99176</ele>
        <time>2015-01-04T10:33:27Z</time>
      </trkpt>
      <trkpt lat="45.66696" lon="4.73263">
        <ele>305.95795</ele>
        <time>2015-01-04T10:33:32Z</time>
      </trkpt>
      <trkpt lat="45.66699" lon="4.73257">
        <ele>305.95795</ele>
        <time>2015-01-04T10:33:37Z</time>
      </trkpt>
      <trkpt lat="45.66704" lon="4.7325">
        <ele>306.0185</ele>
        <time>2015-01-04T10:33:42Z</time>
      </trkpt>
      <trkpt lat="45.66707" lon="4.73246">
        <ele>306.0185</ele>
        <time>2015-01-04T10:33:47Z</time>
      </trkpt>
      <trkpt lat="45.66713" lon="4.73241">
        <ele>306.10895</ele>
        <time>2015-01-04T10:33:52Z</time>
      </trkpt>
      <trkpt lat="45.66717" lon="4.73235">
        <ele>306.10895</ele>
        <time>2015-01-04T10:33:57Z</time>
      </trkpt>
      <trkpt lat="45.66722" lon="4.73229">
        <ele>306.1696</ele>
        <time>2015-01-04T10:34:02Z</time>
      </trkpt>
      <trkpt lat="45.66726" lon="4.73222">
        <ele>306.1696</ele>
        <time>2015-01-04T10:34:07Z</time>
      </trkpt>
      <trkpt lat="45.66732" lon="4.73216">
        <ele>306.21707</ele>
        <time>2015-01-04T10:34:12Z</time>
      </trkpt>
      <trkpt lat="45.66737" lon="4.73209">
        <ele>306.21707</ele>
        <time>2015-01-04T10:34:17Z</time>
      </trkpt>
      <trkpt lat="45.66741" lon="4.73201">
        <ele>306.1517</ele>
        <time>2015-01-04T10:34:22Z</time>
      </trkpt>
      <trkpt lat="45.66743" lon="4.73195">
        <ele>306.1517</ele>
        <time>2015-01-04T10:34:27Z</time>
      </trkpt>
      <trkpt lat="45.66746" lon="4.73191">
        <ele>306.1517</ele>
        <time>2015-01-04T10:34:32Z</time>
      </trkpt>
      <trkpt lat="45.66748" lon="4.7319">
        <ele>305.98227</ele>
        <time>2015-01-04T10:34:37Z</time>
      </trkpt>
      <trkpt lat="45.66748" lon="4.73189">
        <ele>305.98227</ele>
        <time>2015-01-04T10:34:42Z</time>
      </trkpt>
      <trkpt lat="45.66748" lon="4.73189">
        <ele>305.98227</ele>
        <time>2015-01-04T10:34:47Z</time>
      </trkpt>
      <trkpt lat="45.6675" lon="4.73189">
        <ele>305.98227</ele>
        <time>2015-01-04T10:34:52Z</time>
      </trkpt>
      <trkpt lat="45.66749" lon="4.73188">
        <ele>305.98227</ele>
        <time>2015-01-04T10:34:57Z</time>
      </trkpt>
      <trkpt lat="45.66749" lon="4.73189">
        <ele>305.98227</ele>
        <time>2015-01-04T10:35:02Z</time>
      </trkpt>
      <trkpt lat="45.66751" lon="4.73183">
        <ele>305.98227</ele>
        <time>2015-01-04T10:35:07Z</time>
      </trkpt>
      <trkpt lat="45.66753" lon="4.73174">
        <ele>305.78925</ele>
        <time>2015-01-04T10:35:12Z</time>
      </trkpt>
      <trkpt lat="45.66758" lon="4.73165">
        <ele>305.78925</ele>
        <time>2015-01-04T10:35:17Z</time>
      </trkpt>
      <trkpt lat="45.66763" lon="4.73156">
        <ele>305.60406</ele>
        <time>2015-01-04T10:35:22Z</time>
      </trkpt>
      <trkpt lat="45.66769" lon="4.73147">
        <ele>305.60406</ele>
        <time>2015-01-04T10:35:27Z</time>
      </trkpt>
      <trkpt lat="45.66774" lon="4.73138">
        <ele>305.35492</ele>
        <time>2015-01-04T10:35:32Z</time>
      </trkpt>
      <trkpt lat="45.66777" lon="4.73128">
        <ele>305.35492</ele>
        <time>2015-01-04T10:35:37Z</time>
      </trkpt>
      <trkpt lat="45.6678" lon="4.7312">
        <ele>305.10513</ele>
        <time>2015-01-04T10:35:42Z</time>
      </trkpt>
      <trkpt lat="45.66784" lon="4.7311">
        <ele>305.10513</ele>
        <time>2015-01-04T10:35:47Z</time>
      </trkpt>
      <trkpt lat="45.66789" lon="4.73102">
        <ele>304.8125</ele>
        <time>2015-01-04T10:35:52Z</time>
      </trkpt>
      <trkpt lat="45.66793" lon="4.73096">
        <ele>304.8125</ele>
        <time>2015-01-04T10:35:57Z</time>
      </trkpt>
      <trkpt lat="45.66795" lon="4.73088">
        <ele>304.52454</ele>
        <time>2015-01-04T10:36:02Z</time>
      </trkpt>
      <trkpt lat="45.668" lon="4.73079">
        <ele>304.52454</ele>
        <time>2015-01-04T10:36:07Z</time>
      </trkpt>
      <trkpt lat="45.66804" lon="4.7307">
        <ele>304.09784</ele>
        <time>2015-01-04T10:36:12Z</time>
      </trkpt>
      <trkpt lat="45.66808" lon="4.73064">
        <ele>304.09784</ele>
        <time>2015-01-04T10:36:17Z</time>
      </trkpt>
      <trkpt lat="45.66811" lon="4.73057">
        <ele>303.68814</ele>
        <time>2015-01-04T10:36:22Z</time>
      </trkpt>
      <trkpt lat="45.66814" lon="4.7305">
        <ele>303.68814</ele>
        <time>2015-01-04T10:36:27Z</time>
      </trkpt>
      <trkpt lat="45.66818" lon="4.73045">
        <ele>303.1515</ele>
        <time>2015-01-04T10:36:32Z</time>
      </trkpt>
      <trkpt lat="45.66821" lon="4.73038">
        <ele>303.1515</ele>
        <time>2015-01-04T10:36:37Z</time>
      </trkpt>
      <trkpt lat="45.66823" lon="4.73036">
        <ele>303.1515</ele>
        <time>2015-01-04T10:36:42Z</time>
      </trkpt>
      <trkpt lat="45.66827" lon="4.7303">
        <ele>302.4989</ele>
        <time>2015-01-04T10:36:47Z</time>
      </trkpt>
      <trkpt lat="45.66831" lon="4.73021">
        <ele>302.4989</ele>
        <time>2015-01-04T10:36:52Z</time>
      </trkpt>
      <trkpt lat="45.66836" lon="4.7301">
        <ele>301.7553</ele>
        <time>2015-01-04T10:36:57Z</time>
      </trkpt>
      <trkpt lat="45.66843" lon="4.73001">
        <ele>301.7553</ele>
        <time>2015-01-04T10:37:02Z</time>
      </trkpt>
      <trkpt lat="45.66846" lon="4.72995">
        <ele>300.9729</ele>
        <time>2015-01-04T10:37:07Z</time>
      </trkpt>
      <trkpt lat="45.6685" lon="4.72988">
        <ele>300.9729</ele>
        <time>2015-01-04T10:37:12Z</time>
      </trkpt>
      <trkpt lat="45.66855" lon="4.72981">
        <ele>300.128</ele>
        <time>2015-01-04T10:37:17Z</time>
      </trkpt>
      <trkpt lat="45.6686" lon="4.72972">
        <ele>300.128</ele>
        <time>2015-01-04T10:37:22Z</time>
      </trkpt>
      <trkpt lat="45.66865" lon="4.72964">
        <ele>299.25644</ele>
        <time>2015-01-04T10:37:27Z</time>
      </trkpt>
      <trkpt lat="45.66867" lon="4.72958">
        <ele>299.25644</ele>
        <time>2015-01-04T10:37:32Z</time>
      </trkpt>
      <trkpt lat="45.66871" lon="4.72954">
        <ele>298.39148</ele>
        <time>2015-01-04T10:37:37Z</time>
      </trkpt>
      <trkpt lat="45.66874" lon="4.72946">
        <ele>298.39148</ele>
        <time>2015-01-04T10:37:42Z</time>
      </trkpt>
      <trkpt lat="45.66878" lon="4.72939">
        <ele>297.50626</ele>
        <time>2015-01-04T10:37:47Z</time>
      </trkpt>
      <trkpt lat="45.66882" lon="4.72933">
        <ele>297.50626</ele>
        <time>2015-01-04T10:37:52Z</time>
      </trkpt>
      <trkpt lat="45.66887" lon="4.72927">
        <ele>296.57587</ele>
        <time>2015-01-04T10:37:57Z</time>
      </trkpt>
      <trkpt lat="45.66892" lon="4.72919">
        <ele>296.57587</ele>
        <time>2015-01-04T10:38:02Z</time>
      </trkpt>
      <trkpt lat="45.66895" lon="4.72912">
        <ele>295.6781</ele>
        <time>2015-01-04T10:38:07Z</time>
      </trkpt>
      <trkpt lat="45.66899" lon="4.72906">
        <ele>295.6781</ele>
        <time>2015-01-04T10:38:12Z</time>
      </trkpt>
      <trkpt lat="45.66903" lon="4.729">
        <ele>294.813</ele>
        <time>2015-01-04T10:38:17Z</time>
      </trkpt>
      <trkpt lat="45.66905" lon="4.72893">
        <ele>294.813</ele>
        <time>2015-01-04T10:38:22Z</time>
      </trkpt>
      <trkpt lat="45.66908" lon="4.72888">
        <ele>293.95145</ele>
        <time>2015-01-04T10:38:27Z</time>
      </trkpt>
      <trkpt lat="45.66913" lon="4.72879">
        <ele>293.95145</ele>
        <time>2015-01-04T10:38:32Z</time>
      </trkpt>
      <trkpt lat="45.66916" lon="4.72871">
        <ele>293.05212</ele>
        <time>2015-01-04T10:38:37Z</time>
      </trkpt>
      <trkpt lat="45.6692" lon="4.72864">
        <ele>293.05212</ele>
        <time>2015-01-04T10:38:42Z</time>
      </trkpt>
      <trkpt lat="45.6692" lon="4.72857">
        <ele>292.09113</ele>
        <time>2015-01-04T10:38:47Z</time>
      </trkpt>
      <trkpt lat="45.66921" lon="4.72847">
        <ele>292.09113</ele>
        <time>2015-01-04T10:38:52Z</time>
      </trkpt>
      <trkpt lat="45.6692" lon="4.72837">
        <ele>291.08966</ele>
        <time>2015-01-04T10:38:57Z</time>
      </trkpt>
      <trkpt lat="45.66918" lon="4.72829">
        <ele>291.08966</ele>
        <time>2015-01-04T10:39:02Z</time>
      </trkpt>
      <trkpt lat="45.66918" lon="4.72819">
        <ele>290.00977</ele>
        <time>2015-01-04T10:39:07Z</time>
      </trkpt>
      <trkpt lat="45.6692" lon="4.72811">
        <ele>290.00977</ele>
        <time>2015-01-04T10:39:12Z</time>
      </trkpt>
      <trkpt lat="45.66922" lon="4.72802">
        <ele>288.77322</ele>
        <time>2015-01-04T10:39:17Z</time>
      </trkpt>
      <trkpt lat="45.66923" lon="4.72796">
        <ele>288.77322</ele>
        <time>2015-01-04T10:39:22Z</time>
      </trkpt>
      <trkpt lat="45.66923" lon="4.72787">
        <ele>287.45203</ele>
        <time>2015-01-04T10:39:27Z</time>
      </trkpt>
      <trkpt lat="45.66924" lon="4.72776">
        <ele>287.45203</ele>
        <time>2015-01-04T10:39:32Z</time>
      </trkpt>
      <trkpt lat="45.66923" lon="4.72766">
        <ele>286.17062</ele>
        <time>2015-01-04T10:39:37Z</time>
      </trkpt>
      <trkpt lat="45.66924" lon="4.72755">
        <ele>286.17062</ele>
        <time>2015-01-04T10:39:42Z</time>
      </trkpt>
      <trkpt lat="45.66926" lon="4.72747">
        <ele>284.95776</ele>
        <time>2015-01-04T10:39:47Z</time>
      </trkpt>
      <trkpt lat="45.66927" lon="4.72742">
        <ele>284.95776</ele>
        <time>2015-01-04T10:39:52Z</time>
      </trkpt>
      <trkpt lat="45.6693" lon="4.72735">
        <ele>283.76767</ele>
        <time>2015-01-04T10:39:57Z</time>
      </trkpt>
      <trkpt lat="45.66933" lon="4.72731">
        <ele>283.76767</ele>
        <time>2015-01-04T10:40:02Z</time>
      </trkpt>
      <trkpt lat="45.66937" lon="4.7273">
        <ele>283.76767</ele>
        <time>2015-01-04T10:40:07Z</time>
      </trkpt>
      <trkpt lat="45.66943" lon="4.72731">
        <ele>282.52902</ele>
        <time>2015-01-04T10:40:12Z</time>
      </trkpt>
      <trkpt lat="45.66949" lon="4.72732">
        <ele>282.52902</ele>
        <time>2015-01-04T10:40:17Z</time>
      </trkpt>
      <trkpt lat="45.66955" lon="4.72732">
        <ele>281.19022</ele>
        <time>2015-01-04T10:40:22Z</time>
      </trkpt>
      <trkpt lat="45.6696" lon="4.7273">
        <ele>281.19022</ele>
        <time>2015-01-04T10:40:27Z</time>
      </trkpt>
      <trkpt lat="45.66967" lon="4.72727">
        <ele>279.73236</ele>
        <time>2015-01-04T10:40:32Z</time>
      </trkpt>
      <trkpt lat="45.66972" lon="4.72724">
        <ele>279.73236</ele>
        <time>2015-01-04T10:40:37Z</time>
      </trkpt>
      <trkpt lat="45.66977" lon="4.72718">
        <ele>278.23917</ele>
        <time>2015-01-04T10:40:42Z</time>
      </trkpt>
      <trkpt lat="45.66983" lon="4.72712">
        <ele>278.23917</ele>
        <time>2015-01-04T10:40:47Z</time>
      </trkpt>
      <trkpt lat="45.66988" lon="4.72706">
        <ele>276.87463</ele>
        <time>2015-01-04T10:40:52Z</time>
      </trkpt>
      <trkpt lat="45.6699" lon="4.72702">
        <ele>276.87463</ele>
        <time>2015-01-04T10:40:57Z</time>
      </trkpt>
      <trkpt lat="45.66993" lon="4.72698">
        <ele>276.87463</ele>
        <time>2015-01-04T10:41:02Z</time>
      </trkpt>
      <trkpt lat="45.66996" lon="4.72692">
        <ele>275.53088</ele>
        <time>2015-01-04T10:41:07Z</time>
      </trkpt>
      <trkpt lat="45.67001" lon="4.72689">
        <ele>275.53088</ele>
        <time>2015-01-04T10:41:12Z</time>
      </trkpt>
      <trkpt lat="45.67007" lon="4.72681">
        <ele>274.3384</ele>
        <time>2015-01-04T10:41:17Z</time>
      </trkpt>
      <trkpt lat="45.67009" lon="4.72676">
        <ele>274.3384</ele>
        <time>2015-01-04T10:41:22Z</time>
      </trkpt>
      <trkpt lat="45.67011" lon="4.7267">
        <ele>274.3384</ele>
        <time>2015-01-04T10:41:27Z</time>
      </trkpt>
      <trkpt lat="45.67015" lon="4.72666">
        <ele>273.4752</ele>
        <time>2015-01-04T10:41:32Z</time>
      </trkpt>
      <trkpt lat="45.67017" lon="4.72663">
        <ele>273.4752</ele>
        <time>2015-01-04T10:41:37Z</time>
      </trkpt>
      <trkpt lat="45.6702" lon="4.72661">
        <ele>273.4752</ele>
        <time>2015-01-04T10:41:42Z</time>
      </trkpt>
      <trkpt lat="45.67026" lon="4.72656">
        <ele>272.96106</ele>
        <time>2015-01-04T10:41:47Z</time>
      </trkpt>
      <trkpt lat="45.67032" lon="4.72654">
        <ele>272.96106</ele>
        <time>2015-01-04T10:41:52Z</time>
      </trkpt>
      <trkpt lat="45.67037" lon="4.7265">
        <ele>272.61154</ele>
        <time>2015-01-04T10:41:57Z</time>
      </trkpt>
      <trkpt lat="45.67039" lon="4.72647">
        <ele>272.61154</ele>
        <time>2015-01-04T10:42:02Z</time>
      </trkpt>
      <trkpt lat="45.67042" lon="4.7264">
        <ele>272.4426</ele>
        <time>2015-01-04T10:42:07Z</time>
      </trkpt>
      <trkpt lat="45.67045" lon="4.72636">
        <ele>272.4426</ele>
        <time>2015-01-04T10:42:12Z</time>
      </trkpt>
      <trkpt lat="45.67047" lon="4.72633">
        <ele>272.4426</ele>
        <time>2015-01-04T10:42:17Z</time>
      </trkpt>
      <trkpt lat="45.67048" lon="4.72633">
        <ele>272.4426</ele>
        <time>2015-01-04T10:42:22Z</time>
      </trkpt>
      <trkpt lat="45.67047" lon="4.72625">
        <ele>272.61243</ele>
        <time>2015-01-04T10:42:27Z</time>
      </trkpt>
      <trkpt lat="45.67045" lon="4.72619">
        <ele>272.61243</ele>
        <time>2015-01-04T10:42:32Z</time>
      </trkpt>
      <trkpt lat="45.67046" lon="4.72615">
        <ele>272.61243</ele>
        <time>2015-01-04T10:42:37Z</time>
      </trkpt>
      <trkpt lat="45.67046" lon="4.72611">
        <ele>272.92084</ele>
        <time>2015-01-04T10:42:42Z</time>
      </trkpt>
      <trkpt lat="45.67052" lon="4.72604">
        <ele>272.92084</ele>
        <time>2015-01-04T10:42:47Z</time>
      </trkpt>
      <trkpt lat="45.67058" lon="4.72603">
        <ele>273.2251</ele>
        <time>2015-01-04T10:42:52Z</time>
      </trkpt>
      <trkpt lat="45.67062" lon="4.726">
        <ele>273.2251</ele>
        <time>2015-01-04T10:42:57Z</time>
      </trkpt>
      <trkpt lat="45.67065" lon="4.72596">
        <ele>273.2251</ele>
        <time>2015-01-04T10:43:02Z</time>
      </trkpt>
      <trkpt lat="45.67066" lon="4.72595">
        <ele>273.6091</ele>
        <time>2015-01-04T10:43:07Z</time>
      </trkpt>
      <trkpt lat="45.67067" lon="4.72591">
        <ele>273.6091</ele>
        <time>2015-01-04T10:43:12Z</time>
      </trkpt>
      <trkpt lat="45.67065" lon="4.72582">
        <ele>274.28006</ele>
        <time>2015-01-04T10:43:17Z</time>
      </trkpt>
      <trkpt lat="45.67064" lon="4.72576">
        <ele>274.28006</ele>
        <time>2015-01-04T10:43:22Z</time>
      </trkpt>
      <trkpt lat="45.67065" lon="4.72566">
        <ele>275.24176</ele>
        <time>2015-01-04T10:43:27Z</time>
      </trkpt>
      <trkpt lat="45.67066" lon="4.72555">
        <ele>275.24176</ele>
        <time>2015-01-04T10:43:32Z</time>
      </trkpt>
      <trkpt lat="45.67065" lon="4.72551">
        <ele>276.52576</ele>
        <time>2015-01-04T10:43:37Z</time>
      </trkpt>
      <trkpt lat="45.67064" lon="4.72546">
        <ele>276.52576</ele>
        <time>2015-01-04T10:43:42Z</time>
      </trkpt>
      <trkpt lat="45.67061" lon="4.7254">
        <ele>276.52576</ele>
        <time>2015-01-04T10:43:47Z</time>
      </trkpt>
      <trkpt lat="45.67059" lon="4.72535">
        <ele>278.0739</ele>
        <time>2015-01-04T10:43:52Z</time>
      </trkpt>
      <trkpt lat="45.67057" lon="4.72529">
        <ele>278.0739</ele>
        <time>2015-01-04T10:43:57Z</time>
      </trkpt>
      <trkpt lat="45.67052" lon="4.7252">
        <ele>279.6299</ele>
        <time>2015-01-04T10:44:02Z</time>
      </trkpt>
      <trkpt lat="45.67049" lon="4.72513">
        <ele>279.6299</ele>
        <time>2015-01-04T10:44:07Z</time>
      </trkpt>
      <trkpt lat="45.67047" lon="4.72506">
        <ele>281.31656</ele>
        <time>2015-01-04T10:44:12Z</time>
      </trkpt>
      <trkpt lat="45.67045" lon="4.725">
        <ele>281.31656</ele>
        <time>2015-01-04T10:44:17Z</time>
      </trkpt>
      <trkpt lat="45.67044" lon="4.7249">
        <ele>283.0888</ele>
        <time>2015-01-04T10:44:22Z</time>
      </trkpt>
      <trkpt lat="45.67044" lon="4.72486">
        <ele>283.0888</ele>
        <time>2015-01-04T10:44:27Z</time>
      </trkpt>
      <trkpt lat="45.67045" lon="4.72482">
        <ele>283.0888</ele>
        <time>2015-01-04T10:44:32Z</time>
      </trkpt>
      <trkpt lat="45.67044" lon="4.72478">
        <ele>283.0888</ele>
        <time>2015-01-04T10:44:37Z</time>
      </trkpt>
      <trkpt lat="45.67042" lon="4.72471">
        <ele>285.4956</ele>
        <time>2015-01-04T10:44:42Z</time>
      </trkpt>
      <trkpt lat="45.67041" lon="4.72456">
        <ele>287.90543</ele>
        <time>2015-01-04T10:44:47Z</time>
      </trkpt>
      <trkpt lat="45.67041" lon="4.72453">
        <ele>287.90543</ele>
        <time>2015-01-04T10:44:52Z</time>
      </trkpt>
      <trkpt lat="45.67042" lon="4.72448">
        <ele>287.90543</ele>
        <time>2015-01-04T10:44:57Z</time>
      </trkpt>
      <trkpt lat="45.67042" lon="4.72437">
        <ele>290.46823</ele>
        <time>2015-01-04T10:45:02Z</time>
      </trkpt>
      <trkpt lat="45.67043" lon="4.72426">
        <ele>290.46823</ele>
        <time>2015-01-04T10:45:07Z</time>
      </trkpt>
      <trkpt lat="45.67042" lon="4.72418">
        <ele>292.93353</ele>
        <time>2015-01-04T10:45:12Z</time>
      </trkpt>
      <trkpt lat="45.67037" lon="4.72414">
        <ele>292.93353</ele>
        <time>2015-01-04T10:45:17Z</time>
      </trkpt>
      <trkpt lat="45.67031" lon="4.72407">
        <ele>295.35788</ele>
        <time>2015-01-04T10:45:22Z</time>
      </trkpt>
      <trkpt lat="45.67026" lon="4.72404">
        <ele>295.35788</ele>
        <time>2015-01-04T10:45:27Z</time>
      </trkpt>
      <trkpt lat="45.67021" lon="4.72397">
        <ele>297.56335</ele>
        <time>2015-01-04T10:45:32Z</time>
      </trkpt>
      <trkpt lat="45.6702" lon="4.72396">
        <ele>297.56335</ele>
        <time>2015-01-04T10:45:37Z</time>
      </trkpt>
      <trkpt lat="45.67021" lon="4.72396">
        <ele>297.56335</ele>
        <time>2015-01-04T10:45:42Z</time>
      </trkpt>
      <trkpt lat="45.6702" lon="4.72395">
        <ele>297.56335</ele>
        <time>2015-01-04T10:45:47Z</time>
      </trkpt>
      <trkpt lat="45.6702" lon="4.72394">
        <ele>297.56335</ele>
        <time>2015-01-04T10:45:52Z</time>
      </trkpt>
      <trkpt lat="45.6702" lon="4.72394">
        <ele>297.56335</ele>
        <time>2015-01-04T10:45:57Z</time>
      </trkpt>
      <trkpt lat="45.67019" lon="4.72394">
        <ele>297.56335</ele>
        <time>2015-01-04T10:46:02Z</time>
      </trkpt>
      <trkpt lat="45.67019" lon="4.72393">
        <ele>297.56335</ele>
        <time>2015-01-04T10:46:07Z</time>
      </trkpt>
      <trkpt lat="45.67019" lon="4.72394">
        <ele>297.56335</ele>
        <time>2015-01-04T10:46:12Z</time>
      </trkpt>
      <trkpt lat="45.67018" lon="4.72395">
        <ele>297.56335</ele>
        <time>2015-01-04T10:46:17Z</time>
      </trkpt>
      <trkpt lat="45.67018" lon="4.72394">
        <ele>297.56335</ele>
        <time>2015-01-04T10:46:22Z</time>
      </trkpt>
      <trkpt lat="45.67017" lon="4.72393">
        <ele>297.56335</ele>
        <time>2015-01-04T10:46:27Z</time>
      </trkpt>
      <trkpt lat="45.67018" lon="4.72391">
        <ele>299.70297</ele>
        <time>2015-01-04T10:46:32Z</time>
      </trkpt>
      <trkpt lat="45.67019" lon="4.72391">
        <ele>299.70297</ele>
        <time>2015-01-04T10:46:37Z</time>
      </trkpt>
      <trkpt lat="45.67019" lon="4.72393">
        <ele>299.70297</ele>
        <time>2015-01-04T10:46:42Z</time>
      </trkpt>
      <trkpt lat="45.67019" lon="4.72393">
        <ele>299.70297</ele>
        <time>2015-01-04T10:46:47Z</time>
      </trkpt>
      <trkpt lat="45.67019" lon="4.72393">
        <ele>299.70297</ele>
        <time>2015-01-04T10:46:52Z</time>
      </trkpt>
      <trkpt lat="45.67018" lon="4.72393">
        <ele>299.70297</ele>
        <time>2015-01-04T10:46:57Z</time>
      </trkpt>
      <trkpt lat="45.67016" lon="4.72392">
        <ele>299.70297</ele>
        <time>2015-01-04T10:47:02Z</time>
      </trkpt>
      <trkpt lat="45.67017" lon="4.72391">
        <ele>299.70297</ele>
        <time>2015-01-04T10:47:07Z</time>
      </trkpt>
      <trkpt lat="45.67017" lon="4.7239">
        <ele>299.70297</ele>
        <time>2015-01-04T10:47:12Z</time>
      </trkpt>
      <trkpt lat="45.67017" lon="4.72389">
        <ele>299.70297</ele>
        <time>2015-01-04T10:47:17Z</time>
      </trkpt>
      <trkpt lat="45.67017" lon="4.72388">
        <ele>299.70297</ele>
        <time>2015-01-04T10:47:22Z</time>
      </trkpt>
      <trkpt lat="45.67017" lon="4.72388">
        <ele>299.70297</ele>
        <time>2015-01-04T10:47:27Z</time>
      </trkpt>
      <trkpt lat="45.67017" lon="4.72387">
        <ele>301.77475</ele>
        <time>2015-01-04T10:47:32Z</time>
      </trkpt>
      <trkpt lat="45.67016" lon="4.72387">
        <ele>301.77475</ele>
        <time>2015-01-04T10:47:37Z</time>
      </trkpt>
      <trkpt lat="45.67017" lon="4.72386">
        <ele>301.77475</ele>
        <time>2015-01-04T10:47:42Z</time>
      </trkpt>
      <trkpt lat="45.67017" lon="4.72386">
        <ele>301.77475</ele>
        <time>2015-01-04T10:47:47Z</time>
      </trkpt>
      <trkpt lat="45.67017" lon="4.72386">
        <ele>301.77475</ele>
        <time>2015-01-04T10:47:52Z</time>
      </trkpt>
      <trkpt lat="45.67019" lon="4.72385">
        <ele>301.77475</ele>
        <time>2015-01-04T10:47:57Z</time>
      </trkpt>
      <trkpt lat="45.6702" lon="4.72384">
        <ele>301.77475</ele>
        <time>2015-01-04T10:48:02Z</time>
      </trkpt>
      <trkpt lat="45.6702" lon="4.72384">
        <ele>301.77475</ele>
        <time>2015-01-04T10:48:07Z</time>
      </trkpt>
      <trkpt lat="45.6702" lon="4.72384">
        <ele>301.77475</ele>
        <time>2015-01-04T10:48:12Z</time>
      </trkpt>
      <trkpt lat="45.6702" lon="4.72384">
        <ele>301.77475</ele>
        <time>2015-01-04T10:48:17Z</time>
      </trkpt>
      <trkpt lat="45.67019" lon="4.72385">
        <ele>301.77475</ele>
        <time>2015-01-04T10:48:22Z</time>
      </trkpt>
      <trkpt lat="45.6702" lon="4.72387">
        <ele>301.77475</ele>
        <time>2015-01-04T10:48:27Z</time>
      </trkpt>
      <trkpt lat="45.67019" lon="4.72387">
        <ele>301.77475</ele>
        <time>2015-01-04T10:48:32Z</time>
      </trkpt>
      <trkpt lat="45.67018" lon="4.72388">
        <ele>303.74835</ele>
        <time>2015-01-04T10:48:37Z</time>
      </trkpt>
      <trkpt lat="45.67018" lon="4.72387">
        <ele>303.74835</ele>
        <time>2015-01-04T10:48:42Z</time>
      </trkpt>
      <trkpt lat="45.67018" lon="4.72386">
        <ele>303.74835</ele>
        <time>2015-01-04T10:48:47Z</time>
      </trkpt>
      <trkpt lat="45.67019" lon="4.72385">
        <ele>303.74835</ele>
        <time>2015-01-04T10:48:52Z</time>
      </trkpt>
      <trkpt lat="45.67019" lon="4.72384">
        <ele>303.74835</ele>
        <time>2015-01-04T10:48:57Z</time>
      </trkpt>
      <trkpt lat="45.67018" lon="4.72384">
        <ele>303.74835</ele>
        <time>2015-01-04T10:49:02Z</time>
      </trkpt>
      <trkpt lat="45.67017" lon="4.72386">
        <ele>303.74835</ele>
        <time>2015-01-04T10:49:07Z</time>
      </trkpt>
      <trkpt lat="45.67016" lon="4.72385">
        <ele>303.74835</ele>
        <time>2015-01-04T10:49:12Z</time>
      </trkpt>
      <trkpt lat="45.67016" lon="4.72386">
        <ele>303.74835</ele>
        <time>2015-01-04T10:49:17Z</time>
      </trkpt>
      <trkpt lat="45.67016" lon="4.72385">
        <ele>303.74835</ele>
        <time>2015-01-04T10:49:22Z</time>
      </trkpt>
      <trkpt lat="45.67017" lon="4.72385">
        <ele>303.74835</ele>
        <time>2015-01-04T10:49:27Z</time>
      </trkpt>
      <trkpt lat="45.67016" lon="4.7238">
        <ele>305.5097</ele>
        <time>2015-01-04T10:49:32Z</time>
      </trkpt>
      <trkpt lat="45.67016" lon="4.72377">
        <ele>305.5097</ele>
        <time>2015-01-04T10:49:37Z</time>
      </trkpt>
      <trkpt lat="45.67015" lon="4.72374">
        <ele>305.5097</ele>
        <time>2015-01-04T10:49:42Z</time>
      </trkpt>
      <trkpt lat="45.67012" lon="4.72363">
        <ele>307.1125</ele>
        <time>2015-01-04T10:49:47Z</time>
      </trkpt>
      <trkpt lat="45.67011" lon="4.72354">
        <ele>307.1125</ele>
        <time>2015-01-04T10:49:52Z</time>
      </trkpt>
      <trkpt lat="45.67011" lon="4.72345">
        <ele>308.56375</ele>
        <time>2015-01-04T10:49:57Z</time>
      </trkpt>
      <trkpt lat="45.67011" lon="4.72339">
        <ele>308.56375</ele>
        <time>2015-01-04T10:50:02Z</time>
      </trkpt>
      <trkpt lat="45.67012" lon="4.7233">
        <ele>309.85626</ele>
        <time>2015-01-04T10:50:07Z</time>
      </trkpt>
      <trkpt lat="45.67013" lon="4.72322">
        <ele>309.85626</ele>
        <time>2015-01-04T10:50:12Z</time>
      </trkpt>
      <trkpt lat="45.67012" lon="4.72316">
        <ele>311.0416</ele>
        <time>2015-01-04T10:50:17Z</time>
      </trkpt>
      <trkpt lat="45.6701" lon="4.72309">
        <ele>311.0416</ele>
        <time>2015-01-04T10:50:22Z</time>
      </trkpt>
      <trkpt lat="45.6701" lon="4.72303">
        <ele>312.0528</ele>
        <time>2015-01-04T10:50:27Z</time>
      </trkpt>
      <trkpt lat="45.67007" lon="4.72295">
        <ele>312.0528</ele>
        <time>2015-01-04T10:50:32Z</time>
      </trkpt>
      <trkpt lat="45.67007" lon="4.7229">
        <ele>312.87164</ele>
        <time>2015-01-04T10:50:37Z</time>
      </trkpt>
      <trkpt lat="45.67008" lon="4.7228">
        <ele>312.87164</ele>
        <time>2015-01-04T10:50:42Z</time>
      </trkpt>
      <trkpt lat="45.6701" lon="4.72269">
        <ele>313.5829</ele>
        <time>2015-01-04T10:50:47Z</time>
      </trkpt>
      <trkpt lat="45.67011" lon="4.72261">
        <ele>313.5829</ele>
        <time>2015-01-04T10:50:52Z</time>
      </trkpt>
      <trkpt lat="45.67012" lon="4.72254">
        <ele>314.352</ele>
        <time>2015-01-04T10:50:57Z</time>
      </trkpt>
      <trkpt lat="45.67013" lon="4.72243">
        <ele>314.352</ele>
        <time>2015-01-04T10:51:02Z</time>
      </trkpt>
      <trkpt lat="45.67014" lon="4.72237">
        <ele>315.0296</ele>
        <time>2015-01-04T10:51:07Z</time>
      </trkpt>
      <trkpt lat="45.67014" lon="4.7223">
        <ele>315.0296</ele>
        <time>2015-01-04T10:51:12Z</time>
      </trkpt>
      <trkpt lat="45.67014" lon="4.72219">
        <ele>315.50656</ele>
        <time>2015-01-04T10:51:17Z</time>
      </trkpt>
      <trkpt lat="45.67015" lon="4.72209">
        <ele>315.50656</ele>
        <time>2015-01-04T10:51:22Z</time>
      </trkpt>
      <trkpt lat="45.67016" lon="4.72201">
        <ele>316.02835</ele>
        <time>2015-01-04T10:51:27Z</time>
      </trkpt>
      <trkpt lat="45.67018" lon="4.72195">
        <ele>316.02835</ele>
        <time>2015-01-04T10:51:32Z</time>
      </trkpt>
      <trkpt lat="45.67019" lon="4.72188">
        <ele>316.56293</ele>
        <time>2015-01-04T10:51:37Z</time>
      </trkpt>
      <trkpt lat="45.6702" lon="4.72181">
        <ele>316.56293</ele>
        <time>2015-01-04T10:51:42Z</time>
      </trkpt>
      <trkpt lat="45.6702" lon="4.72172">
        <ele>316.99432</ele>
        <time>2015-01-04T10:51:47Z</time>
      </trkpt>
      <trkpt lat="45.67021" lon="4.72162">
        <ele>316.99432</ele>
        <time>2015-01-04T10:51:52Z</time>
      </trkpt>
      <trkpt lat="45.67022" lon="4.72152">
        <ele>317.4027</ele>
        <time>2015-01-04T10:51:57Z</time>
      </trkpt>
      <trkpt lat="45.67026" lon="4.72144">
        <ele>317.4027</ele>
        <time>2015-01-04T10:52:02Z</time>
      </trkpt>
      <trkpt lat="45.6703" lon="4.7214">
        <ele>317.76178</ele>
        <time>2015-01-04T10:52:07Z</time>
      </trkpt>
      <trkpt lat="45.67036" lon="4.72135">
        <ele>317.76178</ele>
        <time>2015-01-04T10:52:12Z</time>
      </trkpt>
      <trkpt lat="45.67041" lon="4.7213">
        <ele>318.11935</ele>
        <time>2015-01-04T10:52:17Z</time>
      </trkpt>
      <trkpt lat="45.67046" lon="4.72125">
        <ele>318.11935</ele>
        <time>2015-01-04T10:52:22Z</time>
      </trkpt>
      <trkpt lat="45.67052" lon="4.72118">
        <ele>318.44775</ele>
        <time>2015-01-04T10:52:27Z</time>
      </trkpt>
      <trkpt lat="45.67056" lon="4.72113">
        <ele>318.44775</ele>
        <time>2015-01-04T10:52:32Z</time>
      </trkpt>
      <trkpt lat="45.67059" lon="4.72106">
        <ele>318.7504</ele>
        <time>2015-01-04T10:52:37Z</time>
      </trkpt>
      <trkpt lat="45.6706" lon="4.72096">
        <ele>318.7504</ele>
        <time>2015-01-04T10:52:42Z</time>
      </trkpt>
      <trkpt lat="45.6706" lon="4.72089">
        <ele>318.95844</ele>
        <time>2015-01-04T10:52:47Z</time>
      </trkpt>
      <trkpt lat="45.67062" lon="4.72078">
        <ele>318.95844</ele>
        <time>2015-01-04T10:52:52Z</time>
      </trkpt>
      <trkpt lat="45.67064" lon="4.72072">
        <ele>318.9652</ele>
        <time>2015-01-04T10:52:57Z</time>
      </trkpt>
      <trkpt lat="45.67065" lon="4.72063">
        <ele>318.9652</ele>
        <time>2015-01-04T10:53:02Z</time>
      </trkpt>
      <trkpt lat="45.67066" lon="4.72055">
        <ele>318.85983</ele>
        <time>2015-01-04T10:53:07Z</time>
      </trkpt>
      <trkpt lat="45.67066" lon="4.72046">
        <ele>318.85983</ele>
        <time>2015-01-04T10:53:12Z</time>
      </trkpt>
      <trkpt lat="45.67068" lon="4.72037">
        <ele>318.6964</ele>
        <time>2015-01-04T10:53:17Z</time>
      </trkpt>
      <trkpt lat="45.6707" lon="4.72029">
        <ele>318.6964</ele>
        <time>2015-01-04T10:53:22Z</time>
      </trkpt>
      <trkpt lat="45.6707" lon="4.72022">
        <ele>318.43875</ele>
        <time>2015-01-04T10:53:27Z</time>
      </trkpt>
      <trkpt lat="45.67072" lon="4.7201">
        <ele>318.43875</ele>
        <time>2015-01-04T10:53:32Z</time>
      </trkpt>
      <trkpt lat="45.67074" lon="4.72003">
        <ele>318.09686</ele>
        <time>2015-01-04T10:53:37Z</time>
      </trkpt>
      <trkpt lat="45.67075" lon="4.71995">
        <ele>318.09686</ele>
        <time>2015-01-04T10:53:42Z</time>
      </trkpt>
      <trkpt lat="45.67077" lon="4.71986">
        <ele>317.66583</ele>
        <time>2015-01-04T10:53:47Z</time>
      </trkpt>
      <trkpt lat="45.67078" lon="4.71978">
        <ele>317.66583</ele>
        <time>2015-01-04T10:53:52Z</time>
      </trkpt>
      <trkpt lat="45.67079" lon="4.71967">
        <ele>317.1846</ele>
        <time>2015-01-04T10:53:57Z</time>
      </trkpt>
      <trkpt lat="45.67079" lon="4.71958">
        <ele>317.1846</ele>
        <time>2015-01-04T10:54:02Z</time>
      </trkpt>
      <trkpt lat="45.6708" lon="4.7195">
        <ele>316.68936</ele>
        <time>2015-01-04T10:54:07Z</time>
      </trkpt>
      <trkpt lat="45.67081" lon="4.7194">
        <ele>316.68936</ele>
        <time>2015-01-04T10:54:12Z</time>
      </trkpt>
      <trkpt lat="45.67083" lon="4.71932">
        <ele>316.1848</ele>
        <time>2015-01-04T10:54:17Z</time>
      </trkpt>
      <trkpt lat="45.67083" lon="4.71921">
        <ele>316.1848</ele>
        <time>2015-01-04T10:54:22Z</time>
      </trkpt>
      <trkpt lat="45.67083" lon="4.71911">
        <ele>315.733</ele>
        <time>2015-01-04T10:54:27Z</time>
      </trkpt>
      <trkpt lat="45.67084" lon="4.71903">
        <ele>315.733</ele>
        <time>2015-01-04T10:54:32Z</time>
      </trkpt>
      <trkpt lat="45.67084" lon="4.71894">
        <ele>315.3479</ele>
        <time>2015-01-04T10:54:37Z</time>
      </trkpt>
      <trkpt lat="45.67084" lon="4.71885">
        <ele>315.3479</ele>
        <time>2015-01-04T10:54:42Z</time>
      </trkpt>
      <trkpt lat="45.67085" lon="4.71874">
        <ele>315.02786</ele>
        <time>2015-01-04T10:54:47Z</time>
      </trkpt>
      <trkpt lat="45.67084" lon="4.71868">
        <ele>315.02786</ele>
        <time>2015-01-04T10:54:52Z</time>
      </trkpt>
      <trkpt lat="45.67084" lon="4.71859">
        <ele>314.74234</ele>
        <time>2015-01-04T10:54:57Z</time>
      </trkpt>
      <trkpt lat="45.67086" lon="4.71848">
        <ele>314.74234</ele>
        <time>2015-01-04T10:55:02Z</time>
      </trkpt>
      <trkpt lat="45.67086" lon="4.71843">
        <ele>314.41953</ele>
        <time>2015-01-04T10:55:07Z</time>
      </trkpt>
      <trkpt lat="45.67086" lon="4.7184">
        <ele>314.41953</ele>
        <time>2015-01-04T10:55:12Z</time>
      </trkpt>
      <trkpt lat="45.67085" lon="4.71833">
        <ele>314.41953</ele>
        <time>2015-01-04T10:55:17Z</time>
      </trkpt>
      <trkpt lat="45.67083" lon="4.71824">
        <ele>314.1083</ele>
        <time>2015-01-04T10:55:22Z</time>
      </trkpt>
      <trkpt lat="45.67083" lon="4.71818">
        <ele>314.1083</ele>
        <time>2015-01-04T10:55:27Z</time>
      </trkpt>
      <trkpt lat="45.67084" lon="4.71811">
        <ele>313.9403</ele>
        <time>2015-01-04T10:55:32Z</time>
      </trkpt>
      <trkpt lat="45.67087" lon="4.71804">
        <ele>313.9403</ele>
        <time>2015-01-04T10:55:37Z</time>
      </trkpt>
      <trkpt lat="45.67086" lon="4.71795">
        <ele>313.7632</ele>
        <time>2015-01-04T10:55:42Z</time>
      </trkpt>
      <trkpt lat="45.67085" lon="4.71788">
        <ele>313.7632</ele>
        <time>2015-01-04T10:55:47Z</time>
      </trkpt>
      <trkpt lat="45.67085" lon="4.71781">
        <ele>313.6664</ele>
        <time>2015-01-04T10:55:52Z</time>
      </trkpt>
      <trkpt lat="45.67085" lon="4.71773">
        <ele>313.6664</ele>
        <time>2015-01-04T10:55:57Z</time>
      </trkpt>
      <trkpt lat="45.67087" lon="4.71764">
        <ele>313.5883</ele>
        <time>2015-01-04T10:56:02Z</time>
      </trkpt>
      <trkpt lat="45.6709" lon="4.71759">
        <ele>313.5883</ele>
        <time>2015-01-04T10:56:07Z</time>
      </trkpt>
      <trkpt lat="45.67093" lon="4.71755">
        <ele>313.5883</ele>
        <time>2015-01-04T10:56:12Z</time>
      </trkpt>
      <trkpt lat="45.67095" lon="4.71755">
        <ele>313.64462</ele>
        <time>2015-01-04T10:56:17Z</time>
      </trkpt>
      <trkpt lat="45.67094" lon="4.71758">
        <ele>313.64462</ele>
        <time>2015-01-04T10:56:22Z</time>
      </trkpt>
      <trkpt lat="45.67094" lon="4.71758">
        <ele>313.64462</ele>
        <time>2015-01-04T10:56:27Z</time>
      </trkpt>
      <trkpt lat="45.67095" lon="4.71759">
        <ele>313.64462</ele>
        <time>2015-01-04T10:56:32Z</time>
      </trkpt>
      <trkpt lat="45.67096" lon="4.71759">
        <ele>313.64462</ele>
        <time>2015-01-04T10:56:37Z</time>
      </trkpt>
      <trkpt lat="45.67095" lon="4.7176">
        <ele>313.64462</ele>
        <time>2015-01-04T10:56:42Z</time>
      </trkpt>
      <trkpt lat="45.67094" lon="4.71759">
        <ele>313.64462</ele>
        <time>2015-01-04T10:56:47Z</time>
      </trkpt>
      <trkpt lat="45.67094" lon="4.71759">
        <ele>313.64462</ele>
        <time>2015-01-04T10:56:52Z</time>
      </trkpt>
      <trkpt lat="45.67094" lon="4.71759">
        <ele>313.64462</ele>
        <time>2015-01-04T10:56:57Z</time>
      </trkpt>
      <trkpt lat="45.67095" lon="4.71758">
        <ele>313.64462</ele>
        <time>2015-01-04T10:57:02Z</time>
      </trkpt>
      <trkpt lat="45.67094" lon="4.71758">
        <ele>313.64462</ele>
        <time>2015-01-04T10:57:07Z</time>
      </trkpt>
      <trkpt lat="45.67095" lon="4.71757">
        <ele>313.64462</ele>
        <time>2015-01-04T10:57:12Z</time>
      </trkpt>
      <trkpt lat="45.67096" lon="4.71757">
        <ele>313.64462</ele>
        <time>2015-01-04T10:57:17Z</time>
      </trkpt>
      <trkpt lat="45.67096" lon="4.71757">
        <ele>313.64462</ele>
        <time>2015-01-04T10:57:22Z</time>
      </trkpt>
      <trkpt lat="45.67095" lon="4.71757">
        <ele>313.64462</ele>
        <time>2015-01-04T10:57:27Z</time>
      </trkpt>
      <trkpt lat="45.67095" lon="4.71756">
        <ele>313.8557</ele>
        <time>2015-01-04T10:57:32Z</time>
      </trkpt>
      <trkpt lat="45.67095" lon="4.71756">
        <ele>313.8557</ele>
        <time>2015-01-04T10:57:37Z</time>
      </trkpt>
      <trkpt lat="45.67095" lon="4.71756">
        <ele>313.8557</ele>
        <time>2015-01-04T10:57:42Z</time>
      </trkpt>
      <trkpt lat="45.67096" lon="4.71757">
        <ele>313.8557</ele>
        <time>2015-01-04T10:57:47Z</time>
      </trkpt>
      <trkpt lat="45.67095" lon="4.71758">
        <ele>313.8557</ele>
        <time>2015-01-04T10:57:52Z</time>
      </trkpt>
      <trkpt lat="45.67095" lon="4.71758">
        <ele>313.8557</ele>
        <time>2015-01-04T10:57:57Z</time>
      </trkpt>
      <trkpt lat="45.67096" lon="4.71759">
        <ele>313.8557</ele>
        <time>2015-01-04T10:58:02Z</time>
      </trkpt>
      <trkpt lat="45.67096" lon="4.71759">
        <ele>313.8557</ele>
        <time>2015-01-04T10:58:07Z</time>
      </trkpt>
      <trkpt lat="45.67097" lon="4.71759">
        <ele>313.8557</ele>
        <time>2015-01-04T10:58:12Z</time>
      </trkpt>
      <trkpt lat="45.67098" lon="4.71759">
        <ele>313.8557</ele>
        <time>2015-01-04T10:58:17Z</time>
      </trkpt>
      <trkpt lat="45.67098" lon="4.71759">
        <ele>313.8557</ele>
        <time>2015-01-04T10:58:22Z</time>
      </trkpt>
      <trkpt lat="45.67098" lon="4.71759">
        <ele>313.8557</ele>
        <time>2015-01-04T10:58:27Z</time>
      </trkpt>
      <trkpt lat="45.67097" lon="4.71759">
        <ele>313.8557</ele>
        <time>2015-01-04T10:58:32Z</time>
      </trkpt>
      <trkpt lat="45.67096" lon="4.71757">
        <ele>313.8557</ele>
        <time>2015-01-04T10:58:37Z</time>
      </trkpt>
      <trkpt lat="45.67095" lon="4.71756">
        <ele>314.2543</ele>
        <time>2015-01-04T10:58:42Z</time>
      </trkpt>
      <trkpt lat="45.67095" lon="4.71756">
        <ele>314.2543</ele>
        <time>2015-01-04T10:58:47Z</time>
      </trkpt>
      <trkpt lat="45.67095" lon="4.71756">
        <ele>314.2543</ele>
        <time>2015-01-04T10:58:52Z</time>
      </trkpt>
      <trkpt lat="45.67094" lon="4.71755">
        <ele>314.2543</ele>
        <time>2015-01-04T10:58:57Z</time>
      </trkpt>
      <trkpt lat="45.67094" lon="4.71755">
        <ele>314.2543</ele>
        <time>2015-01-04T10:59:02Z</time>
      </trkpt>
      <trkpt lat="45.67097" lon="4.71753">
        <ele>314.2543</ele>
        <time>2015-01-04T10:59:07Z</time>
      </trkpt>
      <trkpt lat="45.67097" lon="4.71752">
        <ele>314.2543</ele>
        <time>2015-01-04T10:59:12Z</time>
      </trkpt>
      <trkpt lat="45.67097" lon="4.71752">
        <ele>314.2543</ele>
        <time>2015-01-04T10:59:17Z</time>
      </trkpt>
      <trkpt lat="45.67096" lon="4.71755">
        <ele>314.2543</ele>
        <time>2015-01-04T10:59:22Z</time>
      </trkpt>
      <trkpt lat="45.67096" lon="4.71754">
        <ele>314.2543</ele>
        <time>2015-01-04T10:59:27Z</time>
      </trkpt>
      <trkpt lat="45.67097" lon="4.71755">
        <ele>314.8269</ele>
        <time>2015-01-04T10:59:32Z</time>
      </trkpt>
      <trkpt lat="45.67098" lon="4.71756">
        <ele>314.8269</ele>
        <time>2015-01-04T10:59:37Z</time>
      </trkpt>
      <trkpt lat="45.67098" lon="4.71758">
        <ele>314.8269</ele>
        <time>2015-01-04T10:59:42Z</time>
      </trkpt>
      <trkpt lat="45.67099" lon="4.7176">
        <ele>314.8269</ele>
        <time>2015-01-04T10:59:47Z</time>
      </trkpt>
      <trkpt lat="45.67099" lon="4.7176">
        <ele>314.8269</ele>
        <time>2015-01-04T10:59:52Z</time>
      </trkpt>
      <trkpt lat="45.67101" lon="4.7176">
        <ele>314.8269</ele>
        <time>2015-01-04T10:59:57Z</time>
      </trkpt>
      <trkpt lat="45.67101" lon="4.7176">
        <ele>314.8269</ele>
        <time>2015-01-04T11:00:02Z</time>
      </trkpt>
      <trkpt lat="45.67101" lon="4.7176">
        <ele>314.8269</ele>
        <time>2015-01-04T11:00:07Z</time>
      </trkpt>
      <trkpt lat="45.67101" lon="4.7176">
        <ele>314.8269</ele>
        <time>2015-01-04T11:00:12Z</time>
      </trkpt>
      <trkpt lat="45.67101" lon="4.7176">
        <ele>314.8269</ele>
        <time>2015-01-04T11:00:17Z</time>
      </trkpt>
      <trkpt lat="45.671" lon="4.71761">
        <ele>314.8269</ele>
        <time>2015-01-04T11:00:22Z</time>
      </trkpt>
      <trkpt lat="45.67101" lon="4.71761">
        <ele>314.8269</ele>
        <time>2015-01-04T11:00:27Z</time>
      </trkpt>
      <trkpt lat="45.67101" lon="4.71762">
        <ele>315.35867</ele>
        <time>2015-01-04T11:00:32Z</time>
      </trkpt>
      <trkpt lat="45.67103" lon="4.71762">
        <ele>315.35867</ele>
        <time>2015-01-04T11:00:37Z</time>
      </trkpt>
      <trkpt lat="45.67103" lon="4.71761">
        <ele>315.35867</ele>
        <time>2015-01-04T11:00:42Z</time>
      </trkpt>
      <trkpt lat="45.67103" lon="4.71761">
        <ele>315.35867</ele>
        <time>2015-01-04T11:00:47Z</time>
      </trkpt>
      <trkpt lat="45.67103" lon="4.71761">
        <ele>315.35867</ele>
        <time>2015-01-04T11:00:52Z</time>
      </trkpt>
      <trkpt lat="45.67106" lon="4.7176">
        <ele>315.35867</ele>
        <time>2015-01-04T11:00:57Z</time>
      </trkpt>
      <trkpt lat="45.6711" lon="4.7176">
        <ele>315.7659</ele>
        <time>2015-01-04T11:01:02Z</time>
      </trkpt>
      <trkpt lat="45.67117" lon="4.7176">
        <ele>315.7659</ele>
        <time>2015-01-04T11:01:07Z</time>
      </trkpt>
      <trkpt lat="45.67123" lon="4.71761">
        <ele>316.10107</ele>
        <time>2015-01-04T11:01:12Z</time>
      </trkpt>
      <trkpt lat="45.67126" lon="4.71764">
        <ele>316.10107</ele>
        <time>2015-01-04T11:01:17Z</time>
      </trkpt>
      <trkpt lat="45.67127" lon="4.71766">
        <ele>316.10107</ele>
        <time>2015-01-04T11:01:22Z</time>
      </trkpt>
      <trkpt lat="45.67128" lon="4.71767">
        <ele>316.10107</ele>
        <time>2015-01-04T11:01:27Z</time>
      </trkpt>
      <trkpt lat="45.67128" lon="4.71765">
        <ele>316.10107</ele>
        <time>2015-01-04T11:01:32Z</time>
      </trkpt>
      <trkpt lat="45.67129" lon="4.71764">
        <ele>316.10107</ele>
        <time>2015-01-04T11:01:37Z</time>
      </trkpt>
      <trkpt lat="45.67129" lon="4.71763">
        <ele>316.3841</ele>
        <time>2015-01-04T11:01:42Z</time>
      </trkpt>
      <trkpt lat="45.67128" lon="4.71764">
        <ele>316.3841</ele>
        <time>2015-01-04T11:01:47Z</time>
      </trkpt>
      <trkpt lat="45.67127" lon="4.71764">
        <ele>316.3841</ele>
        <time>2015-01-04T11:01:52Z</time>
      </trkpt>
      <trkpt lat="45.67126" lon="4.71763">
        <ele>316.3841</ele>
        <time>2015-01-04T11:01:57Z</time>
      </trkpt>
      <trkpt lat="45.67126" lon="4.71763">
        <ele>316.3841</ele>
        <time>2015-01-04T11:02:02Z</time>
      </trkpt>
      <trkpt lat="45.67127" lon="4.71764">
        <ele>316.3841</ele>
        <time>2015-01-04T11:02:07Z</time>
      </trkpt>
      <trkpt lat="45.67127" lon="4.71765">
        <ele>316.3841</ele>
        <time>2015-01-04T11:02:12Z</time>
      </trkpt>
      <trkpt lat="45.67132" lon="4.71763">
        <ele>316.60468</ele>
        <time>2015-01-04T11:02:17Z</time>
      </trkpt>
      <trkpt lat="45.6714" lon="4.71763">
        <ele>316.60468</ele>
        <time>2015-01-04T11:02:22Z</time>
      </trkpt>
      <trkpt lat="45.67148" lon="4.71762">
        <ele>316.75345</ele>
        <time>2015-01-04T11:02:27Z</time>
      </trkpt>
      <trkpt lat="45.67155" lon="4.71761">
        <ele>316.75345</ele>
        <time>2015-01-04T11:02:32Z</time>
      </trkpt>
      <trkpt lat="45.67164" lon="4.71761">
        <ele>316.90836</ele>
        <time>2015-01-04T11:02:37Z</time>
      </trkpt>
      <trkpt lat="45.67169" lon="4.71761">
        <ele>316.90836</ele>
        <time>2015-01-04T11:02:42Z</time>
      </trkpt>
      <trkpt lat="45.67179" lon="4.71763">
        <ele>316.9974</ele>
        <time>2015-01-04T11:02:47Z</time>
      </trkpt>
      <trkpt lat="45.67187" lon="4.71765">
        <ele>316.9974</ele>
        <time>2015-01-04T11:02:52Z</time>
      </trkpt>
      <trkpt lat="45.67194" lon="4.71765">
        <ele>317.06937</ele>
        <time>2015-01-04T11:02:57Z</time>
      </trkpt>
      <trkpt lat="45.67203" lon="4.71765">
        <ele>317.06937</ele>
        <time>2015-01-04T11:03:02Z</time>
      </trkpt>
      <trkpt lat="45.67207" lon="4.71765">
        <ele>317.11176</ele>
        <time>2015-01-04T11:03:07Z</time>
      </trkpt>
      <trkpt lat="45.67215" lon="4.71767">
        <ele>317.11176</ele>
        <time>2015-01-04T11:03:12Z</time>
      </trkpt>
      <trkpt lat="45.67222" lon="4.71767">
        <ele>317.06985</ele>
        <time>2015-01-04T11:03:17Z</time>
      </trkpt>
      <trkpt lat="45.6723" lon="4.71766">
        <ele>317.06985</ele>
        <time>2015-01-04T11:03:22Z</time>
      </trkpt>
      <trkpt lat="45.67237" lon="4.71766">
        <ele>317.00845</ele>
        <time>2015-01-04T11:03:27Z</time>
      </trkpt>
      <trkpt lat="45.67246" lon="4.71767">
        <ele>316.9443</ele>
        <time>2015-01-04T11:03:32Z</time>
      </trkpt>
      <trkpt lat="45.67254" lon="4.71768">
        <ele>316.9443</ele>
        <time>2015-01-04T11:03:37Z</time>
      </trkpt>
      <trkpt lat="45.67261" lon="4.71768">
        <ele>316.84976</ele>
        <time>2015-01-04T11:03:42Z</time>
      </trkpt>
      <trkpt lat="45.67269" lon="4.71767">
        <ele>316.84976</ele>
        <time>2015-01-04T11:03:47Z</time>
      </trkpt>
      <trkpt lat="45.67275" lon="4.71769">
        <ele>316.74237</ele>
        <time>2015-01-04T11:03:52Z</time>
      </trkpt>
      <trkpt lat="45.67281" lon="4.71771">
        <ele>316.74237</ele>
        <time>2015-01-04T11:03:57Z</time>
      </trkpt>
      <trkpt lat="45.6729" lon="4.7177">
        <ele>316.59528</ele>
        <time>2015-01-04T11:04:02Z</time>
      </trkpt>
      <trkpt lat="45.67299" lon="4.7177">
        <ele>316.59528</ele>
        <time>2015-01-04T11:04:07Z</time>
      </trkpt>
      <trkpt lat="45.67306" lon="4.71768">
        <ele>316.49887</ele>
        <time>2015-01-04T11:04:12Z</time>
      </trkpt>
      <trkpt lat="45.67315" lon="4.71767">
        <ele>316.40707</ele>
        <time>2015-01-04T11:04:17Z</time>
      </trkpt>
      <trkpt lat="45.67322" lon="4.71766">
        <ele>316.40707</ele>
        <time>2015-01-04T11:04:22Z</time>
      </trkpt>
      <trkpt lat="45.6733" lon="4.71766">
        <ele>316.32037</ele>
        <time>2015-01-04T11:04:27Z</time>
      </trkpt>
      <trkpt lat="45.67338" lon="4.71765">
        <ele>316.32037</ele>
        <time>2015-01-04T11:04:32Z</time>
      </trkpt>
      <trkpt lat="45.67347" lon="4.71764">
        <ele>316.28235</ele>
        <time>2015-01-04T11:04:37Z</time>
      </trkpt>
      <trkpt lat="45.67354" lon="4.71763">
        <ele>316.28235</ele>
        <time>2015-01-04T11:04:42Z</time>
      </trkpt>
      <trkpt lat="45.6736" lon="4.71764">
        <ele>316.218</ele>
        <time>2015-01-04T11:04:47Z</time>
      </trkpt>
      <trkpt lat="45.67367" lon="4.71764">
        <ele>316.218</ele>
        <time>2015-01-04T11:04:52Z</time>
      </trkpt>
      <trkpt lat="45.67374" lon="4.71764">
        <ele>316.23074</ele>
        <time>2015-01-04T11:04:57Z</time>
      </trkpt>
      <trkpt lat="45.67381" lon="4.71764">
        <ele>316.23074</ele>
        <time>2015-01-04T11:05:02Z</time>
      </trkpt>
      <trkpt lat="45.67386" lon="4.71765">
        <ele>316.3441</ele>
        <time>2015-01-04T11:05:07Z</time>
      </trkpt>
      <trkpt lat="45.67393" lon="4.71766">
        <ele>316.3441</ele>
        <time>2015-01-04T11:05:12Z</time>
      </trkpt>
      <trkpt lat="45.67401" lon="4.71767">
        <ele>316.59396</ele>
        <time>2015-01-04T11:05:17Z</time>
      </trkpt>
      <trkpt lat="45.67409" lon="4.71768">
        <ele>316.59396</ele>
        <time>2015-01-04T11:05:22Z</time>
      </trkpt>
      <trkpt lat="45.67417" lon="4.71769">
        <ele>316.82587</ele>
        <time>2015-01-04T11:05:27Z</time>
      </trkpt>
      <trkpt lat="45.67423" lon="4.71768">
        <ele>316.82587</ele>
        <time>2015-01-04T11:05:32Z</time>
      </trkpt>
      <trkpt lat="45.67429" lon="4.71769">
        <ele>316.99756</ele>
        <time>2015-01-04T11:05:37Z</time>
      </trkpt>
      <trkpt lat="45.67435" lon="4.71769">
        <ele>316.99756</ele>
        <time>2015-01-04T11:05:42Z</time>
      </trkpt>
      <trkpt lat="45.67441" lon="4.71769">
        <ele>317.17093</ele>
        <time>2015-01-04T11:05:47Z</time>
      </trkpt>
      <trkpt lat="45.67447" lon="4.71769">
        <ele>317.17093</ele>
        <time>2015-01-04T11:05:52Z</time>
      </trkpt>
      <trkpt lat="45.67454" lon="4.71768">
        <ele>317.3456</ele>
        <time>2015-01-04T11:05:57Z</time>
      </trkpt>
      <trkpt lat="45.6746" lon="4.71767">
        <ele>317.3456</ele>
        <time>2015-01-04T11:06:02Z</time>
      </trkpt>
      <trkpt lat="45.67467" lon="4.71766">
        <ele>317.4781</ele>
        <time>2015-01-04T11:06:07Z</time>
      </trkpt>
      <trkpt lat="45.67474" lon="4.71765">
        <ele>317.4781</ele>
        <time>2015-01-04T11:06:12Z</time>
      </trkpt>
      <trkpt lat="45.67479" lon="4.71764">
        <ele>317.6001</ele>
        <time>2015-01-04T11:06:17Z</time>
      </trkpt>
      <trkpt lat="45.67485" lon="4.71761">
        <ele>317.6001</ele>
        <time>2015-01-04T11:06:22Z</time>
      </trkpt>
      <trkpt lat="45.67491" lon="4.71758">
        <ele>317.76996</ele>
        <time>2015-01-04T11:06:27Z</time>
      </trkpt>
      <trkpt lat="45.67498" lon="4.71757">
        <ele>317.76996</ele>
        <time>2015-01-04T11:06:32Z</time>
      </trkpt>
      <trkpt lat="45.67504" lon="4.71755">
        <ele>317.9262</ele>
        <time>2015-01-04T11:06:37Z</time>
      </trkpt>
      <trkpt lat="45.6751" lon="4.71751">
        <ele>317.9262</ele>
        <time>2015-01-04T11:06:42Z</time>
      </trkpt>
      <trkpt lat="45.67516" lon="4.71748">
        <ele>318.06964</ele>
        <time>2015-01-04T11:06:47Z</time>
      </trkpt>
      <trkpt lat="45.67522" lon="4.71745">
        <ele>318.06964</ele>
        <time>2015-01-04T11:06:52Z</time>
      </trkpt>
      <trkpt lat="45.67529" lon="4.71742">
        <ele>318.2442</ele>
        <time>2015-01-04T11:06:57Z</time>
      </trkpt>
      <trkpt lat="45.67535" lon="4.71741">
        <ele>318.2442</ele>
        <time>2015-01-04T11:07:02Z</time>
      </trkpt>
      <trkpt lat="45.6754" lon="4.7174">
        <ele>318.34637</ele>
        <time>2015-01-04T11:07:07Z</time>
      </trkpt>
      <trkpt lat="45.67544" lon="4.71744">
        <ele>318.34637</ele>
        <time>2015-01-04T11:07:12Z</time>
      </trkpt>
      <trkpt lat="45.6755" lon="4.71747">
        <ele>318.4823</ele>
        <time>2015-01-04T11:07:17Z</time>
      </trkpt>
      <trkpt lat="45.67556" lon="4.71752">
        <ele>318.4823</ele>
        <time>2015-01-04T11:07:22Z</time>
      </trkpt>
      <trkpt lat="45.67562" lon="4.71757">
        <ele>318.6204</ele>
        <time>2015-01-04T11:07:27Z</time>
      </trkpt>
      <trkpt lat="45.67566" lon="4.71764">
        <ele>318.6204</ele>
        <time>2015-01-04T11:07:32Z</time>
      </trkpt>
      <trkpt lat="45.67571" lon="4.71771">
        <ele>318.6594</ele>
        <time>2015-01-04T11:07:37Z</time>
      </trkpt>
      <trkpt lat="45.67576" lon="4.71776">
        <ele>318.6594</ele>
        <time>2015-01-04T11:07:42Z</time>
      </trkpt>
      <trkpt lat="45.6758" lon="4.7178">
        <ele>318.73636</ele>
        <time>2015-01-04T11:07:47Z</time>
      </trkpt>
      <trkpt lat="45.67584" lon="4.71787">
        <ele>318.73636</ele>
        <time>2015-01-04T11:07:52Z</time>
      </trkpt>
      <trkpt lat="45.6759" lon="4.71796">
        <ele>318.81955</ele>
        <time>2015-01-04T11:07:57Z</time>
      </trkpt>
      <trkpt lat="45.67594" lon="4.718">
        <ele>318.81955</ele>
        <time>2015-01-04T11:08:02Z</time>
      </trkpt>
      <trkpt lat="45.676" lon="4.71806">
        <ele>318.82202</ele>
        <time>2015-01-04T11:08:07Z</time>
      </trkpt>
      <trkpt lat="45.67607" lon="4.71811">
        <ele>318.82202</ele>
        <time>2015-01-04T11:08:12Z</time>
      </trkpt>
      <trkpt lat="45.67614" lon="4.71816">
        <ele>318.86505</ele>
        <time>2015-01-04T11:08:17Z</time>
      </trkpt>
      <trkpt lat="45.6762" lon="4.71821">
        <ele>318.86505</ele>
        <time>2015-01-04T11:08:22Z</time>
      </trkpt>
      <trkpt lat="45.67623" lon="4.71825">
        <ele>318.88806</ele>
        <time>2015-01-04T11:08:27Z</time>
      </trkpt>
      <trkpt lat="45.67627" lon="4.71829">
        <ele>318.88806</ele>
        <time>2015-01-04T11:08:32Z</time>
      </trkpt>
      <trkpt lat="45.67634" lon="4.71838">
        <ele>318.92145</ele>
        <time>2015-01-04T11:08:37Z</time>
      </trkpt>
      <trkpt lat="45.6764" lon="4.71843">
        <ele>318.92145</ele>
        <time>2015-01-04T11:08:42Z</time>
      </trkpt>
      <trkpt lat="45.67647" lon="4.71848">
        <ele>318.84912</ele>
        <time>2015-01-04T11:08:47Z</time>
      </trkpt>
      <trkpt lat="45.67651" lon="4.7185">
        <ele>318.84912</ele>
        <time>2015-01-04T11:08:52Z</time>
      </trkpt>
      <trkpt lat="45.67657" lon="4.71852">
        <ele>318.75128</ele>
        <time>2015-01-04T11:08:57Z</time>
      </trkpt>
      <trkpt lat="45.67664" lon="4.7186">
        <ele>318.75128</ele>
        <time>2015-01-04T11:09:02Z</time>
      </trkpt>
      <trkpt lat="45.67671" lon="4.71865">
        <ele>318.65903</ele>
        <time>2015-01-04T11:09:07Z</time>
      </trkpt>
      <trkpt lat="45.67676" lon="4.71871">
        <ele>318.65903</ele>
        <time>2015-01-04T11:09:12Z</time>
      </trkpt>
      <trkpt lat="45.67683" lon="4.71876">
        <ele>318.62994</ele>
        <time>2015-01-04T11:09:17Z</time>
      </trkpt>
      <trkpt lat="45.67688" lon="4.7188">
        <ele>318.62994</ele>
        <time>2015-01-04T11:09:22Z</time>
      </trkpt>
      <trkpt lat="45.67693" lon="4.71885">
        <ele>318.6596</ele>
        <time>2015-01-04T11:09:27Z</time>
      </trkpt>
      <trkpt lat="45.67699" lon="4.71891">
        <ele>318.6596</ele>
        <time>2015-01-04T11:09:32Z</time>
      </trkpt>
      <trkpt lat="45.67703" lon="4.71896">
        <ele>318.72928</ele>
        <time>2015-01-04T11:09:37Z</time>
      </trkpt>
      <trkpt lat="45.67709" lon="4.71899">
        <ele>318.72928</ele>
        <time>2015-01-04T11:09:42Z</time>
      </trkpt>
      <trkpt lat="45.67714" lon="4.71902">
        <ele>318.96567</ele>
        <time>2015-01-04T11:09:47Z</time>
      </trkpt>
      <trkpt lat="45.67715" lon="4.71902">
        <ele>318.96567</ele>
        <time>2015-01-04T11:09:52Z</time>
      </trkpt>
      <trkpt lat="45.67714" lon="4.71902">
        <ele>318.96567</ele>
        <time>2015-01-04T11:09:57Z</time>
      </trkpt>
      <trkpt lat="45.67713" lon="4.71902">
        <ele>318.96567</ele>
        <time>2015-01-04T11:10:02Z</time>
      </trkpt>
      <trkpt lat="45.67711" lon="4.71902">
        <ele>318.96567</ele>
        <time>2015-01-04T11:10:07Z</time>
      </trkpt>
      <trkpt lat="45.67711" lon="4.71902">
        <ele>318.96567</ele>
        <time>2015-01-04T11:10:12Z</time>
      </trkpt>
      <trkpt lat="45.67711" lon="4.71902">
        <ele>318.96567</ele>
        <time>2015-01-04T11:10:17Z</time>
      </trkpt>
      <trkpt lat="45.67711" lon="4.71902">
        <ele>318.96567</ele>
        <time>2015-01-04T11:10:22Z</time>
      </trkpt>
      <trkpt lat="45.67712" lon="4.71904">
        <ele>318.96567</ele>
        <time>2015-01-04T11:10:27Z</time>
      </trkpt>
      <trkpt lat="45.67712" lon="4.71904">
        <ele>318.96567</ele>
        <time>2015-01-04T11:10:32Z</time>
      </trkpt>
      <trkpt lat="45.67712" lon="4.71904">
        <ele>318.96567</ele>
        <time>2015-01-04T11:10:37Z</time>
      </trkpt>
      <trkpt lat="45.67712" lon="4.71904">
        <ele>319.1398</ele>
        <time>2015-01-04T11:10:42Z</time>
      </trkpt>
      <trkpt lat="45.67712" lon="4.71904">
        <ele>319.1398</ele>
        <time>2015-01-04T11:10:47Z</time>
      </trkpt>
      <trkpt lat="45.67712" lon="4.71903">
        <ele>319.1398</ele>
        <time>2015-01-04T11:10:52Z</time>
      </trkpt>
      <trkpt lat="45.67713" lon="4.71902">
        <ele>319.1398</ele>
        <time>2015-01-04T11:10:57Z</time>
      </trkpt>
      <trkpt lat="45.67712" lon="4.71903">
        <ele>319.1398</ele>
        <time>2015-01-04T11:11:02Z</time>
      </trkpt>
      <trkpt lat="45.67713" lon="4.71902">
        <ele>319.1398</ele>
        <time>2015-01-04T11:11:07Z</time>
      </trkpt>
      <trkpt lat="45.67717" lon="4.71903">
        <ele>319.1398</ele>
        <time>2015-01-04T11:11:12Z</time>
      </trkpt>
      <trkpt lat="45.67721" lon="4.71906">
        <ele>319.31345</ele>
        <time>2015-01-04T11:11:17Z</time>
      </trkpt>
      <trkpt lat="45.67727" lon="4.7191">
        <ele>319.31345</ele>
        <time>2015-01-04T11:11:22Z</time>
      </trkpt>
      <trkpt lat="45.67733" lon="4.71913">
        <ele>319.4575</ele>
        <time>2015-01-04T11:11:27Z</time>
      </trkpt>
      <trkpt lat="45.67732" lon="4.71913">
        <ele>319.4575</ele>
        <time>2015-01-04T11:11:32Z</time>
      </trkpt>
      <trkpt lat="45.67736" lon="4.71915">
        <ele>319.4575</ele>
        <time>2015-01-04T11:11:37Z</time>
      </trkpt>
      <trkpt lat="45.67742" lon="4.71919">
        <ele>319.58817</ele>
        <time>2015-01-04T11:11:42Z</time>
      </trkpt>
      <trkpt lat="45.67746" lon="4.71919">
        <ele>319.58817</ele>
        <time>2015-01-04T11:11:47Z</time>
      </trkpt>
      <trkpt lat="45.67753" lon="4.71922">
        <ele>319.6774</ele>
        <time>2015-01-04T11:11:52Z</time>
      </trkpt>
      <trkpt lat="45.67762" lon="4.71924">
        <ele>319.72806</ele>
        <time>2015-01-04T11:11:57Z</time>
      </trkpt>
      <trkpt lat="45.67767" lon="4.71924">
        <ele>319.72806</ele>
        <time>2015-01-04T11:12:02Z</time>
      </trkpt>
      <trkpt lat="45.6777" lon="4.71927">
        <ele>319.72806</ele>
        <time>2015-01-04T11:12:07Z</time>
      </trkpt>
      <trkpt lat="45.67777" lon="4.7193">
        <ele>319.6709</ele>
        <time>2015-01-04T11:12:12Z</time>
      </trkpt>
      <trkpt lat="45.67784" lon="4.71934">
        <ele>319.6709</ele>
        <time>2015-01-04T11:12:17Z</time>
      </trkpt>
      <trkpt lat="45.67788" lon="4.71938">
        <ele>319.58615</ele>
        <time>2015-01-04T11:12:22Z</time>
      </trkpt>
      <trkpt lat="45.67792" lon="4.71942">
        <ele>319.58615</ele>
        <time>2015-01-04T11:12:27Z</time>
      </trkpt>
      <trkpt lat="45.67797" lon="4.71945">
        <ele>319.50497</ele>
        <time>2015-01-04T11:12:32Z</time>
      </trkpt>
      <trkpt lat="45.67802" lon="4.71947">
        <ele>319.50497</ele>
        <time>2015-01-04T11:12:37Z</time>
      </trkpt>
      <trkpt lat="45.67806" lon="4.71948">
        <ele>319.41306</ele>
        <time>2015-01-04T11:12:42Z</time>
      </trkpt>
      <trkpt lat="45.6781" lon="4.71952">
        <ele>319.41306</ele>
        <time>2015-01-04T11:12:47Z</time>
      </trkpt>
      <trkpt lat="45.67813" lon="4.71956">
        <ele>319.4124</ele>
        <time>2015-01-04T11:12:52Z</time>
      </trkpt>
      <trkpt lat="45.67818" lon="4.71958">
        <ele>319.4124</ele>
        <time>2015-01-04T11:12:57Z</time>
      </trkpt>
      <trkpt lat="45.67822" lon="4.71962">
        <ele>319.41</ele>
        <time>2015-01-04T11:13:02Z</time>
      </trkpt>
      <trkpt lat="45.67826" lon="4.71963">
        <ele>319.41</ele>
        <time>2015-01-04T11:13:07Z</time>
      </trkpt>
      <trkpt lat="45.67831" lon="4.71964">
        <ele>319.52133</ele>
        <time>2015-01-04T11:13:12Z</time>
      </trkpt>
      <trkpt lat="45.67837" lon="4.71969">
        <ele>319.52133</ele>
        <time>2015-01-04T11:13:17Z</time>
      </trkpt>
      <trkpt lat="45.67843" lon="4.71971">
        <ele>319.6369</ele>
        <time>2015-01-04T11:13:22Z</time>
      </trkpt>
      <trkpt lat="45.67848" lon="4.71975">
        <ele>319.6369</ele>
        <time>2015-01-04T11:13:27Z</time>
      </trkpt>
      <trkpt lat="45.67851" lon="4.71978">
        <ele>319.72745</ele>
        <time>2015-01-04T11:13:32Z</time>
      </trkpt>
      <trkpt lat="45.67856" lon="4.71983">
        <ele>319.72745</ele>
        <time>2015-01-04T11:13:37Z</time>
      </trkpt>
      <trkpt lat="45.67861" lon="4.71986">
        <ele>319.8666</ele>
        <time>2015-01-04T11:13:42Z</time>
      </trkpt>
      <trkpt lat="45.67865" lon="4.71989">
        <ele>319.8666</ele>
        <time>2015-01-04T11:13:47Z</time>
      </trkpt>
      <trkpt lat="45.6787" lon="4.71993">
        <ele>319.99295</ele>
        <time>2015-01-04T11:13:52Z</time>
      </trkpt>
      <trkpt lat="45.67874" lon="4.71997">
        <ele>319.99295</ele>
        <time>2015-01-04T11:13:57Z</time>
      </trkpt>
      <trkpt lat="45.67879" lon="4.72">
        <ele>320.07828</ele>
        <time>2015-01-04T11:14:02Z</time>
      </trkpt>
      <trkpt lat="45.67885" lon="4.72004">
        <ele>320.07828</ele>
        <time>2015-01-04T11:14:07Z</time>
      </trkpt>
      <trkpt lat="45.67889" lon="4.72008">
        <ele>320.1543</ele>
        <time>2015-01-04T11:14:12Z</time>
      </trkpt>
      <trkpt lat="45.67893" lon="4.72012">
        <ele>320.1543</ele>
        <time>2015-01-04T11:14:17Z</time>
      </trkpt>
      <trkpt lat="45.67899" lon="4.72017">
        <ele>320.19278</ele>
        <time>2015-01-04T11:14:22Z</time>
      </trkpt>
      <trkpt lat="45.67904" lon="4.72019">
        <ele>320.19278</ele>
        <time>2015-01-04T11:14:27Z</time>
      </trkpt>
      <trkpt lat="45.67909" lon="4.72022">
        <ele>320.3694</ele>
        <time>2015-01-04T11:14:32Z</time>
      </trkpt>
      <trkpt lat="45.67913" lon="4.72025">
        <ele>320.3694</ele>
        <time>2015-01-04T11:14:37Z</time>
      </trkpt>
      <trkpt lat="45.67919" lon="4.7203">
        <ele>320.67358</ele>
        <time>2015-01-04T11:14:42Z</time>
      </trkpt>
      <trkpt lat="45.67924" lon="4.72036">
        <ele>320.67358</ele>
        <time>2015-01-04T11:14:47Z</time>
      </trkpt>
      <trkpt lat="45.67928" lon="4.72041">
        <ele>321.0376</ele>
        <time>2015-01-04T11:14:52Z</time>
      </trkpt>
      <trkpt lat="45.67933" lon="4.72045">
        <ele>321.0376</ele>
        <time>2015-01-04T11:14:57Z</time>
      </trkpt>
      <trkpt lat="45.67938" lon="4.72051">
        <ele>321.34088</ele>
        <time>2015-01-04T11:15:02Z</time>
      </trkpt>
      <trkpt lat="45.67945" lon="4.72055">
        <ele>321.34088</ele>
        <time>2015-01-04T11:15:07Z</time>
      </trkpt>
      <trkpt lat="45.6795" lon="4.72059">
        <ele>321.63034</ele>
        <time>2015-01-04T11:15:12Z</time>
      </trkpt>
      <trkpt lat="45.67955" lon="4.72065">
        <ele>321.63034</ele>
        <time>2015-01-04T11:15:17Z</time>
      </trkpt>
      <trkpt lat="45.67958" lon="4.72069">
        <ele>321.83426</ele>
        <time>2015-01-04T11:15:22Z</time>
      </trkpt>
      <trkpt lat="45.67964" lon="4.72074">
        <ele>321.83426</ele>
        <time>2015-01-04T11:15:27Z</time>
      </trkpt>
      <trkpt lat="45.67968" lon="4.72078">
        <ele>321.95853</ele>
        <time>2015-01-04T11:15:32Z</time>
      </trkpt>
      <trkpt lat="45.6797" lon="4.72082">
        <ele>321.95853</ele>
        <time>2015-01-04T11:15:37Z</time>
      </trkpt>
      <trkpt lat="45.67972" lon="4.72085">
        <ele>321.95853</ele>
        <time>2015-01-04T11:15:42Z</time>
      </trkpt>
      <trkpt lat="45.67974" lon="4.72085">
        <ele>322.10962</ele>
        <time>2015-01-04T11:15:47Z</time>
      </trkpt>
      <trkpt lat="45.67976" lon="4.72084">
        <ele>322.10962</ele>
        <time>2015-01-04T11:15:52Z</time>
      </trkpt>
      <trkpt lat="45.67976" lon="4.72083">
        <ele>322.10962</ele>
        <time>2015-01-04T11:15:57Z</time>
      </trkpt>
      <trkpt lat="45.67976" lon="4.72083">
        <ele>322.10962</ele>
        <time>2015-01-04T11:16:02Z</time>
      </trkpt>
      <trkpt lat="45.67975" lon="4.72084">
        <ele>322.10962</ele>
        <time>2015-01-04T11:16:07Z</time>
      </trkpt>
      <trkpt lat="45.67975" lon="4.72086">
        <ele>322.10962</ele>
        <time>2015-01-04T11:16:12Z</time>
      </trkpt>
      <trkpt lat="45.67975" lon="4.72087">
        <ele>322.10962</ele>
        <time>2015-01-04T11:16:17Z</time>
      </trkpt>
      <trkpt lat="45.67974" lon="4.72087">
        <ele>322.10962</ele>
        <time>2015-01-04T11:16:22Z</time>
      </trkpt>
      <trkpt lat="45.67973" lon="4.72087">
        <ele>322.10962</ele>
        <time>2015-01-04T11:16:27Z</time>
      </trkpt>
      <trkpt lat="45.67972" lon="4.72087">
        <ele>322.10962</ele>
        <time>2015-01-04T11:16:32Z</time>
      </trkpt>
      <trkpt lat="45.67971" lon="4.72086">
        <ele>322.10962</ele>
        <time>2015-01-04T11:16:37Z</time>
      </trkpt>
      <trkpt lat="45.67971" lon="4.72086">
        <ele>322.10962</ele>
        <time>2015-01-04T11:16:42Z</time>
      </trkpt>
      <trkpt lat="45.67971" lon="4.72086">
        <ele>322.28534</ele>
        <time>2015-01-04T11:16:47Z</time>
      </trkpt>
      <trkpt lat="45.67971" lon="4.72085">
        <ele>322.28534</ele>
        <time>2015-01-04T11:16:52Z</time>
      </trkpt>
      <trkpt lat="45.67972" lon="4.72084">
        <ele>322.28534</ele>
        <time>2015-01-04T11:16:57Z</time>
      </trkpt>
      <trkpt lat="45.67971" lon="4.72084">
        <ele>322.28534</ele>
        <time>2015-01-04T11:17:02Z</time>
      </trkpt>
      <trkpt lat="45.6797" lon="4.72085">
        <ele>322.28534</ele>
        <time>2015-01-04T11:17:07Z</time>
      </trkpt>
      <trkpt lat="45.6797" lon="4.72085">
        <ele>322.28534</ele>
        <time>2015-01-04T11:17:12Z</time>
      </trkpt>
      <trkpt lat="45.6797" lon="4.72084">
        <ele>322.28534</ele>
        <time>2015-01-04T11:17:17Z</time>
      </trkpt>
      <trkpt lat="45.6797" lon="4.72083">
        <ele>322.28534</ele>
        <time>2015-01-04T11:17:22Z</time>
      </trkpt>
      <trkpt lat="45.67971" lon="4.72082">
        <ele>322.28534</ele>
        <time>2015-01-04T11:17:27Z</time>
      </trkpt>
      <trkpt lat="45.67971" lon="4.72081">
        <ele>322.28534</ele>
        <time>2015-01-04T11:17:32Z</time>
      </trkpt>
      <trkpt lat="45.67972" lon="4.72081">
        <ele>322.28534</ele>
        <time>2015-01-04T11:17:37Z</time>
      </trkpt>
      <trkpt lat="45.67972" lon="4.72081">
        <ele>322.28534</ele>
        <time>2015-01-04T11:17:42Z</time>
      </trkpt>
      <trkpt lat="45.67972" lon="4.72081">
        <ele>322.28534</ele>
        <time>2015-01-04T11:17:47Z</time>
      </trkpt>
      <trkpt lat="45.67973" lon="4.72082">
        <ele>322.28534</ele>
        <time>2015-01-04T11:17:52Z</time>
      </trkpt>
      <trkpt lat="45.67976" lon="4.72083">
        <ele>322.48355</ele>
        <time>2015-01-04T11:17:57Z</time>
      </trkpt>
      <trkpt lat="45.67978" lon="4.7208">
        <ele>322.48355</ele>
        <time>2015-01-04T11:18:02Z</time>
      </trkpt>
      <trkpt lat="45.67982" lon="4.72072">
        <ele>322.8463</ele>
        <time>2015-01-04T11:18:07Z</time>
      </trkpt>
      <trkpt lat="45.67984" lon="4.72062">
        <ele>322.8463</ele>
        <time>2015-01-04T11:18:12Z</time>
      </trkpt>
      <trkpt lat="45.67986" lon="4.72051">
        <ele>323.21664</ele>
        <time>2015-01-04T11:18:17Z</time>
      </trkpt>
      <trkpt lat="45.67988" lon="4.72044">
        <ele>323.21664</ele>
        <time>2015-01-04T11:18:22Z</time>
      </trkpt>
      <trkpt lat="45.67988" lon="4.72038">
        <ele>323.50665</ele>
        <time>2015-01-04T11:18:27Z</time>
      </trkpt>
      <trkpt lat="45.67989" lon="4.72032">
        <ele>323.50665</ele>
        <time>2015-01-04T11:18:32Z</time>
      </trkpt>
      <trkpt lat="45.67991" lon="4.72026">
        <ele>323.50665</ele>
        <time>2015-01-04T11:18:37Z</time>
      </trkpt>
      <trkpt lat="45.67993" lon="4.72019">
        <ele>323.85135</ele>
        <time>2015-01-04T11:18:42Z</time>
      </trkpt>
      <trkpt lat="45.67994" lon="4.72011">
        <ele>323.85135</ele>
        <time>2015-01-04T11:18:47Z</time>
      </trkpt>
      <trkpt lat="45.67994" lon="4.72003">
        <ele>324.20276</ele>
        <time>2015-01-04T11:18:52Z</time>
      </trkpt>
      <trkpt lat="45.67997" lon="4.71996">
        <ele>324.20276</ele>
        <time>2015-01-04T11:18:57Z</time>
      </trkpt>
      <trkpt lat="45.67998" lon="4.71989">
        <ele>324.60287</ele>
        <time>2015-01-04T11:19:02Z</time>
      </trkpt>
      <trkpt lat="45.68" lon="4.7198">
        <ele>324.60287</ele>
        <time>2015-01-04T11:19:07Z</time>
      </trkpt>
      <trkpt lat="45.68002" lon="4.7197">
        <ele>325.00406</ele>
        <time>2015-01-04T11:19:12Z</time>
      </trkpt>
      <trkpt lat="45.68004" lon="4.71962">
        <ele>325.00406</ele>
        <time>2015-01-04T11:19:17Z</time>
      </trkpt>
      <trkpt lat="45.68006" lon="4.71951">
        <ele>325.37653</ele>
        <time>2015-01-04T11:19:22Z</time>
      </trkpt>
      <trkpt lat="45.68009" lon="4.71942">
        <ele>325.37653</ele>
        <time>2015-01-04T11:19:27Z</time>
      </trkpt>
      <trkpt lat="45.6801" lon="4.71933">
        <ele>325.80817</ele>
        <time>2015-01-04T11:19:32Z</time>
      </trkpt>
      <trkpt lat="45.68012" lon="4.71924">
        <ele>325.80817</ele>
        <time>2015-01-04T11:19:37Z</time>
      </trkpt>
      <trkpt lat="45.68012" lon="4.71916">
        <ele>326.2649</ele>
        <time>2015-01-04T11:19:42Z</time>
      </trkpt>
      <trkpt lat="45.68014" lon="4.71906">
        <ele>326.2649</ele>
        <time>2015-01-04T11:19:47Z</time>
      </trkpt>
      <trkpt lat="45.68013" lon="4.71897">
        <ele>326.67188</ele>
        <time>2015-01-04T11:19:52Z</time>
      </trkpt>
      <trkpt lat="45.68016" lon="4.71895">
        <ele>326.67188</ele>
        <time>2015-01-04T11:19:57Z</time>
      </trkpt>
      <trkpt lat="45.6802" lon="4.71897">
        <ele>326.67188</ele>
        <time>2015-01-04T11:20:02Z</time>
      </trkpt>
      <trkpt lat="45.68027" lon="4.71905">
        <ele>326.85907</ele>
        <time>2015-01-04T11:20:07Z</time>
      </trkpt>
      <trkpt lat="45.68031" lon="4.7191">
        <ele>326.85907</ele>
        <time>2015-01-04T11:20:12Z</time>
      </trkpt>
      <trkpt lat="45.68035" lon="4.71916">
        <ele>327.01544</ele>
        <time>2015-01-04T11:20:17Z</time>
      </trkpt>
      <trkpt lat="45.68039" lon="4.71921">
        <ele>327.01544</ele>
        <time>2015-01-04T11:20:22Z</time>
      </trkpt>
      <trkpt lat="45.68042" lon="4.71928">
        <ele>327.07114</ele>
        <time>2015-01-04T11:20:27Z</time>
      </trkpt>
      <trkpt lat="45.68045" lon="4.71934">
        <ele>327.07114</ele>
        <time>2015-01-04T11:20:32Z</time>
      </trkpt>
      <trkpt lat="45.68052" lon="4.71939">
        <ele>327.0771</ele>
        <time>2015-01-04T11:20:37Z</time>
      </trkpt>
      <trkpt lat="45.68058" lon="4.71945">
        <ele>327.0771</ele>
        <time>2015-01-04T11:20:42Z</time>
      </trkpt>
      <trkpt lat="45.68062" lon="4.71953">
        <ele>327.0662</ele>
        <time>2015-01-04T11:20:47Z</time>
      </trkpt>
      <trkpt lat="45.68067" lon="4.71959">
        <ele>327.0662</ele>
        <time>2015-01-04T11:20:52Z</time>
      </trkpt>
      <trkpt lat="45.68072" lon="4.71964">
        <ele>327.02576</ele>
        <time>2015-01-04T11:20:57Z</time>
      </trkpt>
      <trkpt lat="45.68075" lon="4.71968">
        <ele>327.02576</ele>
        <time>2015-01-04T11:21:02Z</time>
      </trkpt>
      <trkpt lat="45.68079" lon="4.71974">
        <ele>326.90094</ele>
        <time>2015-01-04T11:21:07Z</time>
      </trkpt>
      <trkpt lat="45.68084" lon="4.71979">
        <ele>326.90094</ele>
        <time>2015-01-04T11:21:12Z</time>
      </trkpt>
      <trkpt lat="45.68091" lon="4.71986">
        <ele>326.88608</ele>
        <time>2015-01-04T11:21:17Z</time>
      </trkpt>
      <trkpt lat="45.68098" lon="4.71993">
        <ele>326.88608</ele>
        <time>2015-01-04T11:21:22Z</time>
      </trkpt>
      <trkpt lat="45.68103" lon="4.71999">
        <ele>326.94482</ele>
        <time>2015-01-04T11:21:27Z</time>
      </trkpt>
      <trkpt lat="45.68109" lon="4.72006">
        <ele>326.94482</ele>
        <time>2015-01-04T11:21:32Z</time>
      </trkpt>
      <trkpt lat="45.68114" lon="4.72012">
        <ele>327.10095</ele>
        <time>2015-01-04T11:21:37Z</time>
      </trkpt>
      <trkpt lat="45.68118" lon="4.72018">
        <ele>327.10095</ele>
        <time>2015-01-04T11:21:42Z</time>
      </trkpt>
      <trkpt lat="45.68124" lon="4.72022">
        <ele>327.3041</ele>
        <time>2015-01-04T11:21:47Z</time>
      </trkpt>
      <trkpt lat="45.6813" lon="4.72028">
        <ele>327.3041</ele>
        <time>2015-01-04T11:21:52Z</time>
      </trkpt>
      <trkpt lat="45.68135" lon="4.72035">
        <ele>327.56522</ele>
        <time>2015-01-04T11:21:57Z</time>
      </trkpt>
      <trkpt lat="45.68139" lon="4.72039">
        <ele>327.56522</ele>
        <time>2015-01-04T11:22:02Z</time>
      </trkpt>
      <trkpt lat="45.68144" lon="4.72045">
        <ele>327.8077</ele>
        <time>2015-01-04T11:22:07Z</time>
      </trkpt>
      <trkpt lat="45.68148" lon="4.72052">
        <ele>327.8077</ele>
        <time>2015-01-04T11:22:12Z</time>
      </trkpt>
      <trkpt lat="45.68152" lon="4.72057">
        <ele>327.97516</ele>
        <time>2015-01-04T11:22:17Z</time>
      </trkpt>
      <trkpt lat="45.68158" lon="4.72064">
        <ele>327.97516</ele>
        <time>2015-01-04T11:22:22Z</time>
      </trkpt>
      <trkpt lat="45.68164" lon="4.72071">
        <ele>328.07312</ele>
        <time>2015-01-04T11:22:27Z</time>
      </trkpt>
      <trkpt lat="45.6817" lon="4.72078">
        <ele>328.07312</ele>
        <time>2015-01-04T11:22:32Z</time>
      </trkpt>
      <trkpt lat="45.68176" lon="4.72082">
        <ele>328.13574</ele>
        <time>2015-01-04T11:22:37Z</time>
      </trkpt>
      <trkpt lat="45.68181" lon="4.72088">
        <ele>328.13574</ele>
        <time>2015-01-04T11:22:42Z</time>
      </trkpt>
      <trkpt lat="45.68188" lon="4.72096">
        <ele>328.15158</ele>
        <time>2015-01-04T11:22:47Z</time>
      </trkpt>
      <trkpt lat="45.68191" lon="4.72101">
        <ele>328.15158</ele>
        <time>2015-01-04T11:22:52Z</time>
      </trkpt>
      <trkpt lat="45.68197" lon="4.72108">
        <ele>328.15338</ele>
        <time>2015-01-04T11:22:57Z</time>
      </trkpt>
      <trkpt lat="45.68203" lon="4.72114">
        <ele>328.15338</ele>
        <time>2015-01-04T11:23:02Z</time>
      </trkpt>
      <trkpt lat="45.68207" lon="4.72119">
        <ele>328.12823</ele>
        <time>2015-01-04T11:23:07Z</time>
      </trkpt>
      <trkpt lat="45.68212" lon="4.72124">
        <ele>328.12823</ele>
        <time>2015-01-04T11:23:12Z</time>
      </trkpt>
      <trkpt lat="45.68219" lon="4.72129">
        <ele>328.12198</ele>
        <time>2015-01-04T11:23:17Z</time>
      </trkpt>
      <trkpt lat="45.68224" lon="4.72133">
        <ele>328.12198</ele>
        <time>2015-01-04T11:23:22Z</time>
      </trkpt>
      <trkpt lat="45.6823" lon="4.72139">
        <ele>328.13376</ele>
        <time>2015-01-04T11:23:27Z</time>
      </trkpt>
      <trkpt lat="45.68235" lon="4.72144">
        <ele>328.13376</ele>
        <time>2015-01-04T11:23:32Z</time>
      </trkpt>
      <trkpt lat="45.68239" lon="4.7215">
        <ele>328.04742</ele>
        <time>2015-01-04T11:23:37Z</time>
      </trkpt>
      <trkpt lat="45.68245" lon="4.72156">
        <ele>328.04742</ele>
        <time>2015-01-04T11:23:42Z</time>
      </trkpt>
      <trkpt lat="45.68251" lon="4.72162">
        <ele>327.98618</ele>
        <time>2015-01-04T11:23:47Z</time>
      </trkpt>
      <trkpt lat="45.68255" lon="4.72167">
        <ele>327.98618</ele>
        <time>2015-01-04T11:23:52Z</time>
      </trkpt>
      <trkpt lat="45.68262" lon="4.72174">
        <ele>327.92007</ele>
        <time>2015-01-04T11:23:57Z</time>
      </trkpt>
      <trkpt lat="45.68266" lon="4.72178">
        <ele>327.92007</ele>
        <time>2015-01-04T11:24:02Z</time>
      </trkpt>
      <trkpt lat="45.68271" lon="4.72183">
        <ele>327.85013</ele>
        <time>2015-01-04T11:24:07Z</time>
      </trkpt>
      <trkpt lat="45.68276" lon="4.72188">
        <ele>327.85013</ele>
        <time>2015-01-04T11:24:12Z</time>
      </trkpt>
      <trkpt lat="45.68282" lon="4.72194">
        <ele>327.73404</ele>
        <time>2015-01-04T11:24:17Z</time>
      </trkpt>
      <trkpt lat="45.68289" lon="4.72201">
        <ele>327.73404</ele>
        <time>2015-01-04T11:24:22Z</time>
      </trkpt>
      <trkpt lat="45.68293" lon="4.72204">
        <ele>327.56158</ele>
        <time>2015-01-04T11:24:27Z</time>
      </trkpt>
      <trkpt lat="45.68301" lon="4.72208">
        <ele>327.56158</ele>
        <time>2015-01-04T11:24:32Z</time>
      </trkpt>
      <trkpt lat="45.68308" lon="4.72213">
        <ele>327.35223</ele>
        <time>2015-01-04T11:24:37Z</time>
      </trkpt>
      <trkpt lat="45.68313" lon="4.72218">
        <ele>327.35223</ele>
        <time>2015-01-04T11:24:42Z</time>
      </trkpt>
      <trkpt lat="45.68319" lon="4.72225">
        <ele>327.06653</ele>
        <time>2015-01-04T11:24:47Z</time>
      </trkpt>
      <trkpt lat="45.68323" lon="4.72229">
        <ele>327.06653</ele>
        <time>2015-01-04T11:24:52Z</time>
      </trkpt>
      <trkpt lat="45.68328" lon="4.72234">
        <ele>326.69684</ele>
        <time>2015-01-04T11:24:57Z</time>
      </trkpt>
      <trkpt lat="45.68333" lon="4.72238">
        <ele>326.69684</ele>
        <time>2015-01-04T11:25:02Z</time>
      </trkpt>
      <trkpt lat="45.6834" lon="4.72242">
        <ele>326.1931</ele>
        <time>2015-01-04T11:25:07Z</time>
      </trkpt>
      <trkpt lat="45.68346" lon="4.72247">
        <ele>326.1931</ele>
        <time>2015-01-04T11:25:12Z</time>
      </trkpt>
      <trkpt lat="45.68352" lon="4.72253">
        <ele>325.7688</ele>
        <time>2015-01-04T11:25:17Z</time>
      </trkpt>
      <trkpt lat="45.68357" lon="4.72259">
        <ele>325.7688</ele>
        <time>2015-01-04T11:25:22Z</time>
      </trkpt>
      <trkpt lat="45.68364" lon="4.72264">
        <ele>325.39072</ele>
        <time>2015-01-04T11:25:27Z</time>
      </trkpt>
      <trkpt lat="45.68369" lon="4.72268">
        <ele>325.39072</ele>
        <time>2015-01-04T11:25:32Z</time>
      </trkpt>
      <trkpt lat="45.68375" lon="4.72273">
        <ele>325.0857</ele>
        <time>2015-01-04T11:25:37Z</time>
      </trkpt>
      <trkpt lat="45.68382" lon="4.72278">
        <ele>325.0857</ele>
        <time>2015-01-04T11:25:42Z</time>
      </trkpt>
      <trkpt lat="45.68388" lon="4.72282">
        <ele>324.79187</ele>
        <time>2015-01-04T11:25:47Z</time>
      </trkpt>
      <trkpt lat="45.68394" lon="4.72286">
        <ele>324.79187</ele>
        <time>2015-01-04T11:25:52Z</time>
      </trkpt>
      <trkpt lat="45.68402" lon="4.72292">
        <ele>324.5527</ele>
        <time>2015-01-04T11:25:57Z</time>
      </trkpt>
      <trkpt lat="45.68407" lon="4.72295">
        <ele>324.5527</ele>
        <time>2015-01-04T11:26:02Z</time>
      </trkpt>
      <trkpt lat="45.68412" lon="4.72299">
        <ele>324.3363</ele>
        <time>2015-01-04T11:26:07Z</time>
      </trkpt>
      <trkpt lat="45.68417" lon="4.72305">
        <ele>324.3363</ele>
        <time>2015-01-04T11:26:12Z</time>
      </trkpt>
      <trkpt lat="45.6842" lon="4.72314">
        <ele>324.1706</ele>
        <time>2015-01-04T11:26:17Z</time>
      </trkpt>
      <trkpt lat="45.68426" lon="4.72323">
        <ele>324.1706</ele>
        <time>2015-01-04T11:26:22Z</time>
      </trkpt>
      <trkpt lat="45.68431" lon="4.72329">
        <ele>323.9804</ele>
        <time>2015-01-04T11:26:27Z</time>
      </trkpt>
      <trkpt lat="45.68438" lon="4.72338">
        <ele>323.81146</ele>
        <time>2015-01-04T11:26:32Z</time>
      </trkpt>
      <trkpt lat="45.68445" lon="4.72345">
        <ele>323.81146</ele>
        <time>2015-01-04T11:26:37Z</time>
      </trkpt>
      <trkpt lat="45.6845" lon="4.7235">
        <ele>323.67715</ele>
        <time>2015-01-04T11:26:42Z</time>
      </trkpt>
      <trkpt lat="45.68453" lon="4.72353">
        <ele>323.67715</ele>
        <time>2015-01-04T11:26:47Z</time>
      </trkpt>
      <trkpt lat="45.6846" lon="4.72359">
        <ele>323.38806</ele>
        <time>2015-01-04T11:26:52Z</time>
      </trkpt>
      <trkpt lat="45.68465" lon="4.72364">
        <ele>323.38806</ele>
        <time>2015-01-04T11:26:57Z</time>
      </trkpt>
      <trkpt lat="45.6847" lon="4.72369">
        <ele>322.9852</ele>
        <time>2015-01-04T11:27:02Z</time>
      </trkpt>
      <trkpt lat="45.68475" lon="4.72375">
        <ele>322.9852</ele>
        <time>2015-01-04T11:27:07Z</time>
      </trkpt>
      <trkpt lat="45.6848" lon="4.72379">
        <ele>322.4925</ele>
        <time>2015-01-04T11:27:12Z</time>
      </trkpt>
      <trkpt lat="45.68485" lon="4.72385">
        <ele>322.4925</ele>
        <time>2015-01-04T11:27:17Z</time>
      </trkpt>
      <trkpt lat="45.68489" lon="4.72391">
        <ele>321.90344</ele>
        <time>2015-01-04T11:27:22Z</time>
      </trkpt>
      <trkpt lat="45.68494" lon="4.72397">
        <ele>321.90344</ele>
        <time>2015-01-04T11:27:27Z</time>
      </trkpt>
      <trkpt lat="45.68499" lon="4.72405">
        <ele>321.25558</ele>
        <time>2015-01-04T11:27:32Z</time>
      </trkpt>
      <trkpt lat="45.68504" lon="4.7241">
        <ele>321.25558</ele>
        <time>2015-01-04T11:27:37Z</time>
      </trkpt>
      <trkpt lat="45.6851" lon="4.72416">
        <ele>320.51172</ele>
        <time>2015-01-04T11:27:42Z</time>
      </trkpt>
      <trkpt lat="45.68516" lon="4.72423">
        <ele>320.51172</ele>
        <time>2015-01-04T11:27:47Z</time>
      </trkpt>
      <trkpt lat="45.6852" lon="4.7243">
        <ele>319.75287</ele>
        <time>2015-01-04T11:27:52Z</time>
      </trkpt>
      <trkpt lat="45.68524" lon="4.72436">
        <ele>319.75287</ele>
        <time>2015-01-04T11:27:57Z</time>
      </trkpt>
      <trkpt lat="45.6853" lon="4.72442">
        <ele>319.01093</ele>
        <time>2015-01-04T11:28:02Z</time>
      </trkpt>
      <trkpt lat="45.68534" lon="4.72447">
        <ele>319.01093</ele>
        <time>2015-01-04T11:28:07Z</time>
      </trkpt>
      <trkpt lat="45.68539" lon="4.72453">
        <ele>318.31534</ele>
        <time>2015-01-04T11:28:12Z</time>
      </trkpt>
      <trkpt lat="45.68544" lon="4.72459">
        <ele>318.31534</ele>
        <time>2015-01-04T11:28:17Z</time>
      </trkpt>
      <trkpt lat="45.68548" lon="4.72464">
        <ele>317.63556</ele>
        <time>2015-01-04T11:28:22Z</time>
      </trkpt>
      <trkpt lat="45.68552" lon="4.72469">
        <ele>317.63556</ele>
        <time>2015-01-04T11:28:27Z</time>
      </trkpt>
      <trkpt lat="45.68557" lon="4.72474">
        <ele>317.01523</ele>
        <time>2015-01-04T11:28:32Z</time>
      </trkpt>
      <trkpt lat="45.68562" lon="4.72481">
        <ele>317.01523</ele>
        <time>2015-01-04T11:28:37Z</time>
      </trkpt>
      <trkpt lat="45.68566" lon="4.72487">
        <ele>316.33612</ele>
        <time>2015-01-04T11:28:42Z</time>
      </trkpt>
      <trkpt lat="45.68572" lon="4.72492">
        <ele>316.33612</ele>
        <time>2015-01-04T11:28:47Z</time>
      </trkpt>
      <trkpt lat="45.68576" lon="4.72498">
        <ele>315.51755</ele>
        <time>2015-01-04T11:28:52Z</time>
      </trkpt>
      <trkpt lat="45.68579" lon="4.72504">
        <ele>315.51755</ele>
        <time>2015-01-04T11:28:57Z</time>
      </trkpt>
      <trkpt lat="45.68581" lon="4.72512">
        <ele>314.6869</ele>
        <time>2015-01-04T11:29:02Z</time>
      </trkpt>
      <trkpt lat="45.68582" lon="4.72514">
        <ele>314.6869</ele>
        <time>2015-01-04T11:29:07Z</time>
      </trkpt>
      <trkpt lat="45.68583" lon="4.72518">
        <ele>314.6869</ele>
        <time>2015-01-04T11:29:12Z</time>
      </trkpt>
      <trkpt lat="45.68585" lon="4.72523">
        <ele>314.6869</ele>
        <time>2015-01-04T11:29:17Z</time>
      </trkpt>
      <trkpt lat="45.68588" lon="4.72525">
        <ele>313.57303</ele>
        <time>2015-01-04T11:29:22Z</time>
      </trkpt>
      <trkpt lat="45.68589" lon="4.72528">
        <ele>313.57303</ele>
        <time>2015-01-04T11:29:27Z</time>
      </trkpt>
      <trkpt lat="45.6859" lon="4.72529">
        <ele>313.57303</ele>
        <time>2015-01-04T11:29:32Z</time>
      </trkpt>
      <trkpt lat="45.68591" lon="4.7253">
        <ele>313.57303</ele>
        <time>2015-01-04T11:29:37Z</time>
      </trkpt>
      <trkpt lat="45.68591" lon="4.7253">
        <ele>313.57303</ele>
        <time>2015-01-04T11:29:42Z</time>
      </trkpt>
      <trkpt lat="45.68591" lon="4.7253">
        <ele>313.57303</ele>
        <time>2015-01-04T11:29:47Z</time>
      </trkpt>
      <trkpt lat="45.68592" lon="4.7253">
        <ele>313.57303</ele>
        <time>2015-01-04T11:29:52Z</time>
      </trkpt>
      <trkpt lat="45.68591" lon="4.7253">
        <ele>313.57303</ele>
        <time>2015-01-04T11:29:57Z</time>
      </trkpt>
      <trkpt lat="45.68591" lon="4.72528">
        <ele>313.57303</ele>
        <time>2015-01-04T11:30:02Z</time>
      </trkpt>
      <trkpt lat="45.68593" lon="4.72527">
        <ele>312.5596</ele>
        <time>2015-01-04T11:30:07Z</time>
      </trkpt>
      <trkpt lat="45.68594" lon="4.72527">
        <ele>312.5596</ele>
        <time>2015-01-04T11:30:12Z</time>
      </trkpt>
      <trkpt lat="45.68594" lon="4.72529">
        <ele>312.5596</ele>
        <time>2015-01-04T11:30:17Z</time>
      </trkpt>
      <trkpt lat="45.68594" lon="4.72531">
        <ele>312.5596</ele>
        <time>2015-01-04T11:30:22Z</time>
      </trkpt>
      <trkpt lat="45.68593" lon="4.72532">
        <ele>312.5596</ele>
        <time>2015-01-04T11:30:27Z</time>
      </trkpt>
      <trkpt lat="45.68594" lon="4.72532">
        <ele>312.5596</ele>
        <time>2015-01-04T11:30:32Z</time>
      </trkpt>
      <trkpt lat="45.68594" lon="4.72532">
        <ele>312.5596</ele>
        <time>2015-01-04T11:30:37Z</time>
      </trkpt>
      <trkpt lat="45.68594" lon="4.7253">
        <ele>312.5596</ele>
        <time>2015-01-04T11:30:42Z</time>
      </trkpt>
      <trkpt lat="45.68595" lon="4.7253">
        <ele>312.5596</ele>
        <time>2015-01-04T11:30:47Z</time>
      </trkpt>
      <trkpt lat="45.68594" lon="4.72528">
        <ele>311.65585</ele>
        <time>2015-01-04T11:30:52Z</time>
      </trkpt>
      <trkpt lat="45.68595" lon="4.72528">
        <ele>311.65585</ele>
        <time>2015-01-04T11:30:57Z</time>
      </trkpt>
      <trkpt lat="45.68595" lon="4.72528">
        <ele>311.65585</ele>
        <time>2015-01-04T11:31:02Z</time>
      </trkpt>
      <trkpt lat="45.68595" lon="4.72529">
        <ele>311.65585</ele>
        <time>2015-01-04T11:31:07Z</time>
      </trkpt>
      <trkpt lat="45.68595" lon="4.72528">
        <ele>311.65585</ele>
        <time>2015-01-04T11:31:12Z</time>
      </trkpt>
      <trkpt lat="45.68594" lon="4.72528">
        <ele>311.65585</ele>
        <time>2015-01-04T11:31:17Z</time>
      </trkpt>
      <trkpt lat="45.68593" lon="4.72528">
        <ele>311.65585</ele>
        <time>2015-01-04T11:31:22Z</time>
      </trkpt>
      <trkpt lat="45.68593" lon="4.72528">
        <ele>311.65585</ele>
        <time>2015-01-04T11:31:27Z</time>
      </trkpt>
      <trkpt lat="45.68592" lon="4.7253">
        <ele>311.65585</ele>
        <time>2015-01-04T11:31:32Z</time>
      </trkpt>
      <trkpt lat="45.68592" lon="4.72532">
        <ele>311.65585</ele>
        <time>2015-01-04T11:31:37Z</time>
      </trkpt>
      <trkpt lat="45.68592" lon="4.72532">
        <ele>311.65585</ele>
        <time>2015-01-04T11:31:42Z</time>
      </trkpt>
      <trkpt lat="45.68591" lon="4.72531">
        <ele>311.65585</ele>
        <time>2015-01-04T11:31:47Z</time>
      </trkpt>
      <trkpt lat="45.68591" lon="4.7253">
        <ele>310.79797</ele>
        <time>2015-01-04T11:31:52Z</time>
      </trkpt>
      <trkpt lat="45.68591" lon="4.72529">
        <ele>310.79797</ele>
        <time>2015-01-04T11:31:57Z</time>
      </trkpt>
      <trkpt lat="45.68591" lon="4.72529">
        <ele>310.79797</ele>
        <time>2015-01-04T11:32:02Z</time>
      </trkpt>
      <trkpt lat="45.68592" lon="4.72529">
        <ele>310.79797</ele>
        <time>2015-01-04T11:32:07Z</time>
      </trkpt>
      <trkpt lat="45.68592" lon="4.72531">
        <ele>310.79797</ele>
        <time>2015-01-04T11:32:12Z</time>
      </trkpt>
      <trkpt lat="45.68594" lon="4.72541">
        <ele>310.07068</ele>
        <time>2015-01-04T11:32:17Z</time>
      </trkpt>
      <trkpt lat="45.68596" lon="4.72548">
        <ele>310.07068</ele>
        <time>2015-01-04T11:32:22Z</time>
      </trkpt>
      <trkpt lat="45.68599" lon="4.72555">
        <ele>309.48</ele>
        <time>2015-01-04T11:32:27Z</time>
      </trkpt>
      <trkpt lat="45.68603" lon="4.72567">
        <ele>309.03122</ele>
        <time>2015-01-04T11:32:32Z</time>
      </trkpt>
      <trkpt lat="45.68606" lon="4.72575">
        <ele>309.03122</ele>
        <time>2015-01-04T11:32:37Z</time>
      </trkpt>
      <trkpt lat="45.6861" lon="4.72582">
        <ele>308.69974</ele>
        <time>2015-01-04T11:32:42Z</time>
      </trkpt>
      <trkpt lat="45.68614" lon="4.7259">
        <ele>308.69974</ele>
        <time>2015-01-04T11:32:47Z</time>
      </trkpt>
      <trkpt lat="45.68617" lon="4.72595">
        <ele>308.4481</ele>
        <time>2015-01-04T11:32:52Z</time>
      </trkpt>
      <trkpt lat="45.68621" lon="4.726">
        <ele>308.4481</ele>
        <time>2015-01-04T11:32:57Z</time>
      </trkpt>
      <trkpt lat="45.68623" lon="4.726">
        <ele>308.4481</ele>
        <time>2015-01-04T11:33:02Z</time>
      </trkpt>
      <trkpt lat="45.68625" lon="4.72599">
        <ele>308.2413</ele>
        <time>2015-01-04T11:33:07Z</time>
      </trkpt>
      <trkpt lat="45.68625" lon="4.72598">
        <ele>308.2413</ele>
        <time>2015-01-04T11:33:12Z</time>
      </trkpt>
      <trkpt lat="45.68626" lon="4.72598">
        <ele>308.2413</ele>
        <time>2015-01-04T11:33:17Z</time>
      </trkpt>
      <trkpt lat="45.68626" lon="4.72597">
        <ele>308.2413</ele>
        <time>2015-01-04T11:33:22Z</time>
      </trkpt>
      <trkpt lat="45.68627" lon="4.72597">
        <ele>308.2413</ele>
        <time>2015-01-04T11:33:27Z</time>
      </trkpt>
      <trkpt lat="45.68627" lon="4.72596">
        <ele>308.2413</ele>
        <time>2015-01-04T11:33:32Z</time>
      </trkpt>
      <trkpt lat="45.68627" lon="4.72597">
        <ele>308.2413</ele>
        <time>2015-01-04T11:33:37Z</time>
      </trkpt>
      <trkpt lat="45.6863" lon="4.72599">
        <ele>308.2413</ele>
        <time>2015-01-04T11:33:42Z</time>
      </trkpt>
      <trkpt lat="45.68634" lon="4.72603">
        <ele>308.17645</ele>
        <time>2015-01-04T11:33:47Z</time>
      </trkpt>
      <trkpt lat="45.68636" lon="4.72611">
        <ele>308.17645</ele>
        <time>2015-01-04T11:33:52Z</time>
      </trkpt>
      <trkpt lat="45.68637" lon="4.72608">
        <ele>308.17645</ele>
        <time>2015-01-04T11:33:57Z</time>
      </trkpt>
      <trkpt lat="45.68637" lon="4.72604">
        <ele>308.0981</ele>
        <time>2015-01-04T11:34:02Z</time>
      </trkpt>
      <trkpt lat="45.68639" lon="4.72602">
        <ele>308.0981</ele>
        <time>2015-01-04T11:34:07Z</time>
      </trkpt>
      <trkpt lat="45.68638" lon="4.72604">
        <ele>308.0981</ele>
        <time>2015-01-04T11:34:12Z</time>
      </trkpt>
      <trkpt lat="45.6864" lon="4.72605">
        <ele>308.0981</ele>
        <time>2015-01-04T11:34:17Z</time>
      </trkpt>
      <trkpt lat="45.68641" lon="4.72605">
        <ele>308.0981</ele>
        <time>2015-01-04T11:34:22Z</time>
      </trkpt>
      <trkpt lat="45.68641" lon="4.72605">
        <ele>308.0981</ele>
        <time>2015-01-04T11:34:27Z</time>
      </trkpt>
      <trkpt lat="45.68638" lon="4.72607">
        <ele>307.90543</ele>
        <time>2015-01-04T11:34:32Z</time>
      </trkpt>
      <trkpt lat="45.68634" lon="4.72607">
        <ele>307.90543</ele>
        <time>2015-01-04T11:34:37Z</time>
      </trkpt>
      <trkpt lat="45.6863" lon="4.72607">
        <ele>307.90543</ele>
        <time>2015-01-04T11:34:42Z</time>
      </trkpt>
      <trkpt lat="45.68628" lon="4.72611">
        <ele>307.70706</ele>
        <time>2015-01-04T11:34:47Z</time>
      </trkpt>
      <trkpt lat="45.68629" lon="4.72611">
        <ele>307.70706</ele>
        <time>2015-01-04T11:34:52Z</time>
      </trkpt>
      <trkpt lat="45.68629" lon="4.72611">
        <ele>307.70706</ele>
        <time>2015-01-04T11:34:57Z</time>
      </trkpt>
      <trkpt lat="45.68629" lon="4.7261">
        <ele>307.70706</ele>
        <time>2015-01-04T11:35:02Z</time>
      </trkpt>
      <trkpt lat="45.68629" lon="4.72609">
        <ele>307.70706</ele>
        <time>2015-01-04T11:35:07Z</time>
      </trkpt>
      <trkpt lat="45.68626" lon="4.72606">
        <ele>307.70706</ele>
        <time>2015-01-04T11:35:12Z</time>
      </trkpt>
      <trkpt lat="45.68626" lon="4.72605">
        <ele>307.70706</ele>
        <time>2015-01-04T11:35:17Z</time>
      </trkpt>
      <trkpt lat="45.68626" lon="4.72607">
        <ele>307.70706</ele>
        <time>2015-01-04T11:35:22Z</time>
      </trkpt>
      <trkpt lat="45.68629" lon="4.72612">
        <ele>307.02722</ele>
        <time>2015-01-04T11:35:27Z</time>
      </trkpt>
      <trkpt lat="45.68629" lon="4.72612">
        <ele>307.02722</ele>
        <time>2015-01-04T11:35:32Z</time>
      </trkpt>
      <trkpt lat="45.68629" lon="4.72611">
        <ele>307.02722</ele>
        <time>2015-01-04T11:35:37Z</time>
      </trkpt>
      <trkpt lat="45.68629" lon="4.7261">
        <ele>307.02722</ele>
        <time>2015-01-04T11:35:42Z</time>
      </trkpt>
      <trkpt lat="45.68626" lon="4.72607">
        <ele>307.02722</ele>
        <time>2015-01-04T11:35:47Z</time>
      </trkpt>
      <trkpt lat="45.68625" lon="4.72601">
        <ele>306.03168</ele>
        <time>2015-01-04T11:35:52Z</time>
      </trkpt>
      <trkpt lat="45.68625" lon="4.72601">
        <ele>306.03168</ele>
        <time>2015-01-04T11:35:57Z</time>
      </trkpt>
      <trkpt lat="45.68625" lon="4.72599">
        <ele>306.03168</ele>
        <time>2015-01-04T11:36:02Z</time>
      </trkpt>
      <trkpt lat="45.68625" lon="4.72598">
        <ele>306.03168</ele>
        <time>2015-01-04T11:36:07Z</time>
      </trkpt>
      <trkpt lat="45.68625" lon="4.72598">
        <ele>306.03168</ele>
        <time>2015-01-04T11:36:12Z</time>
      </trkpt>
      <trkpt lat="45.68625" lon="4.72599">
        <ele>306.03168</ele>
        <time>2015-01-04T11:36:17Z</time>
      </trkpt>
      <trkpt lat="45.68626" lon="4.72605">
        <ele>306.03168</ele>
        <time>2015-01-04T11:36:22Z</time>
      </trkpt>
      <trkpt lat="45.68627" lon="4.72606">
        <ele>304.99014</ele>
        <time>2015-01-04T11:36:27Z</time>
      </trkpt>
      <trkpt lat="45.68628" lon="4.72606">
        <ele>304.99014</ele>
        <time>2015-01-04T11:36:32Z</time>
      </trkpt>
      <trkpt lat="45.6863" lon="4.72605">
        <ele>304.99014</ele>
        <time>2015-01-04T11:36:37Z</time>
      </trkpt>
      <trkpt lat="45.68629" lon="4.72602">
        <ele>304.99014</ele>
        <time>2015-01-04T11:36:42Z</time>
      </trkpt>
      <trkpt lat="45.68628" lon="4.72597">
        <ele>304.99014</ele>
        <time>2015-01-04T11:36:47Z</time>
      </trkpt>
      <trkpt lat="45.6863" lon="4.72593">
        <ele>303.76352</ele>
        <time>2015-01-04T11:36:52Z</time>
      </trkpt>
      <trkpt lat="45.68631" lon="4.72588">
        <ele>303.76352</ele>
        <time>2015-01-04T11:36:57Z</time>
      </trkpt>
      <trkpt lat="45.68634" lon="4.72586">
        <ele>303.76352</ele>
        <time>2015-01-04T11:37:02Z</time>
      </trkpt>
      <trkpt lat="45.68635" lon="4.72578">
        <ele>302.74228</ele>
        <time>2015-01-04T11:37:07Z</time>
      </trkpt>
      <trkpt lat="45.68637" lon="4.7257">
        <ele>302.74228</ele>
        <time>2015-01-04T11:37:12Z</time>
      </trkpt>
      <trkpt lat="45.68637" lon="4.72563">
        <ele>301.92725</ele>
        <time>2015-01-04T11:37:17Z</time>
      </trkpt>
      <trkpt lat="45.6864" lon="4.72555">
        <ele>301.92725</ele>
        <time>2015-01-04T11:37:22Z</time>
      </trkpt>
      <trkpt lat="45.68641" lon="4.72549">
        <ele>301.43393</ele>
        <time>2015-01-04T11:37:27Z</time>
      </trkpt>
      <trkpt lat="45.68644" lon="4.72543">
        <ele>301.43393</ele>
        <time>2015-01-04T11:37:32Z</time>
      </trkpt>
      <trkpt lat="45.68648" lon="4.72537">
        <ele>301.15216</ele>
        <time>2015-01-04T11:37:37Z</time>
      </trkpt>
      <trkpt lat="45.6865" lon="4.72532">
        <ele>301.15216</ele>
        <time>2015-01-04T11:37:42Z</time>
      </trkpt>
      <trkpt lat="45.68652" lon="4.72524">
        <ele>300.89288</ele>
        <time>2015-01-04T11:37:47Z</time>
      </trkpt>
      <trkpt lat="45.68654" lon="4.72518">
        <ele>300.89288</ele>
        <time>2015-01-04T11:37:52Z</time>
      </trkpt>
      <trkpt lat="45.68654" lon="4.72513">
        <ele>300.89288</ele>
        <time>2015-01-04T11:37:57Z</time>
      </trkpt>
      <trkpt lat="45.68657" lon="4.72504">
        <ele>300.72577</ele>
        <time>2015-01-04T11:38:02Z</time>
      </trkpt>
      <trkpt lat="45.6866" lon="4.72494">
        <ele>300.72577</ele>
        <time>2015-01-04T11:38:07Z</time>
      </trkpt>
      <trkpt lat="45.68662" lon="4.72485">
        <ele>300.65747</ele>
        <time>2015-01-04T11:38:12Z</time>
      </trkpt>
      <trkpt lat="45.68662" lon="4.72485">
        <ele>300.65747</ele>
        <time>2015-01-04T11:38:17Z</time>
      </trkpt>
      <trkpt lat="45.68662" lon="4.72485">
        <ele>300.65747</ele>
        <time>2015-01-04T11:38:22Z</time>
      </trkpt>
      <trkpt lat="45.68667" lon="4.7247">
        <ele>300.62173</ele>
        <time>2015-01-04T11:38:27Z</time>
      </trkpt>
      <trkpt lat="45.68669" lon="4.72461">
        <ele>300.62173</ele>
        <time>2015-01-04T11:38:32Z</time>
      </trkpt>
      <trkpt lat="45.6867" lon="4.72452">
        <ele>300.64362</ele>
        <time>2015-01-04T11:38:37Z</time>
      </trkpt>
      <trkpt lat="45.68667" lon="4.72444">
        <ele>300.64362</ele>
        <time>2015-01-04T11:38:42Z</time>
      </trkpt>
      <trkpt lat="45.68666" lon="4.72437">
        <ele>300.73172</ele>
        <time>2015-01-04T11:38:47Z</time>
      </trkpt>
      <trkpt lat="45.68664" lon="4.72429">
        <ele>300.73172</ele>
        <time>2015-01-04T11:38:52Z</time>
      </trkpt>
      <trkpt lat="45.68662" lon="4.72423">
        <ele>300.865</ele>
        <time>2015-01-04T11:38:57Z</time>
      </trkpt>
      <trkpt lat="45.68663" lon="4.72415">
        <ele>300.865</ele>
        <time>2015-01-04T11:39:02Z</time>
      </trkpt>
      <trkpt lat="45.68662" lon="4.72407">
        <ele>301.0959</ele>
        <time>2015-01-04T11:39:07Z</time>
      </trkpt>
      <trkpt lat="45.68662" lon="4.724">
        <ele>301.0959</ele>
        <time>2015-01-04T11:39:12Z</time>
      </trkpt>
      <trkpt lat="45.68665" lon="4.7239">
        <ele>301.3863</ele>
        <time>2015-01-04T11:39:17Z</time>
      </trkpt>
      <trkpt lat="45.68666" lon="4.72379">
        <ele>301.3863</ele>
        <time>2015-01-04T11:39:22Z</time>
      </trkpt>
      <trkpt lat="45.68665" lon="4.72371">
        <ele>301.643</ele>
        <time>2015-01-04T11:39:27Z</time>
      </trkpt>
      <trkpt lat="45.68665" lon="4.72364">
        <ele>301.643</ele>
        <time>2015-01-04T11:39:32Z</time>
      </trkpt>
      <trkpt lat="45.68666" lon="4.72358">
        <ele>301.80872</ele>
        <time>2015-01-04T11:39:37Z</time>
      </trkpt>
      <trkpt lat="45.68668" lon="4.72353">
        <ele>301.80872</ele>
        <time>2015-01-04T11:39:42Z</time>
      </trkpt>
      <trkpt lat="45.68669" lon="4.72341">
        <ele>301.8161</ele>
        <time>2015-01-04T11:39:47Z</time>
      </trkpt>
      <trkpt lat="45.68668" lon="4.72339">
        <ele>301.8161</ele>
        <time>2015-01-04T11:39:52Z</time>
      </trkpt>
      <trkpt lat="45.68665" lon="4.72337">
        <ele>301.8161</ele>
        <time>2015-01-04T11:39:57Z</time>
      </trkpt>
      <trkpt lat="45.68666" lon="4.72334">
        <ele>301.8161</ele>
        <time>2015-01-04T11:40:02Z</time>
      </trkpt>
      <trkpt lat="45.68664" lon="4.72327">
        <ele>301.89157</ele>
        <time>2015-01-04T11:40:07Z</time>
      </trkpt>
      <trkpt lat="45.68661" lon="4.72318">
        <ele>301.89157</ele>
        <time>2015-01-04T11:40:12Z</time>
      </trkpt>
      <trkpt lat="45.68659" lon="4.72309">
        <ele>302.0141</ele>
        <time>2015-01-04T11:40:17Z</time>
      </trkpt>
      <trkpt lat="45.68654" lon="4.72299">
        <ele>302.0141</ele>
        <time>2015-01-04T11:40:22Z</time>
      </trkpt>
      <trkpt lat="45.6865" lon="4.72288">
        <ele>302.33704</ele>
        <time>2015-01-04T11:40:27Z</time>
      </trkpt>
      <trkpt lat="45.68647" lon="4.72281">
        <ele>302.33704</ele>
        <time>2015-01-04T11:40:32Z</time>
      </trkpt>
      <trkpt lat="45.68645" lon="4.72274">
        <ele>302.80023</ele>
        <time>2015-01-04T11:40:37Z</time>
      </trkpt>
      <trkpt lat="45.68645" lon="4.72266">
        <ele>302.80023</ele>
        <time>2015-01-04T11:40:42Z</time>
      </trkpt>
      <trkpt lat="45.68644" lon="4.72259">
        <ele>303.28992</ele>
        <time>2015-01-04T11:40:47Z</time>
      </trkpt>
      <trkpt lat="45.68644" lon="4.72255">
        <ele>303.28992</ele>
        <time>2015-01-04T11:40:52Z</time>
      </trkpt>
      <trkpt lat="45.68643" lon="4.72253">
        <ele>303.28992</ele>
        <time>2015-01-04T11:40:57Z</time>
      </trkpt>
      <trkpt lat="45.68643" lon="4.72252">
        <ele>303.28992</ele>
        <time>2015-01-04T11:41:02Z</time>
      </trkpt>
      <trkpt lat="45.68642" lon="4.72252">
        <ele>303.28992</ele>
        <time>2015-01-04T11:41:07Z</time>
      </trkpt>
      <trkpt lat="45.68643" lon="4.72253">
        <ele>303.28992</ele>
        <time>2015-01-04T11:41:12Z</time>
      </trkpt>
      <trkpt lat="45.68642" lon="4.72253">
        <ele>303.28992</ele>
        <time>2015-01-04T11:41:17Z</time>
      </trkpt>
      <trkpt lat="45.68642" lon="4.72253">
        <ele>303.28992</ele>
        <time>2015-01-04T11:41:22Z</time>
      </trkpt>
      <trkpt lat="45.68641" lon="4.72252">
        <ele>303.28992</ele>
        <time>2015-01-04T11:41:27Z</time>
      </trkpt>
      <trkpt lat="45.6864" lon="4.72251">
        <ele>303.93124</ele>
        <time>2015-01-04T11:41:32Z</time>
      </trkpt>
      <trkpt lat="45.68639" lon="4.72251">
        <ele>303.93124</ele>
        <time>2015-01-04T11:41:37Z</time>
      </trkpt>
      <trkpt lat="45.68639" lon="4.72252">
        <ele>303.93124</ele>
        <time>2015-01-04T11:41:42Z</time>
      </trkpt>
      <trkpt lat="45.6864" lon="4.72252">
        <ele>303.93124</ele>
        <time>2015-01-04T11:41:47Z</time>
      </trkpt>
      <trkpt lat="45.6864" lon="4.72254">
        <ele>303.93124</ele>
        <time>2015-01-04T11:41:52Z</time>
      </trkpt>
      <trkpt lat="45.68641" lon="4.72254">
        <ele>303.93124</ele>
        <time>2015-01-04T11:41:57Z</time>
      </trkpt>
      <trkpt lat="45.68641" lon="4.72254">
        <ele>303.93124</ele>
        <time>2015-01-04T11:42:02Z</time>
      </trkpt>
      <trkpt lat="45.68637" lon="4.72247">
        <ele>304.6669</ele>
        <time>2015-01-04T11:42:07Z</time>
      </trkpt>
      <trkpt lat="45.68636" lon="4.72239">
        <ele>304.6669</ele>
        <time>2015-01-04T11:42:12Z</time>
      </trkpt>
      <trkpt lat="45.68635" lon="4.72229">
        <ele>305.29938</ele>
        <time>2015-01-04T11:42:17Z</time>
      </trkpt>
      <trkpt lat="45.68633" lon="4.7222">
        <ele>305.29938</ele>
        <time>2015-01-04T11:42:22Z</time>
      </trkpt>
      <trkpt lat="45.6863" lon="4.72213">
        <ele>305.86227</ele>
        <time>2015-01-04T11:42:27Z</time>
      </trkpt>
      <trkpt lat="45.68628" lon="4.72205">
        <ele>305.86227</ele>
        <time>2015-01-04T11:42:32Z</time>
      </trkpt>
      <trkpt lat="45.68627" lon="4.72195">
        <ele>306.44458</ele>
        <time>2015-01-04T11:42:37Z</time>
      </trkpt>
      <trkpt lat="45.68626" lon="4.72192">
        <ele>306.44458</ele>
        <time>2015-01-04T11:42:42Z</time>
      </trkpt>
      <trkpt lat="45.68622" lon="4.7218">
        <ele>306.95584</ele>
        <time>2015-01-04T11:42:47Z</time>
      </trkpt>
      <trkpt lat="45.6862" lon="4.72168">
        <ele>306.95584</ele>
        <time>2015-01-04T11:42:52Z</time>
      </trkpt>
      <trkpt lat="45.68618" lon="4.7216">
        <ele>307.37015</ele>
        <time>2015-01-04T11:42:57Z</time>
      </trkpt>
      <trkpt lat="45.68616" lon="4.72147">
        <ele>307.73593</ele>
        <time>2015-01-04T11:43:02Z</time>
      </trkpt>
      <trkpt lat="45.68614" lon="4.72138">
        <ele>307.73593</ele>
        <time>2015-01-04T11:43:07Z</time>
      </trkpt>
      <trkpt lat="45.6861" lon="4.72128">
        <ele>308.02612</ele>
        <time>2015-01-04T11:43:12Z</time>
      </trkpt>
      <trkpt lat="45.68606" lon="4.72115">
        <ele>308.25928</ele>
        <time>2015-01-04T11:43:17Z</time>
      </trkpt>
      <trkpt lat="45.68602" lon="4.72104">
        <ele>308.25928</ele>
        <time>2015-01-04T11:43:22Z</time>
      </trkpt>
      <trkpt lat="45.68599" lon="4.72095">
        <ele>308.43835</ele>
        <time>2015-01-04T11:43:27Z</time>
      </trkpt>
      <trkpt lat="45.68597" lon="4.72087">
        <ele>308.43835</ele>
        <time>2015-01-04T11:43:32Z</time>
      </trkpt>
      <trkpt lat="45.68593" lon="4.72079">
        <ele>308.55185</ele>
        <time>2015-01-04T11:43:37Z</time>
      </trkpt>
      <trkpt lat="45.6859" lon="4.72071">
        <ele>308.55185</ele>
        <time>2015-01-04T11:43:42Z</time>
      </trkpt>
      <trkpt lat="45.68586" lon="4.72065">
        <ele>308.5174</ele>
        <time>2015-01-04T11:43:47Z</time>
      </trkpt>
      <trkpt lat="45.68581" lon="4.72058">
        <ele>308.5174</ele>
        <time>2015-01-04T11:43:52Z</time>
      </trkpt>
      <trkpt lat="45.68576" lon="4.72052">
        <ele>308.4032</ele>
        <time>2015-01-04T11:43:57Z</time>
      </trkpt>
      <trkpt lat="45.68572" lon="4.72044">
        <ele>308.4032</ele>
        <time>2015-01-04T11:44:02Z</time>
      </trkpt>
      <trkpt lat="45.68569" lon="4.72036">
        <ele>308.33038</ele>
        <time>2015-01-04T11:44:07Z</time>
      </trkpt>
      <trkpt lat="45.68568" lon="4.72025">
        <ele>308.33038</ele>
        <time>2015-01-04T11:44:12Z</time>
      </trkpt>
      <trkpt lat="45.68567" lon="4.72014">
        <ele>308.32474</ele>
        <time>2015-01-04T11:44:17Z</time>
      </trkpt>
      <trkpt lat="45.68567" lon="4.72">
        <ele>308.309</ele>
        <time>2015-01-04T11:44:22Z</time>
      </trkpt>
      <trkpt lat="45.68567" lon="4.7199">
        <ele>308.309</ele>
        <time>2015-01-04T11:44:27Z</time>
      </trkpt>
      <trkpt lat="45.68565" lon="4.71983">
        <ele>308.32706</ele>
        <time>2015-01-04T11:44:32Z</time>
      </trkpt>
      <trkpt lat="45.68564" lon="4.71979">
        <ele>308.32706</ele>
        <time>2015-01-04T11:44:37Z</time>
      </trkpt>
      <trkpt lat="45.68563" lon="4.71976">
        <ele>308.32706</ele>
        <time>2015-01-04T11:44:42Z</time>
      </trkpt>
      <trkpt lat="45.68563" lon="4.71976">
        <ele>308.32706</ele>
        <time>2015-01-04T11:44:47Z</time>
      </trkpt>
      <trkpt lat="45.68563" lon="4.71977">
        <ele>308.32706</ele>
        <time>2015-01-04T11:44:52Z</time>
      </trkpt>
      <trkpt lat="45.68562" lon="4.71979">
        <ele>308.32706</ele>
        <time>2015-01-04T11:44:57Z</time>
      </trkpt>
      <trkpt lat="45.68562" lon="4.71979">
        <ele>308.32706</ele>
        <time>2015-01-04T11:45:02Z</time>
      </trkpt>
      <trkpt lat="45.68563" lon="4.71978">
        <ele>308.32706</ele>
        <time>2015-01-04T11:45:07Z</time>
      </trkpt>
      <trkpt lat="45.68563" lon="4.71977">
        <ele>308.24655</ele>
        <time>2015-01-04T11:45:12Z</time>
      </trkpt>
      <trkpt lat="45.68563" lon="4.71975">
        <ele>308.24655</ele>
        <time>2015-01-04T11:45:17Z</time>
      </trkpt>
      <trkpt lat="45.68564" lon="4.7197">
        <ele>308.24655</ele>
        <time>2015-01-04T11:45:22Z</time>
      </trkpt>
      <trkpt lat="45.68564" lon="4.7197">
        <ele>308.24655</ele>
        <time>2015-01-04T11:45:27Z</time>
      </trkpt>
      <trkpt lat="45.68565" lon="4.71973">
        <ele>308.24655</ele>
        <time>2015-01-04T11:45:32Z</time>
      </trkpt>
      <trkpt lat="45.68565" lon="4.71974">
        <ele>308.24655</ele>
        <time>2015-01-04T11:45:37Z</time>
      </trkpt>
      <trkpt lat="45.68566" lon="4.71974">
        <ele>307.90192</ele>
        <time>2015-01-04T11:45:42Z</time>
      </trkpt>
      <trkpt lat="45.68567" lon="4.71974">
        <ele>307.90192</ele>
        <time>2015-01-04T11:45:47Z</time>
      </trkpt>
      <trkpt lat="45.68566" lon="4.71974">
        <ele>307.90192</ele>
        <time>2015-01-04T11:45:52Z</time>
      </trkpt>
      <trkpt lat="45.68566" lon="4.71974">
        <ele>307.90192</ele>
        <time>2015-01-04T11:45:57Z</time>
      </trkpt>
      <trkpt lat="45.68566" lon="4.71974">
        <ele>307.90192</ele>
        <time>2015-01-04T11:46:02Z</time>
      </trkpt>
      <trkpt lat="45.68568" lon="4.71979">
        <ele>307.90192</ele>
        <time>2015-01-04T11:46:07Z</time>
      </trkpt>
      <trkpt lat="45.68569" lon="4.71981">
        <ele>307.90192</ele>
        <time>2015-01-04T11:46:12Z</time>
      </trkpt>
      <trkpt lat="45.68571" lon="4.71981">
        <ele>307.4432</ele>
        <time>2015-01-04T11:46:17Z</time>
      </trkpt>
      <trkpt lat="45.68571" lon="4.71981">
        <ele>307.4432</ele>
        <time>2015-01-04T11:46:22Z</time>
      </trkpt>
      <trkpt lat="45.6857" lon="4.71979">
        <ele>307.4432</ele>
        <time>2015-01-04T11:46:27Z</time>
      </trkpt>
      <trkpt lat="45.6857" lon="4.71979">
        <ele>307.4432</ele>
        <time>2015-01-04T11:46:32Z</time>
      </trkpt>
      <trkpt lat="45.68571" lon="4.71979">
        <ele>307.4432</ele>
        <time>2015-01-04T11:46:37Z</time>
      </trkpt>
      <trkpt lat="45.68574" lon="4.71984">
        <ele>307.4432</ele>
        <time>2015-01-04T11:46:42Z</time>
      </trkpt>
      <trkpt lat="45.68581" lon="4.71988">
        <ele>306.73593</ele>
        <time>2015-01-04T11:46:47Z</time>
      </trkpt>
      <trkpt lat="45.68586" lon="4.71989">
        <ele>306.73593</ele>
        <time>2015-01-04T11:46:52Z</time>
      </trkpt>
      <trkpt lat="45.68589" lon="4.71991">
        <ele>306.73593</ele>
        <time>2015-01-04T11:46:57Z</time>
      </trkpt>
      <trkpt lat="45.68596" lon="4.71996">
        <ele>305.7283</ele>
        <time>2015-01-04T11:47:02Z</time>
      </trkpt>
      <trkpt lat="45.686" lon="4.72001">
        <ele>305.7283</ele>
        <time>2015-01-04T11:47:07Z</time>
      </trkpt>
      <trkpt lat="45.68608" lon="4.72">
        <ele>304.71906</ele>
        <time>2015-01-04T11:47:12Z</time>
      </trkpt>
      <trkpt lat="45.68613" lon="4.71995">
        <ele>304.71906</ele>
        <time>2015-01-04T11:47:17Z</time>
      </trkpt>
      <trkpt lat="45.68617" lon="4.71985">
        <ele>303.82648</ele>
        <time>2015-01-04T11:47:22Z</time>
      </trkpt>
      <trkpt lat="45.6862" lon="4.71979">
        <ele>303.82648</ele>
        <time>2015-01-04T11:47:27Z</time>
      </trkpt>
      <trkpt lat="45.68622" lon="4.7197">
        <ele>303.08777</ele>
        <time>2015-01-04T11:47:32Z</time>
      </trkpt>
      <trkpt lat="45.68624" lon="4.71959">
        <ele>303.08777</ele>
        <time>2015-01-04T11:47:37Z</time>
      </trkpt>
      <trkpt lat="45.68626" lon="4.71949">
        <ele>302.34958</ele>
        <time>2015-01-04T11:47:42Z</time>
      </trkpt>
      <trkpt lat="45.68627" lon="4.71938">
        <ele>302.34958</ele>
        <time>2015-01-04T11:47:47Z</time>
      </trkpt>
      <trkpt lat="45.68628" lon="4.71931">
        <ele>301.64282</ele>
        <time>2015-01-04T11:47:52Z</time>
      </trkpt>
      <trkpt lat="45.6863" lon="4.71925">
        <ele>301.64282</ele>
        <time>2015-01-04T11:47:57Z</time>
      </trkpt>
      <trkpt lat="45.68634" lon="4.71916">
        <ele>300.86627</ele>
        <time>2015-01-04T11:48:02Z</time>
      </trkpt>
      <trkpt lat="45.68635" lon="4.71908">
        <ele>300.86627</ele>
        <time>2015-01-04T11:48:07Z</time>
      </trkpt>
      <trkpt lat="45.68638" lon="4.719">
        <ele>299.98395</ele>
        <time>2015-01-04T11:48:12Z</time>
      </trkpt>
      <trkpt lat="45.6864" lon="4.71892">
        <ele>299.98395</ele>
        <time>2015-01-04T11:48:17Z</time>
      </trkpt>
      <trkpt lat="45.68642" lon="4.71882">
        <ele>299.06375</ele>
        <time>2015-01-04T11:48:22Z</time>
      </trkpt>
      <trkpt lat="45.68643" lon="4.71872">
        <ele>299.06375</ele>
        <time>2015-01-04T11:48:27Z</time>
      </trkpt>
      <trkpt lat="45.68644" lon="4.71864">
        <ele>298.12527</ele>
        <time>2015-01-04T11:48:32Z</time>
      </trkpt>
      <trkpt lat="45.68647" lon="4.71853">
        <ele>298.12527</ele>
        <time>2015-01-04T11:48:37Z</time>
      </trkpt>
      <trkpt lat="45.68648" lon="4.71849">
        <ele>297.15802</ele>
        <time>2015-01-04T11:48:42Z</time>
      </trkpt>
      <trkpt lat="45.68651" lon="4.71841">
        <ele>297.15802</ele>
        <time>2015-01-04T11:48:47Z</time>
      </trkpt>
      <trkpt lat="45.68652" lon="4.71839">
        <ele>297.15802</ele>
        <time>2015-01-04T11:48:52Z</time>
      </trkpt>
      <trkpt lat="45.68655" lon="4.71841">
        <ele>296.09457</ele>
        <time>2015-01-04T11:48:57Z</time>
      </trkpt>
      <trkpt lat="45.68654" lon="4.71841">
        <ele>296.09457</ele>
        <time>2015-01-04T11:49:02Z</time>
      </trkpt>
      <trkpt lat="45.68651" lon="4.7184">
        <ele>296.09457</ele>
        <time>2015-01-04T11:49:07Z</time>
      </trkpt>
      <trkpt lat="45.68651" lon="4.71839">
        <ele>296.09457</ele>
        <time>2015-01-04T11:49:12Z</time>
      </trkpt>
      <trkpt lat="45.68651" lon="4.71836">
        <ele>296.09457</ele>
        <time>2015-01-04T11:49:17Z</time>
      </trkpt>
      <trkpt lat="45.68652" lon="4.71828">
        <ele>295.08884</ele>
        <time>2015-01-04T11:49:22Z</time>
      </trkpt>
      <trkpt lat="45.68655" lon="4.7182">
        <ele>295.08884</ele>
        <time>2015-01-04T11:49:27Z</time>
      </trkpt>
      <trkpt lat="45.68657" lon="4.71811">
        <ele>294.00946</ele>
        <time>2015-01-04T11:49:32Z</time>
      </trkpt>
      <trkpt lat="45.68659" lon="4.71804">
        <ele>294.00946</ele>
        <time>2015-01-04T11:49:37Z</time>
      </trkpt>
      <trkpt lat="45.68661" lon="4.71798">
        <ele>292.87894</ele>
        <time>2015-01-04T11:49:42Z</time>
      </trkpt>
      <trkpt lat="45.68664" lon="4.71793">
        <ele>292.87894</ele>
        <time>2015-01-04T11:49:47Z</time>
      </trkpt>
      <trkpt lat="45.68668" lon="4.71784">
        <ele>291.73264</ele>
        <time>2015-01-04T11:49:52Z</time>
      </trkpt>
      <trkpt lat="45.68669" lon="4.71778">
        <ele>291.73264</ele>
        <time>2015-01-04T11:49:57Z</time>
      </trkpt>
      <trkpt lat="45.68671" lon="4.71771">
        <ele>290.5745</ele>
        <time>2015-01-04T11:50:02Z</time>
      </trkpt>
      <trkpt lat="45.68673" lon="4.71764">
        <ele>290.5745</ele>
        <time>2015-01-04T11:50:07Z</time>
      </trkpt>
      <trkpt lat="45.68676" lon="4.71756">
        <ele>289.35043</ele>
        <time>2015-01-04T11:50:12Z</time>
      </trkpt>
      <trkpt lat="45.68679" lon="4.71749">
        <ele>289.35043</ele>
        <time>2015-01-04T11:50:17Z</time>
      </trkpt>
      <trkpt lat="45.68682" lon="4.71742">
        <ele>288.21225</ele>
        <time>2015-01-04T11:50:22Z</time>
      </trkpt>
      <trkpt lat="45.68687" lon="4.71734">
        <ele>288.21225</ele>
        <time>2015-01-04T11:50:27Z</time>
      </trkpt>
      <trkpt lat="45.68691" lon="4.71727">
        <ele>287.0553</ele>
        <time>2015-01-04T11:50:32Z</time>
      </trkpt>
      <trkpt lat="45.68695" lon="4.71722">
        <ele>287.0553</ele>
        <time>2015-01-04T11:50:37Z</time>
      </trkpt>
      <trkpt lat="45.687" lon="4.71717">
        <ele>285.86902</ele>
        <time>2015-01-04T11:50:42Z</time>
      </trkpt>
      <trkpt lat="45.68703" lon="4.71712">
        <ele>285.86902</ele>
        <time>2015-01-04T11:50:47Z</time>
      </trkpt>
      <trkpt lat="45.6871" lon="4.71706">
        <ele>284.6293</ele>
        <time>2015-01-04T11:50:52Z</time>
      </trkpt>
      <trkpt lat="45.68717" lon="4.71704">
        <ele>284.6293</ele>
        <time>2015-01-04T11:50:57Z</time>
      </trkpt>
      <trkpt lat="45.68723" lon="4.71703">
        <ele>283.2994</ele>
        <time>2015-01-04T11:51:02Z</time>
      </trkpt>
      <trkpt lat="45.68725" lon="4.71703">
        <ele>283.2994</ele>
        <time>2015-01-04T11:51:07Z</time>
      </trkpt>
      <trkpt lat="45.68727" lon="4.71701">
        <ele>283.2994</ele>
        <time>2015-01-04T11:51:12Z</time>
      </trkpt>
      <trkpt lat="45.6873" lon="4.717">
        <ele>283.2994</ele>
        <time>2015-01-04T11:51:17Z</time>
      </trkpt>
      <trkpt lat="45.6873" lon="4.717">
        <ele>283.2994</ele>
        <time>2015-01-04T11:51:22Z</time>
      </trkpt>
      <trkpt lat="45.6873" lon="4.717">
        <ele>283.2994</ele>
        <time>2015-01-04T11:51:27Z</time>
      </trkpt>
      <trkpt lat="45.68729" lon="4.71698">
        <ele>281.51398</ele>
        <time>2015-01-04T11:51:32Z</time>
      </trkpt>
      <trkpt lat="45.6873" lon="4.71694">
        <ele>281.51398</ele>
        <time>2015-01-04T11:51:37Z</time>
      </trkpt>
      <trkpt lat="45.68729" lon="4.7169">
        <ele>281.51398</ele>
        <time>2015-01-04T11:51:42Z</time>
      </trkpt>
      <trkpt lat="45.6873" lon="4.7169">
        <ele>281.51398</ele>
        <time>2015-01-04T11:51:47Z</time>
      </trkpt>
      <trkpt lat="45.68732" lon="4.71687">
        <ele>279.52664</ele>
        <time>2015-01-04T11:51:52Z</time>
      </trkpt>
      <trkpt lat="45.68739" lon="4.71682">
        <ele>279.52664</ele>
        <time>2015-01-04T11:51:57Z</time>
      </trkpt>
      <trkpt lat="45.68743" lon="4.71675">
        <ele>277.41425</ele>
        <time>2015-01-04T11:52:02Z</time>
      </trkpt>
      <trkpt lat="45.68746" lon="4.71673">
        <ele>277.41425</ele>
        <time>2015-01-04T11:52:07Z</time>
      </trkpt>
      <trkpt lat="45.68749" lon="4.71667">
        <ele>277.41425</ele>
        <time>2015-01-04T11:52:12Z</time>
      </trkpt>
      <trkpt lat="45.68753" lon="4.71663">
        <ele>275.01773</ele>
        <time>2015-01-04T11:52:17Z</time>
      </trkpt>
      <trkpt lat="45.68758" lon="4.71658">
        <ele>275.01773</ele>
        <time>2015-01-04T11:52:22Z</time>
      </trkpt>
      <trkpt lat="45.68763" lon="4.71654">
        <ele>272.76688</ele>
        <time>2015-01-04T11:52:27Z</time>
      </trkpt>
      <trkpt lat="45.68763" lon="4.71653">
        <ele>272.76688</ele>
        <time>2015-01-04T11:52:32Z</time>
      </trkpt>
      <trkpt lat="45.68768" lon="4.71649">
        <ele>272.76688</ele>
        <time>2015-01-04T11:52:37Z</time>
      </trkpt>
      <trkpt lat="45.68774" lon="4.71646">
        <ele>270.3964</ele>
        <time>2015-01-04T11:52:42Z</time>
      </trkpt>
      <trkpt lat="45.68774" lon="4.71644">
        <ele>270.3964</ele>
        <time>2015-01-04T11:52:47Z</time>
      </trkpt>
      <trkpt lat="45.6878" lon="4.71637">
        <ele>270.3964</ele>
        <time>2015-01-04T11:52:52Z</time>
      </trkpt>
      <trkpt lat="45.68781" lon="4.71634">
        <ele>267.48782</ele>
        <time>2015-01-04T11:52:57Z</time>
      </trkpt>
      <trkpt lat="45.68782" lon="4.71629">
        <ele>267.48782</ele>
        <time>2015-01-04T11:53:02Z</time>
      </trkpt>
      <trkpt lat="45.68784" lon="4.71629">
        <ele>267.48782</ele>
        <time>2015-01-04T11:53:07Z</time>
      </trkpt>
      <trkpt lat="45.68792" lon="4.71618">
        <ele>264.49063</ele>
        <time>2015-01-04T11:53:12Z</time>
      </trkpt>
      <trkpt lat="45.68794" lon="4.71607">
        <ele>264.49063</ele>
        <time>2015-01-04T11:53:17Z</time>
      </trkpt>
      <trkpt lat="45.68798" lon="4.71601">
        <ele>261.6341</ele>
        <time>2015-01-04T11:53:22Z</time>
      </trkpt>
      <trkpt lat="45.68799" lon="4.716">
        <ele>261.6341</ele>
        <time>2015-01-04T11:53:27Z</time>
      </trkpt>
      <trkpt lat="45.68799" lon="4.716">
        <ele>261.6341</ele>
        <time>2015-01-04T11:53:32Z</time>
      </trkpt>
      <trkpt lat="45.688" lon="4.716">
        <ele>261.6341</ele>
        <time>2015-01-04T11:54:02Z</time>
      </trkpt>
      <trkpt lat="45.68799" lon="4.716">
        <ele>261.6341</ele>
        <time>2015-01-04T11:54:17Z</time>
      </trkpt>
      <trkpt lat="45.688" lon="4.71601">
        <ele>261.6341</ele>
        <time>2015-01-04T11:54:22Z</time>
      </trkpt>
      <trkpt lat="45.688" lon="4.71603">
        <ele>261.6341</ele>
        <time>2015-01-04T11:54:27Z</time>
      </trkpt>
      <trkpt lat="45.688" lon="4.71604">
        <ele>261.6341</ele>
        <time>2015-01-04T11:54:32Z</time>
      </trkpt>
      <trkpt lat="45.688" lon="4.71606">
        <ele>261.6341</ele>
        <time>2015-01-04T11:54:37Z</time>
      </trkpt>
      <trkpt lat="45.688" lon="4.71606">
        <ele>261.6341</ele>
        <time>2015-01-04T11:54:42Z</time>
      </trkpt>
      <trkpt lat="45.688" lon="4.71605">
        <ele>261.6341</ele>
        <time>2015-01-04T11:54:47Z</time>
      </trkpt>
      <trkpt lat="45.68802" lon="4.71607">
        <ele>261.6341</ele>
        <time>2015-01-04T11:54:52Z</time>
      </trkpt>
      <trkpt lat="45.68803" lon="4.71606">
        <ele>259.2021</ele>
        <time>2015-01-04T11:54:57Z</time>
      </trkpt>
      <trkpt lat="45.68806" lon="4.71604">
        <ele>259.2021</ele>
        <time>2015-01-04T11:55:02Z</time>
      </trkpt>
      <trkpt lat="45.68807" lon="4.71602">
        <ele>259.2021</ele>
        <time>2015-01-04T11:55:07Z</time>
      </trkpt>
      <trkpt lat="45.68807" lon="4.71601">
        <ele>259.2021</ele>
        <time>2015-01-04T11:55:12Z</time>
      </trkpt>
      <trkpt lat="45.68809" lon="4.71601">
        <ele>259.2021</ele>
        <time>2015-01-04T11:55:17Z</time>
      </trkpt>
      <trkpt lat="45.68809" lon="4.71599">
        <ele>259.2021</ele>
        <time>2015-01-04T11:55:22Z</time>
      </trkpt>
      <trkpt lat="45.68809" lon="4.71599">
        <ele>259.2021</ele>
        <time>2015-01-04T11:55:27Z</time>
      </trkpt>
      <trkpt lat="45.68808" lon="4.71598">
        <ele>257.0096</ele>
        <time>2015-01-04T11:55:32Z</time>
      </trkpt>
      <trkpt lat="45.68808" lon="4.71598">
        <ele>257.0096</ele>
        <time>2015-01-04T11:55:37Z</time>
      </trkpt>
      <trkpt lat="45.68808" lon="4.71598">
        <ele>257.0096</ele>
        <time>2015-01-04T11:55:42Z</time>
      </trkpt>
      <trkpt lat="45.68807" lon="4.71599">
        <ele>257.0096</ele>
        <time>2015-01-04T11:55:47Z</time>
      </trkpt>
      <trkpt lat="45.68807" lon="4.71599">
        <ele>257.0096</ele>
        <time>2015-01-04T11:55:52Z</time>
      </trkpt>
      <trkpt lat="45.68807" lon="4.71599">
        <ele>257.0096</ele>
        <time>2015-01-04T11:55:57Z</time>
      </trkpt>
      <trkpt lat="45.68807" lon="4.71599">
        <ele>257.0096</ele>
        <time>2015-01-04T11:56:02Z</time>
      </trkpt>
      <trkpt lat="45.68808" lon="4.71599">
        <ele>257.0096</ele>
        <time>2015-01-04T11:56:07Z</time>
      </trkpt>
      <trkpt lat="45.68808" lon="4.71599">
        <ele>257.0096</ele>
        <time>2015-01-04T11:56:12Z</time>
      </trkpt>
      <trkpt lat="45.68809" lon="4.71599">
        <ele>257.0096</ele>
        <time>2015-01-04T11:56:17Z</time>
      </trkpt>
      <trkpt lat="45.68809" lon="4.71598">
        <ele>257.0096</ele>
        <time>2015-01-04T11:56:22Z</time>
      </trkpt>
      <trkpt lat="45.68809" lon="4.71598">
        <ele>257.0096</ele>
        <time>2015-01-04T11:56:27Z</time>
      </trkpt>
      <trkpt lat="45.68809" lon="4.71598">
        <ele>257.0096</ele>
        <time>2015-01-04T11:56:32Z</time>
      </trkpt>
      <trkpt lat="45.68809" lon="4.71598">
        <ele>257.0096</ele>
        <time>2015-01-04T11:56:37Z</time>
      </trkpt>
      <trkpt lat="45.68807" lon="4.716">
        <ele>257.0096</ele>
        <time>2015-01-04T11:56:47Z</time>
      </trkpt>
      <trkpt lat="45.68806" lon="4.716">
        <ele>257.0096</ele>
        <time>2015-01-04T11:56:52Z</time>
      </trkpt>
      <trkpt lat="45.68805" lon="4.71599">
        <ele>255.04297</ele>
        <time>2015-01-04T11:56:57Z</time>
      </trkpt>
      <trkpt lat="45.68804" lon="4.71597">
        <ele>255.04297</ele>
        <time>2015-01-04T11:57:02Z</time>
      </trkpt>
      <trkpt lat="45.68803" lon="4.71599">
        <ele>255.04297</ele>
        <time>2015-01-04T11:57:07Z</time>
      </trkpt>
      <trkpt lat="45.68802" lon="4.71599">
        <ele>255.04297</ele>
        <time>2015-01-04T11:57:12Z</time>
      </trkpt>
      <trkpt lat="45.68802" lon="4.716">
        <ele>255.04297</ele>
        <time>2015-01-04T11:57:17Z</time>
      </trkpt>
      <trkpt lat="45.68802" lon="4.71599">
        <ele>255.04297</ele>
        <time>2015-01-04T11:57:22Z</time>
      </trkpt>
      <trkpt lat="45.68802" lon="4.71599">
        <ele>255.04297</ele>
        <time>2015-01-04T11:57:27Z</time>
      </trkpt>
      <trkpt lat="45.68803" lon="4.71597">
        <ele>255.04297</ele>
        <time>2015-01-04T11:57:32Z</time>
      </trkpt>
      <trkpt lat="45.68804" lon="4.71596">
        <ele>255.04297</ele>
        <time>2015-01-04T11:57:37Z</time>
      </trkpt>
      <trkpt lat="45.68803" lon="4.71597">
        <ele>255.04297</ele>
        <time>2015-01-04T11:57:42Z</time>
      </trkpt>
      <trkpt lat="45.68803" lon="4.71596">
        <ele>255.04297</ele>
        <time>2015-01-04T11:57:47Z</time>
      </trkpt>
      <trkpt lat="45.68802" lon="4.71597">
        <ele>253.36069</ele>
        <time>2015-01-04T11:57:52Z</time>
      </trkpt>
      <trkpt lat="45.68802" lon="4.71597">
        <ele>253.36069</ele>
        <time>2015-01-04T11:57:57Z</time>
      </trkpt>
      <trkpt lat="45.68803" lon="4.71596">
        <ele>253.36069</ele>
        <time>2015-01-04T11:58:02Z</time>
      </trkpt>
      <trkpt lat="45.68804" lon="4.71594">
        <ele>253.36069</ele>
        <time>2015-01-04T11:58:07Z</time>
      </trkpt>
      <trkpt lat="45.68803" lon="4.71591">
        <ele>253.36069</ele>
        <time>2015-01-04T11:58:12Z</time>
      </trkpt>
      <trkpt lat="45.68804" lon="4.71588">
        <ele>253.36069</ele>
        <time>2015-01-04T11:58:17Z</time>
      </trkpt>
      <trkpt lat="45.68805" lon="4.71584">
        <ele>251.87195</ele>
        <time>2015-01-04T11:58:22Z</time>
      </trkpt>
      <trkpt lat="45.68808" lon="4.71582">
        <ele>251.87195</ele>
        <time>2015-01-04T11:58:27Z</time>
      </trkpt>
      <trkpt lat="45.68813" lon="4.71584">
        <ele>251.87195</ele>
        <time>2015-01-04T11:58:32Z</time>
      </trkpt>
      <trkpt lat="45.68821" lon="4.71588">
        <ele>250.46312</ele>
        <time>2015-01-04T11:58:37Z</time>
      </trkpt>
      <trkpt lat="45.68828" lon="4.71591">
        <ele>250.46312</ele>
        <time>2015-01-04T11:58:42Z</time>
      </trkpt>
      <trkpt lat="45.68832" lon="4.71594">
        <ele>249.46086</ele>
        <time>2015-01-04T11:58:47Z</time>
      </trkpt>
      <trkpt lat="45.68835" lon="4.71599">
        <ele>249.46086</ele>
        <time>2015-01-04T11:58:52Z</time>
      </trkpt>
      <trkpt lat="45.68838" lon="4.71603">
        <ele>249.46086</ele>
        <time>2015-01-04T11:58:57Z</time>
      </trkpt>
      <trkpt lat="45.6884" lon="4.71605">
        <ele>248.92162</ele>
        <time>2015-01-04T11:59:02Z</time>
      </trkpt>
      <trkpt lat="45.68843" lon="4.71607">
        <ele>248.92162</ele>
        <time>2015-01-04T11:59:07Z</time>
      </trkpt>
      <trkpt lat="45.68847" lon="4.7161">
        <ele>248.92162</ele>
        <time>2015-01-04T11:59:12Z</time>
      </trkpt>
      <trkpt lat="45.68854" lon="4.71617">
        <ele>248.69446</ele>
        <time>2015-01-04T11:59:17Z</time>
      </trkpt>
      <trkpt lat="45.68857" lon="4.71622">
        <ele>248.69446</ele>
        <time>2015-01-04T11:59:22Z</time>
      </trkpt>
      <trkpt lat="45.6886" lon="4.71628">
        <ele>248.71066</ele>
        <time>2015-01-04T11:59:27Z</time>
      </trkpt>
      <trkpt lat="45.68863" lon="4.71632">
        <ele>248.71066</ele>
        <time>2015-01-04T11:59:32Z</time>
      </trkpt>
      <trkpt lat="45.68865" lon="4.71634">
        <ele>248.71066</ele>
        <time>2015-01-04T11:59:37Z</time>
      </trkpt>
      <trkpt lat="45.68867" lon="4.71639">
        <ele>248.80489</ele>
        <time>2015-01-04T11:59:42Z</time>
      </trkpt>
      <trkpt lat="45.68869" lon="4.71648">
        <ele>248.80489</ele>
        <time>2015-01-04T11:59:47Z</time>
      </trkpt>
      <trkpt lat="45.68874" lon="4.71658">
        <ele>249.12628</ele>
        <time>2015-01-04T11:59:52Z</time>
      </trkpt>
      <trkpt lat="45.68878" lon="4.71663">
        <ele>249.12628</ele>
        <time>2015-01-04T11:59:57Z</time>
      </trkpt>
      <trkpt lat="45.6888" lon="4.71665">
        <ele>249.12628</ele>
        <time>2015-01-04T12:00:02Z</time>
      </trkpt>
      <trkpt lat="45.68883" lon="4.71664">
        <ele>249.79791</ele>
        <time>2015-01-04T12:00:07Z</time>
      </trkpt>
      <trkpt lat="45.68888" lon="4.71663">
        <ele>249.79791</ele>
        <time>2015-01-04T12:00:12Z</time>
      </trkpt>
      <trkpt lat="45.68892" lon="4.71662">
        <ele>250.7599</ele>
        <time>2015-01-04T12:00:17Z</time>
      </trkpt>
      <trkpt lat="45.68896" lon="4.71662">
        <ele>250.7599</ele>
        <time>2015-01-04T12:00:22Z</time>
      </trkpt>
      <trkpt lat="45.68902" lon="4.71658">
        <ele>251.88382</ele>
        <time>2015-01-04T12:00:27Z</time>
      </trkpt>
      <trkpt lat="45.68907" lon="4.71657">
        <ele>251.88382</ele>
        <time>2015-01-04T12:00:32Z</time>
      </trkpt>
      <trkpt lat="45.68911" lon="4.71657">
        <ele>251.88382</ele>
        <time>2015-01-04T12:00:37Z</time>
      </trkpt>
      <trkpt lat="45.68915" lon="4.71655">
        <ele>253.32407</ele>
        <time>2015-01-04T12:00:42Z</time>
      </trkpt>
      <trkpt lat="45.68922" lon="4.71651">
        <ele>253.32407</ele>
        <time>2015-01-04T12:00:47Z</time>
      </trkpt>
      <trkpt lat="45.68926" lon="4.71647">
        <ele>254.7905</ele>
        <time>2015-01-04T12:00:52Z</time>
      </trkpt>
      <trkpt lat="45.68927" lon="4.71643">
        <ele>254.7905</ele>
        <time>2015-01-04T12:00:57Z</time>
      </trkpt>
      <trkpt lat="45.68931" lon="4.71641">
        <ele>254.7905</ele>
        <time>2015-01-04T12:01:02Z</time>
      </trkpt>
      <trkpt lat="45.68935" lon="4.71636">
        <ele>256.40335</ele>
        <time>2015-01-04T12:01:07Z</time>
      </trkpt>
      <trkpt lat="45.68937" lon="4.7163">
        <ele>256.40335</ele>
        <time>2015-01-04T12:01:12Z</time>
      </trkpt>
      <trkpt lat="45.6894" lon="4.71625">
        <ele>258.11514</ele>
        <time>2015-01-04T12:01:17Z</time>
      </trkpt>
      <trkpt lat="45.68942" lon="4.71619">
        <ele>258.11514</ele>
        <time>2015-01-04T12:01:22Z</time>
      </trkpt>
      <trkpt lat="45.68945" lon="4.71613">
        <ele>259.8961</ele>
        <time>2015-01-04T12:01:27Z</time>
      </trkpt>
      <trkpt lat="45.68945" lon="4.71607">
        <ele>259.8961</ele>
        <time>2015-01-04T12:01:32Z</time>
      </trkpt>
      <trkpt lat="45.68944" lon="4.71602">
        <ele>259.8961</ele>
        <time>2015-01-04T12:01:37Z</time>
      </trkpt>
      <trkpt lat="45.68942" lon="4.71597">
        <ele>262.0932</ele>
        <time>2015-01-04T12:01:42Z</time>
      </trkpt>
      <trkpt lat="45.68943" lon="4.71594">
        <ele>262.0932</ele>
        <time>2015-01-04T12:01:47Z</time>
      </trkpt>
      <trkpt lat="45.68944" lon="4.7159">
        <ele>262.0932</ele>
        <time>2015-01-04T12:01:52Z</time>
      </trkpt>
      <trkpt lat="45.68945" lon="4.71582">
        <ele>264.6667</ele>
        <time>2015-01-04T12:01:57Z</time>
      </trkpt>
      <trkpt lat="45.68945" lon="4.71574">
        <ele>264.6667</ele>
        <time>2015-01-04T12:02:02Z</time>
      </trkpt>
      <trkpt lat="45.68943" lon="4.71566">
        <ele>267.3049</ele>
        <time>2015-01-04T12:02:07Z</time>
      </trkpt>
      <trkpt lat="45.68943" lon="4.7156">
        <ele>267.3049</ele>
        <time>2015-01-04T12:02:12Z</time>
      </trkpt>
      <trkpt lat="45.68943" lon="4.71552">
        <ele>269.93527</ele>
        <time>2015-01-04T12:02:17Z</time>
      </trkpt>
      <trkpt lat="45.68946" lon="4.71547">
        <ele>269.93527</ele>
        <time>2015-01-04T12:02:22Z</time>
      </trkpt>
      <trkpt lat="45.68948" lon="4.71537">
        <ele>272.50516</ele>
        <time>2015-01-04T12:02:27Z</time>
      </trkpt>
      <trkpt lat="45.68947" lon="4.71526">
        <ele>272.50516</ele>
        <time>2015-01-04T12:02:32Z</time>
      </trkpt>
      <trkpt lat="45.68947" lon="4.71518">
        <ele>274.95175</ele>
        <time>2015-01-04T12:02:37Z</time>
      </trkpt>
      <trkpt lat="45.68947" lon="4.71513">
        <ele>274.95175</ele>
        <time>2015-01-04T12:02:42Z</time>
      </trkpt>
      <trkpt lat="45.68949" lon="4.71508">
        <ele>274.95175</ele>
        <time>2015-01-04T12:02:47Z</time>
      </trkpt>
      <trkpt lat="45.68949" lon="4.71502">
        <ele>277.40466</ele>
        <time>2015-01-04T12:02:52Z</time>
      </trkpt>
      <trkpt lat="45.6895" lon="4.71496">
        <ele>277.40466</ele>
        <time>2015-01-04T12:02:57Z</time>
      </trkpt>
      <trkpt lat="45.6895" lon="4.71486">
        <ele>279.78256</ele>
        <time>2015-01-04T12:03:02Z</time>
      </trkpt>
      <trkpt lat="45.6895" lon="4.71479">
        <ele>279.78256</ele>
        <time>2015-01-04T12:03:07Z</time>
      </trkpt>
      <trkpt lat="45.68948" lon="4.7147">
        <ele>282.241</ele>
        <time>2015-01-04T12:03:12Z</time>
      </trkpt>
      <trkpt lat="45.68948" lon="4.71463">
        <ele>282.241</ele>
        <time>2015-01-04T12:03:17Z</time>
      </trkpt>
      <trkpt lat="45.68947" lon="4.71457">
        <ele>284.66473</ele>
        <time>2015-01-04T12:03:22Z</time>
      </trkpt>
      <trkpt lat="45.68947" lon="4.71451">
        <ele>284.66473</ele>
        <time>2015-01-04T12:03:27Z</time>
      </trkpt>
      <trkpt lat="45.68948" lon="4.71445">
        <ele>284.66473</ele>
        <time>2015-01-04T12:03:32Z</time>
      </trkpt>
      <trkpt lat="45.6895" lon="4.71438">
        <ele>287.1347</ele>
        <time>2015-01-04T12:03:37Z</time>
      </trkpt>
      <trkpt lat="45.68952" lon="4.71435">
        <ele>287.1347</ele>
        <time>2015-01-04T12:03:42Z</time>
      </trkpt>
      <trkpt lat="45.68954" lon="4.71433">
        <ele>287.1347</ele>
        <time>2015-01-04T12:03:47Z</time>
      </trkpt>
      <trkpt lat="45.68953" lon="4.71432">
        <ele>287.1347</ele>
        <time>2015-01-04T12:03:52Z</time>
      </trkpt>
      <trkpt lat="45.68953" lon="4.71432">
        <ele>287.1347</ele>
        <time>2015-01-04T12:03:57Z</time>
      </trkpt>
      <trkpt lat="45.68955" lon="4.71435">
        <ele>289.65393</ele>
        <time>2015-01-04T12:04:02Z</time>
      </trkpt>
      <trkpt lat="45.68955" lon="4.71434">
        <ele>289.65393</ele>
        <time>2015-01-04T12:04:07Z</time>
      </trkpt>
      <trkpt lat="45.68955" lon="4.71434">
        <ele>289.65393</ele>
        <time>2015-01-04T12:04:12Z</time>
      </trkpt>
      <trkpt lat="45.68955" lon="4.71433">
        <ele>289.65393</ele>
        <time>2015-01-04T12:04:17Z</time>
      </trkpt>
      <trkpt lat="45.68955" lon="4.71433">
        <ele>289.65393</ele>
        <time>2015-01-04T12:04:22Z</time>
      </trkpt>
      <trkpt lat="45.68956" lon="4.71431">
        <ele>289.65393</ele>
        <time>2015-01-04T12:04:27Z</time>
      </trkpt>
      <trkpt lat="45.68956" lon="4.7143">
        <ele>289.65393</ele>
        <time>2015-01-04T12:04:32Z</time>
      </trkpt>
      <trkpt lat="45.68956" lon="4.71431">
        <ele>289.65393</ele>
        <time>2015-01-04T12:04:37Z</time>
      </trkpt>
      <trkpt lat="45.68956" lon="4.71431">
        <ele>289.65393</ele>
        <time>2015-01-04T12:04:42Z</time>
      </trkpt>
      <trkpt lat="45.68956" lon="4.71432">
        <ele>289.65393</ele>
        <time>2015-01-04T12:04:47Z</time>
      </trkpt>
      <trkpt lat="45.68956" lon="4.71431">
        <ele>289.65393</ele>
        <time>2015-01-04T12:04:52Z</time>
      </trkpt>
      <trkpt lat="45.68956" lon="4.71433">
        <ele>289.65393</ele>
        <time>2015-01-04T12:04:57Z</time>
      </trkpt>
      <trkpt lat="45.68955" lon="4.71434">
        <ele>289.65393</ele>
        <time>2015-01-04T12:05:02Z</time>
      </trkpt>
      <trkpt lat="45.68955" lon="4.71434">
        <ele>289.65393</ele>
        <time>2015-01-04T12:05:07Z</time>
      </trkpt>
      <trkpt lat="45.68956" lon="4.71433">
        <ele>291.9948</ele>
        <time>2015-01-04T12:05:12Z</time>
      </trkpt>
      <trkpt lat="45.68956" lon="4.71434">
        <ele>291.9948</ele>
        <time>2015-01-04T12:05:17Z</time>
      </trkpt>
      <trkpt lat="45.68955" lon="4.71433">
        <ele>291.9948</ele>
        <time>2015-01-04T12:05:22Z</time>
      </trkpt>
      <trkpt lat="45.68955" lon="4.71433">
        <ele>291.9948</ele>
        <time>2015-01-04T12:05:27Z</time>
      </trkpt>
      <trkpt lat="45.68955" lon="4.71433">
        <ele>291.9948</ele>
        <time>2015-01-04T12:05:32Z</time>
      </trkpt>
      <trkpt lat="45.68955" lon="4.71432">
        <ele>291.9948</ele>
        <time>2015-01-04T12:05:37Z</time>
      </trkpt>
      <trkpt lat="45.68955" lon="4.71432">
        <ele>291.9948</ele>
        <time>2015-01-04T12:05:42Z</time>
      </trkpt>
      <trkpt lat="45.68955" lon="4.71434">
        <ele>291.9948</ele>
        <time>2015-01-04T12:05:47Z</time>
      </trkpt>
      <trkpt lat="45.68956" lon="4.71434">
        <ele>291.9948</ele>
        <time>2015-01-04T12:05:52Z</time>
      </trkpt>
      <trkpt lat="45.68955" lon="4.71434">
        <ele>291.9948</ele>
        <time>2015-01-04T12:05:57Z</time>
      </trkpt>
      <trkpt lat="45.68955" lon="4.71433">
        <ele>291.9948</ele>
        <time>2015-01-04T12:06:02Z</time>
      </trkpt>
      <trkpt lat="45.68955" lon="4.71433">
        <ele>291.9948</ele>
        <time>2015-01-04T12:06:07Z</time>
      </trkpt>
      <trkpt lat="45.68955" lon="4.71433">
        <ele>291.9948</ele>
        <time>2015-01-04T12:06:12Z</time>
      </trkpt>
      <trkpt lat="45.68956" lon="4.71433">
        <ele>291.9948</ele>
        <time>2015-01-04T12:06:17Z</time>
      </trkpt>
      <trkpt lat="45.68956" lon="4.71433">
        <ele>291.9948</ele>
        <time>2015-01-04T12:06:22Z</time>
      </trkpt>
      <trkpt lat="45.68957" lon="4.71434">
        <ele>291.9948</ele>
        <time>2015-01-04T12:06:27Z</time>
      </trkpt>
      <trkpt lat="45.68957" lon="4.71435">
        <ele>291.9948</ele>
        <time>2015-01-04T12:06:32Z</time>
      </trkpt>
      <trkpt lat="45.68956" lon="4.71434">
        <ele>294.2642</ele>
        <time>2015-01-04T12:06:37Z</time>
      </trkpt>
      <trkpt lat="45.68955" lon="4.71432">
        <ele>294.2642</ele>
        <time>2015-01-04T12:06:42Z</time>
      </trkpt>
      <trkpt lat="45.68955" lon="4.71432">
        <ele>294.2642</ele>
        <time>2015-01-04T12:06:47Z</time>
      </trkpt>
      <trkpt lat="45.68955" lon="4.71432">
        <ele>294.2642</ele>
        <time>2015-01-04T12:06:52Z</time>
      </trkpt>
      <trkpt lat="45.68955" lon="4.71434">
        <ele>294.2642</ele>
        <time>2015-01-04T12:06:57Z</time>
      </trkpt>
      <trkpt lat="45.68955" lon="4.71434">
        <ele>294.2642</ele>
        <time>2015-01-04T12:07:02Z</time>
      </trkpt>
      <trkpt lat="45.68954" lon="4.71434">
        <ele>294.2642</ele>
        <time>2015-01-04T12:07:07Z</time>
      </trkpt>
      <trkpt lat="45.68954" lon="4.71434">
        <ele>294.2642</ele>
        <time>2015-01-04T12:07:12Z</time>
      </trkpt>
      <trkpt lat="45.68954" lon="4.71433">
        <ele>294.2642</ele>
        <time>2015-01-04T12:07:17Z</time>
      </trkpt>
      <trkpt lat="45.68954" lon="4.71433">
        <ele>294.2642</ele>
        <time>2015-01-04T12:07:22Z</time>
      </trkpt>
      <trkpt lat="45.68954" lon="4.71433">
        <ele>294.2642</ele>
        <time>2015-01-04T12:07:27Z</time>
      </trkpt>
      <trkpt lat="45.68955" lon="4.71433">
        <ele>294.2642</ele>
        <time>2015-01-04T12:07:32Z</time>
      </trkpt>
      <trkpt lat="45.68956" lon="4.71433">
        <ele>294.2642</ele>
        <time>2015-01-04T12:07:37Z</time>
      </trkpt>
      <trkpt lat="45.68957" lon="4.71433">
        <ele>294.2642</ele>
        <time>2015-01-04T12:07:42Z</time>
      </trkpt>
      <trkpt lat="45.68957" lon="4.71432">
        <ele>294.2642</ele>
        <time>2015-01-04T12:07:47Z</time>
      </trkpt>
      <trkpt lat="45.68957" lon="4.71432">
        <ele>294.2642</ele>
        <time>2015-01-04T12:07:52Z</time>
      </trkpt>
      <trkpt lat="45.68956" lon="4.71433">
        <ele>296.4607</ele>
        <time>2015-01-04T12:07:57Z</time>
      </trkpt>
      <trkpt lat="45.68956" lon="4.71433">
        <ele>296.4607</ele>
        <time>2015-01-04T12:08:02Z</time>
      </trkpt>
      <trkpt lat="45.68956" lon="4.71432">
        <ele>296.4607</ele>
        <time>2015-01-04T12:08:07Z</time>
      </trkpt>
      <trkpt lat="45.68956" lon="4.71432">
        <ele>296.4607</ele>
        <time>2015-01-04T12:08:12Z</time>
      </trkpt>
      <trkpt lat="45.68955" lon="4.71431">
        <ele>296.4607</ele>
        <time>2015-01-04T12:08:17Z</time>
      </trkpt>
      <trkpt lat="45.68954" lon="4.7143">
        <ele>296.4607</ele>
        <time>2015-01-04T12:08:22Z</time>
      </trkpt>
      <trkpt lat="45.6896" lon="4.71433">
        <ele>296.4607</ele>
        <time>2015-01-04T12:08:27Z</time>
      </trkpt>
      <trkpt lat="45.68963" lon="4.71439">
        <ele>298.425</ele>
        <time>2015-01-04T12:08:32Z</time>
      </trkpt>
      <trkpt lat="45.68968" lon="4.71443">
        <ele>298.425</ele>
        <time>2015-01-04T12:08:37Z</time>
      </trkpt>
      <trkpt lat="45.68973" lon="4.71448">
        <ele>299.96707</ele>
        <time>2015-01-04T12:08:42Z</time>
      </trkpt>
      <trkpt lat="45.68978" lon="4.71452">
        <ele>299.96707</ele>
        <time>2015-01-04T12:08:47Z</time>
      </trkpt>
      <trkpt lat="45.68985" lon="4.71457">
        <ele>301.12854</ele>
        <time>2015-01-04T12:08:52Z</time>
      </trkpt>
      <trkpt lat="45.68991" lon="4.71463">
        <ele>301.12854</ele>
        <time>2015-01-04T12:08:57Z</time>
      </trkpt>
      <trkpt lat="45.68997" lon="4.71467">
        <ele>302.10782</ele>
        <time>2015-01-04T12:09:02Z</time>
      </trkpt>
      <trkpt lat="45.69003" lon="4.71472">
        <ele>302.10782</ele>
        <time>2015-01-04T12:09:07Z</time>
      </trkpt>
      <trkpt lat="45.69007" lon="4.71477">
        <ele>302.91647</ele>
        <time>2015-01-04T12:09:12Z</time>
      </trkpt>
      <trkpt lat="45.69012" lon="4.7148">
        <ele>302.91647</ele>
        <time>2015-01-04T12:09:17Z</time>
      </trkpt>
      <trkpt lat="45.69018" lon="4.71485">
        <ele>303.58038</ele>
        <time>2015-01-04T12:09:22Z</time>
      </trkpt>
      <trkpt lat="45.69024" lon="4.71487">
        <ele>303.58038</ele>
        <time>2015-01-04T12:09:27Z</time>
      </trkpt>
      <trkpt lat="45.69029" lon="4.7149">
        <ele>304.00888</ele>
        <time>2015-01-04T12:09:32Z</time>
      </trkpt>
      <trkpt lat="45.69036" lon="4.71493">
        <ele>304.00888</ele>
        <time>2015-01-04T12:09:37Z</time>
      </trkpt>
      <trkpt lat="45.69042" lon="4.71497">
        <ele>304.2052</ele>
        <time>2015-01-04T12:09:42Z</time>
      </trkpt>
      <trkpt lat="45.69047" lon="4.71502">
        <ele>304.2052</ele>
        <time>2015-01-04T12:09:47Z</time>
      </trkpt>
      <trkpt lat="45.69052" lon="4.71506">
        <ele>304.2309</ele>
        <time>2015-01-04T12:09:52Z</time>
      </trkpt>
      <trkpt lat="45.69059" lon="4.7151">
        <ele>304.2309</ele>
        <time>2015-01-04T12:09:57Z</time>
      </trkpt>
      <trkpt lat="45.69065" lon="4.71514">
        <ele>304.17242</ele>
        <time>2015-01-04T12:10:02Z</time>
      </trkpt>
      <trkpt lat="45.6907" lon="4.71517">
        <ele>304.17242</ele>
        <time>2015-01-04T12:10:07Z</time>
      </trkpt>
      <trkpt lat="45.69077" lon="4.7152">
        <ele>303.98056</ele>
        <time>2015-01-04T12:10:12Z</time>
      </trkpt>
      <trkpt lat="45.69083" lon="4.71522">
        <ele>303.98056</ele>
        <time>2015-01-04T12:10:17Z</time>
      </trkpt>
      <trkpt lat="45.6909" lon="4.71525">
        <ele>303.62463</ele>
        <time>2015-01-04T12:10:22Z</time>
      </trkpt>
      <trkpt lat="45.69095" lon="4.71528">
        <ele>303.62463</ele>
        <time>2015-01-04T12:10:27Z</time>
      </trkpt>
      <trkpt lat="45.691" lon="4.71531">
        <ele>303.09116</ele>
        <time>2015-01-04T12:10:32Z</time>
      </trkpt>
      <trkpt lat="45.69106" lon="4.71534">
        <ele>303.09116</ele>
        <time>2015-01-04T12:10:37Z</time>
      </trkpt>
      <trkpt lat="45.69112" lon="4.71537">
        <ele>302.45477</ele>
        <time>2015-01-04T12:10:42Z</time>
      </trkpt>
      <trkpt lat="45.69119" lon="4.71541">
        <ele>302.45477</ele>
        <time>2015-01-04T12:10:47Z</time>
      </trkpt>
      <trkpt lat="45.69124" lon="4.71544">
        <ele>301.75607</ele>
        <time>2015-01-04T12:10:52Z</time>
      </trkpt>
      <trkpt lat="45.6913" lon="4.71546">
        <ele>301.75607</ele>
        <time>2015-01-04T12:10:57Z</time>
      </trkpt>
      <trkpt lat="45.69134" lon="4.71547">
        <ele>301.00418</ele>
        <time>2015-01-04T12:11:02Z</time>
      </trkpt>
      <trkpt lat="45.6914" lon="4.71547">
        <ele>301.00418</ele>
        <time>2015-01-04T12:11:07Z</time>
      </trkpt>
      <trkpt lat="45.69146" lon="4.71549">
        <ele>300.19324</ele>
        <time>2015-01-04T12:11:12Z</time>
      </trkpt>
      <trkpt lat="45.69154" lon="4.71551">
        <ele>300.19324</ele>
        <time>2015-01-04T12:11:17Z</time>
      </trkpt>
      <trkpt lat="45.69158" lon="4.71552">
        <ele>299.2892</ele>
        <time>2015-01-04T12:11:22Z</time>
      </trkpt>
      <trkpt lat="45.69165" lon="4.71556">
        <ele>299.2892</ele>
        <time>2015-01-04T12:11:27Z</time>
      </trkpt>
      <trkpt lat="45.69173" lon="4.71559">
        <ele>298.31848</ele>
        <time>2015-01-04T12:11:32Z</time>
      </trkpt>
      <trkpt lat="45.69178" lon="4.71561">
        <ele>298.31848</ele>
        <time>2015-01-04T12:11:37Z</time>
      </trkpt>
      <trkpt lat="45.69185" lon="4.71564">
        <ele>297.30566</ele>
        <time>2015-01-04T12:11:42Z</time>
      </trkpt>
      <trkpt lat="45.69192" lon="4.71568">
        <ele>297.30566</ele>
        <time>2015-01-04T12:11:47Z</time>
      </trkpt>
      <trkpt lat="45.69198" lon="4.71573">
        <ele>296.34567</ele>
        <time>2015-01-04T12:11:52Z</time>
      </trkpt>
      <trkpt lat="45.69204" lon="4.71579">
        <ele>296.34567</ele>
        <time>2015-01-04T12:11:57Z</time>
      </trkpt>
      <trkpt lat="45.69211" lon="4.71584">
        <ele>295.55515</ele>
        <time>2015-01-04T12:12:02Z</time>
      </trkpt>
      <trkpt lat="45.69216" lon="4.71588">
        <ele>295.55515</ele>
        <time>2015-01-04T12:12:07Z</time>
      </trkpt>
      <trkpt lat="45.6922" lon="4.71592">
        <ele>295.12808</ele>
        <time>2015-01-04T12:12:12Z</time>
      </trkpt>
      <trkpt lat="45.69224" lon="4.71599">
        <ele>295.12808</ele>
        <time>2015-01-04T12:12:17Z</time>
      </trkpt>
      <trkpt lat="45.69228" lon="4.71606">
        <ele>294.68106</ele>
        <time>2015-01-04T12:12:22Z</time>
      </trkpt>
      <trkpt lat="45.69231" lon="4.71613">
        <ele>294.68106</ele>
        <time>2015-01-04T12:12:27Z</time>
      </trkpt>
      <trkpt lat="45.69234" lon="4.71621">
        <ele>294.27673</ele>
        <time>2015-01-04T12:12:32Z</time>
      </trkpt>
      <trkpt lat="45.69237" lon="4.7163">
        <ele>294.27673</ele>
        <time>2015-01-04T12:12:37Z</time>
      </trkpt>
      <trkpt lat="45.69237" lon="4.71639">
        <ele>293.84335</ele>
        <time>2015-01-04T12:12:42Z</time>
      </trkpt>
      <trkpt lat="45.69235" lon="4.71644">
        <ele>293.84335</ele>
        <time>2015-01-04T12:12:47Z</time>
      </trkpt>
      <trkpt lat="45.69233" lon="4.7165">
        <ele>293.84335</ele>
        <time>2015-01-04T12:12:52Z</time>
      </trkpt>
      <trkpt lat="45.6923" lon="4.71656">
        <ele>293.55936</ele>
        <time>2015-01-04T12:12:57Z</time>
      </trkpt>
      <trkpt lat="45.69226" lon="4.71663">
        <ele>293.55936</ele>
        <time>2015-01-04T12:13:02Z</time>
      </trkpt>
      <trkpt lat="45.69221" lon="4.71671">
        <ele>293.31573</ele>
        <time>2015-01-04T12:13:07Z</time>
      </trkpt>
      <trkpt lat="45.69218" lon="4.71677">
        <ele>293.31573</ele>
        <time>2015-01-04T12:13:12Z</time>
      </trkpt>
      <trkpt lat="45.69216" lon="4.71682">
        <ele>292.99692</ele>
        <time>2015-01-04T12:13:17Z</time>
      </trkpt>
      <trkpt lat="45.69213" lon="4.71688">
        <ele>292.99692</ele>
        <time>2015-01-04T12:13:22Z</time>
      </trkpt>
      <trkpt lat="45.69209" lon="4.71697">
        <ele>292.62564</ele>
        <time>2015-01-04T12:13:27Z</time>
      </trkpt>
      <trkpt lat="45.69206" lon="4.71704">
        <ele>292.62564</ele>
        <time>2015-01-04T12:13:32Z</time>
      </trkpt>
      <trkpt lat="45.69202" lon="4.71711">
        <ele>292.2663</ele>
        <time>2015-01-04T12:13:37Z</time>
      </trkpt>
      <trkpt lat="45.69198" lon="4.71718">
        <ele>292.2663</ele>
        <time>2015-01-04T12:13:42Z</time>
      </trkpt>
      <trkpt lat="45.69195" lon="4.71726">
        <ele>291.86304</ele>
        <time>2015-01-04T12:13:47Z</time>
      </trkpt>
      <trkpt lat="45.69193" lon="4.71733">
        <ele>291.86304</ele>
        <time>2015-01-04T12:13:52Z</time>
      </trkpt>
      <trkpt lat="45.69189" lon="4.71738">
        <ele>291.46512</ele>
        <time>2015-01-04T12:13:57Z</time>
      </trkpt>
      <trkpt lat="45.69184" lon="4.71746">
        <ele>291.46512</ele>
        <time>2015-01-04T12:14:02Z</time>
      </trkpt>
      <trkpt lat="45.6918" lon="4.71755">
        <ele>291.01712</ele>
        <time>2015-01-04T12:14:07Z</time>
      </trkpt>
      <trkpt lat="45.69177" lon="4.71763">
        <ele>291.01712</ele>
        <time>2015-01-04T12:14:12Z</time>
      </trkpt>
      <trkpt lat="45.69174" lon="4.71768">
        <ele>290.45343</ele>
        <time>2015-01-04T12:14:17Z</time>
      </trkpt>
      <trkpt lat="45.69171" lon="4.71776">
        <ele>290.45343</ele>
        <time>2015-01-04T12:14:22Z</time>
      </trkpt>
      <trkpt lat="45.69169" lon="4.71786">
        <ele>289.75656</ele>
        <time>2015-01-04T12:14:27Z</time>
      </trkpt>
      <trkpt lat="45.69171" lon="4.71796">
        <ele>289.75656</ele>
        <time>2015-01-04T12:14:32Z</time>
      </trkpt>
      <trkpt lat="45.69173" lon="4.71802">
        <ele>288.9972</ele>
        <time>2015-01-04T12:14:37Z</time>
      </trkpt>
      <trkpt lat="45.69176" lon="4.71807">
        <ele>288.9972</ele>
        <time>2015-01-04T12:14:42Z</time>
      </trkpt>
      <trkpt lat="45.69179" lon="4.71814">
        <ele>288.1976</ele>
        <time>2015-01-04T12:14:47Z</time>
      </trkpt>
      <trkpt lat="45.69182" lon="4.71817">
        <ele>288.1976</ele>
        <time>2015-01-04T12:14:52Z</time>
      </trkpt>
      <trkpt lat="45.69186" lon="4.71824">
        <ele>287.19107</ele>
        <time>2015-01-04T12:14:57Z</time>
      </trkpt>
      <trkpt lat="45.69188" lon="4.71833">
        <ele>287.19107</ele>
        <time>2015-01-04T12:15:02Z</time>
      </trkpt>
      <trkpt lat="45.6919" lon="4.7184">
        <ele>285.98218</ele>
        <time>2015-01-04T12:15:07Z</time>
      </trkpt>
      <trkpt lat="45.69194" lon="4.71851">
        <ele>285.98218</ele>
        <time>2015-01-04T12:15:12Z</time>
      </trkpt>
      <trkpt lat="45.69199" lon="4.71856">
        <ele>284.53232</ele>
        <time>2015-01-04T12:15:17Z</time>
      </trkpt>
      <trkpt lat="45.69204" lon="4.71863">
        <ele>284.53232</ele>
        <time>2015-01-04T12:15:22Z</time>
      </trkpt>
      <trkpt lat="45.69209" lon="4.7187">
        <ele>282.90723</ele>
        <time>2015-01-04T12:15:27Z</time>
      </trkpt>
      <trkpt lat="45.69214" lon="4.71873">
        <ele>282.90723</ele>
        <time>2015-01-04T12:15:32Z</time>
      </trkpt>
      <trkpt lat="45.69218" lon="4.71876">
        <ele>281.12494</ele>
        <time>2015-01-04T12:15:37Z</time>
      </trkpt>
      <trkpt lat="45.69225" lon="4.71875">
        <ele>281.12494</ele>
        <time>2015-01-04T12:15:42Z</time>
      </trkpt>
      <trkpt lat="45.69233" lon="4.71876">
        <ele>279.18808</ele>
        <time>2015-01-04T12:15:47Z</time>
      </trkpt>
      <trkpt lat="45.69239" lon="4.71878">
        <ele>279.18808</ele>
        <time>2015-01-04T12:15:52Z</time>
      </trkpt>
      <trkpt lat="45.69247" lon="4.71882">
        <ele>277.2146</ele>
        <time>2015-01-04T12:15:57Z</time>
      </trkpt>
      <trkpt lat="45.69251" lon="4.71885">
        <ele>277.2146</ele>
        <time>2015-01-04T12:16:02Z</time>
      </trkpt>
      <trkpt lat="45.69255" lon="4.71892">
        <ele>275.19852</ele>
        <time>2015-01-04T12:16:07Z</time>
      </trkpt>
      <trkpt lat="45.6926" lon="4.71897">
        <ele>275.19852</ele>
        <time>2015-01-04T12:16:12Z</time>
      </trkpt>
      <trkpt lat="45.69266" lon="4.71901">
        <ele>273.20636</ele>
        <time>2015-01-04T12:16:17Z</time>
      </trkpt>
      <trkpt lat="45.6927" lon="4.71907">
        <ele>273.20636</ele>
        <time>2015-01-04T12:16:22Z</time>
      </trkpt>
      <trkpt lat="45.69272" lon="4.71914">
        <ele>271.2418</ele>
        <time>2015-01-04T12:16:27Z</time>
      </trkpt>
      <trkpt lat="45.69274" lon="4.71925">
        <ele>271.2418</ele>
        <time>2015-01-04T12:16:32Z</time>
      </trkpt>
      <trkpt lat="45.69273" lon="4.71932">
        <ele>269.48105</ele>
        <time>2015-01-04T12:16:37Z</time>
      </trkpt>
      <trkpt lat="45.69269" lon="4.71941">
        <ele>269.48105</ele>
        <time>2015-01-04T12:16:42Z</time>
      </trkpt>
      <trkpt lat="45.6927" lon="4.7195">
        <ele>267.6542</ele>
        <time>2015-01-04T12:16:47Z</time>
      </trkpt>
      <trkpt lat="45.69274" lon="4.71959">
        <ele>267.6542</ele>
        <time>2015-01-04T12:16:52Z</time>
      </trkpt>
      <trkpt lat="45.6928" lon="4.71962">
        <ele>265.69867</ele>
        <time>2015-01-04T12:16:57Z</time>
      </trkpt>
      <trkpt lat="45.69286" lon="4.71962">
        <ele>265.69867</ele>
        <time>2015-01-04T12:17:02Z</time>
      </trkpt>
      <trkpt lat="45.69292" lon="4.71961">
        <ele>263.5133</ele>
        <time>2015-01-04T12:17:07Z</time>
      </trkpt>
      <trkpt lat="45.69296" lon="4.71964">
        <ele>263.5133</ele>
        <time>2015-01-04T12:17:12Z</time>
      </trkpt>
      <trkpt lat="45.69298" lon="4.71975">
        <ele>261.16348</ele>
        <time>2015-01-04T12:17:17Z</time>
      </trkpt>
      <trkpt lat="45.69298" lon="4.71987">
        <ele>261.16348</ele>
        <time>2015-01-04T12:17:22Z</time>
      </trkpt>
      <trkpt lat="45.69299" lon="4.71995">
        <ele>258.8397</ele>
        <time>2015-01-04T12:17:27Z</time>
      </trkpt>
      <trkpt lat="45.69298" lon="4.72009">
        <ele>256.68945</ele>
        <time>2015-01-04T12:17:32Z</time>
      </trkpt>
      <trkpt lat="45.69296" lon="4.72023">
        <ele>254.73338</ele>
        <time>2015-01-04T12:17:37Z</time>
      </trkpt>
      <trkpt lat="45.69297" lon="4.72032">
        <ele>254.73338</ele>
        <time>2015-01-04T12:17:42Z</time>
      </trkpt>
      <trkpt lat="45.69299" lon="4.72039">
        <ele>252.9035</ele>
        <time>2015-01-04T12:17:47Z</time>
      </trkpt>
      <trkpt lat="45.693" lon="4.72049">
        <ele>252.9035</ele>
        <time>2015-01-04T12:17:52Z</time>
      </trkpt>
      <trkpt lat="45.69304" lon="4.72063">
        <ele>251.2227</ele>
        <time>2015-01-04T12:17:57Z</time>
      </trkpt>
      <trkpt lat="45.69305" lon="4.7207">
        <ele>251.2227</ele>
        <time>2015-01-04T12:18:02Z</time>
      </trkpt>
      <trkpt lat="45.69307" lon="4.72078">
        <ele>249.69724</ele>
        <time>2015-01-04T12:18:07Z</time>
      </trkpt>
      <trkpt lat="45.69307" lon="4.72089">
        <ele>249.69724</ele>
        <time>2015-01-04T12:18:12Z</time>
      </trkpt>
      <trkpt lat="45.69308" lon="4.72101">
        <ele>248.18816</ele>
        <time>2015-01-04T12:18:17Z</time>
      </trkpt>
      <trkpt lat="45.69311" lon="4.72109">
        <ele>248.18816</ele>
        <time>2015-01-04T12:18:22Z</time>
      </trkpt>
      <trkpt lat="45.69314" lon="4.72117">
        <ele>246.69621</ele>
        <time>2015-01-04T12:18:27Z</time>
      </trkpt>
      <trkpt lat="45.69317" lon="4.72124">
        <ele>246.69621</ele>
        <time>2015-01-04T12:18:32Z</time>
      </trkpt>
      <trkpt lat="45.6932" lon="4.72131">
        <ele>245.25075</ele>
        <time>2015-01-04T12:18:37Z</time>
      </trkpt>
      <trkpt lat="45.69324" lon="4.72142">
        <ele>245.25075</ele>
        <time>2015-01-04T12:18:42Z</time>
      </trkpt>
      <trkpt lat="45.69328" lon="4.72152">
        <ele>243.86424</ele>
        <time>2015-01-04T12:18:47Z</time>
      </trkpt>
      <trkpt lat="45.69332" lon="4.72159">
        <ele>243.86424</ele>
        <time>2015-01-04T12:18:52Z</time>
      </trkpt>
      <trkpt lat="45.69334" lon="4.72167">
        <ele>242.57677</ele>
        <time>2015-01-04T12:18:57Z</time>
      </trkpt>
      <trkpt lat="45.69334" lon="4.72176">
        <ele>242.57677</ele>
        <time>2015-01-04T12:19:02Z</time>
      </trkpt>
      <trkpt lat="45.69335" lon="4.72182">
        <ele>241.39622</ele>
        <time>2015-01-04T12:19:07Z</time>
      </trkpt>
      <trkpt lat="45.69334" lon="4.72189">
        <ele>241.39622</ele>
        <time>2015-01-04T12:19:12Z</time>
      </trkpt>
      <trkpt lat="45.69333" lon="4.72201">
        <ele>240.171</ele>
        <time>2015-01-04T12:19:17Z</time>
      </trkpt>
      <trkpt lat="45.69334" lon="4.72212">
        <ele>240.171</ele>
        <time>2015-01-04T12:19:22Z</time>
      </trkpt>
      <trkpt lat="45.69335" lon="4.72218">
        <ele>238.71739</ele>
        <time>2015-01-04T12:19:27Z</time>
      </trkpt>
      <trkpt lat="45.69336" lon="4.72225">
        <ele>238.71739</ele>
        <time>2015-01-04T12:19:32Z</time>
      </trkpt>
      <trkpt lat="45.69337" lon="4.72238">
        <ele>237.15393</ele>
        <time>2015-01-04T12:19:37Z</time>
      </trkpt>
      <trkpt lat="45.69338" lon="4.72247">
        <ele>237.15393</ele>
        <time>2015-01-04T12:19:42Z</time>
      </trkpt>
      <trkpt lat="45.69338" lon="4.72254">
        <ele>235.59062</ele>
        <time>2015-01-04T12:19:47Z</time>
      </trkpt>
      <trkpt lat="45.69342" lon="4.72261">
        <ele>235.59062</ele>
        <time>2015-01-04T12:19:52Z</time>
      </trkpt>
      <trkpt lat="45.69345" lon="4.72266">
        <ele>234.0717</ele>
        <time>2015-01-04T12:19:57Z</time>
      </trkpt>
      <trkpt lat="45.69349" lon="4.72275">
        <ele>234.0717</ele>
        <time>2015-01-04T12:20:02Z</time>
      </trkpt>
      <trkpt lat="45.69351" lon="4.72283">
        <ele>232.58026</ele>
        <time>2015-01-04T12:20:07Z</time>
      </trkpt>
      <trkpt lat="45.69354" lon="4.72293">
        <ele>232.58026</ele>
        <time>2015-01-04T12:20:12Z</time>
      </trkpt>
      <trkpt lat="45.69355" lon="4.72301">
        <ele>230.99957</ele>
        <time>2015-01-04T12:20:17Z</time>
      </trkpt>
      <trkpt lat="45.69359" lon="4.72305">
        <ele>230.99957</ele>
        <time>2015-01-04T12:20:22Z</time>
      </trkpt>
      <trkpt lat="45.69365" lon="4.72312">
        <ele>229.16403</ele>
        <time>2015-01-04T12:20:27Z</time>
      </trkpt>
      <trkpt lat="45.69369" lon="4.72317">
        <ele>229.16403</ele>
        <time>2015-01-04T12:20:32Z</time>
      </trkpt>
      <trkpt lat="45.69375" lon="4.72323">
        <ele>227.05054</ele>
        <time>2015-01-04T12:20:37Z</time>
      </trkpt>
      <trkpt lat="45.69381" lon="4.72331">
        <ele>227.05054</ele>
        <time>2015-01-04T12:20:42Z</time>
      </trkpt>
      <trkpt lat="45.69386" lon="4.7234">
        <ele>224.94098</ele>
        <time>2015-01-04T12:20:47Z</time>
      </trkpt>
      <trkpt lat="45.69391" lon="4.72347">
        <ele>224.94098</ele>
        <time>2015-01-04T12:20:52Z</time>
      </trkpt>
      <trkpt lat="45.69394" lon="4.72355">
        <ele>223.12532</ele>
        <time>2015-01-04T12:20:57Z</time>
      </trkpt>
      <trkpt lat="45.69398" lon="4.72361">
        <ele>223.12532</ele>
        <time>2015-01-04T12:21:02Z</time>
      </trkpt>
      <trkpt lat="45.69403" lon="4.72369">
        <ele>221.6407</ele>
        <time>2015-01-04T12:21:07Z</time>
      </trkpt>
      <trkpt lat="45.69406" lon="4.72377">
        <ele>221.6407</ele>
        <time>2015-01-04T12:21:12Z</time>
      </trkpt>
      <trkpt lat="45.69408" lon="4.72381">
        <ele>220.52055</ele>
        <time>2015-01-04T12:21:17Z</time>
      </trkpt>
      <trkpt lat="45.69409" lon="4.72382">
        <ele>220.52055</ele>
        <time>2015-01-04T12:21:22Z</time>
      </trkpt>
      <trkpt lat="45.69409" lon="4.72382">
        <ele>220.52055</ele>
        <time>2015-01-04T12:21:27Z</time>
      </trkpt>
      <trkpt lat="45.69409" lon="4.72382">
        <ele>220.52055</ele>
        <time>2015-01-04T12:21:32Z</time>
      </trkpt>
      <trkpt lat="45.69409" lon="4.72382">
        <ele>220.52055</ele>
        <time>2015-01-04T12:21:37Z</time>
      </trkpt>
      <trkpt lat="45.69408" lon="4.72385">
        <ele>220.52055</ele>
        <time>2015-01-04T12:21:47Z</time>
      </trkpt>
      <trkpt lat="45.69407" lon="4.72386">
        <ele>220.52055</ele>
        <time>2015-01-04T12:21:52Z</time>
      </trkpt>
      <trkpt lat="45.69407" lon="4.72386">
        <ele>220.52055</ele>
        <time>2015-01-04T12:21:57Z</time>
      </trkpt>
      <trkpt lat="45.69407" lon="4.72387">
        <ele>220.52055</ele>
        <time>2015-01-04T12:22:02Z</time>
      </trkpt>
      <trkpt lat="45.69407" lon="4.72387">
        <ele>220.52055</ele>
        <time>2015-01-04T12:22:07Z</time>
      </trkpt>
      <trkpt lat="45.69409" lon="4.72391">
        <ele>220.19829</ele>
        <time>2015-01-04T12:22:27Z</time>
      </trkpt>
      <trkpt lat="45.69409" lon="4.72391">
        <ele>220.19829</ele>
        <time>2015-01-04T12:22:32Z</time>
      </trkpt>
      <trkpt lat="45.6941" lon="4.72391">
        <ele>220.19829</ele>
        <time>2015-01-04T12:22:47Z</time>
      </trkpt>
      <trkpt lat="45.6941" lon="4.72391">
        <ele>220.19829</ele>
        <time>2015-01-04T12:22:52Z</time>
      </trkpt>
      <trkpt lat="45.6941" lon="4.72391">
        <ele>220.19829</ele>
        <time>2015-01-04T12:22:57Z</time>
      </trkpt>
      <trkpt lat="45.6941" lon="4.72392">
        <ele>220.19829</ele>
        <time>2015-01-04T12:23:02Z</time>
      </trkpt>
      <trkpt lat="45.6941" lon="4.72392">
        <ele>220.19829</ele>
        <time>2015-01-04T12:23:07Z</time>
      </trkpt>
      <trkpt lat="45.69411" lon="4.72397">
        <ele>220.19829</ele>
        <time>2015-01-04T12:23:32Z</time>
      </trkpt>
      <trkpt lat="45.69412" lon="4.72404">
        <ele>219.89145</ele>
        <time>2015-01-04T12:23:37Z</time>
      </trkpt>
      <trkpt lat="45.69415" lon="4.72416">
        <ele>219.81168</ele>
        <time>2015-01-04T12:23:42Z</time>
      </trkpt>
      <trkpt lat="45.69417" lon="4.72423">
        <ele>219.81168</ele>
        <time>2015-01-04T12:23:47Z</time>
      </trkpt>
      <trkpt lat="45.69416" lon="4.72426">
        <ele>219.81168</ele>
        <time>2015-01-04T12:23:52Z</time>
      </trkpt>
      <trkpt lat="45.69415" lon="4.72426">
        <ele>219.81168</ele>
        <time>2015-01-04T12:23:57Z</time>
      </trkpt>
      <trkpt lat="45.69414" lon="4.72426">
        <ele>219.81168</ele>
        <time>2015-01-04T12:24:02Z</time>
      </trkpt>
      <trkpt lat="45.69414" lon="4.72428">
        <ele>219.90945</ele>
        <time>2015-01-04T12:24:07Z</time>
      </trkpt>
      <trkpt lat="45.69412" lon="4.72431">
        <ele>219.90945</ele>
        <time>2015-01-04T12:24:12Z</time>
      </trkpt>
      <trkpt lat="45.69412" lon="4.72431">
        <ele>219.90945</ele>
        <time>2015-01-04T12:24:17Z</time>
      </trkpt>
      <trkpt lat="45.69412" lon="4.7243">
        <ele>219.90945</ele>
        <time>2015-01-04T12:24:22Z</time>
      </trkpt>
      <trkpt lat="45.69411" lon="4.72431">
        <ele>219.90945</ele>
        <time>2015-01-04T12:24:27Z</time>
      </trkpt>
      <trkpt lat="45.69413" lon="4.72433">
        <ele>219.90945</ele>
        <time>2015-01-04T12:24:32Z</time>
      </trkpt>
      <trkpt lat="45.69413" lon="4.72442">
        <ele>219.7204</ele>
        <time>2015-01-04T12:24:37Z</time>
      </trkpt>
      <trkpt lat="45.69416" lon="4.72451">
        <ele>219.7204</ele>
        <time>2015-01-04T12:24:42Z</time>
      </trkpt>
      <trkpt lat="45.69418" lon="4.72456">
        <ele>219.47803</ele>
        <time>2015-01-04T12:24:47Z</time>
      </trkpt>
      <trkpt lat="45.69419" lon="4.7246">
        <ele>219.47803</ele>
        <time>2015-01-04T12:24:52Z</time>
      </trkpt>
      <trkpt lat="45.69421" lon="4.72471">
        <ele>219.1538</ele>
        <time>2015-01-04T12:24:57Z</time>
      </trkpt>
      <trkpt lat="45.6942" lon="4.72484">
        <ele>218.95213</ele>
        <time>2015-01-04T12:25:02Z</time>
      </trkpt>
      <trkpt lat="45.69419" lon="4.72497">
        <ele>218.84595</ele>
        <time>2015-01-04T12:25:07Z</time>
      </trkpt>
      <trkpt lat="45.69419" lon="4.72507">
        <ele>218.84595</ele>
        <time>2015-01-04T12:25:12Z</time>
      </trkpt>
      <trkpt lat="45.6942" lon="4.72513">
        <ele>218.62256</ele>
        <time>2015-01-04T12:25:17Z</time>
      </trkpt>
      <trkpt lat="45.69421" lon="4.72521">
        <ele>218.62256</ele>
        <time>2015-01-04T12:25:22Z</time>
      </trkpt>
      <trkpt lat="45.69422" lon="4.72528">
        <ele>218.25821</ele>
        <time>2015-01-04T12:25:27Z</time>
      </trkpt>
      <trkpt lat="45.69421" lon="4.72536">
        <ele>218.25821</ele>
        <time>2015-01-04T12:25:32Z</time>
      </trkpt>
      <trkpt lat="45.6942" lon="4.72542">
        <ele>217.87547</ele>
        <time>2015-01-04T12:25:37Z</time>
      </trkpt>
      <trkpt lat="45.69418" lon="4.72545">
        <ele>217.87547</ele>
        <time>2015-01-04T12:25:42Z</time>
      </trkpt>
      <trkpt lat="45.69418" lon="4.72551">
        <ele>217.87547</ele>
        <time>2015-01-04T12:25:47Z</time>
      </trkpt>
      <trkpt lat="45.69416" lon="4.72562">
        <ele>217.47272</ele>
        <time>2015-01-04T12:25:52Z</time>
      </trkpt>
      <trkpt lat="45.69415" lon="4.72571">
        <ele>217.47272</ele>
        <time>2015-01-04T12:25:57Z</time>
      </trkpt>
      <trkpt lat="45.69413" lon="4.72577">
        <ele>216.90445</ele>
        <time>2015-01-04T12:26:02Z</time>
      </trkpt>
      <trkpt lat="45.69412" lon="4.72579">
        <ele>216.90445</ele>
        <time>2015-01-04T12:26:07Z</time>
      </trkpt>
      <trkpt lat="45.69412" lon="4.72579">
        <ele>216.90445</ele>
        <time>2015-01-04T12:26:12Z</time>
      </trkpt>
      <trkpt lat="45.69412" lon="4.7258">
        <ele>216.90445</ele>
        <time>2015-01-04T12:27:02Z</time>
      </trkpt>
      <trkpt lat="45.69412" lon="4.7258">
        <ele>216.90445</ele>
        <time>2015-01-04T12:27:07Z</time>
      </trkpt>
      <trkpt lat="45.69412" lon="4.72581">
        <ele>216.90445</ele>
        <time>2015-01-04T12:27:17Z</time>
      </trkpt>
      <trkpt lat="45.69413" lon="4.72587">
        <ele>216.90445</ele>
        <time>2015-01-04T12:27:22Z</time>
      </trkpt>
      <trkpt lat="45.69415" lon="4.72591">
        <ele>216.67046</ele>
        <time>2015-01-04T12:27:27Z</time>
      </trkpt>
      <trkpt lat="45.69414" lon="4.72593">
        <ele>216.67046</ele>
        <time>2015-01-04T12:27:32Z</time>
      </trkpt>
      <trkpt lat="45.69411" lon="4.72594">
        <ele>216.67046</ele>
        <time>2015-01-04T12:27:37Z</time>
      </trkpt>
      <trkpt lat="45.6941" lon="4.72596">
        <ele>216.67046</ele>
        <time>2015-01-04T12:27:42Z</time>
      </trkpt>
      <trkpt lat="45.69408" lon="4.72598">
        <ele>216.67046</ele>
        <time>2015-01-04T12:27:47Z</time>
      </trkpt>
      <trkpt lat="45.69407" lon="4.726">
        <ele>216.57005</ele>
        <time>2015-01-04T12:27:52Z</time>
      </trkpt>
      <trkpt lat="45.69409" lon="4.72603">
        <ele>216.57005</ele>
        <time>2015-01-04T12:27:57Z</time>
      </trkpt>
      <trkpt lat="45.69409" lon="4.72607">
        <ele>216.57005</ele>
        <time>2015-01-04T12:28:02Z</time>
      </trkpt>
      <trkpt lat="45.69409" lon="4.7261">
        <ele>216.57005</ele>
        <time>2015-01-04T12:28:07Z</time>
      </trkpt>
      <trkpt lat="45.69409" lon="4.7261">
        <ele>216.57005</ele>
        <time>2015-01-04T12:28:12Z</time>
      </trkpt>
      <trkpt lat="45.69406" lon="4.72605">
        <ele>216.8061</ele>
        <time>2015-01-04T12:29:02Z</time>
      </trkpt>
      <trkpt lat="45.69405" lon="4.72596">
        <ele>216.8061</ele>
        <time>2015-01-04T12:29:07Z</time>
      </trkpt>
      <trkpt lat="45.69403" lon="4.72593">
        <ele>217.01808</ele>
        <time>2015-01-04T12:29:12Z</time>
      </trkpt>
      <trkpt lat="45.69404" lon="4.72593">
        <ele>217.01808</ele>
        <time>2015-01-04T12:29:17Z</time>
      </trkpt>
      <trkpt lat="45.69403" lon="4.72595">
        <ele>217.01808</ele>
        <time>2015-01-04T12:29:22Z</time>
      </trkpt>
      <trkpt lat="45.69403" lon="4.72595">
        <ele>217.01808</ele>
        <time>2015-01-04T12:29:27Z</time>
      </trkpt>
      <trkpt lat="45.69404" lon="4.72593">
        <ele>217.01808</ele>
        <time>2015-01-04T12:29:52Z</time>
      </trkpt>
      <trkpt lat="45.69405" lon="4.72592">
        <ele>217.01808</ele>
        <time>2015-01-04T12:29:57Z</time>
      </trkpt>
      <trkpt lat="45.69408" lon="4.7259">
        <ele>217.01808</ele>
        <time>2015-01-04T12:30:02Z</time>
      </trkpt>
      <trkpt lat="45.6941" lon="4.72591">
        <ele>217.59262</ele>
        <time>2015-01-04T12:30:07Z</time>
      </trkpt>
      <trkpt lat="45.6941" lon="4.72589">
        <ele>217.59262</ele>
        <time>2015-01-04T12:30:12Z</time>
      </trkpt>
      <trkpt lat="45.6941" lon="4.72586">
        <ele>217.59262</ele>
        <time>2015-01-04T12:30:17Z</time>
      </trkpt>
      <trkpt lat="45.69413" lon="4.72582">
        <ele>217.59262</ele>
        <time>2015-01-04T12:30:22Z</time>
      </trkpt>
      <trkpt lat="45.69414" lon="4.72583">
        <ele>217.97917</ele>
        <time>2015-01-04T12:30:27Z</time>
      </trkpt>
      <trkpt lat="45.69416" lon="4.7258">
        <ele>217.97917</ele>
        <time>2015-01-04T12:30:32Z</time>
      </trkpt>
      <trkpt lat="45.69416" lon="4.7258">
        <ele>217.97917</ele>
        <time>2015-01-04T12:30:37Z</time>
      </trkpt>
      <trkpt lat="45.69416" lon="4.72581">
        <ele>217.97917</ele>
        <time>2015-01-04T12:30:47Z</time>
      </trkpt>
      <trkpt lat="45.69416" lon="4.72581">
        <ele>217.97917</ele>
        <time>2015-01-04T12:30:52Z</time>
      </trkpt>
      <trkpt lat="45.69415" lon="4.72577">
        <ele>217.97917</ele>
        <time>2015-01-04T12:31:07Z</time>
      </trkpt>
      <trkpt lat="45.69415" lon="4.72577">
        <ele>217.97917</ele>
        <time>2015-01-04T12:31:12Z</time>
      </trkpt>
      <trkpt lat="45.69415" lon="4.72575">
        <ele>217.97917</ele>
        <time>2015-01-04T12:31:27Z</time>
      </trkpt>
      <trkpt lat="45.69417" lon="4.72567">
        <ele>218.37437</ele>
        <time>2015-01-04T12:31:32Z</time>
      </trkpt>
      <trkpt lat="45.69419" lon="4.72556">
        <ele>218.37437</ele>
        <time>2015-01-04T12:31:37Z</time>
      </trkpt>
      <trkpt lat="45.6942" lon="4.72555">
        <ele>218.37437</ele>
        <time>2015-01-04T12:31:42Z</time>
      </trkpt>
      <trkpt lat="45.6942" lon="4.72556">
        <ele>218.74434</ele>
        <time>2015-01-04T12:31:47Z</time>
      </trkpt>
      <trkpt lat="45.69418" lon="4.72555">
        <ele>218.74434</ele>
        <time>2015-01-04T12:31:52Z</time>
      </trkpt>
      <trkpt lat="45.69416" lon="4.72556">
        <ele>218.74434</ele>
        <time>2015-01-04T12:31:57Z</time>
      </trkpt>
      <trkpt lat="45.69415" lon="4.72555">
        <ele>218.74434</ele>
        <time>2015-01-04T12:32:02Z</time>
      </trkpt>
      <trkpt lat="45.69415" lon="4.72555">
        <ele>218.74434</ele>
        <time>2015-01-04T12:32:07Z</time>
      </trkpt>
      <trkpt lat="45.69414" lon="4.72556">
        <ele>218.74434</ele>
        <time>2015-01-04T12:32:12Z</time>
      </trkpt>
      <trkpt lat="45.69415" lon="4.72556">
        <ele>218.74434</ele>
        <time>2015-01-04T12:32:17Z</time>
      </trkpt>
      <trkpt lat="45.69415" lon="4.72556">
        <ele>218.74434</ele>
        <time>2015-01-04T12:32:22Z</time>
      </trkpt>
      <trkpt lat="45.69415" lon="4.72557">
        <ele>218.74434</ele>
        <time>2015-01-04T12:32:27Z</time>
      </trkpt>
      <trkpt lat="45.69418" lon="4.72554">
        <ele>219.14432</ele>
        <time>2015-01-04T12:32:32Z</time>
      </trkpt>
      <trkpt lat="45.6942" lon="4.72548">
        <ele>219.14432</ele>
        <time>2015-01-04T12:32:37Z</time>
      </trkpt>
      <trkpt lat="45.69422" lon="4.72541">
        <ele>219.38054</ele>
        <time>2015-01-04T12:32:42Z</time>
      </trkpt>
      <trkpt lat="45.69422" lon="4.72541">
        <ele>219.38054</ele>
        <time>2015-01-04T12:32:47Z</time>
      </trkpt>
      <trkpt lat="45.69421" lon="4.72534">
        <ele>219.38054</ele>
        <time>2015-01-04T12:32:52Z</time>
      </trkpt>
      <trkpt lat="45.69421" lon="4.72519">
        <ele>219.63435</ele>
        <time>2015-01-04T12:32:57Z</time>
      </trkpt>
      <trkpt lat="45.69419" lon="4.72508">
        <ele>219.63435</ele>
        <time>2015-01-04T12:33:02Z</time>
      </trkpt>
      <trkpt lat="45.6942" lon="4.72495">
        <ele>220.00175</ele>
        <time>2015-01-04T12:33:07Z</time>
      </trkpt>
      <trkpt lat="45.69419" lon="4.72491">
        <ele>220.00175</ele>
        <time>2015-01-04T12:33:12Z</time>
      </trkpt>
      <trkpt lat="45.69419" lon="4.72489">
        <ele>220.00175</ele>
        <time>2015-01-04T12:33:17Z</time>
      </trkpt>
      <trkpt lat="45.69419" lon="4.7248">
        <ele>220.48505</ele>
        <time>2015-01-04T12:33:22Z</time>
      </trkpt>
      <trkpt lat="45.69418" lon="4.72467">
        <ele>220.98532</ele>
        <time>2015-01-04T12:33:27Z</time>
      </trkpt>
      <trkpt lat="45.69416" lon="4.72459">
        <ele>220.98532</ele>
        <time>2015-01-04T12:33:32Z</time>
      </trkpt>
      <trkpt lat="45.69416" lon="4.72455">
        <ele>220.98532</ele>
        <time>2015-01-04T12:33:37Z</time>
      </trkpt>
      <trkpt lat="45.69414" lon="4.72443">
        <ele>221.483</ele>
        <time>2015-01-04T12:33:42Z</time>
      </trkpt>
      <trkpt lat="45.69412" lon="4.72434">
        <ele>221.483</ele>
        <time>2015-01-04T12:33:47Z</time>
      </trkpt>
      <trkpt lat="45.6941" lon="4.72426">
        <ele>222.00337</ele>
        <time>2015-01-04T12:33:52Z</time>
      </trkpt>
      <trkpt lat="45.69409" lon="4.72421">
        <ele>222.00337</ele>
        <time>2015-01-04T12:33:57Z</time>
      </trkpt>
      <trkpt lat="45.6941" lon="4.72414">
        <ele>222.00337</ele>
        <time>2015-01-04T12:34:02Z</time>
      </trkpt>
      <trkpt lat="45.69408" lon="4.72409">
        <ele>222.56992</ele>
        <time>2015-01-04T12:34:07Z</time>
      </trkpt>
      <trkpt lat="45.69407" lon="4.72401">
        <ele>222.56992</ele>
        <time>2015-01-04T12:34:12Z</time>
      </trkpt>
      <trkpt lat="45.69411" lon="4.72395">
        <ele>223.08908</ele>
        <time>2015-01-04T12:34:17Z</time>
      </trkpt>
      <trkpt lat="45.69414" lon="4.72394">
        <ele>223.08908</ele>
        <time>2015-01-04T12:34:22Z</time>
      </trkpt>
      <trkpt lat="45.69415" lon="4.72394">
        <ele>223.08908</ele>
        <time>2015-01-04T12:34:27Z</time>
      </trkpt>
      <trkpt lat="45.69416" lon="4.72394">
        <ele>223.08908</ele>
        <time>2015-01-04T12:34:32Z</time>
      </trkpt>
      <trkpt lat="45.69416" lon="4.72396">
        <ele>223.08908</ele>
        <time>2015-01-04T12:34:37Z</time>
      </trkpt>
      <trkpt lat="45.69419" lon="4.72397">
        <ele>223.8636</ele>
        <time>2015-01-04T12:34:42Z</time>
      </trkpt>
      <trkpt lat="45.6942" lon="4.72397">
        <ele>223.8636</ele>
        <time>2015-01-04T12:34:47Z</time>
      </trkpt>
      <trkpt lat="45.69422" lon="4.72398">
        <ele>223.8636</ele>
        <time>2015-01-04T12:34:57Z</time>
      </trkpt>
      <trkpt lat="45.69428" lon="4.72401">
        <ele>223.8636</ele>
        <time>2015-01-04T12:35:02Z</time>
      </trkpt>
      <trkpt lat="45.69433" lon="4.72405">
        <ele>224.62572</ele>
        <time>2015-01-04T12:35:07Z</time>
      </trkpt>
      <trkpt lat="45.69436" lon="4.72406">
        <ele>224.62572</ele>
        <time>2015-01-04T12:35:12Z</time>
      </trkpt>
      <trkpt lat="45.69444" lon="4.72409">
        <ele>225.41576</ele>
        <time>2015-01-04T12:35:17Z</time>
      </trkpt>
      <trkpt lat="45.6945" lon="4.72413">
        <ele>225.41576</ele>
        <time>2015-01-04T12:35:22Z</time>
      </trkpt>
      <trkpt lat="45.69455" lon="4.72416">
        <ele>226.05496</ele>
        <time>2015-01-04T12:35:27Z</time>
      </trkpt>
      <trkpt lat="45.6946" lon="4.72418">
        <ele>226.05496</ele>
        <time>2015-01-04T12:35:32Z</time>
      </trkpt>
      <trkpt lat="45.69464" lon="4.72419">
        <ele>226.05496</ele>
        <time>2015-01-04T12:35:37Z</time>
      </trkpt>
      <trkpt lat="45.69469" lon="4.7242">
        <ele>226.53683</ele>
        <time>2015-01-04T12:35:42Z</time>
      </trkpt>
      <trkpt lat="45.69472" lon="4.72416">
        <ele>226.53683</ele>
        <time>2015-01-04T12:35:47Z</time>
      </trkpt>
      <trkpt lat="45.69473" lon="4.7241">
        <ele>226.53683</ele>
        <time>2015-01-04T12:35:52Z</time>
      </trkpt>
      <trkpt lat="45.69471" lon="4.72407">
        <ele>227.1873</ele>
        <time>2015-01-04T12:35:57Z</time>
      </trkpt>
      <trkpt lat="45.69468" lon="4.72402">
        <ele>227.1873</ele>
        <time>2015-01-04T12:36:02Z</time>
      </trkpt>
      <trkpt lat="45.69466" lon="4.72399">
        <ele>227.1873</ele>
        <time>2015-01-04T12:36:07Z</time>
      </trkpt>
      <trkpt lat="45.69462" lon="4.72395">
        <ele>228.09193</ele>
        <time>2015-01-04T12:36:12Z</time>
      </trkpt>
      <trkpt lat="45.69459" lon="4.72391">
        <ele>228.09193</ele>
        <time>2015-01-04T12:36:17Z</time>
      </trkpt>
      <trkpt lat="45.69456" lon="4.72389">
        <ele>228.09193</ele>
        <time>2015-01-04T12:36:22Z</time>
      </trkpt>
      <trkpt lat="45.69452" lon="4.72386">
        <ele>229.17084</ele>
        <time>2015-01-04T12:36:27Z</time>
      </trkpt>
      <trkpt lat="45.6945" lon="4.7238">
        <ele>229.17084</ele>
        <time>2015-01-04T12:36:32Z</time>
      </trkpt>
      <trkpt lat="45.69447" lon="4.72373">
        <ele>230.33528</ele>
        <time>2015-01-04T12:36:37Z</time>
      </trkpt>
      <trkpt lat="45.69443" lon="4.7237">
        <ele>230.33528</ele>
        <time>2015-01-04T12:36:42Z</time>
      </trkpt>
      <trkpt lat="45.6944" lon="4.72366">
        <ele>230.33528</ele>
        <time>2015-01-04T12:36:47Z</time>
      </trkpt>
      <trkpt lat="45.69436" lon="4.72363">
        <ele>231.69026</ele>
        <time>2015-01-04T12:36:52Z</time>
      </trkpt>
      <trkpt lat="45.69434" lon="4.72356">
        <ele>231.69026</ele>
        <time>2015-01-04T12:36:57Z</time>
      </trkpt>
      <trkpt lat="45.69432" lon="4.72351">
        <ele>233.00122</ele>
        <time>2015-01-04T12:37:02Z</time>
      </trkpt>
      <trkpt lat="45.6943" lon="4.72347">
        <ele>233.00122</ele>
        <time>2015-01-04T12:37:07Z</time>
      </trkpt>
      <trkpt lat="45.69429" lon="4.72346">
        <ele>233.00122</ele>
        <time>2015-01-04T12:37:12Z</time>
      </trkpt>
      <trkpt lat="45.69429" lon="4.7234">
        <ele>233.00122</ele>
        <time>2015-01-04T12:37:17Z</time>
      </trkpt>
      <trkpt lat="45.6943" lon="4.72339">
        <ele>234.41135</ele>
        <time>2015-01-04T12:37:22Z</time>
      </trkpt>
      <trkpt lat="45.69431" lon="4.72339">
        <ele>234.41135</ele>
        <time>2015-01-04T12:37:27Z</time>
      </trkpt>
      <trkpt lat="45.69433" lon="4.72338">
        <ele>234.41135</ele>
        <time>2015-01-04T12:37:32Z</time>
      </trkpt>
      <trkpt lat="45.69434" lon="4.72336">
        <ele>234.41135</ele>
        <time>2015-01-04T12:37:37Z</time>
      </trkpt>
      <trkpt lat="45.69434" lon="4.72336">
        <ele>234.41135</ele>
        <time>2015-01-04T12:37:42Z</time>
      </trkpt>
      <trkpt lat="45.69433" lon="4.72337">
        <ele>234.41135</ele>
        <time>2015-01-04T12:37:47Z</time>
      </trkpt>
      <trkpt lat="45.69433" lon="4.72338">
        <ele>234.41135</ele>
        <time>2015-01-04T12:37:52Z</time>
      </trkpt>
      <trkpt lat="45.69433" lon="4.72339">
        <ele>234.41135</ele>
        <time>2015-01-04T12:37:57Z</time>
      </trkpt>
      <trkpt lat="45.69433" lon="4.72338">
        <ele>234.41135</ele>
        <time>2015-01-04T12:38:02Z</time>
      </trkpt>
      <trkpt lat="45.69432" lon="4.72337">
        <ele>234.41135</ele>
        <time>2015-01-04T12:38:07Z</time>
      </trkpt>
      <trkpt lat="45.69432" lon="4.72336">
        <ele>235.93794</ele>
        <time>2015-01-04T12:38:12Z</time>
      </trkpt>
      <trkpt lat="45.69433" lon="4.72336">
        <ele>235.93794</ele>
        <time>2015-01-04T12:38:17Z</time>
      </trkpt>
      <trkpt lat="45.69433" lon="4.72339">
        <ele>235.93794</ele>
        <time>2015-01-04T12:38:22Z</time>
      </trkpt>
      <trkpt lat="45.69434" lon="4.72341">
        <ele>235.93794</ele>
        <time>2015-01-04T12:38:27Z</time>
      </trkpt>
      <trkpt lat="45.69434" lon="4.72341">
        <ele>235.93794</ele>
        <time>2015-01-04T12:38:32Z</time>
      </trkpt>
      <trkpt lat="45.69434" lon="4.72342">
        <ele>235.93794</ele>
        <time>2015-01-04T12:38:37Z</time>
      </trkpt>
      <trkpt lat="45.69434" lon="4.72341">
        <ele>235.93794</ele>
        <time>2015-01-04T12:38:42Z</time>
      </trkpt>
      <trkpt lat="45.69434" lon="4.72341">
        <ele>235.93794</ele>
        <time>2015-01-04T12:38:47Z</time>
      </trkpt>
      <trkpt lat="45.69434" lon="4.72341">
        <ele>235.93794</ele>
        <time>2015-01-04T12:38:52Z</time>
      </trkpt>
      <trkpt lat="45.69434" lon="4.7234">
        <ele>235.93794</ele>
        <time>2015-01-04T12:38:57Z</time>
      </trkpt>
      <trkpt lat="45.69434" lon="4.72339">
        <ele>235.93794</ele>
        <time>2015-01-04T12:39:02Z</time>
      </trkpt>
      <trkpt lat="45.69433" lon="4.72339">
        <ele>235.93794</ele>
        <time>2015-01-04T12:39:07Z</time>
      </trkpt>
      <trkpt lat="45.69434" lon="4.72337">
        <ele>235.93794</ele>
        <time>2015-01-04T12:39:12Z</time>
      </trkpt>
      <trkpt lat="45.69434" lon="4.72337">
        <ele>237.68326</ele>
        <time>2015-01-04T12:39:17Z</time>
      </trkpt>
      <trkpt lat="45.69435" lon="4.72336">
        <ele>237.68326</ele>
        <time>2015-01-04T12:39:22Z</time>
      </trkpt>
      <trkpt lat="45.69437" lon="4.72333">
        <ele>237.68326</ele>
        <time>2015-01-04T12:39:27Z</time>
      </trkpt>
      <trkpt lat="45.69438" lon="4.72326">
        <ele>237.68326</ele>
        <time>2015-01-04T12:39:32Z</time>
      </trkpt>
      <trkpt lat="45.69439" lon="4.72322">
        <ele>239.55426</ele>
        <time>2015-01-04T12:39:37Z</time>
      </trkpt>
      <trkpt lat="45.69439" lon="4.72319">
        <ele>239.55426</ele>
        <time>2015-01-04T12:39:42Z</time>
      </trkpt>
      <trkpt lat="45.69441" lon="4.72313">
        <ele>239.55426</ele>
        <time>2015-01-04T12:39:47Z</time>
      </trkpt>
      <trkpt lat="45.69441" lon="4.72307">
        <ele>241.43571</ele>
        <time>2015-01-04T12:39:52Z</time>
      </trkpt>
      <trkpt lat="45.69443" lon="4.723">
        <ele>241.43571</ele>
        <time>2015-01-04T12:39:57Z</time>
      </trkpt>
      <trkpt lat="45.69443" lon="4.72293">
        <ele>243.30743</ele>
        <time>2015-01-04T12:40:02Z</time>
      </trkpt>
      <trkpt lat="45.69444" lon="4.72284">
        <ele>243.30743</ele>
        <time>2015-01-04T12:40:07Z</time>
      </trkpt>
      <trkpt lat="45.69444" lon="4.72277">
        <ele>245.19417</ele>
        <time>2015-01-04T12:40:12Z</time>
      </trkpt>
      <trkpt lat="45.69444" lon="4.72273">
        <ele>245.19417</ele>
        <time>2015-01-04T12:40:17Z</time>
      </trkpt>
      <trkpt lat="45.69443" lon="4.72265">
        <ele>245.19417</ele>
        <time>2015-01-04T12:40:22Z</time>
      </trkpt>
      <trkpt lat="45.69444" lon="4.72259">
        <ele>247.29184</ele>
        <time>2015-01-04T12:40:27Z</time>
      </trkpt>
      <trkpt lat="45.69444" lon="4.72251">
        <ele>247.29184</ele>
        <time>2015-01-04T12:40:32Z</time>
      </trkpt>
      <trkpt lat="45.69443" lon="4.72246">
        <ele>249.34927</ele>
        <time>2015-01-04T12:40:37Z</time>
      </trkpt>
      <trkpt lat="45.69444" lon="4.72239">
        <ele>249.34927</ele>
        <time>2015-01-04T12:40:42Z</time>
      </trkpt>
      <trkpt lat="45.69445" lon="4.72234">
        <ele>249.34927</ele>
        <time>2015-01-04T12:40:47Z</time>
      </trkpt>
      <trkpt lat="45.69444" lon="4.72227">
        <ele>251.36458</ele>
        <time>2015-01-04T12:40:52Z</time>
      </trkpt>
      <trkpt lat="45.69444" lon="4.72221">
        <ele>251.36458</ele>
        <time>2015-01-04T12:40:57Z</time>
      </trkpt>
      <trkpt lat="45.69443" lon="4.72214">
        <ele>251.36458</ele>
        <time>2015-01-04T12:41:02Z</time>
      </trkpt>
      <trkpt lat="45.69442" lon="4.72205">
        <ele>253.36511</ele>
        <time>2015-01-04T12:41:07Z</time>
      </trkpt>
      <trkpt lat="45.69441" lon="4.72194">
        <ele>253.36511</ele>
        <time>2015-01-04T12:41:12Z</time>
      </trkpt>
      <trkpt lat="45.69438" lon="4.72188">
        <ele>255.26111</ele>
        <time>2015-01-04T12:41:17Z</time>
      </trkpt>
      <trkpt lat="45.69438" lon="4.72185">
        <ele>255.26111</ele>
        <time>2015-01-04T12:41:22Z</time>
      </trkpt>
      <trkpt lat="45.69438" lon="4.72179">
        <ele>255.26111</ele>
        <time>2015-01-04T12:41:27Z</time>
      </trkpt>
      <trkpt lat="45.69437" lon="4.72174">
        <ele>257.0996</ele>
        <time>2015-01-04T12:41:32Z</time>
      </trkpt>
      <trkpt lat="45.69434" lon="4.72168">
        <ele>257.0996</ele>
        <time>2015-01-04T12:41:37Z</time>
      </trkpt>
      <trkpt lat="45.69434" lon="4.72161">
        <ele>258.72278</ele>
        <time>2015-01-04T12:41:42Z</time>
      </trkpt>
      <trkpt lat="45.69433" lon="4.72156">
        <ele>258.72278</ele>
        <time>2015-01-04T12:41:47Z</time>
      </trkpt>
      <trkpt lat="45.69431" lon="4.72148">
        <ele>260.34534</ele>
        <time>2015-01-04T12:41:52Z</time>
      </trkpt>
      <trkpt lat="45.69431" lon="4.72142">
        <ele>260.34534</ele>
        <time>2015-01-04T12:41:57Z</time>
      </trkpt>
      <trkpt lat="45.6943" lon="4.72138">
        <ele>260.34534</ele>
        <time>2015-01-04T12:42:02Z</time>
      </trkpt>
      <trkpt lat="45.6943" lon="4.7213">
        <ele>262.10886</ele>
        <time>2015-01-04T12:42:07Z</time>
      </trkpt>
      <trkpt lat="45.69431" lon="4.72124">
        <ele>262.10886</ele>
        <time>2015-01-04T12:42:12Z</time>
      </trkpt>
      <trkpt lat="45.69431" lon="4.72117">
        <ele>263.84155</ele>
        <time>2015-01-04T12:42:17Z</time>
      </trkpt>
      <trkpt lat="45.6943" lon="4.72113">
        <ele>263.84155</ele>
        <time>2015-01-04T12:42:22Z</time>
      </trkpt>
      <trkpt lat="45.69429" lon="4.7211">
        <ele>263.84155</ele>
        <time>2015-01-04T12:42:27Z</time>
      </trkpt>
      <trkpt lat="45.69428" lon="4.72107">
        <ele>263.84155</ele>
        <time>2015-01-04T12:42:32Z</time>
      </trkpt>
      <trkpt lat="45.69426" lon="4.72102">
        <ele>265.6872</ele>
        <time>2015-01-04T12:42:37Z</time>
      </trkpt>
      <trkpt lat="45.69426" lon="4.72091">
        <ele>265.6872</ele>
        <time>2015-01-04T12:42:42Z</time>
      </trkpt>
      <trkpt lat="45.69427" lon="4.72082">
        <ele>267.46173</ele>
        <time>2015-01-04T12:42:47Z</time>
      </trkpt>
      <trkpt lat="45.69427" lon="4.72076">
        <ele>267.46173</ele>
        <time>2015-01-04T12:42:52Z</time>
      </trkpt>
      <trkpt lat="45.69428" lon="4.72066">
        <ele>269.15353</ele>
        <time>2015-01-04T12:42:57Z</time>
      </trkpt>
      <trkpt lat="45.69429" lon="4.7206">
        <ele>269.15353</ele>
        <time>2015-01-04T12:43:02Z</time>
      </trkpt>
      <trkpt lat="45.69429" lon="4.72055">
        <ele>269.15353</ele>
        <time>2015-01-04T12:43:07Z</time>
      </trkpt>
      <trkpt lat="45.69431" lon="4.72049">
        <ele>270.9828</ele>
        <time>2015-01-04T12:43:12Z</time>
      </trkpt>
      <trkpt lat="45.6943" lon="4.72043">
        <ele>270.9828</ele>
        <time>2015-01-04T12:43:17Z</time>
      </trkpt>
      <trkpt lat="45.69431" lon="4.72037">
        <ele>270.9828</ele>
        <time>2015-01-04T12:43:22Z</time>
      </trkpt>
      <trkpt lat="45.69432" lon="4.72034">
        <ele>273.0235</ele>
        <time>2015-01-04T12:43:27Z</time>
      </trkpt>
      <trkpt lat="45.69431" lon="4.72032">
        <ele>273.0235</ele>
        <time>2015-01-04T12:43:32Z</time>
      </trkpt>
      <trkpt lat="45.69431" lon="4.72021">
        <ele>274.99802</ele>
        <time>2015-01-04T12:43:37Z</time>
      </trkpt>
      <trkpt lat="45.69431" lon="4.72015">
        <ele>274.99802</ele>
        <time>2015-01-04T12:43:42Z</time>
      </trkpt>
      <trkpt lat="45.69432" lon="4.72006">
        <ele>276.79337</ele>
        <time>2015-01-04T12:43:47Z</time>
      </trkpt>
      <trkpt lat="45.69434" lon="4.71998">
        <ele>276.79337</ele>
        <time>2015-01-04T12:43:52Z</time>
      </trkpt>
      <trkpt lat="45.69435" lon="4.71991">
        <ele>278.3489</ele>
        <time>2015-01-04T12:43:57Z</time>
      </trkpt>
      <trkpt lat="45.69435" lon="4.71988">
        <ele>278.3489</ele>
        <time>2015-01-04T12:44:02Z</time>
      </trkpt>
      <trkpt lat="45.69437" lon="4.71979">
        <ele>279.72443</ele>
        <time>2015-01-04T12:44:07Z</time>
      </trkpt>
      <trkpt lat="45.69438" lon="4.7197">
        <ele>279.72443</ele>
        <time>2015-01-04T12:44:12Z</time>
      </trkpt>
      <trkpt lat="45.69436" lon="4.71963">
        <ele>281.0624</ele>
        <time>2015-01-04T12:44:17Z</time>
      </trkpt>
      <trkpt lat="45.69434" lon="4.71953">
        <ele>281.0624</ele>
        <time>2015-01-04T12:44:22Z</time>
      </trkpt>
      <trkpt lat="45.69431" lon="4.71943">
        <ele>282.32224</ele>
        <time>2015-01-04T12:44:27Z</time>
      </trkpt>
      <trkpt lat="45.69427" lon="4.71936">
        <ele>282.32224</ele>
        <time>2015-01-04T12:44:32Z</time>
      </trkpt>
      <trkpt lat="45.69425" lon="4.71927">
        <ele>283.42325</ele>
        <time>2015-01-04T12:44:37Z</time>
      </trkpt>
      <trkpt lat="45.69422" lon="4.71918">
        <ele>283.42325</ele>
        <time>2015-01-04T12:44:42Z</time>
      </trkpt>
      <trkpt lat="45.69417" lon="4.71912">
        <ele>284.36343</ele>
        <time>2015-01-04T12:44:47Z</time>
      </trkpt>
      <trkpt lat="45.69414" lon="4.71908">
        <ele>284.36343</ele>
        <time>2015-01-04T12:44:52Z</time>
      </trkpt>
      <trkpt lat="45.69411" lon="4.71904">
        <ele>284.36343</ele>
        <time>2015-01-04T12:44:57Z</time>
      </trkpt>
      <trkpt lat="45.69407" lon="4.71896">
        <ele>285.11255</ele>
        <time>2015-01-04T12:45:02Z</time>
      </trkpt>
      <trkpt lat="45.69403" lon="4.7189">
        <ele>285.11255</ele>
        <time>2015-01-04T12:45:07Z</time>
      </trkpt>
      <trkpt lat="45.69398" lon="4.71884">
        <ele>285.7441</ele>
        <time>2015-01-04T12:45:12Z</time>
      </trkpt>
      <trkpt lat="45.69394" lon="4.71879">
        <ele>285.7441</ele>
        <time>2015-01-04T12:45:17Z</time>
      </trkpt>
      <trkpt lat="45.69388" lon="4.71873">
        <ele>286.2401</ele>
        <time>2015-01-04T12:45:22Z</time>
      </trkpt>
      <trkpt lat="45.69384" lon="4.71869">
        <ele>286.2401</ele>
        <time>2015-01-04T12:45:27Z</time>
      </trkpt>
      <trkpt lat="45.69381" lon="4.71862">
        <ele>286.5267</ele>
        <time>2015-01-04T12:45:32Z</time>
      </trkpt>
      <trkpt lat="45.69376" lon="4.71855">
        <ele>286.5267</ele>
        <time>2015-01-04T12:45:37Z</time>
      </trkpt>
      <trkpt lat="45.69371" lon="4.71848">
        <ele>286.57928</ele>
        <time>2015-01-04T12:45:42Z</time>
      </trkpt>
      <trkpt lat="45.69367" lon="4.71841">
        <ele>286.57928</ele>
        <time>2015-01-04T12:45:47Z</time>
      </trkpt>
      <trkpt lat="45.69366" lon="4.71839">
        <ele>286.57928</ele>
        <time>2015-01-04T12:45:52Z</time>
      </trkpt>
      <trkpt lat="45.69364" lon="4.71833">
        <ele>286.6208</ele>
        <time>2015-01-04T12:45:57Z</time>
      </trkpt>
      <trkpt lat="45.6936" lon="4.71828">
        <ele>286.6208</ele>
        <time>2015-01-04T12:46:02Z</time>
      </trkpt>
      <trkpt lat="45.69357" lon="4.71823">
        <ele>286.7713</ele>
        <time>2015-01-04T12:46:07Z</time>
      </trkpt>
      <trkpt lat="45.69355" lon="4.71817">
        <ele>286.7713</ele>
        <time>2015-01-04T12:46:12Z</time>
      </trkpt>
      <trkpt lat="45.69352" lon="4.71812">
        <ele>287.02652</ele>
        <time>2015-01-04T12:46:17Z</time>
      </trkpt>
      <trkpt lat="45.6935" lon="4.71808">
        <ele>287.02652</ele>
        <time>2015-01-04T12:46:22Z</time>
      </trkpt>
      <trkpt lat="45.69348" lon="4.71806">
        <ele>287.02652</ele>
        <time>2015-01-04T12:46:27Z</time>
      </trkpt>
      <trkpt lat="45.69345" lon="4.71803">
        <ele>287.39655</ele>
        <time>2015-01-04T12:46:32Z</time>
      </trkpt>
      <trkpt lat="45.6934" lon="4.71797">
        <ele>287.39655</ele>
        <time>2015-01-04T12:46:37Z</time>
      </trkpt>
      <trkpt lat="45.69335" lon="4.71792">
        <ele>287.80392</ele>
        <time>2015-01-04T12:46:42Z</time>
      </trkpt>
      <trkpt lat="45.69331" lon="4.71785">
        <ele>287.80392</ele>
        <time>2015-01-04T12:46:47Z</time>
      </trkpt>
      <trkpt lat="45.69328" lon="4.71781">
        <ele>288.24887</ele>
        <time>2015-01-04T12:46:52Z</time>
      </trkpt>
      <trkpt lat="45.69325" lon="4.71776">
        <ele>288.24887</ele>
        <time>2015-01-04T12:46:57Z</time>
      </trkpt>
      <trkpt lat="45.6932" lon="4.7177">
        <ele>288.6305</ele>
        <time>2015-01-04T12:47:02Z</time>
      </trkpt>
      <trkpt lat="45.69315" lon="4.71764">
        <ele>288.6305</ele>
        <time>2015-01-04T12:47:07Z</time>
      </trkpt>
      <trkpt lat="45.69313" lon="4.7176">
        <ele>289.0284</ele>
        <time>2015-01-04T12:47:12Z</time>
      </trkpt>
      <trkpt lat="45.6931" lon="4.71755">
        <ele>289.0284</ele>
        <time>2015-01-04T12:47:17Z</time>
      </trkpt>
      <trkpt lat="45.69305" lon="4.71747">
        <ele>289.37222</ele>
        <time>2015-01-04T12:47:22Z</time>
      </trkpt>
      <trkpt lat="45.69301" lon="4.71741">
        <ele>289.37222</ele>
        <time>2015-01-04T12:47:27Z</time>
      </trkpt>
      <trkpt lat="45.69298" lon="4.71733">
        <ele>289.7409</ele>
        <time>2015-01-04T12:47:32Z</time>
      </trkpt>
      <trkpt lat="45.69293" lon="4.71726">
        <ele>289.7409</ele>
        <time>2015-01-04T12:47:37Z</time>
      </trkpt>
      <trkpt lat="45.69289" lon="4.7172">
        <ele>290.04892</ele>
        <time>2015-01-04T12:47:42Z</time>
      </trkpt>
      <trkpt lat="45.69284" lon="4.71713">
        <ele>290.04892</ele>
        <time>2015-01-04T12:47:47Z</time>
      </trkpt>
      <trkpt lat="45.69279" lon="4.71706">
        <ele>290.4045</ele>
        <time>2015-01-04T12:47:52Z</time>
      </trkpt>
      <trkpt lat="45.69276" lon="4.717">
        <ele>290.4045</ele>
        <time>2015-01-04T12:47:57Z</time>
      </trkpt>
      <trkpt lat="45.69273" lon="4.71694">
        <ele>290.7637</ele>
        <time>2015-01-04T12:48:02Z</time>
      </trkpt>
      <trkpt lat="45.69268" lon="4.71688">
        <ele>290.7637</ele>
        <time>2015-01-04T12:48:07Z</time>
      </trkpt>
      <trkpt lat="45.69264" lon="4.71681">
        <ele>291.15768</ele>
        <time>2015-01-04T12:48:12Z</time>
      </trkpt>
      <trkpt lat="45.69259" lon="4.71676">
        <ele>291.15768</ele>
        <time>2015-01-04T12:48:17Z</time>
      </trkpt>
      <trkpt lat="45.69256" lon="4.71671">
        <ele>291.5575</ele>
        <time>2015-01-04T12:48:22Z</time>
      </trkpt>
      <trkpt lat="45.69251" lon="4.71662">
        <ele>291.5575</ele>
        <time>2015-01-04T12:48:27Z</time>
      </trkpt>
      <trkpt lat="45.69247" lon="4.71654">
        <ele>291.80664</ele>
        <time>2015-01-04T12:48:32Z</time>
      </trkpt>
      <trkpt lat="45.69244" lon="4.71647">
        <ele>291.80664</ele>
        <time>2015-01-04T12:48:37Z</time>
      </trkpt>
      <trkpt lat="45.69242" lon="4.71644">
        <ele>291.80664</ele>
        <time>2015-01-04T12:48:42Z</time>
      </trkpt>
      <trkpt lat="45.6924" lon="4.7164">
        <ele>291.9909</ele>
        <time>2015-01-04T12:48:47Z</time>
      </trkpt>
      <trkpt lat="45.6924" lon="4.7164">
        <ele>291.9909</ele>
        <time>2015-01-04T12:48:52Z</time>
      </trkpt>
      <trkpt lat="45.69239" lon="4.71638">
        <ele>291.9909</ele>
        <time>2015-01-04T12:48:57Z</time>
      </trkpt>
      <trkpt lat="45.69238" lon="4.71633">
        <ele>291.9909</ele>
        <time>2015-01-04T12:49:02Z</time>
      </trkpt>
      <trkpt lat="45.69238" lon="4.71633">
        <ele>291.9909</ele>
        <time>2015-01-04T12:49:07Z</time>
      </trkpt>
      <trkpt lat="45.69238" lon="4.71632">
        <ele>291.9909</ele>
        <time>2015-01-04T12:49:12Z</time>
      </trkpt>
      <trkpt lat="45.69238" lon="4.71633">
        <ele>291.9909</ele>
        <time>2015-01-04T12:49:17Z</time>
      </trkpt>
      <trkpt lat="45.69239" lon="4.71634">
        <ele>291.9909</ele>
        <time>2015-01-04T12:49:22Z</time>
      </trkpt>
      <trkpt lat="45.69239" lon="4.71634">
        <ele>291.9909</ele>
        <time>2015-01-04T12:49:27Z</time>
      </trkpt>
      <trkpt lat="45.69239" lon="4.71635">
        <ele>291.9909</ele>
        <time>2015-01-04T12:49:32Z</time>
      </trkpt>
      <trkpt lat="45.69238" lon="4.71634">
        <ele>292.30524</ele>
        <time>2015-01-04T12:49:37Z</time>
      </trkpt>
      <trkpt lat="45.69238" lon="4.71634">
        <ele>292.30524</ele>
        <time>2015-01-04T12:49:42Z</time>
      </trkpt>
      <trkpt lat="45.69237" lon="4.71633">
        <ele>292.30524</ele>
        <time>2015-01-04T12:49:47Z</time>
      </trkpt>
      <trkpt lat="45.69237" lon="4.71633">
        <ele>292.30524</ele>
        <time>2015-01-04T12:49:52Z</time>
      </trkpt>
      <trkpt lat="45.69236" lon="4.71633">
        <ele>292.30524</ele>
        <time>2015-01-04T12:49:57Z</time>
      </trkpt>
      <trkpt lat="45.69237" lon="4.71632">
        <ele>292.30524</ele>
        <time>2015-01-04T12:50:02Z</time>
      </trkpt>
      <trkpt lat="45.69235" lon="4.71627">
        <ele>292.30524</ele>
        <time>2015-01-04T12:50:07Z</time>
      </trkpt>
      <trkpt lat="45.69232" lon="4.71622">
        <ele>292.81458</ele>
        <time>2015-01-04T12:50:12Z</time>
      </trkpt>
      <trkpt lat="45.69228" lon="4.71615">
        <ele>292.81458</ele>
        <time>2015-01-04T12:50:17Z</time>
      </trkpt>
      <trkpt lat="45.69226" lon="4.7161">
        <ele>293.30457</ele>
        <time>2015-01-04T12:50:22Z</time>
      </trkpt>
      <trkpt lat="45.69223" lon="4.71605">
        <ele>293.30457</ele>
        <time>2015-01-04T12:50:27Z</time>
      </trkpt>
      <trkpt lat="45.6922" lon="4.71597">
        <ele>293.79276</ele>
        <time>2015-01-04T12:50:32Z</time>
      </trkpt>
      <trkpt lat="45.69216" lon="4.7159">
        <ele>293.79276</ele>
        <time>2015-01-04T12:50:37Z</time>
      </trkpt>
      <trkpt lat="45.69213" lon="4.71584">
        <ele>294.25217</ele>
        <time>2015-01-04T12:50:42Z</time>
      </trkpt>
      <trkpt lat="45.69208" lon="4.71579">
        <ele>294.25217</ele>
        <time>2015-01-04T12:50:47Z</time>
      </trkpt>
      <trkpt lat="45.69201" lon="4.71574">
        <ele>294.67215</ele>
        <time>2015-01-04T12:50:52Z</time>
      </trkpt>
      <trkpt lat="45.69196" lon="4.7157">
        <ele>294.67215</ele>
        <time>2015-01-04T12:50:57Z</time>
      </trkpt>
      <trkpt lat="45.69192" lon="4.71566">
        <ele>295.1005</ele>
        <time>2015-01-04T12:51:02Z</time>
      </trkpt>
      <trkpt lat="45.69187" lon="4.71564">
        <ele>295.1005</ele>
        <time>2015-01-04T12:51:07Z</time>
      </trkpt>
      <trkpt lat="45.69181" lon="4.7156">
        <ele>295.4662</ele>
        <time>2015-01-04T12:51:12Z</time>
      </trkpt>
      <trkpt lat="45.69176" lon="4.71558">
        <ele>295.4662</ele>
        <time>2015-01-04T12:51:17Z</time>
      </trkpt>
      <trkpt lat="45.69169" lon="4.71555">
        <ele>295.84756</ele>
        <time>2015-01-04T12:51:22Z</time>
      </trkpt>
      <trkpt lat="45.69162" lon="4.71552">
        <ele>295.84756</ele>
        <time>2015-01-04T12:51:27Z</time>
      </trkpt>
      <trkpt lat="45.69157" lon="4.71551">
        <ele>296.15857</ele>
        <time>2015-01-04T12:51:32Z</time>
      </trkpt>
      <trkpt lat="45.6915" lon="4.71551">
        <ele>296.15857</ele>
        <time>2015-01-04T12:51:37Z</time>
      </trkpt>
      <trkpt lat="45.69144" lon="4.71551">
        <ele>296.37723</ele>
        <time>2015-01-04T12:51:42Z</time>
      </trkpt>
      <trkpt lat="45.69137" lon="4.71549">
        <ele>296.37723</ele>
        <time>2015-01-04T12:51:47Z</time>
      </trkpt>
      <trkpt lat="45.69131" lon="4.71548">
        <ele>296.5555</ele>
        <time>2015-01-04T12:51:52Z</time>
      </trkpt>
      <trkpt lat="45.69125" lon="4.71547">
        <ele>296.5555</ele>
        <time>2015-01-04T12:51:57Z</time>
      </trkpt>
      <trkpt lat="45.69119" lon="4.71545">
        <ele>296.583</ele>
        <time>2015-01-04T12:52:02Z</time>
      </trkpt>
      <trkpt lat="45.69112" lon="4.71544">
        <ele>296.583</ele>
        <time>2015-01-04T12:52:07Z</time>
      </trkpt>
      <trkpt lat="45.69105" lon="4.7154">
        <ele>296.54507</ele>
        <time>2015-01-04T12:52:12Z</time>
      </trkpt>
      <trkpt lat="45.69098" lon="4.71537">
        <ele>296.54507</ele>
        <time>2015-01-04T12:52:17Z</time>
      </trkpt>
      <trkpt lat="45.69093" lon="4.71531">
        <ele>296.46335</ele>
        <time>2015-01-04T12:52:22Z</time>
      </trkpt>
      <trkpt lat="45.69084" lon="4.71526">
        <ele>296.3723</ele>
        <time>2015-01-04T12:52:27Z</time>
      </trkpt>
      <trkpt lat="45.69077" lon="4.71522">
        <ele>296.3723</ele>
        <time>2015-01-04T12:52:32Z</time>
      </trkpt>
      <trkpt lat="45.69072" lon="4.71518">
        <ele>296.30383</ele>
        <time>2015-01-04T12:52:37Z</time>
      </trkpt>
      <trkpt lat="45.69066" lon="4.71514">
        <ele>296.30383</ele>
        <time>2015-01-04T12:52:42Z</time>
      </trkpt>
      <trkpt lat="45.69063" lon="4.71513">
        <ele>296.22964</ele>
        <time>2015-01-04T12:52:47Z</time>
      </trkpt>
      <trkpt lat="45.69055" lon="4.71507">
        <ele>296.22964</ele>
        <time>2015-01-04T12:52:52Z</time>
      </trkpt>
      <trkpt lat="45.69049" lon="4.71503">
        <ele>296.21002</ele>
        <time>2015-01-04T12:52:57Z</time>
      </trkpt>
      <trkpt lat="45.69042" lon="4.71498">
        <ele>296.21002</ele>
        <time>2015-01-04T12:53:02Z</time>
      </trkpt>
      <trkpt lat="45.69035" lon="4.71493">
        <ele>296.21405</ele>
        <time>2015-01-04T12:53:07Z</time>
      </trkpt>
      <trkpt lat="45.69028" lon="4.71489">
        <ele>296.21405</ele>
        <time>2015-01-04T12:53:12Z</time>
      </trkpt>
      <trkpt lat="45.69023" lon="4.71485">
        <ele>296.25623</ele>
        <time>2015-01-04T12:53:17Z</time>
      </trkpt>
      <trkpt lat="45.69017" lon="4.71481">
        <ele>296.25623</ele>
        <time>2015-01-04T12:53:22Z</time>
      </trkpt>
      <trkpt lat="45.69012" lon="4.71478">
        <ele>296.26324</ele>
        <time>2015-01-04T12:53:27Z</time>
      </trkpt>
      <trkpt lat="45.69006" lon="4.71474">
        <ele>296.26324</ele>
        <time>2015-01-04T12:53:32Z</time>
      </trkpt>
      <trkpt lat="45.69" lon="4.71469">
        <ele>296.29703</ele>
        <time>2015-01-04T12:53:37Z</time>
      </trkpt>
      <trkpt lat="45.68994" lon="4.71466">
        <ele>296.29703</ele>
        <time>2015-01-04T12:53:42Z</time>
      </trkpt>
      <trkpt lat="45.68987" lon="4.71463">
        <ele>296.40024</ele>
        <time>2015-01-04T12:53:47Z</time>
      </trkpt>
      <trkpt lat="45.68981" lon="4.71459">
        <ele>296.40024</ele>
        <time>2015-01-04T12:53:52Z</time>
      </trkpt>
      <trkpt lat="45.68975" lon="4.71457">
        <ele>296.497</ele>
        <time>2015-01-04T12:53:57Z</time>
      </trkpt>
      <trkpt lat="45.68968" lon="4.71448">
        <ele>296.57446</ele>
        <time>2015-01-04T12:54:02Z</time>
      </trkpt>
      <trkpt lat="45.68964" lon="4.71443">
        <ele>296.57446</ele>
        <time>2015-01-04T12:54:07Z</time>
      </trkpt>
      <trkpt lat="45.6896" lon="4.71439">
        <ele>296.64966</ele>
        <time>2015-01-04T12:54:12Z</time>
      </trkpt>
      <trkpt lat="45.68955" lon="4.71434">
        <ele>296.64966</ele>
        <time>2015-01-04T12:54:17Z</time>
      </trkpt>
      <trkpt lat="45.68952" lon="4.71432">
        <ele>296.73816</ele>
        <time>2015-01-04T12:54:22Z</time>
      </trkpt>
      <trkpt lat="45.68951" lon="4.71431">
        <ele>296.73816</ele>
        <time>2015-01-04T12:54:27Z</time>
      </trkpt>
      <trkpt lat="45.68951" lon="4.7143">
        <ele>296.73816</ele>
        <time>2015-01-04T12:54:32Z</time>
      </trkpt>
      <trkpt lat="45.68949" lon="4.71429">
        <ele>296.73816</ele>
        <time>2015-01-04T12:54:37Z</time>
      </trkpt>
      <trkpt lat="45.68949" lon="4.71428">
        <ele>296.73816</ele>
        <time>2015-01-04T12:54:42Z</time>
      </trkpt>
      <trkpt lat="45.68943" lon="4.71423">
        <ele>296.8688</ele>
        <time>2015-01-04T12:54:47Z</time>
      </trkpt>
      <trkpt lat="45.68936" lon="4.71417">
        <ele>296.8688</ele>
        <time>2015-01-04T12:54:52Z</time>
      </trkpt>
      <trkpt lat="45.6893" lon="4.71412">
        <ele>296.924</ele>
        <time>2015-01-04T12:54:57Z</time>
      </trkpt>
      <trkpt lat="45.68924" lon="4.71408">
        <ele>296.924</ele>
        <time>2015-01-04T12:55:02Z</time>
      </trkpt>
      <trkpt lat="45.68919" lon="4.71406">
        <ele>296.88138</ele>
        <time>2015-01-04T12:55:07Z</time>
      </trkpt>
      <trkpt lat="45.68912" lon="4.714">
        <ele>296.88138</ele>
        <time>2015-01-04T12:55:12Z</time>
      </trkpt>
      <trkpt lat="45.68906" lon="4.71397">
        <ele>296.8502</ele>
        <time>2015-01-04T12:55:17Z</time>
      </trkpt>
      <trkpt lat="45.68899" lon="4.71394">
        <ele>296.8502</ele>
        <time>2015-01-04T12:55:22Z</time>
      </trkpt>
      <trkpt lat="45.68893" lon="4.71389">
        <ele>296.90262</ele>
        <time>2015-01-04T12:55:27Z</time>
      </trkpt>
      <trkpt lat="45.68887" lon="4.71384">
        <ele>296.90262</ele>
        <time>2015-01-04T12:55:32Z</time>
      </trkpt>
      <trkpt lat="45.68882" lon="4.71379">
        <ele>297.1054</ele>
        <time>2015-01-04T12:55:37Z</time>
      </trkpt>
      <trkpt lat="45.68878" lon="4.71376">
        <ele>297.1054</ele>
        <time>2015-01-04T12:55:42Z</time>
      </trkpt>
      <trkpt lat="45.68873" lon="4.71369">
        <ele>297.3613</ele>
        <time>2015-01-04T12:55:47Z</time>
      </trkpt>
      <trkpt lat="45.68867" lon="4.71363">
        <ele>297.3613</ele>
        <time>2015-01-04T12:55:52Z</time>
      </trkpt>
      <trkpt lat="45.6886" lon="4.71359">
        <ele>297.65207</ele>
        <time>2015-01-04T12:55:57Z</time>
      </trkpt>
      <trkpt lat="45.68855" lon="4.71359">
        <ele>297.65207</ele>
        <time>2015-01-04T12:56:02Z</time>
      </trkpt>
      <trkpt lat="45.68851" lon="4.71356">
        <ele>297.903</ele>
        <time>2015-01-04T12:56:07Z</time>
      </trkpt>
      <trkpt lat="45.68846" lon="4.71351">
        <ele>297.903</ele>
        <time>2015-01-04T12:56:12Z</time>
      </trkpt>
      <trkpt lat="45.68838" lon="4.71346">
        <ele>298.0883</ele>
        <time>2015-01-04T12:56:17Z</time>
      </trkpt>
      <trkpt lat="45.68834" lon="4.71342">
        <ele>298.0883</ele>
        <time>2015-01-04T12:56:22Z</time>
      </trkpt>
      <trkpt lat="45.68827" lon="4.71337">
        <ele>298.29926</ele>
        <time>2015-01-04T12:56:27Z</time>
      </trkpt>
      <trkpt lat="45.68821" lon="4.71332">
        <ele>298.29926</ele>
        <time>2015-01-04T12:56:32Z</time>
      </trkpt>
      <trkpt lat="45.68816" lon="4.71327">
        <ele>298.53412</ele>
        <time>2015-01-04T12:56:37Z</time>
      </trkpt>
      <trkpt lat="45.6881" lon="4.71321">
        <ele>298.53412</ele>
        <time>2015-01-04T12:56:42Z</time>
      </trkpt>
      <trkpt lat="45.68804" lon="4.71316">
        <ele>298.8775</ele>
        <time>2015-01-04T12:56:47Z</time>
      </trkpt>
      <trkpt lat="45.68801" lon="4.71311">
        <ele>298.8775</ele>
        <time>2015-01-04T12:56:52Z</time>
      </trkpt>
      <trkpt lat="45.68797" lon="4.71306">
        <ele>299.26337</ele>
        <time>2015-01-04T12:56:57Z</time>
      </trkpt>
      <trkpt lat="45.68794" lon="4.713">
        <ele>299.26337</ele>
        <time>2015-01-04T12:57:02Z</time>
      </trkpt>
      <trkpt lat="45.68788" lon="4.71291">
        <ele>299.67365</ele>
        <time>2015-01-04T12:57:07Z</time>
      </trkpt>
      <trkpt lat="45.68783" lon="4.71283">
        <ele>299.67365</ele>
        <time>2015-01-04T12:57:12Z</time>
      </trkpt>
      <trkpt lat="45.68778" lon="4.71276">
        <ele>300.16354</ele>
        <time>2015-01-04T12:57:17Z</time>
      </trkpt>
      <trkpt lat="45.68775" lon="4.71268">
        <ele>300.16354</ele>
        <time>2015-01-04T12:57:22Z</time>
      </trkpt>
      <trkpt lat="45.68772" lon="4.71257">
        <ele>300.68307</ele>
        <time>2015-01-04T12:57:27Z</time>
      </trkpt>
      <trkpt lat="45.68772" lon="4.71248">
        <ele>300.68307</ele>
        <time>2015-01-04T12:57:32Z</time>
      </trkpt>
      <trkpt lat="45.68771" lon="4.71239">
        <ele>301.37317</ele>
        <time>2015-01-04T12:57:37Z</time>
      </trkpt>
      <trkpt lat="45.6877" lon="4.71235">
        <ele>301.37317</ele>
        <time>2015-01-04T12:57:42Z</time>
      </trkpt>
      <trkpt lat="45.68768" lon="4.71226">
        <ele>302.1766</ele>
        <time>2015-01-04T12:57:47Z</time>
      </trkpt>
      <trkpt lat="45.68765" lon="4.71215">
        <ele>302.1766</ele>
        <time>2015-01-04T12:57:52Z</time>
      </trkpt>
      <trkpt lat="45.68764" lon="4.71206">
        <ele>302.9968</ele>
        <time>2015-01-04T12:57:57Z</time>
      </trkpt>
      <trkpt lat="45.68763" lon="4.71198">
        <ele>302.9968</ele>
        <time>2015-01-04T12:58:02Z</time>
      </trkpt>
      <trkpt lat="45.6876" lon="4.7119">
        <ele>303.845</ele>
        <time>2015-01-04T12:58:07Z</time>
      </trkpt>
      <trkpt lat="45.68758" lon="4.71181">
        <ele>303.845</ele>
        <time>2015-01-04T12:58:12Z</time>
      </trkpt>
      <trkpt lat="45.68756" lon="4.71174">
        <ele>304.67407</ele>
        <time>2015-01-04T12:58:17Z</time>
      </trkpt>
      <trkpt lat="45.68754" lon="4.71167">
        <ele>304.67407</ele>
        <time>2015-01-04T12:58:22Z</time>
      </trkpt>
      <trkpt lat="45.68751" lon="4.71161">
        <ele>305.58438</ele>
        <time>2015-01-04T12:58:27Z</time>
      </trkpt>
      <trkpt lat="45.68747" lon="4.71153">
        <ele>305.58438</ele>
        <time>2015-01-04T12:58:32Z</time>
      </trkpt>
      <trkpt lat="45.68744" lon="4.71144">
        <ele>306.4238</ele>
        <time>2015-01-04T12:58:37Z</time>
      </trkpt>
      <trkpt lat="45.68743" lon="4.71137">
        <ele>306.4238</ele>
        <time>2015-01-04T12:58:42Z</time>
      </trkpt>
      <trkpt lat="45.68742" lon="4.71129">
        <ele>307.19565</ele>
        <time>2015-01-04T12:58:47Z</time>
      </trkpt>
      <trkpt lat="45.68739" lon="4.71123">
        <ele>307.19565</ele>
        <time>2015-01-04T12:58:52Z</time>
      </trkpt>
      <trkpt lat="45.68736" lon="4.71114">
        <ele>307.98972</ele>
        <time>2015-01-04T12:58:57Z</time>
      </trkpt>
      <trkpt lat="45.68735" lon="4.71106">
        <ele>307.98972</ele>
        <time>2015-01-04T12:59:02Z</time>
      </trkpt>
      <trkpt lat="45.68734" lon="4.71098">
        <ele>308.77386</ele>
        <time>2015-01-04T12:59:07Z</time>
      </trkpt>
      <trkpt lat="45.68732" lon="4.7109">
        <ele>308.77386</ele>
        <time>2015-01-04T12:59:12Z</time>
      </trkpt>
      <trkpt lat="45.6873" lon="4.71083">
        <ele>309.5328</ele>
        <time>2015-01-04T12:59:17Z</time>
      </trkpt>
      <trkpt lat="45.68728" lon="4.71073">
        <ele>309.5328</ele>
        <time>2015-01-04T12:59:22Z</time>
      </trkpt>
      <trkpt lat="45.68725" lon="4.71063">
        <ele>310.42535</ele>
        <time>2015-01-04T12:59:27Z</time>
      </trkpt>
      <trkpt lat="45.68721" lon="4.71053">
        <ele>310.42535</ele>
        <time>2015-01-04T12:59:32Z</time>
      </trkpt>
      <trkpt lat="45.68718" lon="4.71046">
        <ele>311.339</ele>
        <time>2015-01-04T12:59:37Z</time>
      </trkpt>
      <trkpt lat="45.68717" lon="4.71036">
        <ele>311.339</ele>
        <time>2015-01-04T12:59:42Z</time>
      </trkpt>
      <trkpt lat="45.68714" lon="4.71028">
        <ele>312.31348</ele>
        <time>2015-01-04T12:59:47Z</time>
      </trkpt>
      <trkpt lat="45.68711" lon="4.7102">
        <ele>312.31348</ele>
        <time>2015-01-04T12:59:52Z</time>
      </trkpt>
      <trkpt lat="45.68708" lon="4.71011">
        <ele>313.31357</ele>
        <time>2015-01-04T12:59:57Z</time>
      </trkpt>
      <trkpt lat="45.68709" lon="4.71003">
        <ele>313.31357</ele>
        <time>2015-01-04T13:00:02Z</time>
      </trkpt>
      <trkpt lat="45.68709" lon="4.70995">
        <ele>314.4506</ele>
        <time>2015-01-04T13:00:07Z</time>
      </trkpt>
      <trkpt lat="45.68709" lon="4.70987">
        <ele>314.4506</ele>
        <time>2015-01-04T13:00:12Z</time>
      </trkpt>
      <trkpt lat="45.6871" lon="4.70978">
        <ele>315.66885</ele>
        <time>2015-01-04T13:00:17Z</time>
      </trkpt>
      <trkpt lat="45.68712" lon="4.70969">
        <ele>315.66885</ele>
        <time>2015-01-04T13:00:22Z</time>
      </trkpt>
      <trkpt lat="45.68713" lon="4.7096">
        <ele>316.88785</ele>
        <time>2015-01-04T13:00:27Z</time>
      </trkpt>
      <trkpt lat="45.68713" lon="4.70956">
        <ele>316.88785</ele>
        <time>2015-01-04T13:00:32Z</time>
      </trkpt>
      <trkpt lat="45.68717" lon="4.70949">
        <ele>318.0185</ele>
        <time>2015-01-04T13:00:37Z</time>
      </trkpt>
      <trkpt lat="45.68723" lon="4.70944">
        <ele>318.0185</ele>
        <time>2015-01-04T13:00:42Z</time>
      </trkpt>
      <trkpt lat="45.68728" lon="4.7094">
        <ele>319.0363</ele>
        <time>2015-01-04T13:00:47Z</time>
      </trkpt>
      <trkpt lat="45.68728" lon="4.7094">
        <ele>319.0363</ele>
        <time>2015-01-04T13:00:52Z</time>
      </trkpt>
      <trkpt lat="45.68727" lon="4.7094">
        <ele>319.0363</ele>
        <time>2015-01-04T13:00:57Z</time>
      </trkpt>
      <trkpt lat="45.68727" lon="4.70939">
        <ele>319.0363</ele>
        <time>2015-01-04T13:01:02Z</time>
      </trkpt>
      <trkpt lat="45.68726" lon="4.70937">
        <ele>319.0363</ele>
        <time>2015-01-04T13:01:07Z</time>
      </trkpt>
      <trkpt lat="45.68726" lon="4.70937">
        <ele>319.0363</ele>
        <time>2015-01-04T13:01:12Z</time>
      </trkpt>
      <trkpt lat="45.68726" lon="4.70937">
        <ele>319.0363</ele>
        <time>2015-01-04T13:01:17Z</time>
      </trkpt>
      <trkpt lat="45.68725" lon="4.70938">
        <ele>319.0363</ele>
        <time>2015-01-04T13:01:22Z</time>
      </trkpt>
      <trkpt lat="45.68725" lon="4.70939">
        <ele>319.0363</ele>
        <time>2015-01-04T13:01:27Z</time>
      </trkpt>
      <trkpt lat="45.68724" lon="4.70938">
        <ele>319.0363</ele>
        <time>2015-01-04T13:01:32Z</time>
      </trkpt>
      <trkpt lat="45.68718" lon="4.70942">
        <ele>319.8468</ele>
        <time>2015-01-04T13:01:37Z</time>
      </trkpt>
      <trkpt lat="45.68715" lon="4.70944">
        <ele>319.8468</ele>
        <time>2015-01-04T13:01:42Z</time>
      </trkpt>
      <trkpt lat="45.68709" lon="4.70941">
        <ele>320.5938</ele>
        <time>2015-01-04T13:01:47Z</time>
      </trkpt>
      <trkpt lat="45.68704" lon="4.70937">
        <ele>320.5938</ele>
        <time>2015-01-04T13:01:52Z</time>
      </trkpt>
      <trkpt lat="45.687" lon="4.70933">
        <ele>321.281</ele>
        <time>2015-01-04T13:01:57Z</time>
      </trkpt>
      <trkpt lat="45.68696" lon="4.70929">
        <ele>321.281</ele>
        <time>2015-01-04T13:02:02Z</time>
      </trkpt>
      <trkpt lat="45.68691" lon="4.70924">
        <ele>321.9409</ele>
        <time>2015-01-04T13:02:07Z</time>
      </trkpt>
      <trkpt lat="45.68685" lon="4.70921">
        <ele>321.9409</ele>
        <time>2015-01-04T13:02:12Z</time>
      </trkpt>
      <trkpt lat="45.68679" lon="4.70918">
        <ele>322.5749</ele>
        <time>2015-01-04T13:02:17Z</time>
      </trkpt>
      <trkpt lat="45.68675" lon="4.70913">
        <ele>322.5749</ele>
        <time>2015-01-04T13:02:22Z</time>
      </trkpt>
      <trkpt lat="45.68669" lon="4.70909">
        <ele>323.18445</ele>
        <time>2015-01-04T13:02:27Z</time>
      </trkpt>
      <trkpt lat="45.68665" lon="4.70905">
        <ele>323.18445</ele>
        <time>2015-01-04T13:02:32Z</time>
      </trkpt>
      <trkpt lat="45.68658" lon="4.70897">
        <ele>323.6845</ele>
        <time>2015-01-04T13:02:37Z</time>
      </trkpt>
      <trkpt lat="45.68651" lon="4.70893">
        <ele>323.6845</ele>
        <time>2015-01-04T13:02:42Z</time>
      </trkpt>
      <trkpt lat="45.68646" lon="4.70888">
        <ele>324.12643</ele>
        <time>2015-01-04T13:02:47Z</time>
      </trkpt>
      <trkpt lat="45.6864" lon="4.70881">
        <ele>324.12643</ele>
        <time>2015-01-04T13:02:52Z</time>
      </trkpt>
      <trkpt lat="45.68634" lon="4.70874">
        <ele>324.48584</ele>
        <time>2015-01-04T13:02:57Z</time>
      </trkpt>
      <trkpt lat="45.6863" lon="4.7087">
        <ele>324.48584</ele>
        <time>2015-01-04T13:03:02Z</time>
      </trkpt>
      <trkpt lat="45.68623" lon="4.70864">
        <ele>324.72607</ele>
        <time>2015-01-04T13:03:07Z</time>
      </trkpt>
      <trkpt lat="45.68618" lon="4.7086">
        <ele>324.72607</ele>
        <time>2015-01-04T13:03:12Z</time>
      </trkpt>
      <trkpt lat="45.68611" lon="4.70855">
        <ele>324.91437</ele>
        <time>2015-01-04T13:03:17Z</time>
      </trkpt>
      <trkpt lat="45.68606" lon="4.7085">
        <ele>324.91437</ele>
        <time>2015-01-04T13:03:22Z</time>
      </trkpt>
      <trkpt lat="45.68601" lon="4.70845">
        <ele>325.11325</ele>
        <time>2015-01-04T13:03:27Z</time>
      </trkpt>
      <trkpt lat="45.68596" lon="4.70839">
        <ele>325.11325</ele>
        <time>2015-01-04T13:03:32Z</time>
      </trkpt>
      <trkpt lat="45.6859" lon="4.70832">
        <ele>325.2941</ele>
        <time>2015-01-04T13:03:37Z</time>
      </trkpt>
      <trkpt lat="45.68585" lon="4.70827">
        <ele>325.2941</ele>
        <time>2015-01-04T13:03:42Z</time>
      </trkpt>
      <trkpt lat="45.6858" lon="4.70823">
        <ele>325.44498</ele>
        <time>2015-01-04T13:03:47Z</time>
      </trkpt>
      <trkpt lat="45.68575" lon="4.70818">
        <ele>325.44498</ele>
        <time>2015-01-04T13:03:52Z</time>
      </trkpt>
      <trkpt lat="45.68571" lon="4.70813">
        <ele>325.4972</ele>
        <time>2015-01-04T13:03:57Z</time>
      </trkpt>
      <trkpt lat="45.68567" lon="4.70808">
        <ele>325.4972</ele>
        <time>2015-01-04T13:04:02Z</time>
      </trkpt>
      <trkpt lat="45.68563" lon="4.70802">
        <ele>325.546</ele>
        <time>2015-01-04T13:04:07Z</time>
      </trkpt>
      <trkpt lat="45.68558" lon="4.70796">
        <ele>325.546</ele>
        <time>2015-01-04T13:04:12Z</time>
      </trkpt>
      <trkpt lat="45.68553" lon="4.7079">
        <ele>325.67957</ele>
        <time>2015-01-04T13:04:17Z</time>
      </trkpt>
      <trkpt lat="45.68549" lon="4.70783">
        <ele>325.67957</ele>
        <time>2015-01-04T13:04:22Z</time>
      </trkpt>
      <trkpt lat="45.68547" lon="4.70779">
        <ele>325.8209</ele>
        <time>2015-01-04T13:04:27Z</time>
      </trkpt>
      <trkpt lat="45.68543" lon="4.70773">
        <ele>325.8209</ele>
        <time>2015-01-04T13:04:32Z</time>
      </trkpt>
      <trkpt lat="45.68536" lon="4.70764">
        <ele>325.99945</ele>
        <time>2015-01-04T13:04:37Z</time>
      </trkpt>
      <trkpt lat="45.68531" lon="4.70758">
        <ele>325.99945</ele>
        <time>2015-01-04T13:04:42Z</time>
      </trkpt>
      <trkpt lat="45.68528" lon="4.70752">
        <ele>326.2281</ele>
        <time>2015-01-04T13:04:47Z</time>
      </trkpt>
      <trkpt lat="45.68524" lon="4.70746">
        <ele>326.2281</ele>
        <time>2015-01-04T13:04:52Z</time>
      </trkpt>
      <trkpt lat="45.68518" lon="4.70738">
        <ele>326.60495</ele>
        <time>2015-01-04T13:04:57Z</time>
      </trkpt>
      <trkpt lat="45.68514" lon="4.70734">
        <ele>326.60495</ele>
        <time>2015-01-04T13:05:02Z</time>
      </trkpt>
      <trkpt lat="45.68511" lon="4.7073">
        <ele>327.03323</ele>
        <time>2015-01-04T13:05:07Z</time>
      </trkpt>
      <trkpt lat="45.68507" lon="4.70723">
        <ele>327.03323</ele>
        <time>2015-01-04T13:05:12Z</time>
      </trkpt>
      <trkpt lat="45.68503" lon="4.70716">
        <ele>327.49515</ele>
        <time>2015-01-04T13:05:17Z</time>
      </trkpt>
      <trkpt lat="45.68498" lon="4.70712">
        <ele>327.49515</ele>
        <time>2015-01-04T13:05:22Z</time>
      </trkpt>
      <trkpt lat="45.68495" lon="4.70707">
        <ele>328.0029</ele>
        <time>2015-01-04T13:05:27Z</time>
      </trkpt>
      <trkpt lat="45.6849" lon="4.70701">
        <ele>328.0029</ele>
        <time>2015-01-04T13:05:32Z</time>
      </trkpt>
      <trkpt lat="45.68483" lon="4.70694">
        <ele>328.56772</ele>
        <time>2015-01-04T13:05:37Z</time>
      </trkpt>
      <trkpt lat="45.68478" lon="4.70688">
        <ele>328.56772</ele>
        <time>2015-01-04T13:05:42Z</time>
      </trkpt>
      <trkpt lat="45.68474" lon="4.70682">
        <ele>329.14212</ele>
        <time>2015-01-04T13:05:47Z</time>
      </trkpt>
      <trkpt lat="45.68471" lon="4.70675">
        <ele>329.14212</ele>
        <time>2015-01-04T13:05:52Z</time>
      </trkpt>
      <trkpt lat="45.68467" lon="4.70665">
        <ele>329.7686</ele>
        <time>2015-01-04T13:05:57Z</time>
      </trkpt>
      <trkpt lat="45.68464" lon="4.70656">
        <ele>329.7686</ele>
        <time>2015-01-04T13:06:02Z</time>
      </trkpt>
      <trkpt lat="45.68461" lon="4.7065">
        <ele>330.5295</ele>
        <time>2015-01-04T13:06:07Z</time>
      </trkpt>
      <trkpt lat="45.68459" lon="4.70644">
        <ele>330.5295</ele>
        <time>2015-01-04T13:06:12Z</time>
      </trkpt>
      <trkpt lat="45.68459" lon="4.70642">
        <ele>330.5295</ele>
        <time>2015-01-04T13:06:17Z</time>
      </trkpt>
      <trkpt lat="45.68457" lon="4.70638">
        <ele>331.37122</ele>
        <time>2015-01-04T13:06:22Z</time>
      </trkpt>
      <trkpt lat="45.68457" lon="4.70638">
        <ele>331.37122</ele>
        <time>2015-01-04T13:06:27Z</time>
      </trkpt>
      <trkpt lat="45.68456" lon="4.70638">
        <ele>331.37122</ele>
        <time>2015-01-04T13:06:32Z</time>
      </trkpt>
      <trkpt lat="45.68457" lon="4.70639">
        <ele>331.37122</ele>
        <time>2015-01-04T13:06:37Z</time>
      </trkpt>
      <trkpt lat="45.68458" lon="4.70639">
        <ele>331.37122</ele>
        <time>2015-01-04T13:06:42Z</time>
      </trkpt>
      <trkpt lat="45.68458" lon="4.7064">
        <ele>331.37122</ele>
        <time>2015-01-04T13:06:47Z</time>
      </trkpt>
      <trkpt lat="45.68458" lon="4.70638">
        <ele>331.37122</ele>
        <time>2015-01-04T13:06:52Z</time>
      </trkpt>
      <trkpt lat="45.68458" lon="4.70637">
        <ele>331.37122</ele>
        <time>2015-01-04T13:06:57Z</time>
      </trkpt>
      <trkpt lat="45.68458" lon="4.70636">
        <ele>331.37122</ele>
        <time>2015-01-04T13:07:02Z</time>
      </trkpt>
      <trkpt lat="45.68458" lon="4.70636">
        <ele>331.37122</ele>
        <time>2015-01-04T13:07:07Z</time>
      </trkpt>
      <trkpt lat="45.68458" lon="4.70635">
        <ele>331.37122</ele>
        <time>2015-01-04T13:07:12Z</time>
      </trkpt>
      <trkpt lat="45.68458" lon="4.70635">
        <ele>331.37122</ele>
        <time>2015-01-04T13:07:17Z</time>
      </trkpt>
      <trkpt lat="45.68458" lon="4.70635">
        <ele>331.37122</ele>
        <time>2015-01-04T13:07:22Z</time>
      </trkpt>
      <trkpt lat="45.68457" lon="4.70635">
        <ele>331.37122</ele>
        <time>2015-01-04T13:07:27Z</time>
      </trkpt>
      <trkpt lat="45.68457" lon="4.70635">
        <ele>331.37122</ele>
        <time>2015-01-04T13:07:32Z</time>
      </trkpt>
      <trkpt lat="45.68457" lon="4.70635">
        <ele>331.37122</ele>
        <time>2015-01-04T13:07:37Z</time>
      </trkpt>
      <trkpt lat="45.68459" lon="4.7063">
        <ele>332.5463</ele>
        <time>2015-01-04T13:07:42Z</time>
      </trkpt>
      <trkpt lat="45.6846" lon="4.70624">
        <ele>332.5463</ele>
        <time>2015-01-04T13:07:47Z</time>
      </trkpt>
      <trkpt lat="45.68461" lon="4.70621">
        <ele>332.5463</ele>
        <time>2015-01-04T13:07:52Z</time>
      </trkpt>
      <trkpt lat="45.68461" lon="4.70615">
        <ele>333.82672</ele>
        <time>2015-01-04T13:07:57Z</time>
      </trkpt>
      <trkpt lat="45.6846" lon="4.70606">
        <ele>333.82672</ele>
        <time>2015-01-04T13:08:02Z</time>
      </trkpt>
      <trkpt lat="45.68459" lon="4.70598">
        <ele>335.0586</ele>
        <time>2015-01-04T13:08:07Z</time>
      </trkpt>
      <trkpt lat="45.6846" lon="4.70589">
        <ele>335.0586</ele>
        <time>2015-01-04T13:08:12Z</time>
      </trkpt>
      <trkpt lat="45.68462" lon="4.7058">
        <ele>336.22916</ele>
        <time>2015-01-04T13:08:17Z</time>
      </trkpt>
      <trkpt lat="45.68462" lon="4.70567">
        <ele>336.22916</ele>
        <time>2015-01-04T13:08:22Z</time>
      </trkpt>
      <trkpt lat="45.68461" lon="4.70559">
        <ele>337.31235</ele>
        <time>2015-01-04T13:08:27Z</time>
      </trkpt>
      <trkpt lat="45.68459" lon="4.70552">
        <ele>337.31235</ele>
        <time>2015-01-04T13:08:32Z</time>
      </trkpt>
      <trkpt lat="45.6846" lon="4.70543">
        <ele>338.26984</ele>
        <time>2015-01-04T13:08:37Z</time>
      </trkpt>
      <trkpt lat="45.68459" lon="4.70535">
        <ele>338.26984</ele>
        <time>2015-01-04T13:08:42Z</time>
      </trkpt>
      <trkpt lat="45.6846" lon="4.70525">
        <ele>339.10977</ele>
        <time>2015-01-04T13:08:47Z</time>
      </trkpt>
      <trkpt lat="45.68461" lon="4.70516">
        <ele>339.10977</ele>
        <time>2015-01-04T13:08:52Z</time>
      </trkpt>
      <trkpt lat="45.68463" lon="4.70506">
        <ele>339.9121</ele>
        <time>2015-01-04T13:08:57Z</time>
      </trkpt>
      <trkpt lat="45.68464" lon="4.70498">
        <ele>339.9121</ele>
        <time>2015-01-04T13:09:02Z</time>
      </trkpt>
      <trkpt lat="45.68465" lon="4.70491">
        <ele>340.69336</ele>
        <time>2015-01-04T13:09:07Z</time>
      </trkpt>
      <trkpt lat="45.68466" lon="4.70485">
        <ele>340.69336</ele>
        <time>2015-01-04T13:09:12Z</time>
      </trkpt>
      <trkpt lat="45.68466" lon="4.70478">
        <ele>341.46896</ele>
        <time>2015-01-04T13:09:17Z</time>
      </trkpt>
      <trkpt lat="45.68466" lon="4.70477">
        <ele>341.46896</ele>
        <time>2015-01-04T13:09:22Z</time>
      </trkpt>
      <trkpt lat="45.68468" lon="4.70475">
        <ele>341.46896</ele>
        <time>2015-01-04T13:09:27Z</time>
      </trkpt>
      <trkpt lat="45.68473" lon="4.70472">
        <ele>341.46896</ele>
        <time>2015-01-04T13:09:32Z</time>
      </trkpt>
      <trkpt lat="45.68477" lon="4.70464">
        <ele>341.97946</ele>
        <time>2015-01-04T13:09:37Z</time>
      </trkpt>
      <trkpt lat="45.6848" lon="4.70457">
        <ele>341.97946</ele>
        <time>2015-01-04T13:09:42Z</time>
      </trkpt>
      <trkpt lat="45.68484" lon="4.70447">
        <ele>342.3454</ele>
        <time>2015-01-04T13:09:47Z</time>
      </trkpt>
      <trkpt lat="45.68485" lon="4.70439">
        <ele>342.3454</ele>
        <time>2015-01-04T13:09:52Z</time>
      </trkpt>
      <trkpt lat="45.68487" lon="4.70434">
        <ele>342.62134</ele>
        <time>2015-01-04T13:09:57Z</time>
      </trkpt>
      <trkpt lat="45.68487" lon="4.70434">
        <ele>342.62134</ele>
        <time>2015-01-04T13:10:02Z</time>
      </trkpt>
      <trkpt lat="45.68487" lon="4.70433">
        <ele>342.62134</ele>
        <time>2015-01-04T13:10:07Z</time>
      </trkpt>
      <trkpt lat="45.68486" lon="4.70432">
        <ele>342.62134</ele>
        <time>2015-01-04T13:10:12Z</time>
      </trkpt>
      <trkpt lat="45.68485" lon="4.7043">
        <ele>342.62134</ele>
        <time>2015-01-04T13:10:17Z</time>
      </trkpt>
      <trkpt lat="45.68487" lon="4.70423">
        <ele>342.62134</ele>
        <time>2015-01-04T13:10:22Z</time>
      </trkpt>
      <trkpt lat="45.68488" lon="4.70415">
        <ele>342.7716</ele>
        <time>2015-01-04T13:10:27Z</time>
      </trkpt>
      <trkpt lat="45.68489" lon="4.70408">
        <ele>342.7716</ele>
        <time>2015-01-04T13:10:32Z</time>
      </trkpt>
      <trkpt lat="45.68493" lon="4.70397">
        <ele>342.79236</ele>
        <time>2015-01-04T13:10:37Z</time>
      </trkpt>
      <trkpt lat="45.68498" lon="4.70388">
        <ele>342.79236</ele>
        <time>2015-01-04T13:10:42Z</time>
      </trkpt>
      <trkpt lat="45.68501" lon="4.70381">
        <ele>342.76688</ele>
        <time>2015-01-04T13:10:47Z</time>
      </trkpt>
      <trkpt lat="45.68505" lon="4.70373">
        <ele>342.76688</ele>
        <time>2015-01-04T13:10:52Z</time>
      </trkpt>
      <trkpt lat="45.68508" lon="4.70365">
        <ele>342.72913</ele>
        <time>2015-01-04T13:10:57Z</time>
      </trkpt>
      <trkpt lat="45.6851" lon="4.70356">
        <ele>342.72913</ele>
        <time>2015-01-04T13:11:02Z</time>
      </trkpt>
      <trkpt lat="45.68511" lon="4.70348">
        <ele>342.65308</ele>
        <time>2015-01-04T13:11:07Z</time>
      </trkpt>
      <trkpt lat="45.68511" lon="4.70342">
        <ele>342.65308</ele>
        <time>2015-01-04T13:11:12Z</time>
      </trkpt>
      <trkpt lat="45.68511" lon="4.70331">
        <ele>342.57233</ele>
        <time>2015-01-04T13:11:17Z</time>
      </trkpt>
      <trkpt lat="45.68512" lon="4.70323">
        <ele>342.57233</ele>
        <time>2015-01-04T13:11:22Z</time>
      </trkpt>
      <trkpt lat="45.68514" lon="4.70316">
        <ele>342.35944</ele>
        <time>2015-01-04T13:11:27Z</time>
      </trkpt>
      <trkpt lat="45.68517" lon="4.7031">
        <ele>342.35944</ele>
        <time>2015-01-04T13:11:32Z</time>
      </trkpt>
      <trkpt lat="45.68518" lon="4.703">
        <ele>342.2138</ele>
        <time>2015-01-04T13:11:37Z</time>
      </trkpt>
      <trkpt lat="45.68519" lon="4.70291">
        <ele>342.2138</ele>
        <time>2015-01-04T13:11:42Z</time>
      </trkpt>
      <trkpt lat="45.68519" lon="4.70282">
        <ele>342.17575</ele>
        <time>2015-01-04T13:11:47Z</time>
      </trkpt>
      <trkpt lat="45.68517" lon="4.70275">
        <ele>342.17575</ele>
        <time>2015-01-04T13:11:52Z</time>
      </trkpt>
      <trkpt lat="45.68516" lon="4.70266">
        <ele>342.2968</ele>
        <time>2015-01-04T13:11:57Z</time>
      </trkpt>
      <trkpt lat="45.68513" lon="4.70259">
        <ele>342.2968</ele>
        <time>2015-01-04T13:12:02Z</time>
      </trkpt>
      <trkpt lat="45.6851" lon="4.7025">
        <ele>342.5954</ele>
        <time>2015-01-04T13:12:07Z</time>
      </trkpt>
      <trkpt lat="45.68507" lon="4.7024">
        <ele>342.5954</ele>
        <time>2015-01-04T13:12:12Z</time>
      </trkpt>
      <trkpt lat="45.68506" lon="4.70232">
        <ele>342.9439</ele>
        <time>2015-01-04T13:12:17Z</time>
      </trkpt>
      <trkpt lat="45.68504" lon="4.70224">
        <ele>342.9439</ele>
        <time>2015-01-04T13:12:22Z</time>
      </trkpt>
      <trkpt lat="45.68503" lon="4.70221">
        <ele>342.9439</ele>
        <time>2015-01-04T13:12:27Z</time>
      </trkpt>
      <trkpt lat="45.685" lon="4.70227">
        <ele>343.48337</ele>
        <time>2015-01-04T13:12:32Z</time>
      </trkpt>
      <trkpt lat="45.68493" lon="4.70232">
        <ele>343.48337</ele>
        <time>2015-01-04T13:12:37Z</time>
      </trkpt>
      <trkpt lat="45.68489" lon="4.70236">
        <ele>343.8539</ele>
        <time>2015-01-04T13:12:42Z</time>
      </trkpt>
      <trkpt lat="45.68487" lon="4.70237">
        <ele>343.8539</ele>
        <time>2015-01-04T13:12:47Z</time>
      </trkpt>
      <trkpt lat="45.68487" lon="4.70237">
        <ele>343.8539</ele>
        <time>2015-01-04T13:12:52Z</time>
      </trkpt>
      <trkpt lat="45.68492" lon="4.70235">
        <ele>343.8539</ele>
        <time>2015-01-04T13:12:57Z</time>
      </trkpt>
      <trkpt lat="45.68493" lon="4.70234">
        <ele>344.01077</ele>
        <time>2015-01-04T13:13:02Z</time>
      </trkpt>
      <trkpt lat="45.68499" lon="4.70232">
        <ele>344.01077</ele>
        <time>2015-01-04T13:13:07Z</time>
      </trkpt>
      <trkpt lat="45.685" lon="4.70227">
        <ele>344.01077</ele>
        <time>2015-01-04T13:13:12Z</time>
      </trkpt>
      <trkpt lat="45.68501" lon="4.70217">
        <ele>344.0859</ele>
        <time>2015-01-04T13:13:17Z</time>
      </trkpt>
      <trkpt lat="45.68501" lon="4.70206">
        <ele>344.0859</ele>
        <time>2015-01-04T13:13:22Z</time>
      </trkpt>
      <trkpt lat="45.68499" lon="4.70198">
        <ele>344.04333</ele>
        <time>2015-01-04T13:13:27Z</time>
      </trkpt>
      <trkpt lat="45.68495" lon="4.70192">
        <ele>344.04333</ele>
        <time>2015-01-04T13:13:32Z</time>
      </trkpt>
      <trkpt lat="45.68494" lon="4.70191">
        <ele>344.04333</ele>
        <time>2015-01-04T13:13:37Z</time>
      </trkpt>
      <trkpt lat="45.68495" lon="4.70192">
        <ele>344.04333</ele>
        <time>2015-01-04T13:13:42Z</time>
      </trkpt>
      <trkpt lat="45.68495" lon="4.70192">
        <ele>344.04333</ele>
        <time>2015-01-04T13:13:47Z</time>
      </trkpt>
      <trkpt lat="45.68495" lon="4.70191">
        <ele>344.04333</ele>
        <time>2015-01-04T13:13:52Z</time>
      </trkpt>
      <trkpt lat="45.68496" lon="4.7019">
        <ele>344.00848</ele>
        <time>2015-01-04T13:13:57Z</time>
      </trkpt>
      <trkpt lat="45.68497" lon="4.7019">
        <ele>344.00848</ele>
        <time>2015-01-04T13:14:02Z</time>
      </trkpt>
      <trkpt lat="45.68497" lon="4.7019">
        <ele>344.00848</ele>
        <time>2015-01-04T13:14:07Z</time>
      </trkpt>
      <trkpt lat="45.68497" lon="4.70191">
        <ele>344.00848</ele>
        <time>2015-01-04T13:14:12Z</time>
      </trkpt>
      <trkpt lat="45.68497" lon="4.70191">
        <ele>344.00848</ele>
        <time>2015-01-04T13:14:17Z</time>
      </trkpt>
      <trkpt lat="45.68498" lon="4.7019">
        <ele>344.00848</ele>
        <time>2015-01-04T13:14:22Z</time>
      </trkpt>
      <trkpt lat="45.68499" lon="4.70191">
        <ele>344.00848</ele>
        <time>2015-01-04T13:14:27Z</time>
      </trkpt>
      <trkpt lat="45.68502" lon="4.70188">
        <ele>344.00848</ele>
        <time>2015-01-04T13:14:32Z</time>
      </trkpt>
      <trkpt lat="45.68504" lon="4.70189">
        <ele>343.92465</ele>
        <time>2015-01-04T13:14:37Z</time>
      </trkpt>
      <trkpt lat="45.68506" lon="4.70192">
        <ele>343.92465</ele>
        <time>2015-01-04T13:14:42Z</time>
      </trkpt>
      <trkpt lat="45.68505" lon="4.70191">
        <ele>343.92465</ele>
        <time>2015-01-04T13:14:47Z</time>
      </trkpt>
      <trkpt lat="45.68506" lon="4.70195">
        <ele>343.92465</ele>
        <time>2015-01-04T13:14:52Z</time>
      </trkpt>
      <trkpt lat="45.68505" lon="4.702">
        <ele>343.66727</ele>
        <time>2015-01-04T13:14:57Z</time>
      </trkpt>
      <trkpt lat="45.68506" lon="4.70213">
        <ele>343.43845</ele>
        <time>2015-01-04T13:15:02Z</time>
      </trkpt>
      <trkpt lat="45.68507" lon="4.70222">
        <ele>343.43845</ele>
        <time>2015-01-04T13:15:07Z</time>
      </trkpt>
      <trkpt lat="45.68503" lon="4.70227">
        <ele>343.19473</ele>
        <time>2015-01-04T13:15:12Z</time>
      </trkpt>
      <trkpt lat="45.68499" lon="4.70225">
        <ele>343.19473</ele>
        <time>2015-01-04T13:15:17Z</time>
      </trkpt>
      <trkpt lat="45.68499" lon="4.70224">
        <ele>343.19473</ele>
        <time>2015-01-04T13:15:22Z</time>
      </trkpt>
      <trkpt lat="45.68499" lon="4.70224">
        <ele>343.19473</ele>
        <time>2015-01-04T13:15:27Z</time>
      </trkpt>
      <trkpt lat="45.685" lon="4.70223">
        <ele>343.19473</ele>
        <time>2015-01-04T13:15:32Z</time>
      </trkpt>
      <trkpt lat="45.68499" lon="4.70223">
        <ele>343.19473</ele>
        <time>2015-01-04T13:15:37Z</time>
      </trkpt>
      <trkpt lat="45.68497" lon="4.7022">
        <ele>342.57886</ele>
        <time>2015-01-04T13:15:42Z</time>
      </trkpt>
      <trkpt lat="45.68495" lon="4.70218">
        <ele>342.57886</ele>
        <time>2015-01-04T13:15:47Z</time>
      </trkpt>
      <trkpt lat="45.68495" lon="4.70218">
        <ele>342.57886</ele>
        <time>2015-01-04T13:15:52Z</time>
      </trkpt>
      <trkpt lat="45.68496" lon="4.70217">
        <ele>342.57886</ele>
        <time>2015-01-04T13:16:02Z</time>
      </trkpt>
      <trkpt lat="45.68496" lon="4.70216">
        <ele>342.57886</ele>
        <time>2015-01-04T13:16:17Z</time>
      </trkpt>
      <trkpt lat="45.68495" lon="4.70212">
        <ele>342.57886</ele>
        <time>2015-01-04T13:16:27Z</time>
      </trkpt>
      <trkpt lat="45.68495" lon="4.70212">
        <ele>342.57886</ele>
        <time>2015-01-04T13:16:32Z</time>
      </trkpt>
      <trkpt lat="45.68495" lon="4.70212">
        <ele>342.57886</ele>
        <time>2015-01-04T13:16:37Z</time>
      </trkpt>
      <trkpt lat="45.68496" lon="4.70214">
        <ele>342.26956</ele>
        <time>2015-01-04T13:16:42Z</time>
      </trkpt>
      <trkpt lat="45.68496" lon="4.70217">
        <ele>342.26956</ele>
        <time>2015-01-04T13:16:47Z</time>
      </trkpt>
      <trkpt lat="45.68494" lon="4.70217">
        <ele>342.26956</ele>
        <time>2015-01-04T13:16:52Z</time>
      </trkpt>
      <trkpt lat="45.68494" lon="4.70216">
        <ele>342.26956</ele>
        <time>2015-01-04T13:16:57Z</time>
      </trkpt>
      <trkpt lat="45.68493" lon="4.70217">
        <ele>342.26956</ele>
        <time>2015-01-04T13:17:02Z</time>
      </trkpt>
      <trkpt lat="45.68493" lon="4.70218">
        <ele>342.26956</ele>
        <time>2015-01-04T13:17:07Z</time>
      </trkpt>
      <trkpt lat="45.68492" lon="4.70217">
        <ele>342.26956</ele>
        <time>2015-01-04T13:17:12Z</time>
      </trkpt>
      <trkpt lat="45.68492" lon="4.70217">
        <ele>342.26956</ele>
        <time>2015-01-04T13:17:17Z</time>
      </trkpt>
      <trkpt lat="45.68492" lon="4.70217">
        <ele>342.26956</ele>
        <time>2015-01-04T13:17:22Z</time>
      </trkpt>
      <trkpt lat="45.68492" lon="4.70216">
        <ele>342.26956</ele>
        <time>2015-01-04T13:18:02Z</time>
      </trkpt>
      <trkpt lat="45.68493" lon="4.70216">
        <ele>342.26956</ele>
        <time>2015-01-04T13:18:07Z</time>
      </trkpt>
      <trkpt lat="45.68494" lon="4.70215">
        <ele>342.23184</ele>
        <time>2015-01-04T13:18:12Z</time>
      </trkpt>
      <trkpt lat="45.68494" lon="4.70214">
        <ele>342.23184</ele>
        <time>2015-01-04T13:18:17Z</time>
      </trkpt>
      <trkpt lat="45.68494" lon="4.70214">
        <ele>342.23184</ele>
        <time>2015-01-04T13:18:22Z</time>
      </trkpt>
      <trkpt lat="45.68494" lon="4.70214">
        <ele>342.23184</ele>
        <time>2015-01-04T13:18:27Z</time>
      </trkpt>
      <trkpt lat="45.68494" lon="4.70214">
        <ele>342.23184</ele>
        <time>2015-01-04T13:18:32Z</time>
      </trkpt>
      <trkpt lat="45.68494" lon="4.70214">
        <ele>342.23184</ele>
        <time>2015-01-04T13:18:37Z</time>
      </trkpt>
      <trkpt lat="45.68495" lon="4.70215">
        <ele>342.23184</ele>
        <time>2015-01-04T13:18:42Z</time>
      </trkpt>
      <trkpt lat="45.68495" lon="4.70215">
        <ele>342.23184</ele>
        <time>2015-01-04T13:18:47Z</time>
      </trkpt>
      <trkpt lat="45.68495" lon="4.70215">
        <ele>342.23184</ele>
        <time>2015-01-04T13:18:52Z</time>
      </trkpt>
      <trkpt lat="45.68396" lon="4.70008">
        <ele>418.49252</ele>
        <time>2015-01-04T14:13:39Z</time>
      </trkpt>
      <trkpt lat="45.68442" lon="4.70005">
        <ele>367.55692</ele>
        <time>2015-01-04T14:13:44Z</time>
      </trkpt>
      <trkpt lat="45.68434" lon="4.69997">
        <ele>353.78403</ele>
        <time>2015-01-04T14:13:54Z</time>
      </trkpt>
      <trkpt lat="45.68433" lon="4.69999">
        <ele>353.78403</ele>
        <time>2015-01-04T14:14:09Z</time>
      </trkpt>
      <trkpt lat="45.68434" lon="4.69998">
        <ele>353.78403</ele>
        <time>2015-01-04T14:14:14Z</time>
      </trkpt>
      <trkpt lat="45.68434" lon="4.69998">
        <ele>353.78403</ele>
        <time>2015-01-04T14:14:19Z</time>
      </trkpt>
      <trkpt lat="45.68433" lon="4.69998">
        <ele>353.78403</ele>
        <time>2015-01-04T14:14:24Z</time>
      </trkpt>
      <trkpt lat="45.68427" lon="4.7">
        <ele>349.8843</ele>
        <time>2015-01-04T14:14:29Z</time>
      </trkpt>
      <trkpt lat="45.68424" lon="4.70001">
        <ele>349.8843</ele>
        <time>2015-01-04T14:14:34Z</time>
      </trkpt>
      <trkpt lat="45.68424" lon="4.70001">
        <ele>349.8843</ele>
        <time>2015-01-04T14:14:39Z</time>
      </trkpt>
      <trkpt lat="45.68425" lon="4.7">
        <ele>349.8843</ele>
        <time>2015-01-04T14:14:44Z</time>
      </trkpt>
      <trkpt lat="45.68423" lon="4.7">
        <ele>349.8843</ele>
        <time>2015-01-04T14:14:49Z</time>
      </trkpt>
      <trkpt lat="45.68423" lon="4.69999">
        <ele>349.8843</ele>
        <time>2015-01-04T14:14:54Z</time>
      </trkpt>
      <trkpt lat="45.68422" lon="4.69999">
        <ele>348.66147</ele>
        <time>2015-01-04T14:14:59Z</time>
      </trkpt>
      <trkpt lat="45.68422" lon="4.69998">
        <ele>348.66147</ele>
        <time>2015-01-04T14:15:04Z</time>
      </trkpt>
      <trkpt lat="45.68423" lon="4.69997">
        <ele>348.66147</ele>
        <time>2015-01-04T14:15:09Z</time>
      </trkpt>
      <trkpt lat="45.68424" lon="4.69996">
        <ele>348.66147</ele>
        <time>2015-01-04T14:15:14Z</time>
      </trkpt>
      <trkpt lat="45.68425" lon="4.69996">
        <ele>348.66147</ele>
        <time>2015-01-04T14:15:19Z</time>
      </trkpt>
      <trkpt lat="45.68419" lon="4.69993">
        <ele>349.42487</ele>
        <time>2015-01-04T14:15:24Z</time>
      </trkpt>
      <trkpt lat="45.68415" lon="4.69991">
        <ele>349.42487</ele>
        <time>2015-01-04T14:15:29Z</time>
      </trkpt>
      <trkpt lat="45.68411" lon="4.69988">
        <ele>349.42487</ele>
        <time>2015-01-04T14:15:34Z</time>
      </trkpt>
      <trkpt lat="45.68406" lon="4.69985">
        <ele>350.66043</ele>
        <time>2015-01-04T14:15:39Z</time>
      </trkpt>
      <trkpt lat="45.68401" lon="4.69984">
        <ele>350.66043</ele>
        <time>2015-01-04T14:15:44Z</time>
      </trkpt>
      <trkpt lat="45.68397" lon="4.69978">
        <ele>352.08032</ele>
        <time>2015-01-04T14:15:49Z</time>
      </trkpt>
      <trkpt lat="45.6839" lon="4.69976">
        <ele>352.08032</ele>
        <time>2015-01-04T14:15:54Z</time>
      </trkpt>
      <trkpt lat="45.68383" lon="4.69971">
        <ele>353.547</ele>
        <time>2015-01-04T14:15:59Z</time>
      </trkpt>
      <trkpt lat="45.68379" lon="4.69968">
        <ele>353.547</ele>
        <time>2015-01-04T14:16:04Z</time>
      </trkpt>
      <trkpt lat="45.68375" lon="4.69967">
        <ele>353.547</ele>
        <time>2015-01-04T14:16:09Z</time>
      </trkpt>
      <trkpt lat="45.6837" lon="4.69967">
        <ele>355.15833</ele>
        <time>2015-01-04T14:16:14Z</time>
      </trkpt>
      <trkpt lat="45.68364" lon="4.69968">
        <ele>355.15833</ele>
        <time>2015-01-04T14:16:19Z</time>
      </trkpt>
      <trkpt lat="45.68359" lon="4.69966">
        <ele>356.57434</ele>
        <time>2015-01-04T14:16:24Z</time>
      </trkpt>
      <trkpt lat="45.68354" lon="4.69964">
        <ele>356.57434</ele>
        <time>2015-01-04T14:16:29Z</time>
      </trkpt>
      <trkpt lat="45.6835" lon="4.69962">
        <ele>357.64655</ele>
        <time>2015-01-04T14:16:34Z</time>
      </trkpt>
      <trkpt lat="45.68347" lon="4.69962">
        <ele>357.64655</ele>
        <time>2015-01-04T14:16:39Z</time>
      </trkpt>
      <trkpt lat="45.68343" lon="4.6996">
        <ele>357.64655</ele>
        <time>2015-01-04T14:16:44Z</time>
      </trkpt>
      <trkpt lat="45.68339" lon="4.69955">
        <ele>358.07996</ele>
        <time>2015-01-04T14:16:49Z</time>
      </trkpt>
      <trkpt lat="45.68333" lon="4.69948">
        <ele>358.07996</ele>
        <time>2015-01-04T14:16:54Z</time>
      </trkpt>
      <trkpt lat="45.68328" lon="4.69946">
        <ele>358.54843</ele>
        <time>2015-01-04T14:16:59Z</time>
      </trkpt>
      <trkpt lat="45.68322" lon="4.69938">
        <ele>358.54843</ele>
        <time>2015-01-04T14:17:04Z</time>
      </trkpt>
      <trkpt lat="45.68323" lon="4.69927">
        <ele>359.036</ele>
        <time>2015-01-04T14:17:09Z</time>
      </trkpt>
      <trkpt lat="45.6832" lon="4.69924">
        <ele>359.036</ele>
        <time>2015-01-04T14:17:14Z</time>
      </trkpt>
      <trkpt lat="45.68316" lon="4.69917">
        <ele>359.47638</ele>
        <time>2015-01-04T14:17:19Z</time>
      </trkpt>
      <trkpt lat="45.68311" lon="4.69911">
        <ele>359.47638</ele>
        <time>2015-01-04T14:17:24Z</time>
      </trkpt>
      <trkpt lat="45.68308" lon="4.69904">
        <ele>359.7757</ele>
        <time>2015-01-04T14:17:29Z</time>
      </trkpt>
      <trkpt lat="45.68301" lon="4.69896">
        <ele>359.7757</ele>
        <time>2015-01-04T14:17:34Z</time>
      </trkpt>
      <trkpt lat="45.68297" lon="4.69892">
        <ele>360.02737</ele>
        <time>2015-01-04T14:17:39Z</time>
      </trkpt>
      <trkpt lat="45.68289" lon="4.69882">
        <ele>360.24796</ele>
        <time>2015-01-04T14:17:44Z</time>
      </trkpt>
      <trkpt lat="45.68282" lon="4.69876">
        <ele>360.24796</ele>
        <time>2015-01-04T14:17:49Z</time>
      </trkpt>
      <trkpt lat="45.68279" lon="4.69872">
        <ele>360.37134</ele>
        <time>2015-01-04T14:17:54Z</time>
      </trkpt>
      <trkpt lat="45.68274" lon="4.69867">
        <ele>360.37134</ele>
        <time>2015-01-04T14:17:59Z</time>
      </trkpt>
      <trkpt lat="45.68269" lon="4.6986">
        <ele>360.4466</ele>
        <time>2015-01-04T14:18:04Z</time>
      </trkpt>
      <trkpt lat="45.68266" lon="4.69857">
        <ele>360.4466</ele>
        <time>2015-01-04T14:18:09Z</time>
      </trkpt>
      <trkpt lat="45.6826" lon="4.69855">
        <ele>360.591</ele>
        <time>2015-01-04T14:18:14Z</time>
      </trkpt>
      <trkpt lat="45.68255" lon="4.69851">
        <ele>360.591</ele>
        <time>2015-01-04T14:18:19Z</time>
      </trkpt>
      <trkpt lat="45.6825" lon="4.69845">
        <ele>360.80005</ele>
        <time>2015-01-04T14:18:24Z</time>
      </trkpt>
      <trkpt lat="45.68244" lon="4.69841">
        <ele>360.80005</ele>
        <time>2015-01-04T14:18:29Z</time>
      </trkpt>
      <trkpt lat="45.68239" lon="4.69835">
        <ele>361.06845</ele>
        <time>2015-01-04T14:18:34Z</time>
      </trkpt>
      <trkpt lat="45.68234" lon="4.69831">
        <ele>361.06845</ele>
        <time>2015-01-04T14:18:39Z</time>
      </trkpt>
      <trkpt lat="45.68229" lon="4.69827">
        <ele>361.3032</ele>
        <time>2015-01-04T14:18:44Z</time>
      </trkpt>
      <trkpt lat="45.68222" lon="4.6982">
        <ele>361.3032</ele>
        <time>2015-01-04T14:18:49Z</time>
      </trkpt>
      <trkpt lat="45.68216" lon="4.69817">
        <ele>361.49353</ele>
        <time>2015-01-04T14:18:54Z</time>
      </trkpt>
      <trkpt lat="45.68211" lon="4.69813">
        <ele>361.49353</ele>
        <time>2015-01-04T14:18:59Z</time>
      </trkpt>
      <trkpt lat="45.68206" lon="4.69808">
        <ele>361.7433</ele>
        <time>2015-01-04T14:19:04Z</time>
      </trkpt>
      <trkpt lat="45.68199" lon="4.69804">
        <ele>361.7433</ele>
        <time>2015-01-04T14:19:09Z</time>
      </trkpt>
      <trkpt lat="45.68194" lon="4.69801">
        <ele>362.04593</ele>
        <time>2015-01-04T14:19:14Z</time>
      </trkpt>
      <trkpt lat="45.68189" lon="4.69795">
        <ele>362.04593</ele>
        <time>2015-01-04T14:19:19Z</time>
      </trkpt>
      <trkpt lat="45.68182" lon="4.69791">
        <ele>362.26944</ele>
        <time>2015-01-04T14:19:24Z</time>
      </trkpt>
      <trkpt lat="45.68174" lon="4.69786">
        <ele>362.26944</ele>
        <time>2015-01-04T14:19:29Z</time>
      </trkpt>
      <trkpt lat="45.6817" lon="4.69783">
        <ele>362.46146</ele>
        <time>2015-01-04T14:19:34Z</time>
      </trkpt>
      <trkpt lat="45.68164" lon="4.69777">
        <ele>362.46146</ele>
        <time>2015-01-04T14:19:39Z</time>
      </trkpt>
      <trkpt lat="45.68161" lon="4.69772">
        <ele>362.72086</ele>
        <time>2015-01-04T14:19:44Z</time>
      </trkpt>
      <trkpt lat="45.68153" lon="4.69767">
        <ele>362.72086</ele>
        <time>2015-01-04T14:19:49Z</time>
      </trkpt>
      <trkpt lat="45.68149" lon="4.69765">
        <ele>362.9722</ele>
        <time>2015-01-04T14:19:54Z</time>
      </trkpt>
      <trkpt lat="45.68143" lon="4.69759">
        <ele>362.9722</ele>
        <time>2015-01-04T14:19:59Z</time>
      </trkpt>
      <trkpt lat="45.68135" lon="4.69755">
        <ele>363.11838</ele>
        <time>2015-01-04T14:20:04Z</time>
      </trkpt>
      <trkpt lat="45.68129" lon="4.69752">
        <ele>363.11838</ele>
        <time>2015-01-04T14:20:09Z</time>
      </trkpt>
      <trkpt lat="45.68125" lon="4.69749">
        <ele>363.18036</ele>
        <time>2015-01-04T14:20:14Z</time>
      </trkpt>
      <trkpt lat="45.6812" lon="4.69746">
        <ele>363.18036</ele>
        <time>2015-01-04T14:20:19Z</time>
      </trkpt>
      <trkpt lat="45.68112" lon="4.6974">
        <ele>363.17795</ele>
        <time>2015-01-04T14:20:24Z</time>
      </trkpt>
      <trkpt lat="45.68107" lon="4.69737">
        <ele>363.17795</ele>
        <time>2015-01-04T14:20:29Z</time>
      </trkpt>
      <trkpt lat="45.68101" lon="4.69733">
        <ele>363.03198</ele>
        <time>2015-01-04T14:20:34Z</time>
      </trkpt>
      <trkpt lat="45.68095" lon="4.69727">
        <ele>363.03198</ele>
        <time>2015-01-04T14:20:39Z</time>
      </trkpt>
      <trkpt lat="45.6809" lon="4.69722">
        <ele>362.94995</ele>
        <time>2015-01-04T14:20:44Z</time>
      </trkpt>
      <trkpt lat="45.68086" lon="4.69719">
        <ele>362.94995</ele>
        <time>2015-01-04T14:20:49Z</time>
      </trkpt>
      <trkpt lat="45.68081" lon="4.69714">
        <ele>362.95865</ele>
        <time>2015-01-04T14:20:54Z</time>
      </trkpt>
      <trkpt lat="45.68076" lon="4.69708">
        <ele>362.95865</ele>
        <time>2015-01-04T14:20:59Z</time>
      </trkpt>
      <trkpt lat="45.6807" lon="4.69702">
        <ele>363.0694</ele>
        <time>2015-01-04T14:21:04Z</time>
      </trkpt>
      <trkpt lat="45.68068" lon="4.69697">
        <ele>363.0694</ele>
        <time>2015-01-04T14:21:09Z</time>
      </trkpt>
      <trkpt lat="45.68064" lon="4.6969">
        <ele>363.22122</ele>
        <time>2015-01-04T14:21:14Z</time>
      </trkpt>
      <trkpt lat="45.68057" lon="4.69682">
        <ele>363.22122</ele>
        <time>2015-01-04T14:21:19Z</time>
      </trkpt>
      <trkpt lat="45.6805" lon="4.69673">
        <ele>363.37054</ele>
        <time>2015-01-04T14:21:24Z</time>
      </trkpt>
      <trkpt lat="45.68047" lon="4.69665">
        <ele>363.37054</ele>
        <time>2015-01-04T14:21:29Z</time>
      </trkpt>
      <trkpt lat="45.68044" lon="4.69659">
        <ele>363.6364</ele>
        <time>2015-01-04T14:21:34Z</time>
      </trkpt>
      <trkpt lat="45.6804" lon="4.69651">
        <ele>363.6364</ele>
        <time>2015-01-04T14:21:39Z</time>
      </trkpt>
      <trkpt lat="45.68034" lon="4.69643">
        <ele>363.95523</ele>
        <time>2015-01-04T14:21:44Z</time>
      </trkpt>
      <trkpt lat="45.68029" lon="4.69633">
        <ele>363.95523</ele>
        <time>2015-01-04T14:21:49Z</time>
      </trkpt>
      <trkpt lat="45.68025" lon="4.69626">
        <ele>364.20743</ele>
        <time>2015-01-04T14:21:54Z</time>
      </trkpt>
      <trkpt lat="45.68022" lon="4.6962">
        <ele>364.20743</ele>
        <time>2015-01-04T14:21:59Z</time>
      </trkpt>
      <trkpt lat="45.68017" lon="4.69615">
        <ele>364.41376</ele>
        <time>2015-01-04T14:22:04Z</time>
      </trkpt>
      <trkpt lat="45.68011" lon="4.69609">
        <ele>364.41376</ele>
        <time>2015-01-04T14:22:09Z</time>
      </trkpt>
      <trkpt lat="45.68007" lon="4.69603">
        <ele>364.56412</ele>
        <time>2015-01-04T14:22:14Z</time>
      </trkpt>
      <trkpt lat="45.68003" lon="4.69595">
        <ele>364.56412</ele>
        <time>2015-01-04T14:22:19Z</time>
      </trkpt>
      <trkpt lat="45.68" lon="4.69589">
        <ele>364.61942</ele>
        <time>2015-01-04T14:22:24Z</time>
      </trkpt>
      <trkpt lat="45.67994" lon="4.6958">
        <ele>364.61942</ele>
        <time>2015-01-04T14:22:29Z</time>
      </trkpt>
      <trkpt lat="45.67991" lon="4.69575">
        <ele>364.76852</ele>
        <time>2015-01-04T14:22:34Z</time>
      </trkpt>
      <trkpt lat="45.67987" lon="4.69568">
        <ele>364.76852</ele>
        <time>2015-01-04T14:22:39Z</time>
      </trkpt>
      <trkpt lat="45.67981" lon="4.69559">
        <ele>364.97684</ele>
        <time>2015-01-04T14:22:44Z</time>
      </trkpt>
      <trkpt lat="45.67976" lon="4.69552">
        <ele>364.97684</ele>
        <time>2015-01-04T14:22:49Z</time>
      </trkpt>
      <trkpt lat="45.6797" lon="4.69546">
        <ele>365.25668</ele>
        <time>2015-01-04T14:22:54Z</time>
      </trkpt>
      <trkpt lat="45.67965" lon="4.69538">
        <ele>365.25668</ele>
        <time>2015-01-04T14:22:59Z</time>
      </trkpt>
      <trkpt lat="45.67961" lon="4.69531">
        <ele>365.6341</ele>
        <time>2015-01-04T14:23:04Z</time>
      </trkpt>
      <trkpt lat="45.67957" lon="4.69524">
        <ele>365.6341</ele>
        <time>2015-01-04T14:23:09Z</time>
      </trkpt>
      <trkpt lat="45.67954" lon="4.6952">
        <ele>365.99673</ele>
        <time>2015-01-04T14:23:14Z</time>
      </trkpt>
      <trkpt lat="45.6795" lon="4.69514">
        <ele>365.99673</ele>
        <time>2015-01-04T14:23:19Z</time>
      </trkpt>
      <trkpt lat="45.67946" lon="4.69509">
        <ele>366.1953</ele>
        <time>2015-01-04T14:23:24Z</time>
      </trkpt>
      <trkpt lat="45.6794" lon="4.695">
        <ele>366.1953</ele>
        <time>2015-01-04T14:23:29Z</time>
      </trkpt>
      <trkpt lat="45.67935" lon="4.69494">
        <ele>366.1985</ele>
        <time>2015-01-04T14:23:34Z</time>
      </trkpt>
      <trkpt lat="45.6793" lon="4.69486">
        <ele>366.1985</ele>
        <time>2015-01-04T14:23:39Z</time>
      </trkpt>
      <trkpt lat="45.67925" lon="4.69478">
        <ele>366.1591</ele>
        <time>2015-01-04T14:23:44Z</time>
      </trkpt>
      <trkpt lat="45.67919" lon="4.6947">
        <ele>366.1591</ele>
        <time>2015-01-04T14:23:49Z</time>
      </trkpt>
      <trkpt lat="45.67916" lon="4.69465">
        <ele>366.15765</ele>
        <time>2015-01-04T14:23:54Z</time>
      </trkpt>
      <trkpt lat="45.6791" lon="4.69458">
        <ele>366.15765</ele>
        <time>2015-01-04T14:23:59Z</time>
      </trkpt>
      <trkpt lat="45.67904" lon="4.69453">
        <ele>366.19278</ele>
        <time>2015-01-04T14:24:04Z</time>
      </trkpt>
      <trkpt lat="45.67899" lon="4.6945">
        <ele>366.19278</ele>
        <time>2015-01-04T14:24:09Z</time>
      </trkpt>
      <trkpt lat="45.67895" lon="4.69446">
        <ele>366.14288</ele>
        <time>2015-01-04T14:24:14Z</time>
      </trkpt>
      <trkpt lat="45.67889" lon="4.69438">
        <ele>366.14288</ele>
        <time>2015-01-04T14:24:19Z</time>
      </trkpt>
      <trkpt lat="45.67882" lon="4.69433">
        <ele>366.10635</ele>
        <time>2015-01-04T14:24:24Z</time>
      </trkpt>
      <trkpt lat="45.67875" lon="4.69427">
        <ele>366.10635</ele>
        <time>2015-01-04T14:24:29Z</time>
      </trkpt>
      <trkpt lat="45.67869" lon="4.69422">
        <ele>366.03873</ele>
        <time>2015-01-04T14:24:34Z</time>
      </trkpt>
      <trkpt lat="45.67863" lon="4.69417">
        <ele>366.03873</ele>
        <time>2015-01-04T14:24:39Z</time>
      </trkpt>
      <trkpt lat="45.67856" lon="4.69414">
        <ele>366.03345</ele>
        <time>2015-01-04T14:24:44Z</time>
      </trkpt>
      <trkpt lat="45.6785" lon="4.6941">
        <ele>366.03345</ele>
        <time>2015-01-04T14:24:49Z</time>
      </trkpt>
      <trkpt lat="45.67846" lon="4.69407">
        <ele>366.05695</ele>
        <time>2015-01-04T14:24:54Z</time>
      </trkpt>
      <trkpt lat="45.67841" lon="4.69403">
        <ele>366.05695</ele>
        <time>2015-01-04T14:24:59Z</time>
      </trkpt>
      <trkpt lat="45.67836" lon="4.694">
        <ele>366.00418</ele>
        <time>2015-01-04T14:25:04Z</time>
      </trkpt>
      <trkpt lat="45.6783" lon="4.69396">
        <ele>366.00418</ele>
        <time>2015-01-04T14:25:09Z</time>
      </trkpt>
      <trkpt lat="45.67824" lon="4.69393">
        <ele>365.79404</ele>
        <time>2015-01-04T14:25:14Z</time>
      </trkpt>
      <trkpt lat="45.67817" lon="4.69389">
        <ele>365.79404</ele>
        <time>2015-01-04T14:25:19Z</time>
      </trkpt>
      <trkpt lat="45.67809" lon="4.69384">
        <ele>365.57358</ele>
        <time>2015-01-04T14:25:24Z</time>
      </trkpt>
      <trkpt lat="45.67803" lon="4.69381">
        <ele>365.57358</ele>
        <time>2015-01-04T14:25:29Z</time>
      </trkpt>
      <trkpt lat="45.67798" lon="4.69378">
        <ele>365.49243</ele>
        <time>2015-01-04T14:25:34Z</time>
      </trkpt>
      <trkpt lat="45.67794" lon="4.69374">
        <ele>365.49243</ele>
        <time>2015-01-04T14:25:39Z</time>
      </trkpt>
      <trkpt lat="45.67789" lon="4.6937">
        <ele>365.46713</ele>
        <time>2015-01-04T14:25:44Z</time>
      </trkpt>
      <trkpt lat="45.67788" lon="4.69369">
        <ele>365.46713</ele>
        <time>2015-01-04T14:25:49Z</time>
      </trkpt>
      <trkpt lat="45.67786" lon="4.69368">
        <ele>365.46713</ele>
        <time>2015-01-04T14:25:54Z</time>
      </trkpt>
      <trkpt lat="45.67786" lon="4.69368">
        <ele>365.46713</ele>
        <time>2015-01-04T14:25:59Z</time>
      </trkpt>
      <trkpt lat="45.67786" lon="4.69369">
        <ele>365.46713</ele>
        <time>2015-01-04T14:26:04Z</time>
      </trkpt>
      <trkpt lat="45.67786" lon="4.69367">
        <ele>365.46713</ele>
        <time>2015-01-04T14:26:09Z</time>
      </trkpt>
      <trkpt lat="45.67786" lon="4.69366">
        <ele>365.46713</ele>
        <time>2015-01-04T14:26:14Z</time>
      </trkpt>
      <trkpt lat="45.67786" lon="4.69365">
        <ele>365.46713</ele>
        <time>2015-01-04T14:26:19Z</time>
      </trkpt>
      <trkpt lat="45.67786" lon="4.69365">
        <ele>365.46713</ele>
        <time>2015-01-04T14:26:24Z</time>
      </trkpt>
      <trkpt lat="45.67786" lon="4.69366">
        <ele>365.46713</ele>
        <time>2015-01-04T14:26:29Z</time>
      </trkpt>
      <trkpt lat="45.67786" lon="4.69366">
        <ele>365.46713</ele>
        <time>2015-01-04T14:26:34Z</time>
      </trkpt>
      <trkpt lat="45.67785" lon="4.69366">
        <ele>365.46713</ele>
        <time>2015-01-04T14:26:39Z</time>
      </trkpt>
      <trkpt lat="45.67785" lon="4.69366">
        <ele>365.46713</ele>
        <time>2015-01-04T14:26:44Z</time>
      </trkpt>
      <trkpt lat="45.67785" lon="4.69366">
        <ele>365.46713</ele>
        <time>2015-01-04T14:26:49Z</time>
      </trkpt>
      <trkpt lat="45.67786" lon="4.69365">
        <ele>365.28915</ele>
        <time>2015-01-04T14:26:54Z</time>
      </trkpt>
      <trkpt lat="45.67786" lon="4.69365">
        <ele>365.28915</ele>
        <time>2015-01-04T14:26:59Z</time>
      </trkpt>
      <trkpt lat="45.67786" lon="4.69365">
        <ele>365.28915</ele>
        <time>2015-01-04T14:27:04Z</time>
      </trkpt>
      <trkpt lat="45.67786" lon="4.69364">
        <ele>365.28915</ele>
        <time>2015-01-04T14:27:09Z</time>
      </trkpt>
      <trkpt lat="45.67786" lon="4.69366">
        <ele>365.28915</ele>
        <time>2015-01-04T14:27:14Z</time>
      </trkpt>
      <trkpt lat="45.67786" lon="4.6937">
        <ele>365.28915</ele>
        <time>2015-01-04T14:27:19Z</time>
      </trkpt>
      <trkpt lat="45.67783" lon="4.69378">
        <ele>364.82584</ele>
        <time>2015-01-04T14:27:24Z</time>
      </trkpt>
      <trkpt lat="45.6778" lon="4.6939">
        <ele>364.82584</ele>
        <time>2015-01-04T14:27:29Z</time>
      </trkpt>
      <trkpt lat="45.67779" lon="4.69398">
        <ele>364.27692</ele>
        <time>2015-01-04T14:27:34Z</time>
      </trkpt>
      <trkpt lat="45.6778" lon="4.69404">
        <ele>364.27692</ele>
        <time>2015-01-04T14:27:39Z</time>
      </trkpt>
      <trkpt lat="45.67779" lon="4.69412">
        <ele>363.66586</ele>
        <time>2015-01-04T14:27:44Z</time>
      </trkpt>
      <trkpt lat="45.67779" lon="4.69421">
        <ele>363.66586</ele>
        <time>2015-01-04T14:27:49Z</time>
      </trkpt>
      <trkpt lat="45.67781" lon="4.6943">
        <ele>362.91263</ele>
        <time>2015-01-04T14:27:54Z</time>
      </trkpt>
      <trkpt lat="45.67781" lon="4.69439">
        <ele>362.91263</ele>
        <time>2015-01-04T14:27:59Z</time>
      </trkpt>
      <trkpt lat="45.67781" lon="4.69445">
        <ele>362.16156</ele>
        <time>2015-01-04T14:28:04Z</time>
      </trkpt>
      <trkpt lat="45.67781" lon="4.69453">
        <ele>362.16156</ele>
        <time>2015-01-04T14:28:09Z</time>
      </trkpt>
      <trkpt lat="45.67781" lon="4.69461">
        <ele>361.63257</ele>
        <time>2015-01-04T14:28:14Z</time>
      </trkpt>
      <trkpt lat="45.67782" lon="4.69471">
        <ele>361.63257</ele>
        <time>2015-01-04T14:28:19Z</time>
      </trkpt>
      <trkpt lat="45.67783" lon="4.6948">
        <ele>361.2526</ele>
        <time>2015-01-04T14:28:24Z</time>
      </trkpt>
      <trkpt lat="45.67783" lon="4.6949">
        <ele>361.2526</ele>
        <time>2015-01-04T14:28:29Z</time>
      </trkpt>
      <trkpt lat="45.67783" lon="4.69495">
        <ele>361.04077</ele>
        <time>2015-01-04T14:28:34Z</time>
      </trkpt>
      <trkpt lat="45.67785" lon="4.69504">
        <ele>361.04077</ele>
        <time>2015-01-04T14:28:39Z</time>
      </trkpt>
      <trkpt lat="45.67786" lon="4.69513">
        <ele>360.9419</ele>
        <time>2015-01-04T14:28:44Z</time>
      </trkpt>
      <trkpt lat="45.67788" lon="4.69522">
        <ele>360.9419</ele>
        <time>2015-01-04T14:28:49Z</time>
      </trkpt>
      <trkpt lat="45.67789" lon="4.6953">
        <ele>360.80368</ele>
        <time>2015-01-04T14:28:54Z</time>
      </trkpt>
      <trkpt lat="45.67791" lon="4.69539">
        <ele>360.80368</ele>
        <time>2015-01-04T14:28:59Z</time>
      </trkpt>
      <trkpt lat="45.67792" lon="4.69547">
        <ele>360.6587</ele>
        <time>2015-01-04T14:29:04Z</time>
      </trkpt>
      <trkpt lat="45.67794" lon="4.69556">
        <ele>360.6587</ele>
        <time>2015-01-04T14:29:09Z</time>
      </trkpt>
      <trkpt lat="45.67797" lon="4.69562">
        <ele>360.59476</ele>
        <time>2015-01-04T14:29:14Z</time>
      </trkpt>
      <trkpt lat="45.67799" lon="4.69568">
        <ele>360.59476</ele>
        <time>2015-01-04T14:29:19Z</time>
      </trkpt>
      <trkpt lat="45.67802" lon="4.69575">
        <ele>360.7361</ele>
        <time>2015-01-04T14:29:24Z</time>
      </trkpt>
      <trkpt lat="45.678" lon="4.69585">
        <ele>360.7361</ele>
        <time>2015-01-04T14:29:29Z</time>
      </trkpt>
      <trkpt lat="45.67798" lon="4.69589">
        <ele>361.02402</ele>
        <time>2015-01-04T14:29:34Z</time>
      </trkpt>
      <trkpt lat="45.67797" lon="4.69594">
        <ele>361.02402</ele>
        <time>2015-01-04T14:29:39Z</time>
      </trkpt>
      <trkpt lat="45.67797" lon="4.69597">
        <ele>361.02402</ele>
        <time>2015-01-04T14:29:44Z</time>
      </trkpt>
      <trkpt lat="45.678" lon="4.69601">
        <ele>361.30273</ele>
        <time>2015-01-04T14:29:49Z</time>
      </trkpt>
      <trkpt lat="45.67808" lon="4.69608">
        <ele>361.54346</ele>
        <time>2015-01-04T14:29:54Z</time>
      </trkpt>
      <trkpt lat="45.67811" lon="4.69614">
        <ele>361.54346</ele>
        <time>2015-01-04T14:29:59Z</time>
      </trkpt>
      <trkpt lat="45.67815" lon="4.69622">
        <ele>361.74838</ele>
        <time>2015-01-04T14:30:04Z</time>
      </trkpt>
      <trkpt lat="45.67816" lon="4.69631">
        <ele>361.74838</ele>
        <time>2015-01-04T14:30:09Z</time>
      </trkpt>
      <trkpt lat="45.67819" lon="4.69637">
        <ele>361.9196</ele>
        <time>2015-01-04T14:30:14Z</time>
      </trkpt>
      <trkpt lat="45.67821" lon="4.69644">
        <ele>361.9196</ele>
        <time>2015-01-04T14:30:19Z</time>
      </trkpt>
      <trkpt lat="45.67824" lon="4.69655">
        <ele>362.04462</ele>
        <time>2015-01-04T14:30:24Z</time>
      </trkpt>
      <trkpt lat="45.67826" lon="4.69665">
        <ele>362.04462</ele>
        <time>2015-01-04T14:30:29Z</time>
      </trkpt>
      <trkpt lat="45.67828" lon="4.69674">
        <ele>362.0688</ele>
        <time>2015-01-04T14:30:34Z</time>
      </trkpt>
      <trkpt lat="45.6783" lon="4.69683">
        <ele>362.0688</ele>
        <time>2015-01-04T14:30:39Z</time>
      </trkpt>
      <trkpt lat="45.67832" lon="4.69693">
        <ele>362.04263</ele>
        <time>2015-01-04T14:30:44Z</time>
      </trkpt>
      <trkpt lat="45.67833" lon="4.69703">
        <ele>362.04263</ele>
        <time>2015-01-04T14:30:49Z</time>
      </trkpt>
      <trkpt lat="45.67834" lon="4.69716">
        <ele>361.82556</ele>
        <time>2015-01-04T14:30:54Z</time>
      </trkpt>
      <trkpt lat="45.67835" lon="4.69726">
        <ele>361.82556</ele>
        <time>2015-01-04T14:30:59Z</time>
      </trkpt>
      <trkpt lat="45.67834" lon="4.69736">
        <ele>361.5763</ele>
        <time>2015-01-04T14:31:04Z</time>
      </trkpt>
      <trkpt lat="45.67833" lon="4.69745">
        <ele>361.5763</ele>
        <time>2015-01-04T14:31:09Z</time>
      </trkpt>
      <trkpt lat="45.67833" lon="4.69752">
        <ele>361.29773</ele>
        <time>2015-01-04T14:31:14Z</time>
      </trkpt>
      <trkpt lat="45.67832" lon="4.69763">
        <ele>361.29773</ele>
        <time>2015-01-04T14:31:19Z</time>
      </trkpt>
      <trkpt lat="45.67831" lon="4.69768">
        <ele>360.89166</ele>
        <time>2015-01-04T14:31:24Z</time>
      </trkpt>
      <trkpt lat="45.67831" lon="4.6978">
        <ele>360.89166</ele>
        <time>2015-01-04T14:31:29Z</time>
      </trkpt>
      <trkpt lat="45.67834" lon="4.69788">
        <ele>360.32513</ele>
        <time>2015-01-04T14:31:34Z</time>
      </trkpt>
      <trkpt lat="45.67834" lon="4.69797">
        <ele>360.32513</ele>
        <time>2015-01-04T14:31:39Z</time>
      </trkpt>
      <trkpt lat="45.67833" lon="4.69805">
        <ele>359.5969</ele>
        <time>2015-01-04T14:31:44Z</time>
      </trkpt>
      <trkpt lat="45.67833" lon="4.69813">
        <ele>359.5969</ele>
        <time>2015-01-04T14:31:49Z</time>
      </trkpt>
      <trkpt lat="45.67832" lon="4.69825">
        <ele>358.80713</ele>
        <time>2015-01-04T14:31:54Z</time>
      </trkpt>
      <trkpt lat="45.67832" lon="4.69836">
        <ele>358.80713</ele>
        <time>2015-01-04T14:31:59Z</time>
      </trkpt>
      <trkpt lat="45.67834" lon="4.69846">
        <ele>357.9479</ele>
        <time>2015-01-04T14:32:04Z</time>
      </trkpt>
      <trkpt lat="45.67836" lon="4.69855">
        <ele>357.9479</ele>
        <time>2015-01-04T14:32:09Z</time>
      </trkpt>
      <trkpt lat="45.67838" lon="4.69866">
        <ele>357.05533</ele>
        <time>2015-01-04T14:32:14Z</time>
      </trkpt>
      <trkpt lat="45.67836" lon="4.69875">
        <ele>357.05533</ele>
        <time>2015-01-04T14:32:19Z</time>
      </trkpt>
      <trkpt lat="45.67835" lon="4.69882">
        <ele>356.13397</ele>
        <time>2015-01-04T14:32:24Z</time>
      </trkpt>
      <trkpt lat="45.67835" lon="4.69891">
        <ele>356.13397</ele>
        <time>2015-01-04T14:32:29Z</time>
      </trkpt>
      <trkpt lat="45.67837" lon="4.69902">
        <ele>355.20267</ele>
        <time>2015-01-04T14:32:34Z</time>
      </trkpt>
      <trkpt lat="45.67839" lon="4.69911">
        <ele>355.20267</ele>
        <time>2015-01-04T14:32:39Z</time>
      </trkpt>
      <trkpt lat="45.67841" lon="4.69921">
        <ele>354.35086</ele>
        <time>2015-01-04T14:32:44Z</time>
      </trkpt>
      <trkpt lat="45.67842" lon="4.69929">
        <ele>354.35086</ele>
        <time>2015-01-04T14:32:49Z</time>
      </trkpt>
      <trkpt lat="45.67843" lon="4.69937">
        <ele>353.53134</ele>
        <time>2015-01-04T14:32:54Z</time>
      </trkpt>
      <trkpt lat="45.67846" lon="4.69946">
        <ele>353.53134</ele>
        <time>2015-01-04T14:32:59Z</time>
      </trkpt>
      <trkpt lat="45.67848" lon="4.69955">
        <ele>352.7436</ele>
        <time>2015-01-04T14:33:04Z</time>
      </trkpt>
      <trkpt lat="45.6785" lon="4.69965">
        <ele>352.7436</ele>
        <time>2015-01-04T14:33:09Z</time>
      </trkpt>
      <trkpt lat="45.67852" lon="4.69975">
        <ele>352.11673</ele>
        <time>2015-01-04T14:33:14Z</time>
      </trkpt>
      <trkpt lat="45.67854" lon="4.69984">
        <ele>352.11673</ele>
        <time>2015-01-04T14:33:19Z</time>
      </trkpt>
      <trkpt lat="45.67857" lon="4.69991">
        <ele>351.68332</ele>
        <time>2015-01-04T14:33:24Z</time>
      </trkpt>
      <trkpt lat="45.67859" lon="4.69996">
        <ele>351.68332</ele>
        <time>2015-01-04T14:33:29Z</time>
      </trkpt>
      <trkpt lat="45.67859" lon="4.70007">
        <ele>351.3431</ele>
        <time>2015-01-04T14:33:34Z</time>
      </trkpt>
      <trkpt lat="45.6786" lon="4.70019">
        <ele>351.3431</ele>
        <time>2015-01-04T14:33:39Z</time>
      </trkpt>
      <trkpt lat="45.67861" lon="4.70026">
        <ele>351.07513</ele>
        <time>2015-01-04T14:33:44Z</time>
      </trkpt>
      <trkpt lat="45.67862" lon="4.70037">
        <ele>351.07513</ele>
        <time>2015-01-04T14:33:49Z</time>
      </trkpt>
      <trkpt lat="45.67864" lon="4.70047">
        <ele>350.93173</ele>
        <time>2015-01-04T14:33:54Z</time>
      </trkpt>
      <trkpt lat="45.67865" lon="4.70058">
        <ele>350.93173</ele>
        <time>2015-01-04T14:33:59Z</time>
      </trkpt>
      <trkpt lat="45.67866" lon="4.70067">
        <ele>350.75912</ele>
        <time>2015-01-04T14:34:04Z</time>
      </trkpt>
      <trkpt lat="45.67867" lon="4.70075">
        <ele>350.75912</ele>
        <time>2015-01-04T14:34:09Z</time>
      </trkpt>
      <trkpt lat="45.67868" lon="4.70078">
        <ele>350.75912</ele>
        <time>2015-01-04T14:34:14Z</time>
      </trkpt>
      <trkpt lat="45.67871" lon="4.70086">
        <ele>350.37167</ele>
        <time>2015-01-04T14:34:19Z</time>
      </trkpt>
      <trkpt lat="45.67872" lon="4.70093">
        <ele>350.37167</ele>
        <time>2015-01-04T14:34:24Z</time>
      </trkpt>
      <trkpt lat="45.67871" lon="4.70102">
        <ele>349.94403</ele>
        <time>2015-01-04T14:34:29Z</time>
      </trkpt>
      <trkpt lat="45.67872" lon="4.70111">
        <ele>349.94403</ele>
        <time>2015-01-04T14:34:34Z</time>
      </trkpt>
      <trkpt lat="45.67874" lon="4.70122">
        <ele>349.42178</ele>
        <time>2015-01-04T14:34:39Z</time>
      </trkpt>
      <trkpt lat="45.67874" lon="4.70132">
        <ele>349.42178</ele>
        <time>2015-01-04T14:34:44Z</time>
      </trkpt>
      <trkpt lat="45.67874" lon="4.70143">
        <ele>348.625</ele>
        <time>2015-01-04T14:34:49Z</time>
      </trkpt>
      <trkpt lat="45.67875" lon="4.7015">
        <ele>348.625</ele>
        <time>2015-01-04T14:34:54Z</time>
      </trkpt>
      <trkpt lat="45.67876" lon="4.70157">
        <ele>347.4887</ele>
        <time>2015-01-04T14:34:59Z</time>
      </trkpt>
      <trkpt lat="45.67875" lon="4.70165">
        <ele>347.4887</ele>
        <time>2015-01-04T14:35:04Z</time>
      </trkpt>
      <trkpt lat="45.67877" lon="4.70175">
        <ele>346.12653</ele>
        <time>2015-01-04T14:35:09Z</time>
      </trkpt>
      <trkpt lat="45.67876" lon="4.70184">
        <ele>346.12653</ele>
        <time>2015-01-04T14:35:14Z</time>
      </trkpt>
      <trkpt lat="45.67875" lon="4.70195">
        <ele>344.6588</ele>
        <time>2015-01-04T14:35:19Z</time>
      </trkpt>
      <trkpt lat="45.67877" lon="4.70206">
        <ele>344.6588</ele>
        <time>2015-01-04T14:35:24Z</time>
      </trkpt>
      <trkpt lat="45.67879" lon="4.70215">
        <ele>343.22607</ele>
        <time>2015-01-04T14:35:29Z</time>
      </trkpt>
      <trkpt lat="45.67883" lon="4.70224">
        <ele>343.22607</ele>
        <time>2015-01-04T14:35:34Z</time>
      </trkpt>
      <trkpt lat="45.67879" lon="4.70233">
        <ele>341.98724</ele>
        <time>2015-01-04T14:35:39Z</time>
      </trkpt>
      <trkpt lat="45.67878" lon="4.70244">
        <ele>341.98724</ele>
        <time>2015-01-04T14:35:44Z</time>
      </trkpt>
      <trkpt lat="45.67874" lon="4.70253">
        <ele>341.2186</ele>
        <time>2015-01-04T14:35:49Z</time>
      </trkpt>
      <trkpt lat="45.67869" lon="4.70263">
        <ele>341.2186</ele>
        <time>2015-01-04T14:35:54Z</time>
      </trkpt>
      <trkpt lat="45.67868" lon="4.70271">
        <ele>340.84326</ele>
        <time>2015-01-04T14:35:59Z</time>
      </trkpt>
      <trkpt lat="45.67864" lon="4.70281">
        <ele>340.84326</ele>
        <time>2015-01-04T14:36:04Z</time>
      </trkpt>
      <trkpt lat="45.67862" lon="4.70288">
        <ele>341.01944</ele>
        <time>2015-01-04T14:36:09Z</time>
      </trkpt>
      <trkpt lat="45.67856" lon="4.70295">
        <ele>341.01944</ele>
        <time>2015-01-04T14:36:14Z</time>
      </trkpt>
      <trkpt lat="45.6785" lon="4.70299">
        <ele>341.6472</ele>
        <time>2015-01-04T14:36:19Z</time>
      </trkpt>
      <trkpt lat="45.67845" lon="4.70302">
        <ele>341.6472</ele>
        <time>2015-01-04T14:36:24Z</time>
      </trkpt>
      <trkpt lat="45.67842" lon="4.70296">
        <ele>342.2145</ele>
        <time>2015-01-04T14:36:29Z</time>
      </trkpt>
      <trkpt lat="45.67835" lon="4.70296">
        <ele>342.2145</ele>
        <time>2015-01-04T14:36:34Z</time>
      </trkpt>
      <trkpt lat="45.67828" lon="4.70293">
        <ele>342.37708</ele>
        <time>2015-01-04T14:36:39Z</time>
      </trkpt>
      <trkpt lat="45.67821" lon="4.70289">
        <ele>342.37708</ele>
        <time>2015-01-04T14:36:44Z</time>
      </trkpt>
      <trkpt lat="45.67818" lon="4.70282">
        <ele>342.1339</ele>
        <time>2015-01-04T14:36:49Z</time>
      </trkpt>
      <trkpt lat="45.67813" lon="4.70277">
        <ele>342.1339</ele>
        <time>2015-01-04T14:36:54Z</time>
      </trkpt>
      <trkpt lat="45.67808" lon="4.70274">
        <ele>341.6006</ele>
        <time>2015-01-04T14:36:59Z</time>
      </trkpt>
      <trkpt lat="45.67803" lon="4.70268">
        <ele>341.6006</ele>
        <time>2015-01-04T14:37:04Z</time>
      </trkpt>
      <trkpt lat="45.67798" lon="4.70261">
        <ele>340.8273</ele>
        <time>2015-01-04T14:37:09Z</time>
      </trkpt>
      <trkpt lat="45.67794" lon="4.70258">
        <ele>340.8273</ele>
        <time>2015-01-04T14:37:14Z</time>
      </trkpt>
      <trkpt lat="45.67791" lon="4.70257">
        <ele>340.8273</ele>
        <time>2015-01-04T14:37:19Z</time>
      </trkpt>
      <trkpt lat="45.67786" lon="4.70256">
        <ele>339.78925</ele>
        <time>2015-01-04T14:37:24Z</time>
      </trkpt>
      <trkpt lat="45.67781" lon="4.70252">
        <ele>339.78925</ele>
        <time>2015-01-04T14:37:29Z</time>
      </trkpt>
      <trkpt lat="45.67774" lon="4.70245">
        <ele>338.7667</ele>
        <time>2015-01-04T14:37:34Z</time>
      </trkpt>
      <trkpt lat="45.67769" lon="4.7024">
        <ele>338.7667</ele>
        <time>2015-01-04T14:37:39Z</time>
      </trkpt>
      <trkpt lat="45.67764" lon="4.70234">
        <ele>337.91846</ele>
        <time>2015-01-04T14:37:44Z</time>
      </trkpt>
      <trkpt lat="45.67758" lon="4.70228">
        <ele>337.91846</ele>
        <time>2015-01-04T14:37:49Z</time>
      </trkpt>
      <trkpt lat="45.67753" lon="4.70222">
        <ele>337.44885</ele>
        <time>2015-01-04T14:37:54Z</time>
      </trkpt>
      <trkpt lat="45.67748" lon="4.70216">
        <ele>337.44885</ele>
        <time>2015-01-04T14:37:59Z</time>
      </trkpt>
      <trkpt lat="45.67742" lon="4.70212">
        <ele>337.32983</ele>
        <time>2015-01-04T14:38:04Z</time>
      </trkpt>
      <trkpt lat="45.67741" lon="4.70209">
        <ele>337.32983</ele>
        <time>2015-01-04T14:38:09Z</time>
      </trkpt>
      <trkpt lat="45.67734" lon="4.70204">
        <ele>337.39044</ele>
        <time>2015-01-04T14:38:14Z</time>
      </trkpt>
      <trkpt lat="45.67726" lon="4.70197">
        <ele>337.58694</ele>
        <time>2015-01-04T14:38:19Z</time>
      </trkpt>
      <trkpt lat="45.67721" lon="4.70191">
        <ele>337.58694</ele>
        <time>2015-01-04T14:38:24Z</time>
      </trkpt>
      <trkpt lat="45.67715" lon="4.70187">
        <ele>337.96497</ele>
        <time>2015-01-04T14:38:29Z</time>
      </trkpt>
      <trkpt lat="45.67711" lon="4.70186">
        <ele>337.96497</ele>
        <time>2015-01-04T14:38:34Z</time>
      </trkpt>
      <trkpt lat="45.67707" lon="4.70182">
        <ele>337.96497</ele>
        <time>2015-01-04T14:38:39Z</time>
      </trkpt>
      <trkpt lat="45.67704" lon="4.70181">
        <ele>338.16272</ele>
        <time>2015-01-04T14:38:44Z</time>
      </trkpt>
      <trkpt lat="45.67703" lon="4.70181">
        <ele>338.16272</ele>
        <time>2015-01-04T14:38:49Z</time>
      </trkpt>
      <trkpt lat="45.67698" lon="4.70178">
        <ele>338.16272</ele>
        <time>2015-01-04T14:38:54Z</time>
      </trkpt>
      <trkpt lat="45.67692" lon="4.70173">
        <ele>338.39316</ele>
        <time>2015-01-04T14:38:59Z</time>
      </trkpt>
      <trkpt lat="45.67691" lon="4.70173">
        <ele>338.39316</ele>
        <time>2015-01-04T14:39:04Z</time>
      </trkpt>
      <trkpt lat="45.67691" lon="4.70173">
        <ele>338.39316</ele>
        <time>2015-01-04T14:39:09Z</time>
      </trkpt>
      <trkpt lat="45.67688" lon="4.70172">
        <ele>338.39316</ele>
        <time>2015-01-04T14:39:14Z</time>
      </trkpt>
      <trkpt lat="45.67688" lon="4.70172">
        <ele>338.39316</ele>
        <time>2015-01-04T14:39:19Z</time>
      </trkpt>
      <trkpt lat="45.67688" lon="4.7017">
        <ele>338.39316</ele>
        <time>2015-01-04T14:39:24Z</time>
      </trkpt>
      <trkpt lat="45.67686" lon="4.70169">
        <ele>338.39316</ele>
        <time>2015-01-04T14:39:29Z</time>
      </trkpt>
      <trkpt lat="45.67686" lon="4.70169">
        <ele>338.39316</ele>
        <time>2015-01-04T14:39:34Z</time>
      </trkpt>
      <trkpt lat="45.67685" lon="4.70169">
        <ele>338.70944</ele>
        <time>2015-01-04T14:39:39Z</time>
      </trkpt>
      <trkpt lat="45.67684" lon="4.7017">
        <ele>338.70944</ele>
        <time>2015-01-04T14:39:44Z</time>
      </trkpt>
      <trkpt lat="45.67685" lon="4.70171">
        <ele>338.70944</ele>
        <time>2015-01-04T14:39:49Z</time>
      </trkpt>
      <trkpt lat="45.67683" lon="4.70168">
        <ele>338.70944</ele>
        <time>2015-01-04T14:39:54Z</time>
      </trkpt>
      <trkpt lat="45.67681" lon="4.70161">
        <ele>339.0164</ele>
        <time>2015-01-04T14:39:59Z</time>
      </trkpt>
      <trkpt lat="45.67679" lon="4.70156">
        <ele>339.0164</ele>
        <time>2015-01-04T14:40:04Z</time>
      </trkpt>
      <trkpt lat="45.67678" lon="4.70156">
        <ele>339.0164</ele>
        <time>2015-01-04T14:40:09Z</time>
      </trkpt>
      <trkpt lat="45.67678" lon="4.70154">
        <ele>339.0164</ele>
        <time>2015-01-04T14:40:14Z</time>
      </trkpt>
      <trkpt lat="45.67678" lon="4.70154">
        <ele>339.0164</ele>
        <time>2015-01-04T14:40:19Z</time>
      </trkpt>
      <trkpt lat="45.67678" lon="4.70154">
        <ele>339.0164</ele>
        <time>2015-01-04T14:40:24Z</time>
      </trkpt>
      <trkpt lat="45.67678" lon="4.70155">
        <ele>339.0164</ele>
        <time>2015-01-04T14:40:29Z</time>
      </trkpt>
      <trkpt lat="45.67677" lon="4.70154">
        <ele>339.0164</ele>
        <time>2015-01-04T14:40:34Z</time>
      </trkpt>
      <trkpt lat="45.67673" lon="4.70156">
        <ele>339.21155</ele>
        <time>2015-01-04T14:40:39Z</time>
      </trkpt>
      <trkpt lat="45.67668" lon="4.70159">
        <ele>339.21155</ele>
        <time>2015-01-04T14:40:44Z</time>
      </trkpt>
      <trkpt lat="45.67666" lon="4.7016">
        <ele>339.21155</ele>
        <time>2015-01-04T14:40:49Z</time>
      </trkpt>
      <trkpt lat="45.67665" lon="4.7016">
        <ele>339.28674</ele>
        <time>2015-01-04T14:40:54Z</time>
      </trkpt>
      <trkpt lat="45.67663" lon="4.70162">
        <ele>339.28674</ele>
        <time>2015-01-04T14:40:59Z</time>
      </trkpt>
      <trkpt lat="45.67663" lon="4.70162">
        <ele>339.28674</ele>
        <time>2015-01-04T14:41:04Z</time>
      </trkpt>
      <trkpt lat="45.67663" lon="4.70163">
        <ele>339.28674</ele>
        <time>2015-01-04T14:41:09Z</time>
      </trkpt>
      <trkpt lat="45.67659" lon="4.70166">
        <ele>339.28674</ele>
        <time>2015-01-04T14:41:14Z</time>
      </trkpt>
      <trkpt lat="45.67653" lon="4.70168">
        <ele>339.59512</ele>
        <time>2015-01-04T14:41:19Z</time>
      </trkpt>
      <trkpt lat="45.67649" lon="4.70166">
        <ele>339.59512</ele>
        <time>2015-01-04T14:41:24Z</time>
      </trkpt>
      <trkpt lat="45.67641" lon="4.70163">
        <ele>339.94437</ele>
        <time>2015-01-04T14:41:29Z</time>
      </trkpt>
      <trkpt lat="45.67635" lon="4.70161">
        <ele>339.94437</ele>
        <time>2015-01-04T14:41:34Z</time>
      </trkpt>
      <trkpt lat="45.67632" lon="4.70161">
        <ele>339.94437</ele>
        <time>2015-01-04T14:41:39Z</time>
      </trkpt>
      <trkpt lat="45.67626" lon="4.70157">
        <ele>340.28598</ele>
        <time>2015-01-04T14:41:44Z</time>
      </trkpt>
      <trkpt lat="45.6762" lon="4.70155">
        <ele>340.28598</ele>
        <time>2015-01-04T14:41:49Z</time>
      </trkpt>
      <trkpt lat="45.67615" lon="4.70152">
        <ele>340.69043</ele>
        <time>2015-01-04T14:41:54Z</time>
      </trkpt>
      <trkpt lat="45.67611" lon="4.70149">
        <ele>340.69043</ele>
        <time>2015-01-04T14:41:59Z</time>
      </trkpt>
      <trkpt lat="45.67605" lon="4.70145">
        <ele>341.09305</ele>
        <time>2015-01-04T14:42:04Z</time>
      </trkpt>
      <trkpt lat="45.67598" lon="4.70143">
        <ele>341.09305</ele>
        <time>2015-01-04T14:42:09Z</time>
      </trkpt>
      <trkpt lat="45.67593" lon="4.70141">
        <ele>341.4629</ele>
        <time>2015-01-04T14:42:14Z</time>
      </trkpt>
      <trkpt lat="45.67586" lon="4.70139">
        <ele>341.4629</ele>
        <time>2015-01-04T14:42:19Z</time>
      </trkpt>
      <trkpt lat="45.6758" lon="4.70138">
        <ele>341.87228</ele>
        <time>2015-01-04T14:42:24Z</time>
      </trkpt>
      <trkpt lat="45.67572" lon="4.70138">
        <ele>341.87228</ele>
        <time>2015-01-04T14:42:29Z</time>
      </trkpt>
      <trkpt lat="45.67567" lon="4.70136">
        <ele>342.28732</ele>
        <time>2015-01-04T14:42:34Z</time>
      </trkpt>
      <trkpt lat="45.67561" lon="4.70134">
        <ele>342.28732</ele>
        <time>2015-01-04T14:42:39Z</time>
      </trkpt>
      <trkpt lat="45.67556" lon="4.70132">
        <ele>342.71985</ele>
        <time>2015-01-04T14:42:44Z</time>
      </trkpt>
      <trkpt lat="45.6755" lon="4.7013">
        <ele>342.71985</ele>
        <time>2015-01-04T14:42:49Z</time>
      </trkpt>
      <trkpt lat="45.67544" lon="4.70128">
        <ele>343.09442</ele>
        <time>2015-01-04T14:42:54Z</time>
      </trkpt>
      <trkpt lat="45.67539" lon="4.70127">
        <ele>343.09442</ele>
        <time>2015-01-04T14:42:59Z</time>
      </trkpt>
      <trkpt lat="45.67533" lon="4.70128">
        <ele>343.39893</ele>
        <time>2015-01-04T14:43:04Z</time>
      </trkpt>
      <trkpt lat="45.67528" lon="4.70126">
        <ele>343.39893</ele>
        <time>2015-01-04T14:43:09Z</time>
      </trkpt>
      <trkpt lat="45.67523" lon="4.70125">
        <ele>343.60803</ele>
        <time>2015-01-04T14:43:14Z</time>
      </trkpt>
      <trkpt lat="45.67519" lon="4.70125">
        <ele>343.60803</ele>
        <time>2015-01-04T14:43:19Z</time>
      </trkpt>
      <trkpt lat="45.67514" lon="4.70126">
        <ele>343.60803</ele>
        <time>2015-01-04T14:43:24Z</time>
      </trkpt>
      <trkpt lat="45.67507" lon="4.70127">
        <ele>343.61218</ele>
        <time>2015-01-04T14:43:29Z</time>
      </trkpt>
      <trkpt lat="45.67498" lon="4.70123">
        <ele>343.5987</ele>
        <time>2015-01-04T14:43:34Z</time>
      </trkpt>
      <trkpt lat="45.67491" lon="4.70124">
        <ele>343.5987</ele>
        <time>2015-01-04T14:43:39Z</time>
      </trkpt>
      <trkpt lat="45.67484" lon="4.70124">
        <ele>343.56824</ele>
        <time>2015-01-04T14:43:44Z</time>
      </trkpt>
      <trkpt lat="45.67477" lon="4.70124">
        <ele>343.56824</ele>
        <time>2015-01-04T14:43:49Z</time>
      </trkpt>
      <trkpt lat="45.67472" lon="4.70122">
        <ele>343.44955</ele>
        <time>2015-01-04T14:43:54Z</time>
      </trkpt>
      <trkpt lat="45.67466" lon="4.7012">
        <ele>343.44955</ele>
        <time>2015-01-04T14:43:59Z</time>
      </trkpt>
      <trkpt lat="45.67461" lon="4.70121">
        <ele>343.321</ele>
        <time>2015-01-04T14:44:04Z</time>
      </trkpt>
      <trkpt lat="45.67456" lon="4.70121">
        <ele>343.321</ele>
        <time>2015-01-04T14:44:09Z</time>
      </trkpt>
      <trkpt lat="45.67451" lon="4.70116">
        <ele>343.2409</ele>
        <time>2015-01-04T14:44:14Z</time>
      </trkpt>
      <trkpt lat="45.67445" lon="4.70112">
        <ele>343.2409</ele>
        <time>2015-01-04T14:44:19Z</time>
      </trkpt>
      <trkpt lat="45.6744" lon="4.70107">
        <ele>343.2055</ele>
        <time>2015-01-04T14:44:24Z</time>
      </trkpt>
      <trkpt lat="45.67437" lon="4.70105">
        <ele>343.2055</ele>
        <time>2015-01-04T14:44:29Z</time>
      </trkpt>
      <trkpt lat="45.67434" lon="4.70104">
        <ele>343.2055</ele>
        <time>2015-01-04T14:44:34Z</time>
      </trkpt>
      <trkpt lat="45.67431" lon="4.701">
        <ele>343.09595</ele>
        <time>2015-01-04T14:44:39Z</time>
      </trkpt>
      <trkpt lat="45.67425" lon="4.7009">
        <ele>342.88885</ele>
        <time>2015-01-04T14:44:44Z</time>
      </trkpt>
      <trkpt lat="45.6742" lon="4.70082">
        <ele>342.88885</ele>
        <time>2015-01-04T14:44:49Z</time>
      </trkpt>
      <trkpt lat="45.67413" lon="4.70074">
        <ele>342.47644</ele>
        <time>2015-01-04T14:44:54Z</time>
      </trkpt>
      <trkpt lat="45.6741" lon="4.70071">
        <ele>342.47644</ele>
        <time>2015-01-04T14:44:59Z</time>
      </trkpt>
      <trkpt lat="45.67403" lon="4.70069">
        <ele>341.93228</ele>
        <time>2015-01-04T14:45:04Z</time>
      </trkpt>
      <trkpt lat="45.67397" lon="4.70064">
        <ele>341.93228</ele>
        <time>2015-01-04T14:45:09Z</time>
      </trkpt>
      <trkpt lat="45.6739" lon="4.7006">
        <ele>341.31064</ele>
        <time>2015-01-04T14:45:14Z</time>
      </trkpt>
      <trkpt lat="45.67386" lon="4.70059">
        <ele>341.31064</ele>
        <time>2015-01-04T14:45:19Z</time>
      </trkpt>
      <trkpt lat="45.67381" lon="4.7006">
        <ele>340.60434</ele>
        <time>2015-01-04T14:45:24Z</time>
      </trkpt>
      <trkpt lat="45.67375" lon="4.70064">
        <ele>340.60434</ele>
        <time>2015-01-04T14:45:29Z</time>
      </trkpt>
      <trkpt lat="45.6737" lon="4.70068">
        <ele>339.95108</ele>
        <time>2015-01-04T14:45:34Z</time>
      </trkpt>
      <trkpt lat="45.67366" lon="4.70069">
        <ele>339.95108</ele>
        <time>2015-01-04T14:45:39Z</time>
      </trkpt>
      <trkpt lat="45.67359" lon="4.70067">
        <ele>339.30542</ele>
        <time>2015-01-04T14:45:44Z</time>
      </trkpt>
      <trkpt lat="45.67353" lon="4.70064">
        <ele>339.30542</ele>
        <time>2015-01-04T14:45:49Z</time>
      </trkpt>
      <trkpt lat="45.67349" lon="4.70059">
        <ele>338.65405</ele>
        <time>2015-01-04T14:45:54Z</time>
      </trkpt>
      <trkpt lat="45.67346" lon="4.70057">
        <ele>338.65405</ele>
        <time>2015-01-04T14:45:59Z</time>
      </trkpt>
      <trkpt lat="45.67347" lon="4.70057">
        <ele>338.65405</ele>
        <time>2015-01-04T14:46:04Z</time>
      </trkpt>
      <trkpt lat="45.67348" lon="4.70058">
        <ele>338.65405</ele>
        <time>2015-01-04T14:46:09Z</time>
      </trkpt>
      <trkpt lat="45.67347" lon="4.70058">
        <ele>338.65405</ele>
        <time>2015-01-04T14:46:14Z</time>
      </trkpt>
      <trkpt lat="45.67348" lon="4.70058">
        <ele>338.65405</ele>
        <time>2015-01-04T14:46:19Z</time>
      </trkpt>
      <trkpt lat="45.67349" lon="4.70058">
        <ele>338.65405</ele>
        <time>2015-01-04T14:46:24Z</time>
      </trkpt>
      <trkpt lat="45.67349" lon="4.70058">
        <ele>338.65405</ele>
        <time>2015-01-04T14:46:29Z</time>
      </trkpt>
      <trkpt lat="45.67348" lon="4.70055">
        <ele>337.8837</ele>
        <time>2015-01-04T14:46:34Z</time>
      </trkpt>
      <trkpt lat="45.67347" lon="4.70053">
        <ele>337.8837</ele>
        <time>2015-01-04T14:46:39Z</time>
      </trkpt>
      <trkpt lat="45.67347" lon="4.70052">
        <ele>337.8837</ele>
        <time>2015-01-04T14:46:44Z</time>
      </trkpt>
      <trkpt lat="45.67347" lon="4.70051">
        <ele>337.8837</ele>
        <time>2015-01-04T14:46:49Z</time>
      </trkpt>
      <trkpt lat="45.67348" lon="4.7005">
        <ele>337.8837</ele>
        <time>2015-01-04T14:46:54Z</time>
      </trkpt>
      <trkpt lat="45.67348" lon="4.7005">
        <ele>337.8837</ele>
        <time>2015-01-04T14:46:59Z</time>
      </trkpt>
      <trkpt lat="45.67349" lon="4.70049">
        <ele>337.8837</ele>
        <time>2015-01-04T14:47:04Z</time>
      </trkpt>
      <trkpt lat="45.67348" lon="4.70049">
        <ele>337.8837</ele>
        <time>2015-01-04T14:47:09Z</time>
      </trkpt>
      <trkpt lat="45.67348" lon="4.70049">
        <ele>337.8837</ele>
        <time>2015-01-04T14:47:14Z</time>
      </trkpt>
      <trkpt lat="45.67348" lon="4.70046">
        <ele>337.8837</ele>
        <time>2015-01-04T14:47:19Z</time>
      </trkpt>
      <trkpt lat="45.67348" lon="4.70035">
        <ele>337.1925</ele>
        <time>2015-01-04T14:47:24Z</time>
      </trkpt>
      <trkpt lat="45.67347" lon="4.70031">
        <ele>337.1925</ele>
        <time>2015-01-04T14:47:29Z</time>
      </trkpt>
      <trkpt lat="45.67347" lon="4.70032">
        <ele>337.1925</ele>
        <time>2015-01-04T14:47:34Z</time>
      </trkpt>
      <trkpt lat="45.67347" lon="4.70032">
        <ele>337.1925</ele>
        <time>2015-01-04T14:47:39Z</time>
      </trkpt>
      <trkpt lat="45.67347" lon="4.70033">
        <ele>337.1925</ele>
        <time>2015-01-04T14:47:44Z</time>
      </trkpt>
      <trkpt lat="45.67348" lon="4.70032">
        <ele>337.1925</ele>
        <time>2015-01-04T14:47:49Z</time>
      </trkpt>
      <trkpt lat="45.67349" lon="4.70033">
        <ele>337.1925</ele>
        <time>2015-01-04T14:47:54Z</time>
      </trkpt>
      <trkpt lat="45.6735" lon="4.70035">
        <ele>337.1925</ele>
        <time>2015-01-04T14:47:59Z</time>
      </trkpt>
      <trkpt lat="45.6735" lon="4.70036">
        <ele>337.1925</ele>
        <time>2015-01-04T14:48:04Z</time>
      </trkpt>
      <trkpt lat="45.6735" lon="4.70035">
        <ele>336.6052</ele>
        <time>2015-01-04T14:48:09Z</time>
      </trkpt>
      <trkpt lat="45.67351" lon="4.70033">
        <ele>336.6052</ele>
        <time>2015-01-04T14:48:14Z</time>
      </trkpt>
      <trkpt lat="45.67351" lon="4.70033">
        <ele>336.6052</ele>
        <time>2015-01-04T14:48:19Z</time>
      </trkpt>
      <trkpt lat="45.67351" lon="4.70034">
        <ele>336.6052</ele>
        <time>2015-01-04T14:48:24Z</time>
      </trkpt>
      <trkpt lat="45.67351" lon="4.70034">
        <ele>336.6052</ele>
        <time>2015-01-04T14:48:29Z</time>
      </trkpt>
      <trkpt lat="45.6735" lon="4.70034">
        <ele>336.6052</ele>
        <time>2015-01-04T14:48:34Z</time>
      </trkpt>
      <trkpt lat="45.67351" lon="4.70034">
        <ele>336.6052</ele>
        <time>2015-01-04T14:48:39Z</time>
      </trkpt>
      <trkpt lat="45.6735" lon="4.70033">
        <ele>336.6052</ele>
        <time>2015-01-04T14:48:44Z</time>
      </trkpt>
      <trkpt lat="45.6735" lon="4.70034">
        <ele>336.6052</ele>
        <time>2015-01-04T14:48:49Z</time>
      </trkpt>
      <trkpt lat="45.67349" lon="4.70035">
        <ele>336.6052</ele>
        <time>2015-01-04T14:48:54Z</time>
      </trkpt>
      <trkpt lat="45.6735" lon="4.70034">
        <ele>336.6052</ele>
        <time>2015-01-04T14:48:59Z</time>
      </trkpt>
      <trkpt lat="45.6735" lon="4.70033">
        <ele>336.6052</ele>
        <time>2015-01-04T14:49:04Z</time>
      </trkpt>
      <trkpt lat="45.6735" lon="4.70033">
        <ele>336.6052</ele>
        <time>2015-01-04T14:49:09Z</time>
      </trkpt>
      <trkpt lat="45.6735" lon="4.70034">
        <ele>336.6052</ele>
        <time>2015-01-04T14:49:14Z</time>
      </trkpt>
      <trkpt lat="45.6735" lon="4.70034">
        <ele>336.6052</ele>
        <time>2015-01-04T14:49:19Z</time>
      </trkpt>
      <trkpt lat="45.67351" lon="4.70033">
        <ele>336.04355</ele>
        <time>2015-01-04T14:49:24Z</time>
      </trkpt>
      <trkpt lat="45.67351" lon="4.70033">
        <ele>336.04355</ele>
        <time>2015-01-04T14:49:29Z</time>
      </trkpt>
      <trkpt lat="45.67352" lon="4.70034">
        <ele>336.04355</ele>
        <time>2015-01-04T14:49:34Z</time>
      </trkpt>
      <trkpt lat="45.67352" lon="4.70034">
        <ele>336.04355</ele>
        <time>2015-01-04T14:49:39Z</time>
      </trkpt>
      <trkpt lat="45.67351" lon="4.70034">
        <ele>336.04355</ele>
        <time>2015-01-04T14:49:44Z</time>
      </trkpt>
      <trkpt lat="45.67347" lon="4.70035">
        <ele>336.04355</ele>
        <time>2015-01-04T14:49:49Z</time>
      </trkpt>
      <trkpt lat="45.67347" lon="4.70038">
        <ele>336.04355</ele>
        <time>2015-01-04T14:49:54Z</time>
      </trkpt>
      <trkpt lat="45.67347" lon="4.70039">
        <ele>335.37735</ele>
        <time>2015-01-04T14:49:59Z</time>
      </trkpt>
      <trkpt lat="45.67347" lon="4.7004">
        <ele>335.37735</ele>
        <time>2015-01-04T14:50:04Z</time>
      </trkpt>
      <trkpt lat="45.67349" lon="4.70039">
        <ele>335.37735</ele>
        <time>2015-01-04T14:50:09Z</time>
      </trkpt>
      <trkpt lat="45.67348" lon="4.70044">
        <ele>335.37735</ele>
        <time>2015-01-04T14:50:14Z</time>
      </trkpt>
      <trkpt lat="45.67346" lon="4.70045">
        <ele>335.37735</ele>
        <time>2015-01-04T14:50:19Z</time>
      </trkpt>
      <trkpt lat="45.67345" lon="4.70044">
        <ele>334.6879</ele>
        <time>2015-01-04T14:50:24Z</time>
      </trkpt>
      <trkpt lat="45.67342" lon="4.70041">
        <ele>334.6879</ele>
        <time>2015-01-04T14:50:29Z</time>
      </trkpt>
      <trkpt lat="45.67339" lon="4.70035">
        <ele>334.6879</ele>
        <time>2015-01-04T14:50:34Z</time>
      </trkpt>
      <trkpt lat="45.67334" lon="4.7003">
        <ele>334.00748</ele>
        <time>2015-01-04T14:50:39Z</time>
      </trkpt>
      <trkpt lat="45.67329" lon="4.70024">
        <ele>334.00748</ele>
        <time>2015-01-04T14:50:44Z</time>
      </trkpt>
      <trkpt lat="45.67326" lon="4.70019">
        <ele>333.39462</ele>
        <time>2015-01-04T14:50:49Z</time>
      </trkpt>
      <trkpt lat="45.67322" lon="4.70015">
        <ele>333.39462</ele>
        <time>2015-01-04T14:50:54Z</time>
      </trkpt>
      <trkpt lat="45.67318" lon="4.70009">
        <ele>332.78815</ele>
        <time>2015-01-04T14:50:59Z</time>
      </trkpt>
      <trkpt lat="45.67313" lon="4.70004">
        <ele>332.78815</ele>
        <time>2015-01-04T14:51:04Z</time>
      </trkpt>
      <trkpt lat="45.67308" lon="4.69999">
        <ele>332.24655</ele>
        <time>2015-01-04T14:51:09Z</time>
      </trkpt>
      <trkpt lat="45.67302" lon="4.69994">
        <ele>332.24655</ele>
        <time>2015-01-04T14:51:14Z</time>
      </trkpt>
      <trkpt lat="45.67299" lon="4.69988">
        <ele>331.67975</ele>
        <time>2015-01-04T14:51:19Z</time>
      </trkpt>
      <trkpt lat="45.67297" lon="4.69984">
        <ele>331.67975</ele>
        <time>2015-01-04T14:51:24Z</time>
      </trkpt>
      <trkpt lat="45.67291" lon="4.69972">
        <ele>331.17725</ele>
        <time>2015-01-04T14:51:29Z</time>
      </trkpt>
      <trkpt lat="45.67288" lon="4.69967">
        <ele>331.17725</ele>
        <time>2015-01-04T14:51:34Z</time>
      </trkpt>
      <trkpt lat="45.67285" lon="4.69964">
        <ele>330.64874</ele>
        <time>2015-01-04T14:51:39Z</time>
      </trkpt>
      <trkpt lat="45.6728" lon="4.69956">
        <ele>330.64874</ele>
        <time>2015-01-04T14:51:44Z</time>
      </trkpt>
      <trkpt lat="45.67278" lon="4.69951">
        <ele>330.11157</ele>
        <time>2015-01-04T14:51:49Z</time>
      </trkpt>
      <trkpt lat="45.67275" lon="4.69946">
        <ele>330.11157</ele>
        <time>2015-01-04T14:51:54Z</time>
      </trkpt>
      <trkpt lat="45.6727" lon="4.6994">
        <ele>329.5962</ele>
        <time>2015-01-04T14:51:59Z</time>
      </trkpt>
      <trkpt lat="45.67266" lon="4.69933">
        <ele>329.5962</ele>
        <time>2015-01-04T14:52:04Z</time>
      </trkpt>
      <trkpt lat="45.67261" lon="4.69927">
        <ele>329.0874</ele>
        <time>2015-01-04T14:52:09Z</time>
      </trkpt>
      <trkpt lat="45.67257" lon="4.6992">
        <ele>329.0874</ele>
        <time>2015-01-04T14:52:14Z</time>
      </trkpt>
      <trkpt lat="45.67254" lon="4.69913">
        <ele>328.4847</ele>
        <time>2015-01-04T14:52:19Z</time>
      </trkpt>
      <trkpt lat="45.67249" lon="4.69904">
        <ele>328.4847</ele>
        <time>2015-01-04T14:52:24Z</time>
      </trkpt>
      <trkpt lat="45.67244" lon="4.69899">
        <ele>327.76724</ele>
        <time>2015-01-04T14:52:29Z</time>
      </trkpt>
      <trkpt lat="45.67239" lon="4.69896">
        <ele>327.76724</ele>
        <time>2015-01-04T14:52:34Z</time>
      </trkpt>
      <trkpt lat="45.67233" lon="4.69892">
        <ele>326.93033</ele>
        <time>2015-01-04T14:52:39Z</time>
      </trkpt>
      <trkpt lat="45.67226" lon="4.69888">
        <ele>326.93033</ele>
        <time>2015-01-04T14:52:44Z</time>
      </trkpt>
      <trkpt lat="45.67221" lon="4.69887">
        <ele>326.05643</ele>
        <time>2015-01-04T14:52:49Z</time>
      </trkpt>
      <trkpt lat="45.67215" lon="4.69886">
        <ele>326.05643</ele>
        <time>2015-01-04T14:52:54Z</time>
      </trkpt>
      <trkpt lat="45.67209" lon="4.69886">
        <ele>325.16434</ele>
        <time>2015-01-04T14:52:59Z</time>
      </trkpt>
      <trkpt lat="45.672" lon="4.69889">
        <ele>324.34363</ele>
        <time>2015-01-04T14:53:04Z</time>
      </trkpt>
      <trkpt lat="45.67191" lon="4.6989">
        <ele>324.34363</ele>
        <time>2015-01-04T14:53:09Z</time>
      </trkpt>
      <trkpt lat="45.67185" lon="4.69892">
        <ele>323.72012</ele>
        <time>2015-01-04T14:53:14Z</time>
      </trkpt>
      <trkpt lat="45.6718" lon="4.69894">
        <ele>323.72012</ele>
        <time>2015-01-04T14:53:19Z</time>
      </trkpt>
      <trkpt lat="45.67174" lon="4.69893">
        <ele>323.16498</ele>
        <time>2015-01-04T14:53:24Z</time>
      </trkpt>
      <trkpt lat="45.6717" lon="4.69893">
        <ele>323.16498</ele>
        <time>2015-01-04T14:53:29Z</time>
      </trkpt>
      <trkpt lat="45.67165" lon="4.69891">
        <ele>322.5585</ele>
        <time>2015-01-04T14:53:34Z</time>
      </trkpt>
      <trkpt lat="45.67159" lon="4.69888">
        <ele>322.5585</ele>
        <time>2015-01-04T14:53:39Z</time>
      </trkpt>
      <trkpt lat="45.67153" lon="4.69886">
        <ele>322.02045</ele>
        <time>2015-01-04T14:53:44Z</time>
      </trkpt>
      <trkpt lat="45.67148" lon="4.6988">
        <ele>322.02045</ele>
        <time>2015-01-04T14:53:49Z</time>
      </trkpt>
      <trkpt lat="45.67144" lon="4.69876">
        <ele>321.60394</ele>
        <time>2015-01-04T14:53:54Z</time>
      </trkpt>
      <trkpt lat="45.6714" lon="4.69873">
        <ele>321.60394</ele>
        <time>2015-01-04T14:53:59Z</time>
      </trkpt>
      <trkpt lat="45.67136" lon="4.69872">
        <ele>321.60394</ele>
        <time>2015-01-04T14:54:04Z</time>
      </trkpt>
      <trkpt lat="45.6713" lon="4.6987">
        <ele>321.31458</ele>
        <time>2015-01-04T14:54:09Z</time>
      </trkpt>
      <trkpt lat="45.67126" lon="4.6987">
        <ele>321.31458</ele>
        <time>2015-01-04T14:54:14Z</time>
      </trkpt>
      <trkpt lat="45.67121" lon="4.69866">
        <ele>321.0995</ele>
        <time>2015-01-04T14:54:19Z</time>
      </trkpt>
      <trkpt lat="45.67115" lon="4.69865">
        <ele>321.0995</ele>
        <time>2015-01-04T14:54:24Z</time>
      </trkpt>
      <trkpt lat="45.6711" lon="4.69867">
        <ele>320.96713</ele>
        <time>2015-01-04T14:54:29Z</time>
      </trkpt>
      <trkpt lat="45.67107" lon="4.6987">
        <ele>320.96713</ele>
        <time>2015-01-04T14:54:34Z</time>
      </trkpt>
      <trkpt lat="45.67102" lon="4.69876">
        <ele>320.9827</ele>
        <time>2015-01-04T14:54:39Z</time>
      </trkpt>
      <trkpt lat="45.67099" lon="4.69882">
        <ele>320.9827</ele>
        <time>2015-01-04T14:54:44Z</time>
      </trkpt>
      <trkpt lat="45.67096" lon="4.6989">
        <ele>321.0188</ele>
        <time>2015-01-04T14:54:49Z</time>
      </trkpt>
      <trkpt lat="45.67093" lon="4.69895">
        <ele>321.0188</ele>
        <time>2015-01-04T14:54:54Z</time>
      </trkpt>
      <trkpt lat="45.67091" lon="4.69903">
        <ele>321.11588</ele>
        <time>2015-01-04T14:54:59Z</time>
      </trkpt>
      <trkpt lat="45.67089" lon="4.69913">
        <ele>321.11588</ele>
        <time>2015-01-04T14:55:04Z</time>
      </trkpt>
      <trkpt lat="45.67087" lon="4.69921">
        <ele>321.16708</ele>
        <time>2015-01-04T14:55:09Z</time>
      </trkpt>
      <trkpt lat="45.67086" lon="4.69928">
        <ele>321.16708</ele>
        <time>2015-01-04T14:55:14Z</time>
      </trkpt>
      <trkpt lat="45.67083" lon="4.69937">
        <ele>321.18884</ele>
        <time>2015-01-04T14:55:19Z</time>
      </trkpt>
      <trkpt lat="45.67081" lon="4.69945">
        <ele>321.18884</ele>
        <time>2015-01-04T14:55:24Z</time>
      </trkpt>
      <trkpt lat="45.67079" lon="4.69955">
        <ele>321.2685</ele>
        <time>2015-01-04T14:55:29Z</time>
      </trkpt>
      <trkpt lat="45.67076" lon="4.69963">
        <ele>321.2685</ele>
        <time>2015-01-04T14:55:34Z</time>
      </trkpt>
      <trkpt lat="45.67072" lon="4.69972">
        <ele>321.45798</ele>
        <time>2015-01-04T14:55:39Z</time>
      </trkpt>
      <trkpt lat="45.67068" lon="4.69981">
        <ele>321.45798</ele>
        <time>2015-01-04T14:55:44Z</time>
      </trkpt>
      <trkpt lat="45.67065" lon="4.69989">
        <ele>321.70425</ele>
        <time>2015-01-04T14:55:49Z</time>
      </trkpt>
      <trkpt lat="45.6706" lon="4.69998">
        <ele>321.70425</ele>
        <time>2015-01-04T14:55:54Z</time>
      </trkpt>
      <trkpt lat="45.67057" lon="4.70007">
        <ele>321.97244</ele>
        <time>2015-01-04T14:55:59Z</time>
      </trkpt>
      <trkpt lat="45.67054" lon="4.70015">
        <ele>321.97244</ele>
        <time>2015-01-04T14:56:04Z</time>
      </trkpt>
      <trkpt lat="45.67049" lon="4.70022">
        <ele>322.3166</ele>
        <time>2015-01-04T14:56:09Z</time>
      </trkpt>
      <trkpt lat="45.67045" lon="4.70029">
        <ele>322.3166</ele>
        <time>2015-01-04T14:56:14Z</time>
      </trkpt>
      <trkpt lat="45.67042" lon="4.70036">
        <ele>322.8299</ele>
        <time>2015-01-04T14:56:19Z</time>
      </trkpt>
      <trkpt lat="45.67039" lon="4.70044">
        <ele>322.8299</ele>
        <time>2015-01-04T14:56:24Z</time>
      </trkpt>
      <trkpt lat="45.67035" lon="4.70053">
        <ele>323.45413</ele>
        <time>2015-01-04T14:56:29Z</time>
      </trkpt>
      <trkpt lat="45.67032" lon="4.70059">
        <ele>323.45413</ele>
        <time>2015-01-04T14:56:34Z</time>
      </trkpt>
      <trkpt lat="45.67028" lon="4.70067">
        <ele>324.1494</ele>
        <time>2015-01-04T14:56:39Z</time>
      </trkpt>
      <trkpt lat="45.67025" lon="4.70073">
        <ele>324.1494</ele>
        <time>2015-01-04T14:56:44Z</time>
      </trkpt>
      <trkpt lat="45.67021" lon="4.7008">
        <ele>324.84985</ele>
        <time>2015-01-04T14:56:49Z</time>
      </trkpt>
      <trkpt lat="45.67017" lon="4.70088">
        <ele>324.84985</ele>
        <time>2015-01-04T14:56:54Z</time>
      </trkpt>
      <trkpt lat="45.67011" lon="4.70097">
        <ele>325.53772</ele>
        <time>2015-01-04T14:56:59Z</time>
      </trkpt>
      <trkpt lat="45.67005" lon="4.70105">
        <ele>325.53772</ele>
        <time>2015-01-04T14:57:04Z</time>
      </trkpt>
      <trkpt lat="45.66998" lon="4.70113">
        <ele>326.1389</ele>
        <time>2015-01-04T14:57:09Z</time>
      </trkpt>
      <trkpt lat="45.66996" lon="4.70121">
        <ele>326.1389</ele>
        <time>2015-01-04T14:57:14Z</time>
      </trkpt>
      <trkpt lat="45.66992" lon="4.70126">
        <ele>326.64273</ele>
        <time>2015-01-04T14:57:19Z</time>
      </trkpt>
      <trkpt lat="45.66987" lon="4.70131">
        <ele>326.64273</ele>
        <time>2015-01-04T14:57:24Z</time>
      </trkpt>
      <trkpt lat="45.6698" lon="4.70136">
        <ele>327.1406</ele>
        <time>2015-01-04T14:57:29Z</time>
      </trkpt>
      <trkpt lat="45.66974" lon="4.70144">
        <ele>327.1406</ele>
        <time>2015-01-04T14:57:34Z</time>
      </trkpt>
      <trkpt lat="45.66967" lon="4.70151">
        <ele>327.70273</ele>
        <time>2015-01-04T14:57:39Z</time>
      </trkpt>
      <trkpt lat="45.66964" lon="4.70156">
        <ele>327.70273</ele>
        <time>2015-01-04T14:57:44Z</time>
      </trkpt>
      <trkpt lat="45.6696" lon="4.70162">
        <ele>328.3221</ele>
        <time>2015-01-04T14:57:49Z</time>
      </trkpt>
      <trkpt lat="45.66955" lon="4.70167">
        <ele>328.3221</ele>
        <time>2015-01-04T14:57:54Z</time>
      </trkpt>
      <trkpt lat="45.6695" lon="4.70173">
        <ele>328.96326</ele>
        <time>2015-01-04T14:57:59Z</time>
      </trkpt>
      <trkpt lat="45.66945" lon="4.70179">
        <ele>328.96326</ele>
        <time>2015-01-04T14:58:04Z</time>
      </trkpt>
      <trkpt lat="45.66942" lon="4.70187">
        <ele>329.5645</ele>
        <time>2015-01-04T14:58:09Z</time>
      </trkpt>
      <trkpt lat="45.66937" lon="4.70193">
        <ele>329.5645</ele>
        <time>2015-01-04T14:58:14Z</time>
      </trkpt>
      <trkpt lat="45.66932" lon="4.702">
        <ele>330.05453</ele>
        <time>2015-01-04T14:58:19Z</time>
      </trkpt>
      <trkpt lat="45.66927" lon="4.70209">
        <ele>330.05453</ele>
        <time>2015-01-04T14:58:24Z</time>
      </trkpt>
      <trkpt lat="45.66922" lon="4.70215">
        <ele>330.5693</ele>
        <time>2015-01-04T14:58:29Z</time>
      </trkpt>
      <trkpt lat="45.66917" lon="4.70219">
        <ele>330.5693</ele>
        <time>2015-01-04T14:58:34Z</time>
      </trkpt>
      <trkpt lat="45.6691" lon="4.70223">
        <ele>330.93225</ele>
        <time>2015-01-04T14:58:39Z</time>
      </trkpt>
      <trkpt lat="45.66902" lon="4.70226">
        <ele>330.93225</ele>
        <time>2015-01-04T14:58:44Z</time>
      </trkpt>
      <trkpt lat="45.66897" lon="4.70228">
        <ele>331.19638</ele>
        <time>2015-01-04T14:58:49Z</time>
      </trkpt>
      <trkpt lat="45.66895" lon="4.70232">
        <ele>331.19638</ele>
        <time>2015-01-04T14:58:54Z</time>
      </trkpt>
      <trkpt lat="45.66892" lon="4.70244">
        <ele>331.39676</ele>
        <time>2015-01-04T14:58:59Z</time>
      </trkpt>
      <trkpt lat="45.66887" lon="4.70252">
        <ele>331.39676</ele>
        <time>2015-01-04T14:59:04Z</time>
      </trkpt>
      <trkpt lat="45.66883" lon="4.70255">
        <ele>331.71024</ele>
        <time>2015-01-04T14:59:09Z</time>
      </trkpt>
      <trkpt lat="45.66879" lon="4.70258">
        <ele>331.71024</ele>
        <time>2015-01-04T14:59:14Z</time>
      </trkpt>
      <trkpt lat="45.66879" lon="4.7026">
        <ele>331.71024</ele>
        <time>2015-01-04T14:59:19Z</time>
      </trkpt>
      <trkpt lat="45.66879" lon="4.70263">
        <ele>331.71024</ele>
        <time>2015-01-04T14:59:24Z</time>
      </trkpt>
      <trkpt lat="45.66879" lon="4.70264">
        <ele>332.2716</ele>
        <time>2015-01-04T14:59:29Z</time>
      </trkpt>
      <trkpt lat="45.6688" lon="4.70264">
        <ele>332.2716</ele>
        <time>2015-01-04T14:59:34Z</time>
      </trkpt>
      <trkpt lat="45.66879" lon="4.70264">
        <ele>332.2716</ele>
        <time>2015-01-04T14:59:39Z</time>
      </trkpt>
      <trkpt lat="45.66879" lon="4.70265">
        <ele>332.2716</ele>
        <time>2015-01-04T14:59:44Z</time>
      </trkpt>
      <trkpt lat="45.66878" lon="4.70265">
        <ele>332.2716</ele>
        <time>2015-01-04T14:59:49Z</time>
      </trkpt>
      <trkpt lat="45.66878" lon="4.70265">
        <ele>332.2716</ele>
        <time>2015-01-04T14:59:54Z</time>
      </trkpt>
      <trkpt lat="45.66877" lon="4.70265">
        <ele>332.2716</ele>
        <time>2015-01-04T14:59:59Z</time>
      </trkpt>
      <trkpt lat="45.66877" lon="4.70265">
        <ele>332.2716</ele>
        <time>2015-01-04T15:00:04Z</time>
      </trkpt>
      <trkpt lat="45.66873" lon="4.70266">
        <ele>332.2716</ele>
        <time>2015-01-04T15:00:09Z</time>
      </trkpt>
      <trkpt lat="45.66871" lon="4.70271">
        <ele>332.96014</ele>
        <time>2015-01-04T15:00:14Z</time>
      </trkpt>
      <trkpt lat="45.66868" lon="4.70276">
        <ele>332.96014</ele>
        <time>2015-01-04T15:00:19Z</time>
      </trkpt>
      <trkpt lat="45.66866" lon="4.70282">
        <ele>333.69247</ele>
        <time>2015-01-04T15:00:24Z</time>
      </trkpt>
      <trkpt lat="45.66865" lon="4.70289">
        <ele>333.69247</ele>
        <time>2015-01-04T15:00:29Z</time>
      </trkpt>
      <trkpt lat="45.66867" lon="4.70297">
        <ele>334.4202</ele>
        <time>2015-01-04T15:00:34Z</time>
      </trkpt>
      <trkpt lat="45.66869" lon="4.70303">
        <ele>334.4202</ele>
        <time>2015-01-04T15:00:39Z</time>
      </trkpt>
      <trkpt lat="45.66871" lon="4.7031">
        <ele>335.0552</ele>
        <time>2015-01-04T15:00:44Z</time>
      </trkpt>
      <trkpt lat="45.66877" lon="4.70316">
        <ele>335.0552</ele>
        <time>2015-01-04T15:00:49Z</time>
      </trkpt>
      <trkpt lat="45.6688" lon="4.7032">
        <ele>335.71805</ele>
        <time>2015-01-04T15:00:54Z</time>
      </trkpt>
      <trkpt lat="45.66883" lon="4.70327">
        <ele>335.71805</ele>
        <time>2015-01-04T15:00:59Z</time>
      </trkpt>
      <trkpt lat="45.66887" lon="4.70333">
        <ele>336.39062</ele>
        <time>2015-01-04T15:01:04Z</time>
      </trkpt>
      <trkpt lat="45.66893" lon="4.70341">
        <ele>336.39062</ele>
        <time>2015-01-04T15:01:09Z</time>
      </trkpt>
      <trkpt lat="45.66894" lon="4.70347">
        <ele>337.05627</ele>
        <time>2015-01-04T15:01:14Z</time>
      </trkpt>
      <trkpt lat="45.66896" lon="4.70356">
        <ele>337.05627</ele>
        <time>2015-01-04T15:01:19Z</time>
      </trkpt>
      <trkpt lat="45.66899" lon="4.70363">
        <ele>337.5987</ele>
        <time>2015-01-04T15:01:24Z</time>
      </trkpt>
      <trkpt lat="45.66904" lon="4.70371">
        <ele>337.5987</ele>
        <time>2015-01-04T15:01:29Z</time>
      </trkpt>
      <trkpt lat="45.66908" lon="4.70376">
        <ele>338.08353</ele>
        <time>2015-01-04T15:01:34Z</time>
      </trkpt>
      <trkpt lat="45.66913" lon="4.70385">
        <ele>338.08353</ele>
        <time>2015-01-04T15:01:39Z</time>
      </trkpt>
      <trkpt lat="45.66917" lon="4.70391">
        <ele>338.49976</ele>
        <time>2015-01-04T15:01:44Z</time>
      </trkpt>
      <trkpt lat="45.66918" lon="4.70394">
        <ele>338.49976</ele>
        <time>2015-01-04T15:01:49Z</time>
      </trkpt>
      <trkpt lat="45.66923" lon="4.70404">
        <ele>338.80856</ele>
        <time>2015-01-04T15:01:54Z</time>
      </trkpt>
      <trkpt lat="45.66928" lon="4.70412">
        <ele>338.80856</ele>
        <time>2015-01-04T15:01:59Z</time>
      </trkpt>
      <trkpt lat="45.66932" lon="4.70418">
        <ele>339.00323</ele>
        <time>2015-01-04T15:02:04Z</time>
      </trkpt>
      <trkpt lat="45.66935" lon="4.70428">
        <ele>339.00323</ele>
        <time>2015-01-04T15:02:09Z</time>
      </trkpt>
      <trkpt lat="45.6694" lon="4.70435">
        <ele>339.29398</ele>
        <time>2015-01-04T15:02:14Z</time>
      </trkpt>
      <trkpt lat="45.66944" lon="4.7044">
        <ele>339.29398</ele>
        <time>2015-01-04T15:02:19Z</time>
      </trkpt>
      <trkpt lat="45.66947" lon="4.70447">
        <ele>339.71692</ele>
        <time>2015-01-04T15:02:24Z</time>
      </trkpt>
      <trkpt lat="45.66951" lon="4.70456">
        <ele>339.71692</ele>
        <time>2015-01-04T15:02:29Z</time>
      </trkpt>
      <trkpt lat="45.66955" lon="4.70463">
        <ele>340.13226</ele>
        <time>2015-01-04T15:02:34Z</time>
      </trkpt>
      <trkpt lat="45.66962" lon="4.7047">
        <ele>340.13226</ele>
        <time>2015-01-04T15:02:39Z</time>
      </trkpt>
      <trkpt lat="45.66967" lon="4.70478">
        <ele>340.49695</ele>
        <time>2015-01-04T15:02:44Z</time>
      </trkpt>
      <trkpt lat="45.6697" lon="4.70486">
        <ele>340.49695</ele>
        <time>2015-01-04T15:02:49Z</time>
      </trkpt>
      <trkpt lat="45.66976" lon="4.70494">
        <ele>340.8866</ele>
        <time>2015-01-04T15:02:54Z</time>
      </trkpt>
      <trkpt lat="45.66979" lon="4.70499">
        <ele>340.8866</ele>
        <time>2015-01-04T15:02:59Z</time>
      </trkpt>
      <trkpt lat="45.66984" lon="4.70506">
        <ele>341.32806</ele>
        <time>2015-01-04T15:03:04Z</time>
      </trkpt>
      <trkpt lat="45.66989" lon="4.70513">
        <ele>341.32806</ele>
        <time>2015-01-04T15:03:09Z</time>
      </trkpt>
      <trkpt lat="45.66995" lon="4.7052">
        <ele>341.7019</ele>
        <time>2015-01-04T15:03:14Z</time>
      </trkpt>
      <trkpt lat="45.66999" lon="4.70528">
        <ele>341.7019</ele>
        <time>2015-01-04T15:03:19Z</time>
      </trkpt>
      <trkpt lat="45.67004" lon="4.70535">
        <ele>341.9986</ele>
        <time>2015-01-04T15:03:24Z</time>
      </trkpt>
      <trkpt lat="45.6701" lon="4.7054">
        <ele>341.9986</ele>
        <time>2015-01-04T15:03:29Z</time>
      </trkpt>
      <trkpt lat="45.67014" lon="4.70544">
        <ele>342.10873</ele>
        <time>2015-01-04T15:03:34Z</time>
      </trkpt>
      <trkpt lat="45.67021" lon="4.7055">
        <ele>342.10873</ele>
        <time>2015-01-04T15:03:39Z</time>
      </trkpt>
      <trkpt lat="45.67026" lon="4.70558">
        <ele>342.06113</ele>
        <time>2015-01-04T15:03:44Z</time>
      </trkpt>
      <trkpt lat="45.67032" lon="4.70566">
        <ele>342.06113</ele>
        <time>2015-01-04T15:03:49Z</time>
      </trkpt>
      <trkpt lat="45.67038" lon="4.7057">
        <ele>341.9118</ele>
        <time>2015-01-04T15:03:54Z</time>
      </trkpt>
      <trkpt lat="45.67042" lon="4.70575">
        <ele>341.9118</ele>
        <time>2015-01-04T15:03:59Z</time>
      </trkpt>
      <trkpt lat="45.67048" lon="4.70582">
        <ele>341.6409</ele>
        <time>2015-01-04T15:04:04Z</time>
      </trkpt>
      <trkpt lat="45.67053" lon="4.70587">
        <ele>341.6409</ele>
        <time>2015-01-04T15:04:09Z</time>
      </trkpt>
      <trkpt lat="45.67059" lon="4.7059">
        <ele>341.30243</ele>
        <time>2015-01-04T15:04:14Z</time>
      </trkpt>
      <trkpt lat="45.67063" lon="4.70594">
        <ele>341.30243</ele>
        <time>2015-01-04T15:04:19Z</time>
      </trkpt>
      <trkpt lat="45.67069" lon="4.70598">
        <ele>340.97546</ele>
        <time>2015-01-04T15:04:24Z</time>
      </trkpt>
      <trkpt lat="45.67073" lon="4.70604">
        <ele>340.97546</ele>
        <time>2015-01-04T15:04:29Z</time>
      </trkpt>
      <trkpt lat="45.67078" lon="4.70612">
        <ele>340.64676</ele>
        <time>2015-01-04T15:04:34Z</time>
      </trkpt>
      <trkpt lat="45.67084" lon="4.70617">
        <ele>340.64676</ele>
        <time>2015-01-04T15:04:39Z</time>
      </trkpt>
      <trkpt lat="45.67089" lon="4.70622">
        <ele>340.31848</ele>
        <time>2015-01-04T15:04:44Z</time>
      </trkpt>
      <trkpt lat="45.67093" lon="4.70627">
        <ele>340.31848</ele>
        <time>2015-01-04T15:04:49Z</time>
      </trkpt>
      <trkpt lat="45.67097" lon="4.70633">
        <ele>339.7764</ele>
        <time>2015-01-04T15:04:54Z</time>
      </trkpt>
      <trkpt lat="45.67101" lon="4.70639">
        <ele>339.7764</ele>
        <time>2015-01-04T15:04:59Z</time>
      </trkpt>
      <trkpt lat="45.67107" lon="4.70647">
        <ele>339.13968</ele>
        <time>2015-01-04T15:05:04Z</time>
      </trkpt>
      <trkpt lat="45.67114" lon="4.70657">
        <ele>338.46133</ele>
        <time>2015-01-04T15:05:09Z</time>
      </trkpt>
      <trkpt lat="45.67117" lon="4.70662">
        <ele>338.46133</ele>
        <time>2015-01-04T15:05:14Z</time>
      </trkpt>
      <trkpt lat="45.67121" lon="4.70669">
        <ele>337.81943</ele>
        <time>2015-01-04T15:05:19Z</time>
      </trkpt>
      <trkpt lat="45.67127" lon="4.70676">
        <ele>337.81943</ele>
        <time>2015-01-04T15:05:24Z</time>
      </trkpt>
      <trkpt lat="45.6713" lon="4.70683">
        <ele>337.24283</ele>
        <time>2015-01-04T15:05:29Z</time>
      </trkpt>
      <trkpt lat="45.67134" lon="4.70689">
        <ele>337.24283</ele>
        <time>2015-01-04T15:05:34Z</time>
      </trkpt>
      <trkpt lat="45.67138" lon="4.70698">
        <ele>336.7149</ele>
        <time>2015-01-04T15:05:39Z</time>
      </trkpt>
      <trkpt lat="45.67141" lon="4.70706">
        <ele>336.7149</ele>
        <time>2015-01-04T15:05:44Z</time>
      </trkpt>
      <trkpt lat="45.67144" lon="4.70713">
        <ele>336.2344</ele>
        <time>2015-01-04T15:05:49Z</time>
      </trkpt>
      <trkpt lat="45.67147" lon="4.70719">
        <ele>336.2344</ele>
        <time>2015-01-04T15:05:54Z</time>
      </trkpt>
      <trkpt lat="45.67151" lon="4.70727">
        <ele>335.85773</ele>
        <time>2015-01-04T15:05:59Z</time>
      </trkpt>
      <trkpt lat="45.67155" lon="4.70737">
        <ele>335.85773</ele>
        <time>2015-01-04T15:06:04Z</time>
      </trkpt>
      <trkpt lat="45.67158" lon="4.70747">
        <ele>335.46378</ele>
        <time>2015-01-04T15:06:09Z</time>
      </trkpt>
      <trkpt lat="45.67162" lon="4.70756">
        <ele>335.46378</ele>
        <time>2015-01-04T15:06:14Z</time>
      </trkpt>
      <trkpt lat="45.67163" lon="4.70763">
        <ele>335.11328</ele>
        <time>2015-01-04T15:06:19Z</time>
      </trkpt>
      <trkpt lat="45.67166" lon="4.7077">
        <ele>335.11328</ele>
        <time>2015-01-04T15:06:24Z</time>
      </trkpt>
      <trkpt lat="45.6717" lon="4.7078">
        <ele>334.80472</ele>
        <time>2015-01-04T15:06:29Z</time>
      </trkpt>
      <trkpt lat="45.67172" lon="4.70789">
        <ele>334.80472</ele>
        <time>2015-01-04T15:06:34Z</time>
      </trkpt>
      <trkpt lat="45.67174" lon="4.70798">
        <ele>334.5365</ele>
        <time>2015-01-04T15:06:39Z</time>
      </trkpt>
      <trkpt lat="45.67176" lon="4.70809">
        <ele>334.5365</ele>
        <time>2015-01-04T15:06:44Z</time>
      </trkpt>
      <trkpt lat="45.67178" lon="4.70816">
        <ele>334.29254</ele>
        <time>2015-01-04T15:06:49Z</time>
      </trkpt>
      <trkpt lat="45.6718" lon="4.70826">
        <ele>334.29254</ele>
        <time>2015-01-04T15:06:54Z</time>
      </trkpt>
      <trkpt lat="45.67183" lon="4.70835">
        <ele>334.0146</ele>
        <time>2015-01-04T15:06:59Z</time>
      </trkpt>
      <trkpt lat="45.67184" lon="4.70842">
        <ele>334.0146</ele>
        <time>2015-01-04T15:07:04Z</time>
      </trkpt>
      <trkpt lat="45.67186" lon="4.70851">
        <ele>333.70642</ele>
        <time>2015-01-04T15:07:09Z</time>
      </trkpt>
      <trkpt lat="45.67187" lon="4.70861">
        <ele>333.70642</ele>
        <time>2015-01-04T15:07:14Z</time>
      </trkpt>
      <trkpt lat="45.67189" lon="4.7087">
        <ele>333.3859</ele>
        <time>2015-01-04T15:07:19Z</time>
      </trkpt>
      <trkpt lat="45.67191" lon="4.70881">
        <ele>333.3859</ele>
        <time>2015-01-04T15:07:24Z</time>
      </trkpt>
      <trkpt lat="45.67192" lon="4.7089">
        <ele>333.09836</ele>
        <time>2015-01-04T15:07:29Z</time>
      </trkpt>
      <trkpt lat="45.67193" lon="4.70898">
        <ele>333.09836</ele>
        <time>2015-01-04T15:07:34Z</time>
      </trkpt>
      <trkpt lat="45.67194" lon="4.70909">
        <ele>332.88577</ele>
        <time>2015-01-04T15:07:39Z</time>
      </trkpt>
      <trkpt lat="45.67197" lon="4.70919">
        <ele>332.88577</ele>
        <time>2015-01-04T15:07:44Z</time>
      </trkpt>
      <trkpt lat="45.672" lon="4.70927">
        <ele>332.67136</ele>
        <time>2015-01-04T15:07:49Z</time>
      </trkpt>
      <trkpt lat="45.67202" lon="4.70933">
        <ele>332.67136</ele>
        <time>2015-01-04T15:07:54Z</time>
      </trkpt>
      <trkpt lat="45.67204" lon="4.7094">
        <ele>332.41278</ele>
        <time>2015-01-04T15:07:59Z</time>
      </trkpt>
      <trkpt lat="45.67205" lon="4.70949">
        <ele>332.41278</ele>
        <time>2015-01-04T15:08:04Z</time>
      </trkpt>
      <trkpt lat="45.67205" lon="4.70952">
        <ele>332.41278</ele>
        <time>2015-01-04T15:08:09Z</time>
      </trkpt>
      <trkpt lat="45.67206" lon="4.70955">
        <ele>332.18625</ele>
        <time>2015-01-04T15:08:14Z</time>
      </trkpt>
      <trkpt lat="45.67207" lon="4.70962">
        <ele>332.18625</ele>
        <time>2015-01-04T15:08:19Z</time>
      </trkpt>
      <trkpt lat="45.67208" lon="4.70968">
        <ele>332.07654</ele>
        <time>2015-01-04T15:08:24Z</time>
      </trkpt>
      <trkpt lat="45.67211" lon="4.70977">
        <ele>332.07654</ele>
        <time>2015-01-04T15:08:29Z</time>
      </trkpt>
      <trkpt lat="45.67214" lon="4.70983">
        <ele>331.96014</ele>
        <time>2015-01-04T15:08:34Z</time>
      </trkpt>
      <trkpt lat="45.67218" lon="4.70989">
        <ele>331.96014</ele>
        <time>2015-01-04T15:08:39Z</time>
      </trkpt>
      <trkpt lat="45.67222" lon="4.70996">
        <ele>331.88107</ele>
        <time>2015-01-04T15:08:44Z</time>
      </trkpt>
      <trkpt lat="45.67226" lon="4.71002">
        <ele>331.88107</ele>
        <time>2015-01-04T15:08:49Z</time>
      </trkpt>
      <trkpt lat="45.6723" lon="4.71007">
        <ele>331.8512</ele>
        <time>2015-01-04T15:08:54Z</time>
      </trkpt>
      <trkpt lat="45.67234" lon="4.71013">
        <ele>331.8512</ele>
        <time>2015-01-04T15:08:59Z</time>
      </trkpt>
      <trkpt lat="45.6724" lon="4.71019">
        <ele>331.86688</ele>
        <time>2015-01-04T15:09:04Z</time>
      </trkpt>
      <trkpt lat="45.67244" lon="4.71025">
        <ele>331.86688</ele>
        <time>2015-01-04T15:09:09Z</time>
      </trkpt>
      <trkpt lat="45.6725" lon="4.71032">
        <ele>331.88138</ele>
        <time>2015-01-04T15:09:14Z</time>
      </trkpt>
      <trkpt lat="45.67256" lon="4.71041">
        <ele>331.88138</ele>
        <time>2015-01-04T15:09:19Z</time>
      </trkpt>
      <trkpt lat="45.67259" lon="4.71045">
        <ele>331.82248</ele>
        <time>2015-01-04T15:09:24Z</time>
      </trkpt>
      <trkpt lat="45.67262" lon="4.7105">
        <ele>331.82248</ele>
        <time>2015-01-04T15:09:29Z</time>
      </trkpt>
      <trkpt lat="45.67265" lon="4.71056">
        <ele>331.6956</ele>
        <time>2015-01-04T15:09:34Z</time>
      </trkpt>
      <trkpt lat="45.67267" lon="4.71061">
        <ele>331.6956</ele>
        <time>2015-01-04T15:09:39Z</time>
      </trkpt>
      <trkpt lat="45.67266" lon="4.71065">
        <ele>331.6956</ele>
        <time>2015-01-04T15:09:44Z</time>
      </trkpt>
      <trkpt lat="45.67263" lon="4.7107">
        <ele>331.5202</ele>
        <time>2015-01-04T15:09:49Z</time>
      </trkpt>
      <trkpt lat="45.67257" lon="4.71076">
        <ele>331.5202</ele>
        <time>2015-01-04T15:09:54Z</time>
      </trkpt>
      <trkpt lat="45.67253" lon="4.71079">
        <ele>331.42984</ele>
        <time>2015-01-04T15:09:59Z</time>
      </trkpt>
      <trkpt lat="45.67247" lon="4.71085">
        <ele>331.42984</ele>
        <time>2015-01-04T15:10:04Z</time>
      </trkpt>
      <trkpt lat="45.67242" lon="4.7109">
        <ele>331.43265</ele>
        <time>2015-01-04T15:10:09Z</time>
      </trkpt>
      <trkpt lat="45.67236" lon="4.71094">
        <ele>331.43265</ele>
        <time>2015-01-04T15:10:14Z</time>
      </trkpt>
      <trkpt lat="45.67231" lon="4.71101">
        <ele>331.50708</ele>
        <time>2015-01-04T15:10:19Z</time>
      </trkpt>
      <trkpt lat="45.67227" lon="4.71103">
        <ele>331.50708</ele>
        <time>2015-01-04T15:10:24Z</time>
      </trkpt>
      <trkpt lat="45.67223" lon="4.71106">
        <ele>331.50708</ele>
        <time>2015-01-04T15:10:29Z</time>
      </trkpt>
      <trkpt lat="45.67218" lon="4.71112">
        <ele>331.7194</ele>
        <time>2015-01-04T15:10:34Z</time>
      </trkpt>
      <trkpt lat="45.67213" lon="4.71117">
        <ele>331.7194</ele>
        <time>2015-01-04T15:10:39Z</time>
      </trkpt>
      <trkpt lat="45.6721" lon="4.71122">
        <ele>331.9</ele>
        <time>2015-01-04T15:10:44Z</time>
      </trkpt>
      <trkpt lat="45.67207" lon="4.71124">
        <ele>331.9</ele>
        <time>2015-01-04T15:10:49Z</time>
      </trkpt>
      <trkpt lat="45.67204" lon="4.71125">
        <ele>331.9</ele>
        <time>2015-01-04T15:10:54Z</time>
      </trkpt>
      <trkpt lat="45.67201" lon="4.71128">
        <ele>331.99274</ele>
        <time>2015-01-04T15:10:59Z</time>
      </trkpt>
      <trkpt lat="45.67197" lon="4.71134">
        <ele>331.99274</ele>
        <time>2015-01-04T15:11:04Z</time>
      </trkpt>
      <trkpt lat="45.67194" lon="4.71136">
        <ele>332.0467</ele>
        <time>2015-01-04T15:11:09Z</time>
      </trkpt>
      <trkpt lat="45.67191" lon="4.71141">
        <ele>332.0467</ele>
        <time>2015-01-04T15:11:14Z</time>
      </trkpt>
      <trkpt lat="45.67187" lon="4.71145">
        <ele>332.02097</ele>
        <time>2015-01-04T15:11:19Z</time>
      </trkpt>
      <trkpt lat="45.67183" lon="4.71148">
        <ele>332.02097</ele>
        <time>2015-01-04T15:11:24Z</time>
      </trkpt>
      <trkpt lat="45.67183" lon="4.71148">
        <ele>332.02097</ele>
        <time>2015-01-04T15:11:29Z</time>
      </trkpt>
      <trkpt lat="45.67183" lon="4.71149">
        <ele>332.02097</ele>
        <time>2015-01-04T15:11:34Z</time>
      </trkpt>
      <trkpt lat="45.67182" lon="4.71149">
        <ele>332.02097</ele>
        <time>2015-01-04T15:11:39Z</time>
      </trkpt>
      <trkpt lat="45.67181" lon="4.7115">
        <ele>332.02097</ele>
        <time>2015-01-04T15:11:44Z</time>
      </trkpt>
      <trkpt lat="45.67181" lon="4.71151">
        <ele>332.02097</ele>
        <time>2015-01-04T15:11:49Z</time>
      </trkpt>
      <trkpt lat="45.67181" lon="4.71152">
        <ele>332.02097</ele>
        <time>2015-01-04T15:11:54Z</time>
      </trkpt>
      <trkpt lat="45.67181" lon="4.71152">
        <ele>332.02097</ele>
        <time>2015-01-04T15:11:59Z</time>
      </trkpt>
      <trkpt lat="45.67181" lon="4.71152">
        <ele>331.89224</ele>
        <time>2015-01-04T15:12:04Z</time>
      </trkpt>
      <trkpt lat="45.67181" lon="4.71152">
        <ele>331.89224</ele>
        <time>2015-01-04T15:12:09Z</time>
      </trkpt>
      <trkpt lat="45.67181" lon="4.71151">
        <ele>331.89224</ele>
        <time>2015-01-04T15:12:14Z</time>
      </trkpt>
      <trkpt lat="45.6718" lon="4.71152">
        <ele>331.89224</ele>
        <time>2015-01-04T15:12:19Z</time>
      </trkpt>
      <trkpt lat="45.67177" lon="4.71159">
        <ele>331.89224</ele>
        <time>2015-01-04T15:12:24Z</time>
      </trkpt>
      <trkpt lat="45.67174" lon="4.71161">
        <ele>331.85547</ele>
        <time>2015-01-04T15:12:29Z</time>
      </trkpt>
      <trkpt lat="45.67167" lon="4.71166">
        <ele>331.85547</ele>
        <time>2015-01-04T15:12:34Z</time>
      </trkpt>
      <trkpt lat="45.67163" lon="4.7117">
        <ele>331.78833</ele>
        <time>2015-01-04T15:12:39Z</time>
      </trkpt>
      <trkpt lat="45.67159" lon="4.71176">
        <ele>331.78833</ele>
        <time>2015-01-04T15:12:44Z</time>
      </trkpt>
      <trkpt lat="45.67155" lon="4.71179">
        <ele>331.67844</ele>
        <time>2015-01-04T15:12:49Z</time>
      </trkpt>
      <trkpt lat="45.6715" lon="4.71182">
        <ele>331.67844</ele>
        <time>2015-01-04T15:12:54Z</time>
      </trkpt>
      <trkpt lat="45.67144" lon="4.71188">
        <ele>331.5721</ele>
        <time>2015-01-04T15:12:59Z</time>
      </trkpt>
      <trkpt lat="45.67139" lon="4.71194">
        <ele>331.5721</ele>
        <time>2015-01-04T15:13:04Z</time>
      </trkpt>
      <trkpt lat="45.67135" lon="4.71198">
        <ele>331.39694</ele>
        <time>2015-01-04T15:13:09Z</time>
      </trkpt>
      <trkpt lat="45.67131" lon="4.71203">
        <ele>331.39694</ele>
        <time>2015-01-04T15:13:14Z</time>
      </trkpt>
      <trkpt lat="45.67125" lon="4.71208">
        <ele>331.11484</ele>
        <time>2015-01-04T15:13:19Z</time>
      </trkpt>
      <trkpt lat="45.67121" lon="4.71212">
        <ele>331.11484</ele>
        <time>2015-01-04T15:13:24Z</time>
      </trkpt>
      <trkpt lat="45.67116" lon="4.71217">
        <ele>330.7629</ele>
        <time>2015-01-04T15:13:29Z</time>
      </trkpt>
      <trkpt lat="45.67112" lon="4.71223">
        <ele>330.7629</ele>
        <time>2015-01-04T15:13:34Z</time>
      </trkpt>
      <trkpt lat="45.67108" lon="4.71226">
        <ele>330.34692</ele>
        <time>2015-01-04T15:13:39Z</time>
      </trkpt>
      <trkpt lat="45.67102" lon="4.71232">
        <ele>330.34692</ele>
        <time>2015-01-04T15:13:44Z</time>
      </trkpt>
      <trkpt lat="45.67096" lon="4.71237">
        <ele>329.84348</ele>
        <time>2015-01-04T15:13:49Z</time>
      </trkpt>
      <trkpt lat="45.67091" lon="4.71242">
        <ele>329.84348</ele>
        <time>2015-01-04T15:13:54Z</time>
      </trkpt>
      <trkpt lat="45.67087" lon="4.71247">
        <ele>329.28885</ele>
        <time>2015-01-04T15:13:59Z</time>
      </trkpt>
      <trkpt lat="45.67081" lon="4.71253">
        <ele>329.28885</ele>
        <time>2015-01-04T15:14:04Z</time>
      </trkpt>
      <trkpt lat="45.67076" lon="4.71258">
        <ele>328.7456</ele>
        <time>2015-01-04T15:14:09Z</time>
      </trkpt>
      <trkpt lat="45.67072" lon="4.71263">
        <ele>328.7456</ele>
        <time>2015-01-04T15:14:14Z</time>
      </trkpt>
      <trkpt lat="45.67067" lon="4.71267">
        <ele>328.27167</ele>
        <time>2015-01-04T15:14:19Z</time>
      </trkpt>
      <trkpt lat="45.67062" lon="4.71271">
        <ele>328.27167</ele>
        <time>2015-01-04T15:14:24Z</time>
      </trkpt>
      <trkpt lat="45.67054" lon="4.71277">
        <ele>327.87726</ele>
        <time>2015-01-04T15:14:29Z</time>
      </trkpt>
      <trkpt lat="45.6705" lon="4.71281">
        <ele>327.87726</ele>
        <time>2015-01-04T15:14:34Z</time>
      </trkpt>
      <trkpt lat="45.67045" lon="4.71287">
        <ele>327.39865</ele>
        <time>2015-01-04T15:14:39Z</time>
      </trkpt>
      <trkpt lat="45.6704" lon="4.71292">
        <ele>327.39865</ele>
        <time>2015-01-04T15:14:44Z</time>
      </trkpt>
      <trkpt lat="45.67036" lon="4.71297">
        <ele>326.84293</ele>
        <time>2015-01-04T15:14:49Z</time>
      </trkpt>
      <trkpt lat="45.67033" lon="4.71301">
        <ele>326.84293</ele>
        <time>2015-01-04T15:14:54Z</time>
      </trkpt>
      <trkpt lat="45.67029" lon="4.71305">
        <ele>326.84293</ele>
        <time>2015-01-04T15:14:59Z</time>
      </trkpt>
      <trkpt lat="45.67025" lon="4.71309">
        <ele>326.18802</ele>
        <time>2015-01-04T15:15:04Z</time>
      </trkpt>
      <trkpt lat="45.67019" lon="4.71316">
        <ele>326.18802</ele>
        <time>2015-01-04T15:15:09Z</time>
      </trkpt>
      <trkpt lat="45.67014" lon="4.71322">
        <ele>325.3993</ele>
        <time>2015-01-04T15:15:14Z</time>
      </trkpt>
      <trkpt lat="45.67008" lon="4.71327">
        <ele>325.3993</ele>
        <time>2015-01-04T15:15:19Z</time>
      </trkpt>
      <trkpt lat="45.67006" lon="4.71331">
        <ele>324.50272</ele>
        <time>2015-01-04T15:15:24Z</time>
      </trkpt>
      <trkpt lat="45.67002" lon="4.71334">
        <ele>324.50272</ele>
        <time>2015-01-04T15:15:29Z</time>
      </trkpt>
      <trkpt lat="45.66997" lon="4.71341">
        <ele>323.56577</ele>
        <time>2015-01-04T15:15:34Z</time>
      </trkpt>
      <trkpt lat="45.66992" lon="4.71348">
        <ele>323.56577</ele>
        <time>2015-01-04T15:15:39Z</time>
      </trkpt>
      <trkpt lat="45.66986" lon="4.71352">
        <ele>322.5935</ele>
        <time>2015-01-04T15:15:44Z</time>
      </trkpt>
      <trkpt lat="45.66984" lon="4.71356">
        <ele>322.5935</ele>
        <time>2015-01-04T15:15:49Z</time>
      </trkpt>
      <trkpt lat="45.66978" lon="4.71362">
        <ele>321.6915</ele>
        <time>2015-01-04T15:15:54Z</time>
      </trkpt>
      <trkpt lat="45.66974" lon="4.71369">
        <ele>321.6915</ele>
        <time>2015-01-04T15:15:59Z</time>
      </trkpt>
      <trkpt lat="45.66968" lon="4.71376">
        <ele>320.81326</ele>
        <time>2015-01-04T15:16:04Z</time>
      </trkpt>
      <trkpt lat="45.66962" lon="4.71381">
        <ele>320.81326</ele>
        <time>2015-01-04T15:16:09Z</time>
      </trkpt>
      <trkpt lat="45.66957" lon="4.71388">
        <ele>319.9588</ele>
        <time>2015-01-04T15:16:14Z</time>
      </trkpt>
      <trkpt lat="45.66953" lon="4.71395">
        <ele>319.9588</ele>
        <time>2015-01-04T15:16:19Z</time>
      </trkpt>
      <trkpt lat="45.66948" lon="4.71398">
        <ele>319.14243</ele>
        <time>2015-01-04T15:16:24Z</time>
      </trkpt>
      <trkpt lat="45.66945" lon="4.71405">
        <ele>319.14243</ele>
        <time>2015-01-04T15:16:29Z</time>
      </trkpt>
      <trkpt lat="45.66941" lon="4.71413">
        <ele>318.33408</ele>
        <time>2015-01-04T15:16:34Z</time>
      </trkpt>
      <trkpt lat="45.6694" lon="4.71417">
        <ele>318.33408</ele>
        <time>2015-01-04T15:16:39Z</time>
      </trkpt>
      <trkpt lat="45.66938" lon="4.71419">
        <ele>318.33408</ele>
        <time>2015-01-04T15:16:44Z</time>
      </trkpt>
      <trkpt lat="45.66931" lon="4.71426">
        <ele>317.62106</ele>
        <time>2015-01-04T15:16:49Z</time>
      </trkpt>
      <trkpt lat="45.66925" lon="4.71431">
        <ele>317.62106</ele>
        <time>2015-01-04T15:16:54Z</time>
      </trkpt>
      <trkpt lat="45.66921" lon="4.71433">
        <ele>316.95425</ele>
        <time>2015-01-04T15:16:59Z</time>
      </trkpt>
      <trkpt lat="45.66915" lon="4.71439">
        <ele>316.95425</ele>
        <time>2015-01-04T15:17:04Z</time>
      </trkpt>
      <trkpt lat="45.66911" lon="4.71445">
        <ele>316.1295</ele>
        <time>2015-01-04T15:17:09Z</time>
      </trkpt>
      <trkpt lat="45.66908" lon="4.71451">
        <ele>316.1295</ele>
        <time>2015-01-04T15:17:14Z</time>
      </trkpt>
      <trkpt lat="45.66903" lon="4.71458">
        <ele>315.27502</ele>
        <time>2015-01-04T15:17:19Z</time>
      </trkpt>
      <trkpt lat="45.66899" lon="4.71468">
        <ele>315.27502</ele>
        <time>2015-01-04T15:17:24Z</time>
      </trkpt>
      <trkpt lat="45.66895" lon="4.71474">
        <ele>314.49527</ele>
        <time>2015-01-04T15:17:29Z</time>
      </trkpt>
      <trkpt lat="45.6689" lon="4.71481">
        <ele>314.49527</ele>
        <time>2015-01-04T15:17:34Z</time>
      </trkpt>
      <trkpt lat="45.66885" lon="4.71484">
        <ele>313.7715</ele>
        <time>2015-01-04T15:17:39Z</time>
      </trkpt>
      <trkpt lat="45.66879" lon="4.71493">
        <ele>313.7715</ele>
        <time>2015-01-04T15:17:44Z</time>
      </trkpt>
      <trkpt lat="45.66876" lon="4.71501">
        <ele>313.15817</ele>
        <time>2015-01-04T15:17:49Z</time>
      </trkpt>
      <trkpt lat="45.66876" lon="4.71502">
        <ele>313.15817</ele>
        <time>2015-01-04T15:17:54Z</time>
      </trkpt>
      <trkpt lat="45.66871" lon="4.71505">
        <ele>313.15817</ele>
        <time>2015-01-04T15:17:59Z</time>
      </trkpt>
      <trkpt lat="45.66868" lon="4.71511">
        <ele>312.40274</ele>
        <time>2015-01-04T15:18:04Z</time>
      </trkpt>
      <trkpt lat="45.66864" lon="4.71521">
        <ele>312.40274</ele>
        <time>2015-01-04T15:18:09Z</time>
      </trkpt>
      <trkpt lat="45.6686" lon="4.7153">
        <ele>311.57425</ele>
        <time>2015-01-04T15:18:14Z</time>
      </trkpt>
      <trkpt lat="45.66856" lon="4.71538">
        <ele>311.57425</ele>
        <time>2015-01-04T15:18:19Z</time>
      </trkpt>
      <trkpt lat="45.66853" lon="4.71546">
        <ele>310.80887</ele>
        <time>2015-01-04T15:18:24Z</time>
      </trkpt>
      <trkpt lat="45.66848" lon="4.71556">
        <ele>310.80887</ele>
        <time>2015-01-04T15:18:29Z</time>
      </trkpt>
      <trkpt lat="45.66844" lon="4.71564">
        <ele>310.1316</ele>
        <time>2015-01-04T15:18:34Z</time>
      </trkpt>
      <trkpt lat="45.66841" lon="4.7157">
        <ele>310.1316</ele>
        <time>2015-01-04T15:18:39Z</time>
      </trkpt>
      <trkpt lat="45.66837" lon="4.71578">
        <ele>309.4357</ele>
        <time>2015-01-04T15:18:44Z</time>
      </trkpt>
      <trkpt lat="45.66832" lon="4.71588">
        <ele>309.4357</ele>
        <time>2015-01-04T15:18:49Z</time>
      </trkpt>
      <trkpt lat="45.66828" lon="4.71596">
        <ele>308.7808</ele>
        <time>2015-01-04T15:18:54Z</time>
      </trkpt>
      <trkpt lat="45.66823" lon="4.71606">
        <ele>308.7808</ele>
        <time>2015-01-04T15:18:59Z</time>
      </trkpt>
      <trkpt lat="45.66818" lon="4.71613">
        <ele>308.1931</ele>
        <time>2015-01-04T15:19:04Z</time>
      </trkpt>
      <trkpt lat="45.66815" lon="4.71619">
        <ele>308.1931</ele>
        <time>2015-01-04T15:19:09Z</time>
      </trkpt>
      <trkpt lat="45.66812" lon="4.71627">
        <ele>307.6247</ele>
        <time>2015-01-04T15:19:14Z</time>
      </trkpt>
      <trkpt lat="45.66804" lon="4.71634">
        <ele>307.6247</ele>
        <time>2015-01-04T15:19:19Z</time>
      </trkpt>
      <trkpt lat="45.66799" lon="4.71641">
        <ele>307.05988</ele>
        <time>2015-01-04T15:19:24Z</time>
      </trkpt>
      <trkpt lat="45.66797" lon="4.71645">
        <ele>307.05988</ele>
        <time>2015-01-04T15:19:29Z</time>
      </trkpt>
      <trkpt lat="45.66792" lon="4.71654">
        <ele>306.61368</ele>
        <time>2015-01-04T15:19:34Z</time>
      </trkpt>
      <trkpt lat="45.66786" lon="4.71663">
        <ele>306.61368</ele>
        <time>2015-01-04T15:19:39Z</time>
      </trkpt>
      <trkpt lat="45.66781" lon="4.71666">
        <ele>306.2195</ele>
        <time>2015-01-04T15:19:44Z</time>
      </trkpt>
      <trkpt lat="45.66775" lon="4.71673">
        <ele>306.2195</ele>
        <time>2015-01-04T15:19:49Z</time>
      </trkpt>
      <trkpt lat="45.6677" lon="4.71678">
        <ele>305.85867</ele>
        <time>2015-01-04T15:19:54Z</time>
      </trkpt>
      <trkpt lat="45.66764" lon="4.7169">
        <ele>305.52814</ele>
        <time>2015-01-04T15:19:59Z</time>
      </trkpt>
      <trkpt lat="45.66758" lon="4.71698">
        <ele>305.52814</ele>
        <time>2015-01-04T15:20:04Z</time>
      </trkpt>
      <trkpt lat="45.66754" lon="4.71708">
        <ele>305.16736</ele>
        <time>2015-01-04T15:20:09Z</time>
      </trkpt>
      <trkpt lat="45.6675" lon="4.71715">
        <ele>305.16736</ele>
        <time>2015-01-04T15:20:14Z</time>
      </trkpt>
      <trkpt lat="45.66747" lon="4.71723">
        <ele>304.79233</ele>
        <time>2015-01-04T15:20:19Z</time>
      </trkpt>
      <trkpt lat="45.66741" lon="4.71732">
        <ele>304.79233</ele>
        <time>2015-01-04T15:20:24Z</time>
      </trkpt>
      <trkpt lat="45.66733" lon="4.71742">
        <ele>304.3459</ele>
        <time>2015-01-04T15:20:29Z</time>
      </trkpt>
      <trkpt lat="45.66728" lon="4.71748">
        <ele>304.3459</ele>
        <time>2015-01-04T15:20:34Z</time>
      </trkpt>
      <trkpt lat="45.66722" lon="4.71756">
        <ele>303.83286</ele>
        <time>2015-01-04T15:20:39Z</time>
      </trkpt>
      <trkpt lat="45.66717" lon="4.71762">
        <ele>303.83286</ele>
        <time>2015-01-04T15:20:44Z</time>
      </trkpt>
      <trkpt lat="45.66714" lon="4.71764">
        <ele>303.40204</ele>
        <time>2015-01-04T15:20:49Z</time>
      </trkpt>
      <trkpt lat="45.66712" lon="4.71766">
        <ele>303.40204</ele>
        <time>2015-01-04T15:20:54Z</time>
      </trkpt>
      <trkpt lat="45.6671" lon="4.71769">
        <ele>303.40204</ele>
        <time>2015-01-04T15:20:59Z</time>
      </trkpt>
      <trkpt lat="45.66707" lon="4.71771">
        <ele>303.40204</ele>
        <time>2015-01-04T15:21:04Z</time>
      </trkpt>
      <trkpt lat="45.66705" lon="4.71773">
        <ele>303.0757</ele>
        <time>2015-01-04T15:21:09Z</time>
      </trkpt>
      <trkpt lat="45.66703" lon="4.71775">
        <ele>303.0757</ele>
        <time>2015-01-04T15:21:14Z</time>
      </trkpt>
      <trkpt lat="45.66698" lon="4.7178">
        <ele>303.0757</ele>
        <time>2015-01-04T15:21:19Z</time>
      </trkpt>
      <trkpt lat="45.66692" lon="4.71787">
        <ele>302.97516</ele>
        <time>2015-01-04T15:21:24Z</time>
      </trkpt>
      <trkpt lat="45.66689" lon="4.71792">
        <ele>302.97516</ele>
        <time>2015-01-04T15:21:29Z</time>
      </trkpt>
      <trkpt lat="45.66684" lon="4.71795">
        <ele>302.96713</ele>
        <time>2015-01-04T15:21:34Z</time>
      </trkpt>
      <trkpt lat="45.66679" lon="4.718">
        <ele>302.96713</ele>
        <time>2015-01-04T15:21:39Z</time>
      </trkpt>
      <trkpt lat="45.66673" lon="4.71804">
        <ele>303.05756</ele>
        <time>2015-01-04T15:21:44Z</time>
      </trkpt>
      <trkpt lat="45.66669" lon="4.71806">
        <ele>303.05756</ele>
        <time>2015-01-04T15:21:49Z</time>
      </trkpt>
      <trkpt lat="45.66664" lon="4.71806">
        <ele>303.3526</ele>
        <time>2015-01-04T15:21:54Z</time>
      </trkpt>
      <trkpt lat="45.66657" lon="4.71808">
        <ele>303.3526</ele>
        <time>2015-01-04T15:21:59Z</time>
      </trkpt>
      <trkpt lat="45.66651" lon="4.71808">
        <ele>303.71945</ele>
        <time>2015-01-04T15:22:04Z</time>
      </trkpt>
      <trkpt lat="45.66643" lon="4.71807">
        <ele>303.71945</ele>
        <time>2015-01-04T15:22:09Z</time>
      </trkpt>
      <trkpt lat="45.66635" lon="4.71806">
        <ele>304.0925</ele>
        <time>2015-01-04T15:22:14Z</time>
      </trkpt>
      <trkpt lat="45.66627" lon="4.71804">
        <ele>304.0925</ele>
        <time>2015-01-04T15:22:19Z</time>
      </trkpt>
      <trkpt lat="45.66621" lon="4.71801">
        <ele>304.45422</ele>
        <time>2015-01-04T15:22:24Z</time>
      </trkpt>
      <trkpt lat="45.66614" lon="4.71799">
        <ele>304.45422</ele>
        <time>2015-01-04T15:22:29Z</time>
      </trkpt>
      <trkpt lat="45.66607" lon="4.71797">
        <ele>304.90375</ele>
        <time>2015-01-04T15:22:34Z</time>
      </trkpt>
      <trkpt lat="45.666" lon="4.71795">
        <ele>304.90375</ele>
        <time>2015-01-04T15:22:39Z</time>
      </trkpt>
      <trkpt lat="45.66596" lon="4.71793">
        <ele>305.47507</ele>
        <time>2015-01-04T15:22:44Z</time>
      </trkpt>
      <trkpt lat="45.66589" lon="4.71791">
        <ele>305.47507</ele>
        <time>2015-01-04T15:22:49Z</time>
      </trkpt>
      <trkpt lat="45.66581" lon="4.71789">
        <ele>306.012</ele>
        <time>2015-01-04T15:22:54Z</time>
      </trkpt>
      <trkpt lat="45.66574" lon="4.71787">
        <ele>306.012</ele>
        <time>2015-01-04T15:22:59Z</time>
      </trkpt>
      <trkpt lat="45.66567" lon="4.71783">
        <ele>306.5573</ele>
        <time>2015-01-04T15:23:04Z</time>
      </trkpt>
      <trkpt lat="45.66562" lon="4.71782">
        <ele>306.5573</ele>
        <time>2015-01-04T15:23:09Z</time>
      </trkpt>
      <trkpt lat="45.66554" lon="4.71782">
        <ele>307.07867</ele>
        <time>2015-01-04T15:23:14Z</time>
      </trkpt>
      <trkpt lat="45.66546" lon="4.71782">
        <ele>307.07867</ele>
        <time>2015-01-04T15:23:19Z</time>
      </trkpt>
      <trkpt lat="45.6654" lon="4.71781">
        <ele>307.5606</ele>
        <time>2015-01-04T15:23:24Z</time>
      </trkpt>
      <trkpt lat="45.66535" lon="4.7178">
        <ele>307.5606</ele>
        <time>2015-01-04T15:23:29Z</time>
      </trkpt>
      <trkpt lat="45.66528" lon="4.71779">
        <ele>307.989</ele>
        <time>2015-01-04T15:23:34Z</time>
      </trkpt>
      <trkpt lat="45.66523" lon="4.7178">
        <ele>307.989</ele>
        <time>2015-01-04T15:23:39Z</time>
      </trkpt>
      <trkpt lat="45.66518" lon="4.71779">
        <ele>308.5815</ele>
        <time>2015-01-04T15:23:44Z</time>
      </trkpt>
      <trkpt lat="45.66511" lon="4.71777">
        <ele>308.5815</ele>
        <time>2015-01-04T15:23:49Z</time>
      </trkpt>
      <trkpt lat="45.66503" lon="4.71772">
        <ele>309.32324</ele>
        <time>2015-01-04T15:23:54Z</time>
      </trkpt>
      <trkpt lat="45.66497" lon="4.7177">
        <ele>309.32324</ele>
        <time>2015-01-04T15:23:59Z</time>
      </trkpt>
      <trkpt lat="45.66491" lon="4.71769">
        <ele>310.07043</ele>
        <time>2015-01-04T15:24:04Z</time>
      </trkpt>
      <trkpt lat="45.66484" lon="4.71766">
        <ele>310.07043</ele>
        <time>2015-01-04T15:24:09Z</time>
      </trkpt>
      <trkpt lat="45.66476" lon="4.71764">
        <ele>310.7763</ele>
        <time>2015-01-04T15:24:14Z</time>
      </trkpt>
      <trkpt lat="45.66469" lon="4.71764">
        <ele>310.7763</ele>
        <time>2015-01-04T15:24:19Z</time>
      </trkpt>
      <trkpt lat="45.66462" lon="4.71763">
        <ele>311.44104</ele>
        <time>2015-01-04T15:24:24Z</time>
      </trkpt>
      <trkpt lat="45.66457" lon="4.71762">
        <ele>311.44104</ele>
        <time>2015-01-04T15:24:29Z</time>
      </trkpt>
      <trkpt lat="45.66451" lon="4.71761">
        <ele>311.97845</ele>
        <time>2015-01-04T15:24:34Z</time>
      </trkpt>
      <trkpt lat="45.66446" lon="4.71758">
        <ele>311.97845</ele>
        <time>2015-01-04T15:24:39Z</time>
      </trkpt>
      <trkpt lat="45.66442" lon="4.71755">
        <ele>312.32358</ele>
        <time>2015-01-04T15:24:44Z</time>
      </trkpt>
      <trkpt lat="45.66435" lon="4.71751">
        <ele>312.32358</ele>
        <time>2015-01-04T15:24:49Z</time>
      </trkpt>
      <trkpt lat="45.66433" lon="4.71751">
        <ele>312.63303</ele>
        <time>2015-01-04T15:24:54Z</time>
      </trkpt>
      <trkpt lat="45.6643" lon="4.71749">
        <ele>312.63303</ele>
        <time>2015-01-04T15:24:59Z</time>
      </trkpt>
      <trkpt lat="45.66424" lon="4.71744">
        <ele>312.82147</ele>
        <time>2015-01-04T15:25:04Z</time>
      </trkpt>
      <trkpt lat="45.66421" lon="4.71744">
        <ele>312.82147</ele>
        <time>2015-01-04T15:25:09Z</time>
      </trkpt>
      <trkpt lat="45.66417" lon="4.71741">
        <ele>312.82147</ele>
        <time>2015-01-04T15:25:14Z</time>
      </trkpt>
      <trkpt lat="45.66411" lon="4.7174">
        <ele>312.66617</ele>
        <time>2015-01-04T15:25:19Z</time>
      </trkpt>
      <trkpt lat="45.66407" lon="4.71737">
        <ele>312.66617</ele>
        <time>2015-01-04T15:25:24Z</time>
      </trkpt>
      <trkpt lat="45.66403" lon="4.71735">
        <ele>312.66617</ele>
        <time>2015-01-04T15:25:29Z</time>
      </trkpt>
      <trkpt lat="45.66398" lon="4.71732">
        <ele>312.4374</ele>
        <time>2015-01-04T15:25:34Z</time>
      </trkpt>
      <trkpt lat="45.6639" lon="4.71728">
        <ele>312.4374</ele>
        <time>2015-01-04T15:25:39Z</time>
      </trkpt>
      <trkpt lat="45.66382" lon="4.71721">
        <ele>312.27054</ele>
        <time>2015-01-04T15:25:44Z</time>
      </trkpt>
      <trkpt lat="45.66374" lon="4.71717">
        <ele>312.27054</ele>
        <time>2015-01-04T15:25:49Z</time>
      </trkpt>
      <trkpt lat="45.66368" lon="4.71713">
        <ele>312.1756</ele>
        <time>2015-01-04T15:25:54Z</time>
      </trkpt>
      <trkpt lat="45.66364" lon="4.7171">
        <ele>312.1756</ele>
        <time>2015-01-04T15:25:59Z</time>
      </trkpt>
      <trkpt lat="45.66357" lon="4.71706">
        <ele>312.04642</ele>
        <time>2015-01-04T15:26:04Z</time>
      </trkpt>
      <trkpt lat="45.66352" lon="4.71701">
        <ele>312.04642</ele>
        <time>2015-01-04T15:26:09Z</time>
      </trkpt>
      <trkpt lat="45.66346" lon="4.71697">
        <ele>311.85693</ele>
        <time>2015-01-04T15:26:14Z</time>
      </trkpt>
      <trkpt lat="45.66339" lon="4.71692">
        <ele>311.85693</ele>
        <time>2015-01-04T15:26:19Z</time>
      </trkpt>
      <trkpt lat="45.66333" lon="4.71689">
        <ele>311.56866</ele>
        <time>2015-01-04T15:26:24Z</time>
      </trkpt>
      <trkpt lat="45.66328" lon="4.71688">
        <ele>311.56866</ele>
        <time>2015-01-04T15:26:29Z</time>
      </trkpt>
      <trkpt lat="45.66321" lon="4.71684">
        <ele>311.17523</ele>
        <time>2015-01-04T15:26:34Z</time>
      </trkpt>
      <trkpt lat="45.66318" lon="4.7168">
        <ele>311.17523</ele>
        <time>2015-01-04T15:26:39Z</time>
      </trkpt>
      <trkpt lat="45.66313" lon="4.71677">
        <ele>311.17523</ele>
        <time>2015-01-04T15:26:44Z</time>
      </trkpt>
      <trkpt lat="45.6631" lon="4.71673">
        <ele>310.4116</ele>
        <time>2015-01-04T15:26:49Z</time>
      </trkpt>
      <trkpt lat="45.66309" lon="4.71674">
        <ele>310.4116</ele>
        <time>2015-01-04T15:26:54Z</time>
      </trkpt>
      <trkpt lat="45.66306" lon="4.71673">
        <ele>310.4116</ele>
        <time>2015-01-04T15:26:59Z</time>
      </trkpt>
      <trkpt lat="45.66303" lon="4.71672">
        <ele>310.4116</ele>
        <time>2015-01-04T15:27:04Z</time>
      </trkpt>
      <trkpt lat="45.66299" lon="4.71674">
        <ele>309.49442</ele>
        <time>2015-01-04T15:27:09Z</time>
      </trkpt>
      <trkpt lat="45.66294" lon="4.71676">
        <ele>309.49442</ele>
        <time>2015-01-04T15:27:14Z</time>
      </trkpt>
      <trkpt lat="45.66289" lon="4.71676">
        <ele>308.6393</ele>
        <time>2015-01-04T15:27:19Z</time>
      </trkpt>
      <trkpt lat="45.66284" lon="4.71677">
        <ele>308.6393</ele>
        <time>2015-01-04T15:27:24Z</time>
      </trkpt>
      <trkpt lat="45.66281" lon="4.71677">
        <ele>308.6393</ele>
        <time>2015-01-04T15:27:29Z</time>
      </trkpt>
      <trkpt lat="45.66279" lon="4.71675">
        <ele>307.7</ele>
        <time>2015-01-04T15:27:34Z</time>
      </trkpt>
      <trkpt lat="45.66276" lon="4.71676">
        <ele>307.7</ele>
        <time>2015-01-04T15:27:39Z</time>
      </trkpt>
      <trkpt lat="45.66271" lon="4.71676">
        <ele>307.7</ele>
        <time>2015-01-04T15:27:44Z</time>
      </trkpt>
      <trkpt lat="45.66265" lon="4.71675">
        <ele>306.48364</ele>
        <time>2015-01-04T15:27:49Z</time>
      </trkpt>
      <trkpt lat="45.66261" lon="4.71674">
        <ele>306.48364</ele>
        <time>2015-01-04T15:27:54Z</time>
      </trkpt>
      <trkpt lat="45.66255" lon="4.71675">
        <ele>304.85544</ele>
        <time>2015-01-04T15:27:59Z</time>
      </trkpt>
      <trkpt lat="45.66252" lon="4.71675">
        <ele>304.85544</ele>
        <time>2015-01-04T15:28:04Z</time>
      </trkpt>
      <trkpt lat="45.66245" lon="4.71674">
        <ele>302.9367</ele>
        <time>2015-01-04T15:28:09Z</time>
      </trkpt>
      <trkpt lat="45.66242" lon="4.71674">
        <ele>302.9367</ele>
        <time>2015-01-04T15:28:14Z</time>
      </trkpt>
      <trkpt lat="45.66237" lon="4.71673">
        <ele>302.9367</ele>
        <time>2015-01-04T15:28:19Z</time>
      </trkpt>
      <trkpt lat="45.66234" lon="4.71673">
        <ele>300.59564</ele>
        <time>2015-01-04T15:28:24Z</time>
      </trkpt>
      <trkpt lat="45.6623" lon="4.7167">
        <ele>300.59564</ele>
        <time>2015-01-04T15:28:29Z</time>
      </trkpt>
      <trkpt lat="45.66226" lon="4.71668">
        <ele>300.59564</ele>
        <time>2015-01-04T15:28:34Z</time>
      </trkpt>
      <trkpt lat="45.66224" lon="4.7167">
        <ele>298.02832</ele>
        <time>2015-01-04T15:28:39Z</time>
      </trkpt>
      <trkpt lat="45.66221" lon="4.71674">
        <ele>298.02832</ele>
        <time>2015-01-04T15:28:44Z</time>
      </trkpt>
      <trkpt lat="45.66216" lon="4.71681">
        <ele>295.35928</ele>
        <time>2015-01-04T15:28:49Z</time>
      </trkpt>
      <trkpt lat="45.66214" lon="4.7168">
        <ele>295.35928</ele>
        <time>2015-01-04T15:28:54Z</time>
      </trkpt>
      <trkpt lat="45.66213" lon="4.71679">
        <ele>295.35928</ele>
        <time>2015-01-04T15:28:59Z</time>
      </trkpt>
      <trkpt lat="45.66213" lon="4.71672">
        <ele>295.35928</ele>
        <time>2015-01-04T15:29:04Z</time>
      </trkpt>
      <trkpt lat="45.66215" lon="4.7166">
        <ele>292.53125</ele>
        <time>2015-01-04T15:29:09Z</time>
      </trkpt>
      <trkpt lat="45.66214" lon="4.71659">
        <ele>292.53125</ele>
        <time>2015-01-04T15:29:14Z</time>
      </trkpt>
      <trkpt lat="45.66211" lon="4.71655">
        <ele>292.53125</ele>
        <time>2015-01-04T15:29:19Z</time>
      </trkpt>
      <trkpt lat="45.6621" lon="4.71654">
        <ele>292.53125</ele>
        <time>2015-01-04T15:29:24Z</time>
      </trkpt>
      <trkpt lat="45.6621" lon="4.71654">
        <ele>292.53125</ele>
        <time>2015-01-04T15:29:29Z</time>
      </trkpt>
      <trkpt lat="45.66211" lon="4.71654">
        <ele>292.53125</ele>
        <time>2015-01-04T15:30:09Z</time>
      </trkpt>
      <trkpt lat="45.66212" lon="4.7166">
        <ele>289.8374</ele>
        <time>2015-01-04T15:30:14Z</time>
      </trkpt>
      <trkpt lat="45.66213" lon="4.71667">
        <ele>289.8374</ele>
        <time>2015-01-04T15:30:19Z</time>
      </trkpt>
      <trkpt lat="45.66214" lon="4.71669">
        <ele>289.8374</ele>
        <time>2015-01-04T15:30:24Z</time>
      </trkpt>
      <trkpt lat="45.66214" lon="4.71672">
        <ele>289.8374</ele>
        <time>2015-01-04T15:30:34Z</time>
      </trkpt>
      <trkpt lat="45.66214" lon="4.71674">
        <ele>287.05884</ele>
        <time>2015-01-04T15:30:39Z</time>
      </trkpt>
      <trkpt lat="45.66214" lon="4.71677">
        <ele>287.05884</ele>
        <time>2015-01-04T15:30:44Z</time>
      </trkpt>
      <trkpt lat="45.66213" lon="4.7168">
        <ele>287.05884</ele>
        <time>2015-01-04T15:30:49Z</time>
      </trkpt>
      <trkpt lat="45.6621" lon="4.71686">
        <ele>284.2091</ele>
        <time>2015-01-04T15:30:54Z</time>
      </trkpt>
      <trkpt lat="45.66204" lon="4.71691">
        <ele>284.2091</ele>
        <time>2015-01-04T15:30:59Z</time>
      </trkpt>
      <trkpt lat="45.66203" lon="4.71693">
        <ele>284.2091</ele>
        <time>2015-01-04T15:31:04Z</time>
      </trkpt>
      <trkpt lat="45.66197" lon="4.71694">
        <ele>281.24316</ele>
        <time>2015-01-04T15:31:09Z</time>
      </trkpt>
      <trkpt lat="45.66193" lon="4.71697">
        <ele>281.24316</ele>
        <time>2015-01-04T15:31:14Z</time>
      </trkpt>
      <trkpt lat="45.66193" lon="4.71699">
        <ele>281.24316</ele>
        <time>2015-01-04T15:31:19Z</time>
      </trkpt>
      <trkpt lat="45.66191" lon="4.71705">
        <ele>278.35</ele>
        <time>2015-01-04T15:31:24Z</time>
      </trkpt>
      <trkpt lat="45.66191" lon="4.71705">
        <ele>278.35</ele>
        <time>2015-01-04T15:31:29Z</time>
      </trkpt>
      <trkpt lat="45.66183" lon="4.71717">
        <ele>275.68994</ele>
        <time>2015-01-04T15:31:34Z</time>
      </trkpt>
      <trkpt lat="45.66181" lon="4.71719">
        <ele>275.68994</ele>
        <time>2015-01-04T15:31:39Z</time>
      </trkpt>
      <trkpt lat="45.66178" lon="4.71727">
        <ele>275.68994</ele>
        <time>2015-01-04T15:31:44Z</time>
      </trkpt>
      <trkpt lat="45.66169" lon="4.71733">
        <ele>273.382</ele>
        <time>2015-01-04T15:31:49Z</time>
      </trkpt>
      <trkpt lat="45.66164" lon="4.71739">
        <ele>273.382</ele>
        <time>2015-01-04T15:31:54Z</time>
      </trkpt>
      <trkpt lat="45.66161" lon="4.71742">
        <ele>271.34778</ele>
        <time>2015-01-04T15:31:59Z</time>
      </trkpt>
      <trkpt lat="45.66152" lon="4.71748">
        <ele>269.61475</ele>
        <time>2015-01-04T15:32:04Z</time>
      </trkpt>
      <trkpt lat="45.66145" lon="4.71755">
        <ele>269.61475</ele>
        <time>2015-01-04T15:32:09Z</time>
      </trkpt>
      <trkpt lat="45.66138" lon="4.71759">
        <ele>268.26486</ele>
        <time>2015-01-04T15:32:14Z</time>
      </trkpt>
      <trkpt lat="45.66134" lon="4.71757">
        <ele>268.26486</ele>
        <time>2015-01-04T15:32:19Z</time>
      </trkpt>
      <trkpt lat="45.66129" lon="4.71753">
        <ele>267.08466</ele>
        <time>2015-01-04T15:32:24Z</time>
      </trkpt>
      <trkpt lat="45.66122" lon="4.71753">
        <ele>267.08466</ele>
        <time>2015-01-04T15:32:29Z</time>
      </trkpt>
      <trkpt lat="45.66121" lon="4.71754">
        <ele>267.08466</ele>
        <time>2015-01-04T15:32:34Z</time>
      </trkpt>
      <trkpt lat="45.66115" lon="4.71755">
        <ele>266.10626</ele>
        <time>2015-01-04T15:32:39Z</time>
      </trkpt>
      <trkpt lat="45.66113" lon="4.71756">
        <ele>266.10626</ele>
        <time>2015-01-04T15:32:44Z</time>
      </trkpt>
      <trkpt lat="45.66112" lon="4.71757">
        <ele>266.10626</ele>
        <time>2015-01-04T15:32:49Z</time>
      </trkpt>
      <trkpt lat="45.66109" lon="4.71758">
        <ele>266.10626</ele>
        <time>2015-01-04T15:32:54Z</time>
      </trkpt>
      <trkpt lat="45.66107" lon="4.71757">
        <ele>266.10626</ele>
        <time>2015-01-04T15:32:59Z</time>
      </trkpt>
      <trkpt lat="45.66104" lon="4.7176">
        <ele>265.3587</ele>
        <time>2015-01-04T15:33:04Z</time>
      </trkpt>
      <trkpt lat="45.66101" lon="4.71762">
        <ele>265.3587</ele>
        <time>2015-01-04T15:33:09Z</time>
      </trkpt>
      <trkpt lat="45.66097" lon="4.71765">
        <ele>265.3587</ele>
        <time>2015-01-04T15:33:14Z</time>
      </trkpt>
      <trkpt lat="45.66093" lon="4.71767">
        <ele>265.12753</ele>
        <time>2015-01-04T15:33:19Z</time>
      </trkpt>
      <trkpt lat="45.66092" lon="4.71767">
        <ele>265.12753</ele>
        <time>2015-01-04T15:33:24Z</time>
      </trkpt>
      <trkpt lat="45.6609" lon="4.71767">
        <ele>265.12753</ele>
        <time>2015-01-04T15:33:29Z</time>
      </trkpt>
      <trkpt lat="45.66089" lon="4.71766">
        <ele>265.12753</ele>
        <time>2015-01-04T15:33:34Z</time>
      </trkpt>
      <trkpt lat="45.66084" lon="4.71767">
        <ele>265.12753</ele>
        <time>2015-01-04T15:33:39Z</time>
      </trkpt>
      <trkpt lat="45.6608" lon="4.71764">
        <ele>264.94073</ele>
        <time>2015-01-04T15:33:44Z</time>
      </trkpt>
      <trkpt lat="45.66076" lon="4.71763">
        <ele>264.94073</ele>
        <time>2015-01-04T15:33:49Z</time>
      </trkpt>
      <trkpt lat="45.66072" lon="4.71762">
        <ele>264.94073</ele>
        <time>2015-01-04T15:33:54Z</time>
      </trkpt>
      <trkpt lat="45.66069" lon="4.71762">
        <ele>264.99487</ele>
        <time>2015-01-04T15:33:59Z</time>
      </trkpt>
      <trkpt lat="45.66065" lon="4.71761">
        <ele>264.99487</ele>
        <time>2015-01-04T15:34:04Z</time>
      </trkpt>
      <trkpt lat="45.66061" lon="4.7176">
        <ele>264.99487</ele>
        <time>2015-01-04T15:34:09Z</time>
      </trkpt>
      <trkpt lat="45.66057" lon="4.71757">
        <ele>265.26944</ele>
        <time>2015-01-04T15:34:14Z</time>
      </trkpt>
      <trkpt lat="45.66054" lon="4.71756">
        <ele>265.26944</ele>
        <time>2015-01-04T15:34:19Z</time>
      </trkpt>
      <trkpt lat="45.6605" lon="4.71754">
        <ele>265.26944</ele>
        <time>2015-01-04T15:34:24Z</time>
      </trkpt>
      <trkpt lat="45.66047" lon="4.71754">
        <ele>265.6728</ele>
        <time>2015-01-04T15:34:29Z</time>
      </trkpt>
      <trkpt lat="45.66042" lon="4.71754">
        <ele>265.6728</ele>
        <time>2015-01-04T15:34:34Z</time>
      </trkpt>
      <trkpt lat="45.66038" lon="4.71756">
        <ele>265.6728</ele>
        <time>2015-01-04T15:34:39Z</time>
      </trkpt>
      <trkpt lat="45.66033" lon="4.71758">
        <ele>266.27798</ele>
        <time>2015-01-04T15:34:44Z</time>
      </trkpt>
      <trkpt lat="45.6603" lon="4.71764">
        <ele>266.27798</ele>
        <time>2015-01-04T15:34:49Z</time>
      </trkpt>
      <trkpt lat="45.66025" lon="4.71767">
        <ele>266.99368</ele>
        <time>2015-01-04T15:34:54Z</time>
      </trkpt>
      <trkpt lat="45.66022" lon="4.7177">
        <ele>266.99368</ele>
        <time>2015-01-04T15:34:59Z</time>
      </trkpt>
      <trkpt lat="45.6602" lon="4.71774">
        <ele>266.99368</ele>
        <time>2015-01-04T15:35:04Z</time>
      </trkpt>
      <trkpt lat="45.66018" lon="4.71776">
        <ele>267.9798</ele>
        <time>2015-01-04T15:35:09Z</time>
      </trkpt>
      <trkpt lat="45.66014" lon="4.71781">
        <ele>267.9798</ele>
        <time>2015-01-04T15:35:14Z</time>
      </trkpt>
      <trkpt lat="45.66012" lon="4.71785">
        <ele>267.9798</ele>
        <time>2015-01-04T15:35:19Z</time>
      </trkpt>
      <trkpt lat="45.66007" lon="4.7179">
        <ele>269.355</ele>
        <time>2015-01-04T15:35:24Z</time>
      </trkpt>
      <trkpt lat="45.66004" lon="4.71794">
        <ele>269.355</ele>
        <time>2015-01-04T15:35:29Z</time>
      </trkpt>
      <trkpt lat="45.66001" lon="4.718">
        <ele>269.355</ele>
        <time>2015-01-04T15:35:34Z</time>
      </trkpt>
      <trkpt lat="45.66" lon="4.71805">
        <ele>271.08395</ele>
        <time>2015-01-04T15:35:39Z</time>
      </trkpt>
      <trkpt lat="45.65998" lon="4.71808">
        <ele>271.08395</ele>
        <time>2015-01-04T15:35:44Z</time>
      </trkpt>
      <trkpt lat="45.65996" lon="4.71811">
        <ele>271.08395</ele>
        <time>2015-01-04T15:35:49Z</time>
      </trkpt>
      <trkpt lat="45.65993" lon="4.71816">
        <ele>273.03214</ele>
        <time>2015-01-04T15:35:54Z</time>
      </trkpt>
      <trkpt lat="45.65987" lon="4.71826">
        <ele>275.00223</ele>
        <time>2015-01-04T15:35:59Z</time>
      </trkpt>
      <trkpt lat="45.65985" lon="4.71833">
        <ele>275.00223</ele>
        <time>2015-01-04T15:36:04Z</time>
      </trkpt>
      <trkpt lat="45.65982" lon="4.71838">
        <ele>276.96994</ele>
        <time>2015-01-04T15:36:09Z</time>
      </trkpt>
      <trkpt lat="45.6598" lon="4.71842">
        <ele>276.96994</ele>
        <time>2015-01-04T15:36:14Z</time>
      </trkpt>
      <trkpt lat="45.65979" lon="4.71844">
        <ele>276.96994</ele>
        <time>2015-01-04T15:36:19Z</time>
      </trkpt>
      <trkpt lat="45.65979" lon="4.71847">
        <ele>276.96994</ele>
        <time>2015-01-04T15:36:24Z</time>
      </trkpt>
      <trkpt lat="45.65977" lon="4.71853">
        <ele>278.9273</ele>
        <time>2015-01-04T15:36:29Z</time>
      </trkpt>
      <trkpt lat="45.65975" lon="4.71861">
        <ele>278.9273</ele>
        <time>2015-01-04T15:36:34Z</time>
      </trkpt>
      <trkpt lat="45.65973" lon="4.7187">
        <ele>280.85263</ele>
        <time>2015-01-04T15:36:39Z</time>
      </trkpt>
      <trkpt lat="45.65973" lon="4.71876">
        <ele>280.85263</ele>
        <time>2015-01-04T15:36:44Z</time>
      </trkpt>
      <trkpt lat="45.65972" lon="4.71884">
        <ele>282.6972</ele>
        <time>2015-01-04T15:36:49Z</time>
      </trkpt>
      <trkpt lat="45.65972" lon="4.71885">
        <ele>282.6972</ele>
        <time>2015-01-04T15:36:54Z</time>
      </trkpt>
      <trkpt lat="45.65972" lon="4.71885">
        <ele>282.6972</ele>
        <time>2015-01-04T15:36:59Z</time>
      </trkpt>
      <trkpt lat="45.65973" lon="4.71886">
        <ele>282.6972</ele>
        <time>2015-01-04T15:37:04Z</time>
      </trkpt>
      <trkpt lat="45.65973" lon="4.71886">
        <ele>282.6972</ele>
        <time>2015-01-04T15:37:09Z</time>
      </trkpt>
      <trkpt lat="45.65973" lon="4.71887">
        <ele>282.6972</ele>
        <time>2015-01-04T15:37:14Z</time>
      </trkpt>
      <trkpt lat="45.65972" lon="4.71888">
        <ele>282.6972</ele>
        <time>2015-01-04T15:37:19Z</time>
      </trkpt>
      <trkpt lat="45.65971" lon="4.71889">
        <ele>282.6972</ele>
        <time>2015-01-04T15:37:24Z</time>
      </trkpt>
      <trkpt lat="45.65972" lon="4.71887">
        <ele>282.6972</ele>
        <time>2015-01-04T15:37:29Z</time>
      </trkpt>
      <trkpt lat="45.65974" lon="4.71887">
        <ele>282.6972</ele>
        <time>2015-01-04T15:37:34Z</time>
      </trkpt>
      <trkpt lat="45.65973" lon="4.71888">
        <ele>284.70444</ele>
        <time>2015-01-04T15:37:39Z</time>
      </trkpt>
      <trkpt lat="45.65972" lon="4.71887">
        <ele>284.70444</ele>
        <time>2015-01-04T15:37:44Z</time>
      </trkpt>
      <trkpt lat="45.65971" lon="4.71889">
        <ele>284.70444</ele>
        <time>2015-01-04T15:37:49Z</time>
      </trkpt>
      <trkpt lat="45.65971" lon="4.7189">
        <ele>284.70444</ele>
        <time>2015-01-04T15:37:54Z</time>
      </trkpt>
      <trkpt lat="45.65971" lon="4.7189">
        <ele>284.70444</ele>
        <time>2015-01-04T15:37:59Z</time>
      </trkpt>
      <trkpt lat="45.65971" lon="4.71889">
        <ele>284.70444</ele>
        <time>2015-01-04T15:38:04Z</time>
      </trkpt>
      <trkpt lat="45.65971" lon="4.7189">
        <ele>284.70444</ele>
        <time>2015-01-04T15:38:09Z</time>
      </trkpt>
    </trkseg>
  </trk>
</gpx>